<?xml version="1.0" encoding="UTF-8" standalone="no" ?>
<gpx xmlns="http://www.topografix.com/GPX/1/1" xmlns:xsi="http://www.w3.org/2001/XMLSchema-instance" xsi:schemaLocation="http://www.topografix.com/GPX/1/1 http://www.topografix.com/GPX/1/1/gpx.xsd" version="1.1" creator="VisuGPX - https://www.visugpx.com">
  <metadata>
    <name>Boucle Le Pellerin - St Mars -etang de la beusse</name>
  </metadata>
  <trk>
    <name><![CDATA[Boucle Le Pellerin - St Mars -etang de la beusse_1]]></name>
    <trkseg>
      <trkpt lat="47.19959" lon="-1.75991">
        <ele>12.6</ele>
        <time>2024-04-13T06:02:23Z</time>
      </trkpt>
      <trkpt lat="47.19956" lon="-1.75991">
        <ele>12.6</ele>
        <time>2024-04-13T06:02:24Z</time>
      </trkpt>
      <trkpt lat="47.19946" lon="-1.75994">
        <ele>12.8</ele>
        <time>2024-04-13T06:02:27Z</time>
      </trkpt>
      <trkpt lat="47.19936" lon="-1.75996">
        <ele>13.2</ele>
        <time>2024-04-13T06:02:30Z</time>
      </trkpt>
      <trkpt lat="47.19922" lon="-1.75999">
        <ele>13.4</ele>
        <time>2024-04-13T06:02:34Z</time>
      </trkpt>
      <trkpt lat="47.19915" lon="-1.76001">
        <ele>13.8</ele>
        <time>2024-04-13T06:02:36Z</time>
      </trkpt>
      <trkpt lat="47.19887" lon="-1.75999">
        <ele>14.4</ele>
        <time>2024-04-13T06:02:44Z</time>
      </trkpt>
      <trkpt lat="47.19877" lon="-1.75996">
        <ele>14.6</ele>
        <time>2024-04-13T06:02:47Z</time>
      </trkpt>
      <trkpt lat="47.19871" lon="-1.75993">
        <ele>15</ele>
        <time>2024-04-13T06:02:49Z</time>
      </trkpt>
      <trkpt lat="47.19861" lon="-1.75989">
        <ele>15.4</ele>
        <time>2024-04-13T06:02:52Z</time>
      </trkpt>
      <trkpt lat="47.19858" lon="-1.75987">
        <ele>15.6</ele>
        <time>2024-04-13T06:02:53Z</time>
      </trkpt>
      <trkpt lat="47.19855" lon="-1.75985">
        <ele>15.6</ele>
        <time>2024-04-13T06:02:54Z</time>
      </trkpt>
      <trkpt lat="47.19851" lon="-1.75983">
        <ele>15.8</ele>
        <time>2024-04-13T06:02:55Z</time>
      </trkpt>
      <trkpt lat="47.19845" lon="-1.7598">
        <ele>16</ele>
        <time>2024-04-13T06:02:57Z</time>
      </trkpt>
      <trkpt lat="47.19841" lon="-1.75979">
        <ele>16</ele>
        <time>2024-04-13T06:02:58Z</time>
      </trkpt>
      <trkpt lat="47.19834" lon="-1.75976">
        <ele>16.4</ele>
        <time>2024-04-13T06:03:00Z</time>
      </trkpt>
      <trkpt lat="47.19824" lon="-1.75971">
        <ele>16.8</ele>
        <time>2024-04-13T06:03:03Z</time>
      </trkpt>
      <trkpt lat="47.19821" lon="-1.75969">
        <ele>16.8</ele>
        <time>2024-04-13T06:03:04Z</time>
      </trkpt>
      <trkpt lat="47.19815" lon="-1.75965">
        <ele>17.2</ele>
        <time>2024-04-13T06:03:06Z</time>
      </trkpt>
      <trkpt lat="47.19799" lon="-1.75955">
        <ele>18.2</ele>
        <time>2024-04-13T06:03:11Z</time>
      </trkpt>
      <trkpt lat="47.19792" lon="-1.75951">
        <ele>18.4</ele>
        <time>2024-04-13T06:03:13Z</time>
      </trkpt>
      <trkpt lat="47.19767" lon="-1.75932">
        <ele>19.2</ele>
        <time>2024-04-13T06:03:21Z</time>
      </trkpt>
      <trkpt lat="47.19764" lon="-1.75929">
        <ele>19.2</ele>
        <time>2024-04-13T06:03:22Z</time>
      </trkpt>
      <trkpt lat="47.19745" lon="-1.75904">
        <ele>20.4</ele>
        <time>2024-04-13T06:03:29Z</time>
      </trkpt>
      <trkpt lat="47.19742" lon="-1.759">
        <ele>20.4</ele>
        <time>2024-04-13T06:03:30Z</time>
      </trkpt>
      <trkpt lat="47.1972" lon="-1.75867">
        <ele>21.2</ele>
        <time>2024-04-13T06:03:38Z</time>
      </trkpt>
      <trkpt lat="47.19718" lon="-1.75862">
        <ele>21.2</ele>
        <time>2024-04-13T06:03:39Z</time>
      </trkpt>
      <trkpt lat="47.19705" lon="-1.75842">
        <ele>21.4</ele>
        <time>2024-04-13T06:03:44Z</time>
      </trkpt>
      <trkpt lat="47.19698" lon="-1.75828">
        <ele>21.4</ele>
        <time>2024-04-13T06:03:47Z</time>
      </trkpt>
      <trkpt lat="47.1969" lon="-1.75813">
        <ele>21.6</ele>
        <time>2024-04-13T06:03:50Z</time>
      </trkpt>
      <trkpt lat="47.19681" lon="-1.75799">
        <ele>21.8</ele>
        <time>2024-04-13T06:03:53Z</time>
      </trkpt>
      <trkpt lat="47.1967" lon="-1.75787">
        <ele>22</ele>
        <time>2024-04-13T06:03:56Z</time>
      </trkpt>
      <trkpt lat="47.19655" lon="-1.75774">
        <ele>22.2</ele>
        <time>2024-04-13T06:04:00Z</time>
      </trkpt>
      <trkpt lat="47.19615" lon="-1.75743">
        <ele>22.4</ele>
        <time>2024-04-13T06:04:10Z</time>
      </trkpt>
      <trkpt lat="47.19585" lon="-1.75711">
        <ele>22.4</ele>
        <time>2024-04-13T06:04:18Z</time>
      </trkpt>
      <trkpt lat="47.19581" lon="-1.75708">
        <ele>22.4</ele>
        <time>2024-04-13T06:04:19Z</time>
      </trkpt>
      <trkpt lat="47.19554" lon="-1.75686">
        <ele>22.8</ele>
        <time>2024-04-13T06:04:26Z</time>
      </trkpt>
      <trkpt lat="47.1955" lon="-1.75684">
        <ele>22.8</ele>
        <time>2024-04-13T06:04:27Z</time>
      </trkpt>
      <trkpt lat="47.19516" lon="-1.75669">
        <ele>23.4</ele>
        <time>2024-04-13T06:04:35Z</time>
      </trkpt>
      <trkpt lat="47.19512" lon="-1.75667">
        <ele>23.4</ele>
        <time>2024-04-13T06:04:36Z</time>
      </trkpt>
      <trkpt lat="47.1947" lon="-1.7565">
        <ele>23.6</ele>
        <time>2024-04-13T06:04:45Z</time>
      </trkpt>
      <trkpt lat="47.19451" lon="-1.75641">
        <ele>23.8</ele>
        <time>2024-04-13T06:04:49Z</time>
      </trkpt>
      <trkpt lat="47.19427" lon="-1.75629">
        <ele>23.8</ele>
        <time>2024-04-13T06:04:54Z</time>
      </trkpt>
      <trkpt lat="47.19397" lon="-1.75619">
        <ele>23.8</ele>
        <time>2024-04-13T06:05:00Z</time>
      </trkpt>
      <trkpt lat="47.19362" lon="-1.756">
        <ele>23.2</ele>
        <time>2024-04-13T06:05:07Z</time>
      </trkpt>
      <trkpt lat="47.19352" lon="-1.75594">
        <ele>23.2</ele>
        <time>2024-04-13T06:05:09Z</time>
      </trkpt>
      <trkpt lat="47.19342" lon="-1.75589">
        <ele>23.2</ele>
        <time>2024-04-13T06:05:11Z</time>
      </trkpt>
      <trkpt lat="47.19331" lon="-1.75589">
        <ele>23</ele>
        <time>2024-04-13T06:05:13Z</time>
      </trkpt>
      <trkpt lat="47.19315" lon="-1.75592">
        <ele>23</ele>
        <time>2024-04-13T06:05:16Z</time>
      </trkpt>
      <trkpt lat="47.19311" lon="-1.7559">
        <ele>23</ele>
        <time>2024-04-13T06:05:17Z</time>
      </trkpt>
      <trkpt lat="47.19306" lon="-1.75587">
        <ele>23.2</ele>
        <time>2024-04-13T06:05:18Z</time>
      </trkpt>
      <trkpt lat="47.19287" lon="-1.75572">
        <ele>23.4</ele>
        <time>2024-04-13T06:05:22Z</time>
      </trkpt>
      <trkpt lat="47.19247" lon="-1.75554">
        <ele>23.2</ele>
        <time>2024-04-13T06:05:30Z</time>
      </trkpt>
      <trkpt lat="47.19192" lon="-1.75537">
        <ele>24</ele>
        <time>2024-04-13T06:05:41Z</time>
      </trkpt>
      <trkpt lat="47.19167" lon="-1.75534">
        <ele>24</ele>
        <time>2024-04-13T06:05:46Z</time>
      </trkpt>
      <trkpt lat="47.19137" lon="-1.75527">
        <ele>24.2</ele>
        <time>2024-04-13T06:05:52Z</time>
      </trkpt>
      <trkpt lat="47.19127" lon="-1.75522">
        <ele>24.6</ele>
        <time>2024-04-13T06:05:54Z</time>
      </trkpt>
      <trkpt lat="47.19098" lon="-1.75507">
        <ele>24.6</ele>
        <time>2024-04-13T06:06:00Z</time>
      </trkpt>
      <trkpt lat="47.19047" lon="-1.75475">
        <ele>24.8</ele>
        <time>2024-04-13T06:06:10Z</time>
      </trkpt>
      <trkpt lat="47.18994" lon="-1.7545">
        <ele>25</ele>
        <time>2024-04-13T06:06:20Z</time>
      </trkpt>
      <trkpt lat="47.18967" lon="-1.75439">
        <ele>25</ele>
        <time>2024-04-13T06:06:25Z</time>
      </trkpt>
      <trkpt lat="47.18956" lon="-1.75434">
        <ele>25</ele>
        <time>2024-04-13T06:06:27Z</time>
      </trkpt>
      <trkpt lat="47.18914" lon="-1.75411">
        <ele>25.2</ele>
        <time>2024-04-13T06:06:35Z</time>
      </trkpt>
      <trkpt lat="47.18875" lon="-1.75401">
        <ele>24.8</ele>
        <time>2024-04-13T06:06:42Z</time>
      </trkpt>
      <trkpt lat="47.18822" lon="-1.75398">
        <ele>25</ele>
        <time>2024-04-13T06:06:51Z</time>
      </trkpt>
      <trkpt lat="47.18767" lon="-1.75398">
        <ele>25.4</ele>
        <time>2024-04-13T06:07:01Z</time>
      </trkpt>
      <trkpt lat="47.18761" lon="-1.75397">
        <ele>25.4</ele>
        <time>2024-04-13T06:07:02Z</time>
      </trkpt>
      <trkpt lat="47.18705" lon="-1.754">
        <ele>25.4</ele>
        <time>2024-04-13T06:07:12Z</time>
      </trkpt>
      <trkpt lat="47.18699" lon="-1.754">
        <ele>25.4</ele>
        <time>2024-04-13T06:07:13Z</time>
      </trkpt>
      <trkpt lat="47.1864" lon="-1.75403">
        <ele>25.4</ele>
        <time>2024-04-13T06:07:23Z</time>
      </trkpt>
      <trkpt lat="47.18634" lon="-1.75403">
        <ele>25.2</ele>
        <time>2024-04-13T06:07:24Z</time>
      </trkpt>
      <trkpt lat="47.18628" lon="-1.75403">
        <ele>25.2</ele>
        <time>2024-04-13T06:07:25Z</time>
      </trkpt>
      <trkpt lat="47.18593" lon="-1.75405">
        <ele>24.2</ele>
        <time>2024-04-13T06:07:30Z</time>
      </trkpt>
      <trkpt lat="47.18577" lon="-1.75406">
        <ele>23.6</ele>
        <time>2024-04-13T06:07:32Z</time>
      </trkpt>
      <trkpt lat="47.18569" lon="-1.75406">
        <ele>23.2</ele>
        <time>2024-04-13T06:07:33Z</time>
      </trkpt>
      <trkpt lat="47.1856" lon="-1.75406">
        <ele>22.8</ele>
        <time>2024-04-13T06:07:34Z</time>
      </trkpt>
      <trkpt lat="47.18543" lon="-1.75408">
        <ele>22.2</ele>
        <time>2024-04-13T06:07:36Z</time>
      </trkpt>
      <trkpt lat="47.18518" lon="-1.7541">
        <ele>21</ele>
        <time>2024-04-13T06:07:39Z</time>
      </trkpt>
      <trkpt lat="47.18494" lon="-1.75411">
        <ele>20</ele>
        <time>2024-04-13T06:07:42Z</time>
      </trkpt>
      <trkpt lat="47.18478" lon="-1.75413">
        <ele>19.4</ele>
        <time>2024-04-13T06:07:44Z</time>
      </trkpt>
      <trkpt lat="47.18472" lon="-1.75411">
        <ele>19.2</ele>
        <time>2024-04-13T06:07:45Z</time>
      </trkpt>
      <trkpt lat="47.18464" lon="-1.75411">
        <ele>19.2</ele>
        <time>2024-04-13T06:07:46Z</time>
      </trkpt>
      <trkpt lat="47.18457" lon="-1.75411">
        <ele>19</ele>
        <time>2024-04-13T06:07:47Z</time>
      </trkpt>
      <trkpt lat="47.1845" lon="-1.75411">
        <ele>18.8</ele>
        <time>2024-04-13T06:07:48Z</time>
      </trkpt>
      <trkpt lat="47.18443" lon="-1.75412">
        <ele>18.8</ele>
        <time>2024-04-13T06:07:49Z</time>
      </trkpt>
      <trkpt lat="47.18423" lon="-1.75413">
        <ele>18.6</ele>
        <time>2024-04-13T06:07:52Z</time>
      </trkpt>
      <trkpt lat="47.18407" lon="-1.75421">
        <ele>18.6</ele>
        <time>2024-04-13T06:07:55Z</time>
      </trkpt>
      <trkpt lat="47.18397" lon="-1.75428">
        <ele>18.8</ele>
        <time>2024-04-13T06:07:57Z</time>
      </trkpt>
      <trkpt lat="47.18387" lon="-1.75427">
        <ele>18.8</ele>
        <time>2024-04-13T06:07:59Z</time>
      </trkpt>
      <trkpt lat="47.18382" lon="-1.75427">
        <ele>19</ele>
        <time>2024-04-13T06:08:00Z</time>
      </trkpt>
      <trkpt lat="47.18377" lon="-1.75427">
        <ele>19</ele>
        <time>2024-04-13T06:08:01Z</time>
      </trkpt>
      <trkpt lat="47.18372" lon="-1.75427">
        <ele>19.4</ele>
        <time>2024-04-13T06:08:02Z</time>
      </trkpt>
      <trkpt lat="47.18351" lon="-1.75431">
        <ele>19.6</ele>
        <time>2024-04-13T06:08:06Z</time>
      </trkpt>
      <trkpt lat="47.18336" lon="-1.75435">
        <ele>20</ele>
        <time>2024-04-13T06:08:09Z</time>
      </trkpt>
      <trkpt lat="47.18296" lon="-1.75449">
        <ele>20.4</ele>
        <time>2024-04-13T06:08:17Z</time>
      </trkpt>
      <trkpt lat="47.18241" lon="-1.75468">
        <ele>20.6</ele>
        <time>2024-04-13T06:08:27Z</time>
      </trkpt>
      <trkpt lat="47.18196" lon="-1.75484">
        <ele>20.8</ele>
        <time>2024-04-13T06:08:35Z</time>
      </trkpt>
      <trkpt lat="47.18173" lon="-1.75491">
        <ele>21</ele>
        <time>2024-04-13T06:08:39Z</time>
      </trkpt>
      <trkpt lat="47.18157" lon="-1.75497">
        <ele>21.2</ele>
        <time>2024-04-13T06:08:42Z</time>
      </trkpt>
      <trkpt lat="47.18132" lon="-1.75506">
        <ele>21.4</ele>
        <time>2024-04-13T06:08:47Z</time>
      </trkpt>
      <trkpt lat="47.18111" lon="-1.75514">
        <ele>21.6</ele>
        <time>2024-04-13T06:08:51Z</time>
      </trkpt>
      <trkpt lat="47.18106" lon="-1.75516">
        <ele>21.8</ele>
        <time>2024-04-13T06:08:52Z</time>
      </trkpt>
      <trkpt lat="47.18101" lon="-1.75518">
        <ele>21.8</ele>
        <time>2024-04-13T06:08:53Z</time>
      </trkpt>
      <trkpt lat="47.18096" lon="-1.75519">
        <ele>21.8</ele>
        <time>2024-04-13T06:08:54Z</time>
      </trkpt>
      <trkpt lat="47.18075" lon="-1.75527">
        <ele>22</ele>
        <time>2024-04-13T06:08:58Z</time>
      </trkpt>
      <trkpt lat="47.18054" lon="-1.75535">
        <ele>22</ele>
        <time>2024-04-13T06:09:02Z</time>
      </trkpt>
      <trkpt lat="47.18029" lon="-1.75542">
        <ele>22.8</ele>
        <time>2024-04-13T06:09:07Z</time>
      </trkpt>
      <trkpt lat="47.18008" lon="-1.75549">
        <ele>23</ele>
        <time>2024-04-13T06:09:11Z</time>
      </trkpt>
      <trkpt lat="47.17988" lon="-1.75556">
        <ele>23</ele>
        <time>2024-04-13T06:09:15Z</time>
      </trkpt>
      <trkpt lat="47.17973" lon="-1.75561">
        <ele>23</ele>
        <time>2024-04-13T06:09:18Z</time>
      </trkpt>
      <trkpt lat="47.17963" lon="-1.75565">
        <ele>23</ele>
        <time>2024-04-13T06:09:20Z</time>
      </trkpt>
      <trkpt lat="47.17927" lon="-1.75578">
        <ele>23.2</ele>
        <time>2024-04-13T06:09:27Z</time>
      </trkpt>
      <trkpt lat="47.17873" lon="-1.75592">
        <ele>23</ele>
        <time>2024-04-13T06:09:37Z</time>
      </trkpt>
      <trkpt lat="47.17827" lon="-1.75598">
        <ele>22.6</ele>
        <time>2024-04-13T06:09:45Z</time>
      </trkpt>
      <trkpt lat="47.17816" lon="-1.75599">
        <ele>22.4</ele>
        <time>2024-04-13T06:09:47Z</time>
      </trkpt>
      <trkpt lat="47.17792" lon="-1.75602">
        <ele>22</ele>
        <time>2024-04-13T06:09:51Z</time>
      </trkpt>
      <trkpt lat="47.17766" lon="-1.75605">
        <ele>21.4</ele>
        <time>2024-04-13T06:09:55Z</time>
      </trkpt>
      <trkpt lat="47.1774" lon="-1.75609">
        <ele>21</ele>
        <time>2024-04-13T06:09:59Z</time>
      </trkpt>
      <trkpt lat="47.17706" lon="-1.7561">
        <ele>20.2</ele>
        <time>2024-04-13T06:10:04Z</time>
      </trkpt>
      <trkpt lat="47.17686" lon="-1.75614">
        <ele>19.8</ele>
        <time>2024-04-13T06:10:07Z</time>
      </trkpt>
      <trkpt lat="47.17662" lon="-1.75623">
        <ele>19</ele>
        <time>2024-04-13T06:10:11Z</time>
      </trkpt>
      <trkpt lat="47.17649" lon="-1.75631">
        <ele>18.6</ele>
        <time>2024-04-13T06:10:13Z</time>
      </trkpt>
      <trkpt lat="47.17628" lon="-1.75645">
        <ele>17.6</ele>
        <time>2024-04-13T06:10:16Z</time>
      </trkpt>
      <trkpt lat="47.17607" lon="-1.75663">
        <ele>16.4</ele>
        <time>2024-04-13T06:10:19Z</time>
      </trkpt>
      <trkpt lat="47.17584" lon="-1.75685">
        <ele>15</ele>
        <time>2024-04-13T06:10:22Z</time>
      </trkpt>
      <trkpt lat="47.17561" lon="-1.75701">
        <ele>14.2</ele>
        <time>2024-04-13T06:10:25Z</time>
      </trkpt>
      <trkpt lat="47.17553" lon="-1.75704">
        <ele>13.8</ele>
        <time>2024-04-13T06:10:26Z</time>
      </trkpt>
      <trkpt lat="47.17546" lon="-1.75704">
        <ele>13.6</ele>
        <time>2024-04-13T06:10:27Z</time>
      </trkpt>
      <trkpt lat="47.17532" lon="-1.75696">
        <ele>12.2</ele>
        <time>2024-04-13T06:10:29Z</time>
      </trkpt>
      <trkpt lat="47.17521" lon="-1.75679">
        <ele>11.6</ele>
        <time>2024-04-13T06:10:31Z</time>
      </trkpt>
      <trkpt lat="47.17517" lon="-1.75671">
        <ele>11.4</ele>
        <time>2024-04-13T06:10:32Z</time>
      </trkpt>
      <trkpt lat="47.17509" lon="-1.75653">
        <ele>11.4</ele>
        <time>2024-04-13T06:10:34Z</time>
      </trkpt>
      <trkpt lat="47.17502" lon="-1.75633">
        <ele>11.2</ele>
        <time>2024-04-13T06:10:36Z</time>
      </trkpt>
      <trkpt lat="47.17497" lon="-1.75613">
        <ele>11.2</ele>
        <time>2024-04-13T06:10:38Z</time>
      </trkpt>
      <trkpt lat="47.17478" lon="-1.75542">
        <ele>11.2</ele>
        <time>2024-04-13T06:10:46Z</time>
      </trkpt>
      <trkpt lat="47.17462" lon="-1.75483">
        <ele>12</ele>
        <time>2024-04-13T06:10:54Z</time>
      </trkpt>
      <trkpt lat="47.17458" lon="-1.7547">
        <ele>12.4</ele>
        <time>2024-04-13T06:10:56Z</time>
      </trkpt>
      <trkpt lat="47.17447" lon="-1.75434">
        <ele>13.4</ele>
        <time>2024-04-13T06:11:02Z</time>
      </trkpt>
      <trkpt lat="47.17445" lon="-1.75429">
        <ele>13.8</ele>
        <time>2024-04-13T06:11:03Z</time>
      </trkpt>
      <trkpt lat="47.17435" lon="-1.75406">
        <ele>14.6</ele>
        <time>2024-04-13T06:11:07Z</time>
      </trkpt>
      <trkpt lat="47.17421" lon="-1.75372">
        <ele>15.4</ele>
        <time>2024-04-13T06:11:13Z</time>
      </trkpt>
      <trkpt lat="47.17419" lon="-1.75367">
        <ele>15.6</ele>
        <time>2024-04-13T06:11:14Z</time>
      </trkpt>
      <trkpt lat="47.17405" lon="-1.75334">
        <ele>16.8</ele>
        <time>2024-04-13T06:11:20Z</time>
      </trkpt>
      <trkpt lat="47.17402" lon="-1.75329">
        <ele>17.2</ele>
        <time>2024-04-13T06:11:21Z</time>
      </trkpt>
      <trkpt lat="47.17396" lon="-1.75313">
        <ele>18</ele>
        <time>2024-04-13T06:11:24Z</time>
      </trkpt>
      <trkpt lat="47.17381" lon="-1.7528">
        <ele>18.8</ele>
        <time>2024-04-13T06:11:31Z</time>
      </trkpt>
      <trkpt lat="47.17379" lon="-1.75274">
        <ele>19</ele>
        <time>2024-04-13T06:11:32Z</time>
      </trkpt>
      <trkpt lat="47.17363" lon="-1.75241">
        <ele>20.2</ele>
        <time>2024-04-13T06:11:39Z</time>
      </trkpt>
      <trkpt lat="47.17359" lon="-1.75231">
        <ele>20.4</ele>
        <time>2024-04-13T06:11:41Z</time>
      </trkpt>
      <trkpt lat="47.17345" lon="-1.75202">
        <ele>21.2</ele>
        <time>2024-04-13T06:11:47Z</time>
      </trkpt>
      <trkpt lat="47.17337" lon="-1.75184">
        <ele>21.6</ele>
        <time>2024-04-13T06:11:51Z</time>
      </trkpt>
      <trkpt lat="47.17328" lon="-1.75164">
        <ele>22.2</ele>
        <time>2024-04-13T06:11:55Z</time>
      </trkpt>
      <trkpt lat="47.17316" lon="-1.75136">
        <ele>22.6</ele>
        <time>2024-04-13T06:12:00Z</time>
      </trkpt>
      <trkpt lat="47.17292" lon="-1.75084">
        <ele>22.8</ele>
        <time>2024-04-13T06:12:09Z</time>
      </trkpt>
      <trkpt lat="47.17275" lon="-1.75046">
        <ele>23.2</ele>
        <time>2024-04-13T06:12:15Z</time>
      </trkpt>
      <trkpt lat="47.17264" lon="-1.75021">
        <ele>23.4</ele>
        <time>2024-04-13T06:12:19Z</time>
      </trkpt>
      <trkpt lat="47.1724" lon="-1.74966">
        <ele>23.2</ele>
        <time>2024-04-13T06:12:27Z</time>
      </trkpt>
      <trkpt lat="47.17227" lon="-1.74938">
        <ele>23</ele>
        <time>2024-04-13T06:12:31Z</time>
      </trkpt>
      <trkpt lat="47.17195" lon="-1.74868">
        <ele>22.8</ele>
        <time>2024-04-13T06:12:41Z</time>
      </trkpt>
      <trkpt lat="47.17182" lon="-1.74837">
        <ele>22.2</ele>
        <time>2024-04-13T06:12:45Z</time>
      </trkpt>
      <trkpt lat="47.17174" lon="-1.7482">
        <ele>21.8</ele>
        <time>2024-04-13T06:12:47Z</time>
      </trkpt>
      <trkpt lat="47.17166" lon="-1.74805">
        <ele>21.2</ele>
        <time>2024-04-13T06:12:49Z</time>
      </trkpt>
      <trkpt lat="47.17162" lon="-1.74796">
        <ele>20.8</ele>
        <time>2024-04-13T06:12:50Z</time>
      </trkpt>
      <trkpt lat="47.17154" lon="-1.74767">
        <ele>20.2</ele>
        <time>2024-04-13T06:12:53Z</time>
      </trkpt>
      <trkpt lat="47.17153" lon="-1.74757">
        <ele>20</ele>
        <time>2024-04-13T06:12:54Z</time>
      </trkpt>
      <trkpt lat="47.17152" lon="-1.74748">
        <ele>19.2</ele>
        <time>2024-04-13T06:12:55Z</time>
      </trkpt>
      <trkpt lat="47.17151" lon="-1.74729">
        <ele>17.8</ele>
        <time>2024-04-13T06:12:57Z</time>
      </trkpt>
      <trkpt lat="47.17151" lon="-1.74709">
        <ele>17.2</ele>
        <time>2024-04-13T06:12:59Z</time>
      </trkpt>
      <trkpt lat="47.1715" lon="-1.74687">
        <ele>16.6</ele>
        <time>2024-04-13T06:13:01Z</time>
      </trkpt>
      <trkpt lat="47.17147" lon="-1.74653">
        <ele>15.4</ele>
        <time>2024-04-13T06:13:04Z</time>
      </trkpt>
      <trkpt lat="47.17146" lon="-1.74642">
        <ele>15.2</ele>
        <time>2024-04-13T06:13:05Z</time>
      </trkpt>
      <trkpt lat="47.17145" lon="-1.7463">
        <ele>14.6</ele>
        <time>2024-04-13T06:13:06Z</time>
      </trkpt>
      <trkpt lat="47.17144" lon="-1.74619">
        <ele>14.4</ele>
        <time>2024-04-13T06:13:07Z</time>
      </trkpt>
      <trkpt lat="47.17134" lon="-1.74571">
        <ele>13</ele>
        <time>2024-04-13T06:13:11Z</time>
      </trkpt>
      <trkpt lat="47.17128" lon="-1.74547">
        <ele>12</ele>
        <time>2024-04-13T06:13:13Z</time>
      </trkpt>
      <trkpt lat="47.17123" lon="-1.74521">
        <ele>10.8</ele>
        <time>2024-04-13T06:13:15Z</time>
      </trkpt>
      <trkpt lat="47.17113" lon="-1.7448">
        <ele>10.2</ele>
        <time>2024-04-13T06:13:18Z</time>
      </trkpt>
      <trkpt lat="47.1711" lon="-1.74466">
        <ele>9.6</ele>
        <time>2024-04-13T06:13:19Z</time>
      </trkpt>
      <trkpt lat="47.17103" lon="-1.74439">
        <ele>8.8</ele>
        <time>2024-04-13T06:13:21Z</time>
      </trkpt>
      <trkpt lat="47.171" lon="-1.74424">
        <ele>8.2</ele>
        <time>2024-04-13T06:13:22Z</time>
      </trkpt>
      <trkpt lat="47.1709" lon="-1.7438">
        <ele>7</ele>
        <time>2024-04-13T06:13:25Z</time>
      </trkpt>
      <trkpt lat="47.17084" lon="-1.74351">
        <ele>6.4</ele>
        <time>2024-04-13T06:13:27Z</time>
      </trkpt>
      <trkpt lat="47.17081" lon="-1.74336">
        <ele>5.6</ele>
        <time>2024-04-13T06:13:28Z</time>
      </trkpt>
      <trkpt lat="47.17073" lon="-1.74295">
        <ele>4.6</ele>
        <time>2024-04-13T06:13:31Z</time>
      </trkpt>
      <trkpt lat="47.17065" lon="-1.74258">
        <ele>4.2</ele>
        <time>2024-04-13T06:13:34Z</time>
      </trkpt>
      <trkpt lat="47.1706" lon="-1.74233">
        <ele>4</ele>
        <time>2024-04-13T06:13:36Z</time>
      </trkpt>
      <trkpt lat="47.17058" lon="-1.74221">
        <ele>4</ele>
        <time>2024-04-13T06:13:37Z</time>
      </trkpt>
      <trkpt lat="47.17047" lon="-1.74159">
        <ele>3.6</ele>
        <time>2024-04-13T06:13:42Z</time>
      </trkpt>
      <trkpt lat="47.17044" lon="-1.74147">
        <ele>3.6</ele>
        <time>2024-04-13T06:13:43Z</time>
      </trkpt>
      <trkpt lat="47.1704" lon="-1.74123">
        <ele>3.4</ele>
        <time>2024-04-13T06:13:45Z</time>
      </trkpt>
      <trkpt lat="47.1703" lon="-1.74066">
        <ele>3.6</ele>
        <time>2024-04-13T06:13:50Z</time>
      </trkpt>
      <trkpt lat="47.17023" lon="-1.74019">
        <ele>4.2</ele>
        <time>2024-04-13T06:13:55Z</time>
      </trkpt>
      <trkpt lat="47.17022" lon="-1.74004">
        <ele>4.6</ele>
        <time>2024-04-13T06:13:57Z</time>
      </trkpt>
      <trkpt lat="47.17019" lon="-1.73976">
        <ele>5.2</ele>
        <time>2024-04-13T06:14:01Z</time>
      </trkpt>
      <trkpt lat="47.17018" lon="-1.73964">
        <ele>5.6</ele>
        <time>2024-04-13T06:14:03Z</time>
      </trkpt>
      <trkpt lat="47.17017" lon="-1.73958">
        <ele>5.8</ele>
        <time>2024-04-13T06:14:04Z</time>
      </trkpt>
      <trkpt lat="47.17014" lon="-1.73941">
        <ele>6.6</ele>
        <time>2024-04-13T06:14:07Z</time>
      </trkpt>
      <trkpt lat="47.17013" lon="-1.7393">
        <ele>7.2</ele>
        <time>2024-04-13T06:14:09Z</time>
      </trkpt>
      <trkpt lat="47.1701" lon="-1.73904">
        <ele>8.2</ele>
        <time>2024-04-13T06:14:14Z</time>
      </trkpt>
      <trkpt lat="47.17009" lon="-1.73899">
        <ele>8.4</ele>
        <time>2024-04-13T06:14:15Z</time>
      </trkpt>
      <trkpt lat="47.17006" lon="-1.73867">
        <ele>9.4</ele>
        <time>2024-04-13T06:14:22Z</time>
      </trkpt>
      <trkpt lat="47.17004" lon="-1.73849">
        <ele>10.4</ele>
        <time>2024-04-13T06:14:26Z</time>
      </trkpt>
      <trkpt lat="47.17003" lon="-1.73839">
        <ele>10.6</ele>
        <time>2024-04-13T06:14:28Z</time>
      </trkpt>
      <trkpt lat="47.17002" lon="-1.73819">
        <ele>11.4</ele>
        <time>2024-04-13T06:14:32Z</time>
      </trkpt>
      <trkpt lat="47.16999" lon="-1.73799">
        <ele>12.2</ele>
        <time>2024-04-13T06:14:36Z</time>
      </trkpt>
      <trkpt lat="47.16998" lon="-1.7379">
        <ele>12.6</ele>
        <time>2024-04-13T06:14:38Z</time>
      </trkpt>
      <trkpt lat="47.16996" lon="-1.73774">
        <ele>13.6</ele>
        <time>2024-04-13T06:14:42Z</time>
      </trkpt>
      <trkpt lat="47.16995" lon="-1.73765">
        <ele>14</ele>
        <time>2024-04-13T06:14:44Z</time>
      </trkpt>
      <trkpt lat="47.16994" lon="-1.73749">
        <ele>14.6</ele>
        <time>2024-04-13T06:14:48Z</time>
      </trkpt>
      <trkpt lat="47.16993" lon="-1.73736">
        <ele>15.2</ele>
        <time>2024-04-13T06:14:51Z</time>
      </trkpt>
      <trkpt lat="47.16991" lon="-1.73724">
        <ele>15.8</ele>
        <time>2024-04-13T06:14:54Z</time>
      </trkpt>
      <trkpt lat="47.16987" lon="-1.73708">
        <ele>16.4</ele>
        <time>2024-04-13T06:14:58Z</time>
      </trkpt>
      <trkpt lat="47.16982" lon="-1.73697">
        <ele>16.8</ele>
        <time>2024-04-13T06:15:01Z</time>
      </trkpt>
      <trkpt lat="47.16975" lon="-1.73683">
        <ele>17.4</ele>
        <time>2024-04-13T06:15:05Z</time>
      </trkpt>
      <trkpt lat="47.16968" lon="-1.7367">
        <ele>18</ele>
        <time>2024-04-13T06:15:09Z</time>
      </trkpt>
      <trkpt lat="47.16964" lon="-1.73663">
        <ele>18.2</ele>
        <time>2024-04-13T06:15:11Z</time>
      </trkpt>
      <trkpt lat="47.16949" lon="-1.73639">
        <ele>19</ele>
        <time>2024-04-13T06:15:18Z</time>
      </trkpt>
      <trkpt lat="47.16947" lon="-1.73635">
        <ele>19.2</ele>
        <time>2024-04-13T06:15:19Z</time>
      </trkpt>
      <trkpt lat="47.16939" lon="-1.73603">
        <ele>19.8</ele>
        <time>2024-04-13T06:15:26Z</time>
      </trkpt>
      <trkpt lat="47.16934" lon="-1.73562">
        <ele>19.6</ele>
        <time>2024-04-13T06:15:32Z</time>
      </trkpt>
      <trkpt lat="47.16932" lon="-1.73547">
        <ele>19.4</ele>
        <time>2024-04-13T06:15:34Z</time>
      </trkpt>
      <trkpt lat="47.16928" lon="-1.73498">
        <ele>18.8</ele>
        <time>2024-04-13T06:15:40Z</time>
      </trkpt>
      <trkpt lat="47.16924" lon="-1.73462">
        <ele>18</ele>
        <time>2024-04-13T06:15:44Z</time>
      </trkpt>
      <trkpt lat="47.1692" lon="-1.73424">
        <ele>17</ele>
        <time>2024-04-13T06:15:48Z</time>
      </trkpt>
      <trkpt lat="47.16919" lon="-1.73414">
        <ele>16.8</ele>
        <time>2024-04-13T06:15:49Z</time>
      </trkpt>
      <trkpt lat="47.16915" lon="-1.73363">
        <ele>15.8</ele>
        <time>2024-04-13T06:15:54Z</time>
      </trkpt>
      <trkpt lat="47.16914" lon="-1.73331">
        <ele>15.4</ele>
        <time>2024-04-13T06:15:57Z</time>
      </trkpt>
      <trkpt lat="47.16914" lon="-1.73309">
        <ele>14.8</ele>
        <time>2024-04-13T06:15:59Z</time>
      </trkpt>
      <trkpt lat="47.16915" lon="-1.73277">
        <ele>14</ele>
        <time>2024-04-13T06:16:02Z</time>
      </trkpt>
      <trkpt lat="47.16912" lon="-1.73269">
        <ele>13.8</ele>
        <time>2024-04-13T06:16:03Z</time>
      </trkpt>
      <trkpt lat="47.16906" lon="-1.73265">
        <ele>13</ele>
        <time>2024-04-13T06:16:04Z</time>
      </trkpt>
      <trkpt lat="47.169" lon="-1.73266">
        <ele>12.2</ele>
        <time>2024-04-13T06:16:05Z</time>
      </trkpt>
      <trkpt lat="47.16894" lon="-1.73269">
        <ele>11.8</ele>
        <time>2024-04-13T06:16:06Z</time>
      </trkpt>
      <trkpt lat="47.16883" lon="-1.73278">
        <ele>10.8</ele>
        <time>2024-04-13T06:16:08Z</time>
      </trkpt>
      <trkpt lat="47.16878" lon="-1.73283">
        <ele>10.6</ele>
        <time>2024-04-13T06:16:09Z</time>
      </trkpt>
      <trkpt lat="47.16839" lon="-1.73311">
        <ele>10</ele>
        <time>2024-04-13T06:16:15Z</time>
      </trkpt>
      <trkpt lat="47.16825" lon="-1.73321">
        <ele>9.6</ele>
        <time>2024-04-13T06:16:17Z</time>
      </trkpt>
      <trkpt lat="47.16798" lon="-1.7334">
        <ele>8.2</ele>
        <time>2024-04-13T06:16:21Z</time>
      </trkpt>
      <trkpt lat="47.16783" lon="-1.73351">
        <ele>7.6</ele>
        <time>2024-04-13T06:16:23Z</time>
      </trkpt>
      <trkpt lat="47.16768" lon="-1.73362">
        <ele>7</ele>
        <time>2024-04-13T06:16:25Z</time>
      </trkpt>
      <trkpt lat="47.16744" lon="-1.73377">
        <ele>6</ele>
        <time>2024-04-13T06:16:28Z</time>
      </trkpt>
      <trkpt lat="47.16721" lon="-1.7339">
        <ele>5.2</ele>
        <time>2024-04-13T06:16:31Z</time>
      </trkpt>
      <trkpt lat="47.16713" lon="-1.73392">
        <ele>5</ele>
        <time>2024-04-13T06:16:32Z</time>
      </trkpt>
      <trkpt lat="47.16706" lon="-1.73394">
        <ele>4.8</ele>
        <time>2024-04-13T06:16:33Z</time>
      </trkpt>
      <trkpt lat="47.16684" lon="-1.73396">
        <ele>4.6</ele>
        <time>2024-04-13T06:16:36Z</time>
      </trkpt>
      <trkpt lat="47.16671" lon="-1.73395">
        <ele>4.4</ele>
        <time>2024-04-13T06:16:38Z</time>
      </trkpt>
      <trkpt lat="47.16657" lon="-1.73393">
        <ele>4</ele>
        <time>2024-04-13T06:16:40Z</time>
      </trkpt>
      <trkpt lat="47.16652" lon="-1.73391">
        <ele>3.8</ele>
        <time>2024-04-13T06:16:41Z</time>
      </trkpt>
      <trkpt lat="47.16648" lon="-1.73386">
        <ele>3.8</ele>
        <time>2024-04-13T06:16:42Z</time>
      </trkpt>
      <trkpt lat="47.16646" lon="-1.73379">
        <ele>3.8</ele>
        <time>2024-04-13T06:16:43Z</time>
      </trkpt>
      <trkpt lat="47.1664" lon="-1.73368">
        <ele>3.8</ele>
        <time>2024-04-13T06:16:45Z</time>
      </trkpt>
      <trkpt lat="47.16627" lon="-1.73345">
        <ele>4</ele>
        <time>2024-04-13T06:16:49Z</time>
      </trkpt>
      <trkpt lat="47.16622" lon="-1.7333">
        <ele>4</ele>
        <time>2024-04-13T06:16:51Z</time>
      </trkpt>
      <trkpt lat="47.16621" lon="-1.73323">
        <ele>4</ele>
        <time>2024-04-13T06:16:52Z</time>
      </trkpt>
      <trkpt lat="47.16619" lon="-1.73308">
        <ele>3.8</ele>
        <time>2024-04-13T06:16:54Z</time>
      </trkpt>
      <trkpt lat="47.16619" lon="-1.73299">
        <ele>3.8</ele>
        <time>2024-04-13T06:16:55Z</time>
      </trkpt>
      <trkpt lat="47.1662" lon="-1.73251">
        <ele>3.8</ele>
        <time>2024-04-13T06:17:01Z</time>
      </trkpt>
      <trkpt lat="47.16623" lon="-1.73221">
        <ele>3.8</ele>
        <time>2024-04-13T06:17:05Z</time>
      </trkpt>
      <trkpt lat="47.16624" lon="-1.73213">
        <ele>4</ele>
        <time>2024-04-13T06:17:06Z</time>
      </trkpt>
      <trkpt lat="47.16626" lon="-1.73205">
        <ele>4</ele>
        <time>2024-04-13T06:17:07Z</time>
      </trkpt>
      <trkpt lat="47.16631" lon="-1.73174">
        <ele>4</ele>
        <time>2024-04-13T06:17:11Z</time>
      </trkpt>
      <trkpt lat="47.16632" lon="-1.73158">
        <ele>4</ele>
        <time>2024-04-13T06:17:13Z</time>
      </trkpt>
      <trkpt lat="47.16631" lon="-1.7315">
        <ele>4</ele>
        <time>2024-04-13T06:17:14Z</time>
      </trkpt>
      <trkpt lat="47.16629" lon="-1.73127">
        <ele>4</ele>
        <time>2024-04-13T06:17:17Z</time>
      </trkpt>
      <trkpt lat="47.16621" lon="-1.73073">
        <ele>3.8</ele>
        <time>2024-04-13T06:17:24Z</time>
      </trkpt>
      <trkpt lat="47.16619" lon="-1.73066">
        <ele>3.8</ele>
        <time>2024-04-13T06:17:25Z</time>
      </trkpt>
      <trkpt lat="47.16614" lon="-1.73046">
        <ele>3.8</ele>
        <time>2024-04-13T06:17:28Z</time>
      </trkpt>
      <trkpt lat="47.16606" lon="-1.73021">
        <ele>4.2</ele>
        <time>2024-04-13T06:17:32Z</time>
      </trkpt>
      <trkpt lat="47.16592" lon="-1.72982">
        <ele>4.8</ele>
        <time>2024-04-13T06:17:39Z</time>
      </trkpt>
      <trkpt lat="47.16588" lon="-1.72979">
        <ele>4.8</ele>
        <time>2024-04-13T06:17:40Z</time>
      </trkpt>
      <trkpt lat="47.16567" lon="-1.72958">
        <ele>4.6</ele>
        <time>2024-04-13T06:17:46Z</time>
      </trkpt>
      <trkpt lat="47.16563" lon="-1.72954">
        <ele>4.6</ele>
        <time>2024-04-13T06:17:47Z</time>
      </trkpt>
      <trkpt lat="47.16552" lon="-1.72949">
        <ele>4.4</ele>
        <time>2024-04-13T06:17:50Z</time>
      </trkpt>
      <trkpt lat="47.16526" lon="-1.72934">
        <ele>4.8</ele>
        <time>2024-04-13T06:17:56Z</time>
      </trkpt>
      <trkpt lat="47.16512" lon="-1.72934">
        <ele>5</ele>
        <time>2024-04-13T06:17:59Z</time>
      </trkpt>
      <trkpt lat="47.16503" lon="-1.72935">
        <ele>5.6</ele>
        <time>2024-04-13T06:18:01Z</time>
      </trkpt>
      <trkpt lat="47.16491" lon="-1.72937">
        <ele>6.2</ele>
        <time>2024-04-13T06:18:04Z</time>
      </trkpt>
      <trkpt lat="47.16482" lon="-1.72937">
        <ele>7</ele>
        <time>2024-04-13T06:18:07Z</time>
      </trkpt>
      <trkpt lat="47.16479" lon="-1.72937">
        <ele>7.4</ele>
        <time>2024-04-13T06:18:08Z</time>
      </trkpt>
      <trkpt lat="47.16469" lon="-1.72935">
        <ele>9</ele>
        <time>2024-04-13T06:18:12Z</time>
      </trkpt>
      <trkpt lat="47.16467" lon="-1.72935">
        <ele>9.2</ele>
        <time>2024-04-13T06:18:13Z</time>
      </trkpt>
      <trkpt lat="47.16459" lon="-1.72933">
        <ele>10</ele>
        <time>2024-04-13T06:18:16Z</time>
      </trkpt>
      <trkpt lat="47.16446" lon="-1.72928">
        <ele>11.2</ele>
        <time>2024-04-13T06:18:21Z</time>
      </trkpt>
      <trkpt lat="47.16441" lon="-1.72925">
        <ele>11.4</ele>
        <time>2024-04-13T06:18:23Z</time>
      </trkpt>
      <trkpt lat="47.16428" lon="-1.72922">
        <ele>12.4</ele>
        <time>2024-04-13T06:18:28Z</time>
      </trkpt>
      <trkpt lat="47.16418" lon="-1.72919">
        <ele>13</ele>
        <time>2024-04-13T06:18:32Z</time>
      </trkpt>
      <trkpt lat="47.16413" lon="-1.72917">
        <ele>13.4</ele>
        <time>2024-04-13T06:18:34Z</time>
      </trkpt>
      <trkpt lat="47.16401" lon="-1.72914">
        <ele>14.4</ele>
        <time>2024-04-13T06:18:39Z</time>
      </trkpt>
      <trkpt lat="47.16396" lon="-1.72913">
        <ele>14.8</ele>
        <time>2024-04-13T06:18:41Z</time>
      </trkpt>
      <trkpt lat="47.16387" lon="-1.72909">
        <ele>15.6</ele>
        <time>2024-04-13T06:18:45Z</time>
      </trkpt>
      <trkpt lat="47.16379" lon="-1.72908">
        <ele>15.6</ele>
        <time>2024-04-13T06:18:48Z</time>
      </trkpt>
      <trkpt lat="47.16364" lon="-1.72908">
        <ele>16</ele>
        <time>2024-04-13T06:18:53Z</time>
      </trkpt>
      <trkpt lat="47.16354" lon="-1.72909">
        <ele>16.2</ele>
        <time>2024-04-13T06:18:56Z</time>
      </trkpt>
      <trkpt lat="47.16351" lon="-1.72909">
        <ele>16.2</ele>
        <time>2024-04-13T06:18:57Z</time>
      </trkpt>
      <trkpt lat="47.16347" lon="-1.72909">
        <ele>16.8</ele>
        <time>2024-04-13T06:18:58Z</time>
      </trkpt>
      <trkpt lat="47.16338" lon="-1.7291">
        <ele>17.2</ele>
        <time>2024-04-13T06:19:01Z</time>
      </trkpt>
      <trkpt lat="47.16307" lon="-1.72916">
        <ele>17.6</ele>
        <time>2024-04-13T06:19:10Z</time>
      </trkpt>
      <trkpt lat="47.16278" lon="-1.72922">
        <ele>17.8</ele>
        <time>2024-04-13T06:19:17Z</time>
      </trkpt>
      <trkpt lat="47.16253" lon="-1.72929">
        <ele>18</ele>
        <time>2024-04-13T06:19:23Z</time>
      </trkpt>
      <trkpt lat="47.16245" lon="-1.72931">
        <ele>18</ele>
        <time>2024-04-13T06:19:25Z</time>
      </trkpt>
      <trkpt lat="47.16215" lon="-1.72934">
        <ele>18.2</ele>
        <time>2024-04-13T06:19:32Z</time>
      </trkpt>
      <trkpt lat="47.16177" lon="-1.72934">
        <ele>18.6</ele>
        <time>2024-04-13T06:19:41Z</time>
      </trkpt>
      <trkpt lat="47.16156" lon="-1.72933">
        <ele>19</ele>
        <time>2024-04-13T06:19:46Z</time>
      </trkpt>
      <trkpt lat="47.16144" lon="-1.72932">
        <ele>19.2</ele>
        <time>2024-04-13T06:19:49Z</time>
      </trkpt>
      <trkpt lat="47.1614" lon="-1.7293">
        <ele>19.2</ele>
        <time>2024-04-13T06:19:50Z</time>
      </trkpt>
      <trkpt lat="47.16131" lon="-1.72919">
        <ele>19.4</ele>
        <time>2024-04-13T06:19:53Z</time>
      </trkpt>
      <trkpt lat="47.16129" lon="-1.72896">
        <ele>19.8</ele>
        <time>2024-04-13T06:19:57Z</time>
      </trkpt>
      <trkpt lat="47.16129" lon="-1.7289">
        <ele>20</ele>
        <time>2024-04-13T06:19:58Z</time>
      </trkpt>
      <trkpt lat="47.16129" lon="-1.72842">
        <ele>20.6</ele>
        <time>2024-04-13T06:20:06Z</time>
      </trkpt>
      <trkpt lat="47.16129" lon="-1.72836">
        <ele>20.6</ele>
        <time>2024-04-13T06:20:07Z</time>
      </trkpt>
      <trkpt lat="47.16128" lon="-1.72807">
        <ele>21</ele>
        <time>2024-04-13T06:20:12Z</time>
      </trkpt>
      <trkpt lat="47.16126" lon="-1.72785">
        <ele>21.4</ele>
        <time>2024-04-13T06:20:16Z</time>
      </trkpt>
      <trkpt lat="47.16119" lon="-1.72746">
        <ele>22</ele>
        <time>2024-04-13T06:20:23Z</time>
      </trkpt>
      <trkpt lat="47.16118" lon="-1.72741">
        <ele>22.2</ele>
        <time>2024-04-13T06:20:24Z</time>
      </trkpt>
      <trkpt lat="47.16111" lon="-1.72732">
        <ele>22.4</ele>
        <time>2024-04-13T06:20:27Z</time>
      </trkpt>
      <trkpt lat="47.16108" lon="-1.72732">
        <ele>22.4</ele>
        <time>2024-04-13T06:20:28Z</time>
      </trkpt>
      <trkpt lat="47.16095" lon="-1.72739">
        <ele>22.4</ele>
        <time>2024-04-13T06:20:32Z</time>
      </trkpt>
      <trkpt lat="47.16062" lon="-1.72755">
        <ele>22</ele>
        <time>2024-04-13T06:20:39Z</time>
      </trkpt>
      <trkpt lat="47.16025" lon="-1.72767">
        <ele>21.8</ele>
        <time>2024-04-13T06:20:46Z</time>
      </trkpt>
      <trkpt lat="47.16008" lon="-1.72772">
        <ele>21.8</ele>
        <time>2024-04-13T06:20:49Z</time>
      </trkpt>
      <trkpt lat="47.15963" lon="-1.72779">
        <ele>22</ele>
        <time>2024-04-13T06:20:57Z</time>
      </trkpt>
      <trkpt lat="47.15952" lon="-1.72781">
        <ele>22</ele>
        <time>2024-04-13T06:20:59Z</time>
      </trkpt>
      <trkpt lat="47.15941" lon="-1.72782">
        <ele>21.8</ele>
        <time>2024-04-13T06:21:01Z</time>
      </trkpt>
      <trkpt lat="47.15909" lon="-1.72788">
        <ele>21.4</ele>
        <time>2024-04-13T06:21:07Z</time>
      </trkpt>
      <trkpt lat="47.15903" lon="-1.72789">
        <ele>21.2</ele>
        <time>2024-04-13T06:21:08Z</time>
      </trkpt>
      <trkpt lat="47.15888" lon="-1.72795">
        <ele>21</ele>
        <time>2024-04-13T06:21:11Z</time>
      </trkpt>
      <trkpt lat="47.15868" lon="-1.72805">
        <ele>20.8</ele>
        <time>2024-04-13T06:21:15Z</time>
      </trkpt>
      <trkpt lat="47.15865" lon="-1.72807">
        <ele>20.6</ele>
        <time>2024-04-13T06:21:16Z</time>
      </trkpt>
      <trkpt lat="47.15858" lon="-1.72812">
        <ele>20.4</ele>
        <time>2024-04-13T06:21:19Z</time>
      </trkpt>
      <trkpt lat="47.15853" lon="-1.72805">
        <ele>20</ele>
        <time>2024-04-13T06:21:21Z</time>
      </trkpt>
      <trkpt lat="47.15851" lon="-1.728">
        <ele>20</ele>
        <time>2024-04-13T06:21:22Z</time>
      </trkpt>
      <trkpt lat="47.15849" lon="-1.72794">
        <ele>20</ele>
        <time>2024-04-13T06:21:23Z</time>
      </trkpt>
      <trkpt lat="47.15846" lon="-1.72782">
        <ele>20.2</ele>
        <time>2024-04-13T06:21:25Z</time>
      </trkpt>
      <trkpt lat="47.15845" lon="-1.72769">
        <ele>20.4</ele>
        <time>2024-04-13T06:21:27Z</time>
      </trkpt>
      <trkpt lat="47.15842" lon="-1.72699">
        <ele>21.6</ele>
        <time>2024-04-13T06:21:37Z</time>
      </trkpt>
      <trkpt lat="47.15842" lon="-1.72638">
        <ele>21.8</ele>
        <time>2024-04-13T06:21:45Z</time>
      </trkpt>
      <trkpt lat="47.15837" lon="-1.72604">
        <ele>22</ele>
        <time>2024-04-13T06:21:50Z</time>
      </trkpt>
      <trkpt lat="47.15833" lon="-1.726">
        <ele>22</ele>
        <time>2024-04-13T06:21:51Z</time>
      </trkpt>
      <trkpt lat="47.15828" lon="-1.72598">
        <ele>22</ele>
        <time>2024-04-13T06:21:52Z</time>
      </trkpt>
      <trkpt lat="47.15811" lon="-1.72584">
        <ele>22.4</ele>
        <time>2024-04-13T06:21:56Z</time>
      </trkpt>
      <trkpt lat="47.15806" lon="-1.72582">
        <ele>22.4</ele>
        <time>2024-04-13T06:21:57Z</time>
      </trkpt>
      <trkpt lat="47.15797" lon="-1.7258">
        <ele>22.4</ele>
        <time>2024-04-13T06:21:59Z</time>
      </trkpt>
      <trkpt lat="47.15791" lon="-1.7258">
        <ele>22.6</ele>
        <time>2024-04-13T06:22:00Z</time>
      </trkpt>
      <trkpt lat="47.15751" lon="-1.72581">
        <ele>23</ele>
        <time>2024-04-13T06:22:08Z</time>
      </trkpt>
      <trkpt lat="47.15735" lon="-1.72582">
        <ele>23.2</ele>
        <time>2024-04-13T06:22:11Z</time>
      </trkpt>
      <trkpt lat="47.15679" lon="-1.72586">
        <ele>23</ele>
        <time>2024-04-13T06:22:21Z</time>
      </trkpt>
      <trkpt lat="47.1564" lon="-1.72588">
        <ele>22.2</ele>
        <time>2024-04-13T06:22:27Z</time>
      </trkpt>
      <trkpt lat="47.15618" lon="-1.72589">
        <ele>22</ele>
        <time>2024-04-13T06:22:30Z</time>
      </trkpt>
      <trkpt lat="47.15602" lon="-1.72592">
        <ele>20.8</ele>
        <time>2024-04-13T06:22:32Z</time>
      </trkpt>
      <trkpt lat="47.15583" lon="-1.72597">
        <ele>19.8</ele>
        <time>2024-04-13T06:22:35Z</time>
      </trkpt>
      <trkpt lat="47.15578" lon="-1.72594">
        <ele>19.2</ele>
        <time>2024-04-13T06:22:36Z</time>
      </trkpt>
      <trkpt lat="47.15575" lon="-1.72588">
        <ele>18</ele>
        <time>2024-04-13T06:22:37Z</time>
      </trkpt>
      <trkpt lat="47.15571" lon="-1.72575">
        <ele>17.8</ele>
        <time>2024-04-13T06:22:39Z</time>
      </trkpt>
      <trkpt lat="47.15568" lon="-1.72554">
        <ele>17.8</ele>
        <time>2024-04-13T06:22:42Z</time>
      </trkpt>
      <trkpt lat="47.15566" lon="-1.7254">
        <ele>18</ele>
        <time>2024-04-13T06:22:44Z</time>
      </trkpt>
      <trkpt lat="47.15555" lon="-1.72486">
        <ele>18.4</ele>
        <time>2024-04-13T06:22:51Z</time>
      </trkpt>
      <trkpt lat="47.15553" lon="-1.72463">
        <ele>18.6</ele>
        <time>2024-04-13T06:22:54Z</time>
      </trkpt>
      <trkpt lat="47.15552" lon="-1.72455">
        <ele>18.6</ele>
        <time>2024-04-13T06:22:55Z</time>
      </trkpt>
      <trkpt lat="47.15553" lon="-1.7244">
        <ele>18.8</ele>
        <time>2024-04-13T06:22:57Z</time>
      </trkpt>
      <trkpt lat="47.15556" lon="-1.72387">
        <ele>19</ele>
        <time>2024-04-13T06:23:04Z</time>
      </trkpt>
      <trkpt lat="47.15557" lon="-1.7238">
        <ele>19</ele>
        <time>2024-04-13T06:23:05Z</time>
      </trkpt>
      <trkpt lat="47.15558" lon="-1.72364">
        <ele>19</ele>
        <time>2024-04-13T06:23:07Z</time>
      </trkpt>
      <trkpt lat="47.15558" lon="-1.7235">
        <ele>19.2</ele>
        <time>2024-04-13T06:23:09Z</time>
      </trkpt>
      <trkpt lat="47.15557" lon="-1.72337">
        <ele>20</ele>
        <time>2024-04-13T06:23:11Z</time>
      </trkpt>
      <trkpt lat="47.15557" lon="-1.7233">
        <ele>20.2</ele>
        <time>2024-04-13T06:23:12Z</time>
      </trkpt>
      <trkpt lat="47.15552" lon="-1.72286">
        <ele>21.2</ele>
        <time>2024-04-13T06:23:19Z</time>
      </trkpt>
      <trkpt lat="47.1555" lon="-1.7228">
        <ele>21.2</ele>
        <time>2024-04-13T06:23:20Z</time>
      </trkpt>
      <trkpt lat="47.15546" lon="-1.72257">
        <ele>21.4</ele>
        <time>2024-04-13T06:23:24Z</time>
      </trkpt>
      <trkpt lat="47.15545" lon="-1.7225">
        <ele>21.4</ele>
        <time>2024-04-13T06:23:25Z</time>
      </trkpt>
      <trkpt lat="47.15532" lon="-1.7221">
        <ele>21.6</ele>
        <time>2024-04-13T06:23:32Z</time>
      </trkpt>
      <trkpt lat="47.1553" lon="-1.72205">
        <ele>21.6</ele>
        <time>2024-04-13T06:23:33Z</time>
      </trkpt>
      <trkpt lat="47.15524" lon="-1.72181">
        <ele>22</ele>
        <time>2024-04-13T06:23:37Z</time>
      </trkpt>
      <trkpt lat="47.1552" lon="-1.72168">
        <ele>22.2</ele>
        <time>2024-04-13T06:23:39Z</time>
      </trkpt>
      <trkpt lat="47.15517" lon="-1.72148">
        <ele>22.2</ele>
        <time>2024-04-13T06:23:42Z</time>
      </trkpt>
      <trkpt lat="47.15514" lon="-1.72122">
        <ele>22.6</ele>
        <time>2024-04-13T06:23:46Z</time>
      </trkpt>
      <trkpt lat="47.15514" lon="-1.72109">
        <ele>22.8</ele>
        <time>2024-04-13T06:23:48Z</time>
      </trkpt>
      <trkpt lat="47.15513" lon="-1.7209">
        <ele>23.2</ele>
        <time>2024-04-13T06:23:51Z</time>
      </trkpt>
      <trkpt lat="47.15513" lon="-1.72076">
        <ele>23.4</ele>
        <time>2024-04-13T06:23:53Z</time>
      </trkpt>
      <trkpt lat="47.15513" lon="-1.7205">
        <ele>23.4</ele>
        <time>2024-04-13T06:23:57Z</time>
      </trkpt>
      <trkpt lat="47.15512" lon="-1.72044">
        <ele>23.6</ele>
        <time>2024-04-13T06:23:58Z</time>
      </trkpt>
      <trkpt lat="47.15508" lon="-1.72005">
        <ele>23.2</ele>
        <time>2024-04-13T06:24:04Z</time>
      </trkpt>
      <trkpt lat="47.15501" lon="-1.71944">
        <ele>23.2</ele>
        <time>2024-04-13T06:24:13Z</time>
      </trkpt>
      <trkpt lat="47.155" lon="-1.71938">
        <ele>23.4</ele>
        <time>2024-04-13T06:24:14Z</time>
      </trkpt>
      <trkpt lat="47.15498" lon="-1.7191">
        <ele>23.4</ele>
        <time>2024-04-13T06:24:18Z</time>
      </trkpt>
      <trkpt lat="47.15497" lon="-1.71869">
        <ele>23.6</ele>
        <time>2024-04-13T06:24:24Z</time>
      </trkpt>
      <trkpt lat="47.15498" lon="-1.7185">
        <ele>23.6</ele>
        <time>2024-04-13T06:24:27Z</time>
      </trkpt>
      <trkpt lat="47.15498" lon="-1.71797">
        <ele>23.8</ele>
        <time>2024-04-13T06:24:35Z</time>
      </trkpt>
      <trkpt lat="47.15497" lon="-1.71784">
        <ele>23.8</ele>
        <time>2024-04-13T06:24:37Z</time>
      </trkpt>
      <trkpt lat="47.15496" lon="-1.71766">
        <ele>23.8</ele>
        <time>2024-04-13T06:24:40Z</time>
      </trkpt>
      <trkpt lat="47.15496" lon="-1.71747">
        <ele>23.6</ele>
        <time>2024-04-13T06:24:43Z</time>
      </trkpt>
      <trkpt lat="47.15496" lon="-1.71722">
        <ele>23.4</ele>
        <time>2024-04-13T06:24:47Z</time>
      </trkpt>
      <trkpt lat="47.15495" lon="-1.71709">
        <ele>23.4</ele>
        <time>2024-04-13T06:24:49Z</time>
      </trkpt>
      <trkpt lat="47.1549" lon="-1.71661">
        <ele>22.8</ele>
        <time>2024-04-13T06:24:56Z</time>
      </trkpt>
      <trkpt lat="47.1549" lon="-1.71646">
        <ele>22.8</ele>
        <time>2024-04-13T06:24:58Z</time>
      </trkpt>
      <trkpt lat="47.15489" lon="-1.71612">
        <ele>22.4</ele>
        <time>2024-04-13T06:25:03Z</time>
      </trkpt>
      <trkpt lat="47.15488" lon="-1.71563">
        <ele>22.8</ele>
        <time>2024-04-13T06:25:10Z</time>
      </trkpt>
      <trkpt lat="47.15489" lon="-1.71534">
        <ele>22.8</ele>
        <time>2024-04-13T06:25:14Z</time>
      </trkpt>
      <trkpt lat="47.15489" lon="-1.71519">
        <ele>23</ele>
        <time>2024-04-13T06:25:16Z</time>
      </trkpt>
      <trkpt lat="47.15487" lon="-1.71462">
        <ele>22.8</ele>
        <time>2024-04-13T06:25:24Z</time>
      </trkpt>
      <trkpt lat="47.15484" lon="-1.71449">
        <ele>22.6</ele>
        <time>2024-04-13T06:25:26Z</time>
      </trkpt>
      <trkpt lat="47.15477" lon="-1.71423">
        <ele>22.6</ele>
        <time>2024-04-13T06:25:30Z</time>
      </trkpt>
      <trkpt lat="47.15469" lon="-1.71398">
        <ele>23.6</ele>
        <time>2024-04-13T06:25:35Z</time>
      </trkpt>
      <trkpt lat="47.15467" lon="-1.71393">
        <ele>24.2</ele>
        <time>2024-04-13T06:25:39Z</time>
      </trkpt>
      <trkpt lat="47.15466" lon="-1.71386">
        <ele>24</ele>
        <time>2024-04-13T06:27:04Z</time>
      </trkpt>
      <trkpt lat="47.1547" lon="-1.71378">
        <ele>24</ele>
        <time>2024-04-13T06:27:06Z</time>
      </trkpt>
      <trkpt lat="47.15475" lon="-1.71369">
        <ele>24.4</ele>
        <time>2024-04-13T06:27:08Z</time>
      </trkpt>
      <trkpt lat="47.15476" lon="-1.71362">
        <ele>24.8</ele>
        <time>2024-04-13T06:27:09Z</time>
      </trkpt>
      <trkpt lat="47.15474" lon="-1.71356">
        <ele>24.8</ele>
        <time>2024-04-13T06:27:10Z</time>
      </trkpt>
      <trkpt lat="47.15472" lon="-1.71351">
        <ele>24.8</ele>
        <time>2024-04-13T06:27:11Z</time>
      </trkpt>
      <trkpt lat="47.15462" lon="-1.71334">
        <ele>24.8</ele>
        <time>2024-04-13T06:27:14Z</time>
      </trkpt>
      <trkpt lat="47.15437" lon="-1.71292">
        <ele>25</ele>
        <time>2024-04-13T06:27:21Z</time>
      </trkpt>
      <trkpt lat="47.15408" lon="-1.71244">
        <ele>25</ele>
        <time>2024-04-13T06:27:28Z</time>
      </trkpt>
      <trkpt lat="47.1538" lon="-1.71205">
        <ele>24.8</ele>
        <time>2024-04-13T06:27:34Z</time>
      </trkpt>
      <trkpt lat="47.15344" lon="-1.71167">
        <ele>24.4</ele>
        <time>2024-04-13T06:27:40Z</time>
      </trkpt>
      <trkpt lat="47.15306" lon="-1.71119">
        <ele>24</ele>
        <time>2024-04-13T06:27:47Z</time>
      </trkpt>
      <trkpt lat="47.1528" lon="-1.71084">
        <ele>24.2</ele>
        <time>2024-04-13T06:27:52Z</time>
      </trkpt>
      <trkpt lat="47.15266" lon="-1.71061">
        <ele>24</ele>
        <time>2024-04-13T06:27:55Z</time>
      </trkpt>
      <trkpt lat="47.15238" lon="-1.71014">
        <ele>23.4</ele>
        <time>2024-04-13T06:28:01Z</time>
      </trkpt>
      <trkpt lat="47.15222" lon="-1.70983">
        <ele>23</ele>
        <time>2024-04-13T06:28:05Z</time>
      </trkpt>
      <trkpt lat="47.15216" lon="-1.70968">
        <ele>22.8</ele>
        <time>2024-04-13T06:28:07Z</time>
      </trkpt>
      <trkpt lat="47.15206" lon="-1.70961">
        <ele>22.4</ele>
        <time>2024-04-13T06:28:09Z</time>
      </trkpt>
      <trkpt lat="47.15195" lon="-1.70965">
        <ele>22.2</ele>
        <time>2024-04-13T06:28:11Z</time>
      </trkpt>
      <trkpt lat="47.15189" lon="-1.70968">
        <ele>22</ele>
        <time>2024-04-13T06:28:12Z</time>
      </trkpt>
      <trkpt lat="47.15154" lon="-1.70992">
        <ele>21.8</ele>
        <time>2024-04-13T06:28:18Z</time>
      </trkpt>
      <trkpt lat="47.15123" lon="-1.71013">
        <ele>21.6</ele>
        <time>2024-04-13T06:28:24Z</time>
      </trkpt>
      <trkpt lat="47.15113" lon="-1.71021">
        <ele>21.6</ele>
        <time>2024-04-13T06:28:26Z</time>
      </trkpt>
      <trkpt lat="47.15093" lon="-1.71039">
        <ele>21.8</ele>
        <time>2024-04-13T06:28:30Z</time>
      </trkpt>
      <trkpt lat="47.15083" lon="-1.71045">
        <ele>21.8</ele>
        <time>2024-04-13T06:28:32Z</time>
      </trkpt>
      <trkpt lat="47.15078" lon="-1.71043">
        <ele>21.8</ele>
        <time>2024-04-13T06:28:33Z</time>
      </trkpt>
      <trkpt lat="47.15074" lon="-1.71038">
        <ele>21.6</ele>
        <time>2024-04-13T06:28:34Z</time>
      </trkpt>
      <trkpt lat="47.15069" lon="-1.71025">
        <ele>21.6</ele>
        <time>2024-04-13T06:28:36Z</time>
      </trkpt>
      <trkpt lat="47.15059" lon="-1.70991">
        <ele>21.2</ele>
        <time>2024-04-13T06:28:40Z</time>
      </trkpt>
      <trkpt lat="47.15052" lon="-1.70973">
        <ele>21</ele>
        <time>2024-04-13T06:28:42Z</time>
      </trkpt>
      <trkpt lat="47.15033" lon="-1.70911">
        <ele>20.6</ele>
        <time>2024-04-13T06:28:49Z</time>
      </trkpt>
      <trkpt lat="47.15016" lon="-1.70859">
        <ele>20.4</ele>
        <time>2024-04-13T06:28:55Z</time>
      </trkpt>
      <trkpt lat="47.15013" lon="-1.7085">
        <ele>20.2</ele>
        <time>2024-04-13T06:28:56Z</time>
      </trkpt>
      <trkpt lat="47.14993" lon="-1.7079">
        <ele>19.8</ele>
        <time>2024-04-13T06:29:03Z</time>
      </trkpt>
      <trkpt lat="47.14982" lon="-1.70761">
        <ele>19.4</ele>
        <time>2024-04-13T06:29:07Z</time>
      </trkpt>
      <trkpt lat="47.14983" lon="-1.70753">
        <ele>19.4</ele>
        <time>2024-04-13T06:29:08Z</time>
      </trkpt>
      <trkpt lat="47.14984" lon="-1.70744">
        <ele>19.4</ele>
        <time>2024-04-13T06:29:09Z</time>
      </trkpt>
      <trkpt lat="47.1499" lon="-1.70715">
        <ele>19.4</ele>
        <time>2024-04-13T06:29:12Z</time>
      </trkpt>
      <trkpt lat="47.15003" lon="-1.7065">
        <ele>19.6</ele>
        <time>2024-04-13T06:29:19Z</time>
      </trkpt>
      <trkpt lat="47.15007" lon="-1.70631">
        <ele>19.4</ele>
        <time>2024-04-13T06:29:21Z</time>
      </trkpt>
      <trkpt lat="47.1501" lon="-1.70613">
        <ele>19.2</ele>
        <time>2024-04-13T06:29:23Z</time>
      </trkpt>
      <trkpt lat="47.15014" lon="-1.70595">
        <ele>19.2</ele>
        <time>2024-04-13T06:29:25Z</time>
      </trkpt>
      <trkpt lat="47.1502" lon="-1.70558">
        <ele>18.6</ele>
        <time>2024-04-13T06:29:29Z</time>
      </trkpt>
      <trkpt lat="47.15019" lon="-1.70548">
        <ele>18.6</ele>
        <time>2024-04-13T06:29:30Z</time>
      </trkpt>
      <trkpt lat="47.15015" lon="-1.7053">
        <ele>18.4</ele>
        <time>2024-04-13T06:29:32Z</time>
      </trkpt>
      <trkpt lat="47.15013" lon="-1.70521">
        <ele>18.4</ele>
        <time>2024-04-13T06:29:33Z</time>
      </trkpt>
      <trkpt lat="47.15004" lon="-1.70506">
        <ele>18.4</ele>
        <time>2024-04-13T06:29:35Z</time>
      </trkpt>
      <trkpt lat="47.14999" lon="-1.70499">
        <ele>18.4</ele>
        <time>2024-04-13T06:29:36Z</time>
      </trkpt>
      <trkpt lat="47.14979" lon="-1.70475">
        <ele>18.4</ele>
        <time>2024-04-13T06:29:40Z</time>
      </trkpt>
      <trkpt lat="47.14968" lon="-1.70463">
        <ele>18.4</ele>
        <time>2024-04-13T06:29:42Z</time>
      </trkpt>
      <trkpt lat="47.14925" lon="-1.70414">
        <ele>18.6</ele>
        <time>2024-04-13T06:29:50Z</time>
      </trkpt>
      <trkpt lat="47.14881" lon="-1.70379">
        <ele>19.4</ele>
        <time>2024-04-13T06:29:58Z</time>
      </trkpt>
      <trkpt lat="47.14838" lon="-1.7035">
        <ele>20</ele>
        <time>2024-04-13T06:30:06Z</time>
      </trkpt>
      <trkpt lat="47.14821" lon="-1.70341">
        <ele>20.2</ele>
        <time>2024-04-13T06:30:09Z</time>
      </trkpt>
      <trkpt lat="47.14801" lon="-1.70327">
        <ele>20.4</ele>
        <time>2024-04-13T06:30:13Z</time>
      </trkpt>
      <trkpt lat="47.14796" lon="-1.70321">
        <ele>20.4</ele>
        <time>2024-04-13T06:30:14Z</time>
      </trkpt>
      <trkpt lat="47.14784" lon="-1.70303">
        <ele>20.6</ele>
        <time>2024-04-13T06:30:17Z</time>
      </trkpt>
      <trkpt lat="47.14777" lon="-1.7029">
        <ele>20.8</ele>
        <time>2024-04-13T06:30:19Z</time>
      </trkpt>
      <trkpt lat="47.14752" lon="-1.70254">
        <ele>21.2</ele>
        <time>2024-04-13T06:30:25Z</time>
      </trkpt>
      <trkpt lat="47.1474" lon="-1.70236">
        <ele>21.4</ele>
        <time>2024-04-13T06:30:28Z</time>
      </trkpt>
      <trkpt lat="47.14705" lon="-1.70178">
        <ele>21</ele>
        <time>2024-04-13T06:30:36Z</time>
      </trkpt>
      <trkpt lat="47.14686" lon="-1.70136">
        <ele>20</ele>
        <time>2024-04-13T06:30:41Z</time>
      </trkpt>
      <trkpt lat="47.14682" lon="-1.70127">
        <ele>18.6</ele>
        <time>2024-04-13T06:30:43Z</time>
      </trkpt>
      <trkpt lat="47.14681" lon="-1.70125">
        <ele>18</ele>
        <time>2024-04-13T06:30:44Z</time>
      </trkpt>
      <trkpt lat="47.14681" lon="-1.70125">
        <ele>17.4</ele>
        <time>2024-04-13T06:30:45Z</time>
      </trkpt>
      <trkpt lat="47.14681" lon="-1.70124">
        <ele>17</ele>
        <time>2024-04-13T06:30:46Z</time>
      </trkpt>
      <trkpt lat="47.1468" lon="-1.70121">
        <ele>16.6</ele>
        <time>2024-04-13T06:31:16Z</time>
      </trkpt>
      <trkpt lat="47.14679" lon="-1.70118">
        <ele>16.6</ele>
        <time>2024-04-13T06:31:17Z</time>
      </trkpt>
      <trkpt lat="47.14673" lon="-1.70098">
        <ele>16.6</ele>
        <time>2024-04-13T06:31:21Z</time>
      </trkpt>
      <trkpt lat="47.14669" lon="-1.70087">
        <ele>16.4</ele>
        <time>2024-04-13T06:31:23Z</time>
      </trkpt>
      <trkpt lat="47.14667" lon="-1.70082">
        <ele>16.4</ele>
        <time>2024-04-13T06:31:24Z</time>
      </trkpt>
      <trkpt lat="47.14652" lon="-1.70045">
        <ele>15.6</ele>
        <time>2024-04-13T06:31:30Z</time>
      </trkpt>
      <trkpt lat="47.14644" lon="-1.70025">
        <ele>15.4</ele>
        <time>2024-04-13T06:31:33Z</time>
      </trkpt>
      <trkpt lat="47.14642" lon="-1.70018">
        <ele>15.2</ele>
        <time>2024-04-13T06:31:34Z</time>
      </trkpt>
      <trkpt lat="47.14632" lon="-1.69991">
        <ele>15</ele>
        <time>2024-04-13T06:31:38Z</time>
      </trkpt>
      <trkpt lat="47.14612" lon="-1.69936">
        <ele>14.8</ele>
        <time>2024-04-13T06:31:46Z</time>
      </trkpt>
      <trkpt lat="47.14592" lon="-1.69878">
        <ele>14.6</ele>
        <time>2024-04-13T06:31:55Z</time>
      </trkpt>
      <trkpt lat="47.14587" lon="-1.69857">
        <ele>14.4</ele>
        <time>2024-04-13T06:31:58Z</time>
      </trkpt>
      <trkpt lat="47.14584" lon="-1.69843">
        <ele>14.2</ele>
        <time>2024-04-13T06:32:00Z</time>
      </trkpt>
      <trkpt lat="47.14582" lon="-1.69827">
        <ele>14.2</ele>
        <time>2024-04-13T06:32:02Z</time>
      </trkpt>
      <trkpt lat="47.14581" lon="-1.6982">
        <ele>14.2</ele>
        <time>2024-04-13T06:32:03Z</time>
      </trkpt>
      <trkpt lat="47.14577" lon="-1.69798">
        <ele>14.4</ele>
        <time>2024-04-13T06:32:06Z</time>
      </trkpt>
      <trkpt lat="47.14568" lon="-1.69751">
        <ele>15</ele>
        <time>2024-04-13T06:32:13Z</time>
      </trkpt>
      <trkpt lat="47.14565" lon="-1.69726">
        <ele>15.2</ele>
        <time>2024-04-13T06:32:17Z</time>
      </trkpt>
      <trkpt lat="47.14563" lon="-1.69722">
        <ele>15.2</ele>
        <time>2024-04-13T06:32:18Z</time>
      </trkpt>
      <trkpt lat="47.1455" lon="-1.69715">
        <ele>15</ele>
        <time>2024-04-13T06:32:21Z</time>
      </trkpt>
      <trkpt lat="47.14514" lon="-1.697">
        <ele>14.4</ele>
        <time>2024-04-13T06:32:28Z</time>
      </trkpt>
      <trkpt lat="47.14508" lon="-1.69697">
        <ele>14</ele>
        <time>2024-04-13T06:32:29Z</time>
      </trkpt>
      <trkpt lat="47.14502" lon="-1.69694">
        <ele>13.8</ele>
        <time>2024-04-13T06:32:30Z</time>
      </trkpt>
      <trkpt lat="47.14488" lon="-1.69683">
        <ele>13.2</ele>
        <time>2024-04-13T06:32:33Z</time>
      </trkpt>
      <trkpt lat="47.14468" lon="-1.69657">
        <ele>13.2</ele>
        <time>2024-04-13T06:32:38Z</time>
      </trkpt>
      <trkpt lat="47.1446" lon="-1.69648">
        <ele>13.2</ele>
        <time>2024-04-13T06:32:40Z</time>
      </trkpt>
      <trkpt lat="47.14444" lon="-1.69628">
        <ele>13.6</ele>
        <time>2024-04-13T06:32:44Z</time>
      </trkpt>
      <trkpt lat="47.14434" lon="-1.69613">
        <ele>13.8</ele>
        <time>2024-04-13T06:32:47Z</time>
      </trkpt>
      <trkpt lat="47.1441" lon="-1.69576">
        <ele>14.2</ele>
        <time>2024-04-13T06:32:54Z</time>
      </trkpt>
      <trkpt lat="47.14396" lon="-1.69555">
        <ele>14.4</ele>
        <time>2024-04-13T06:32:59Z</time>
      </trkpt>
      <trkpt lat="47.14392" lon="-1.69555">
        <ele>14.4</ele>
        <time>2024-04-13T06:33:00Z</time>
      </trkpt>
      <trkpt lat="47.14385" lon="-1.69563">
        <ele>14.4</ele>
        <time>2024-04-13T06:33:02Z</time>
      </trkpt>
      <trkpt lat="47.14369" lon="-1.69585">
        <ele>13.6</ele>
        <time>2024-04-13T06:33:07Z</time>
      </trkpt>
      <trkpt lat="47.14362" lon="-1.69594">
        <ele>13</ele>
        <time>2024-04-13T06:33:09Z</time>
      </trkpt>
      <trkpt lat="47.14359" lon="-1.69599">
        <ele>13</ele>
        <time>2024-04-13T06:33:10Z</time>
      </trkpt>
      <trkpt lat="47.14357" lon="-1.69605">
        <ele>12.8</ele>
        <time>2024-04-13T06:33:11Z</time>
      </trkpt>
      <trkpt lat="47.14354" lon="-1.69611">
        <ele>12.8</ele>
        <time>2024-04-13T06:33:12Z</time>
      </trkpt>
      <trkpt lat="47.14347" lon="-1.69629">
        <ele>12.4</ele>
        <time>2024-04-13T06:33:15Z</time>
      </trkpt>
      <trkpt lat="47.14342" lon="-1.69651">
        <ele>12</ele>
        <time>2024-04-13T06:33:18Z</time>
      </trkpt>
      <trkpt lat="47.14338" lon="-1.69664">
        <ele>12</ele>
        <time>2024-04-13T06:33:20Z</time>
      </trkpt>
      <trkpt lat="47.14332" lon="-1.6969">
        <ele>11.4</ele>
        <time>2024-04-13T06:33:24Z</time>
      </trkpt>
      <trkpt lat="47.14325" lon="-1.69711">
        <ele>10.6</ele>
        <time>2024-04-13T06:33:28Z</time>
      </trkpt>
      <trkpt lat="47.14322" lon="-1.69714">
        <ele>10.6</ele>
        <time>2024-04-13T06:33:29Z</time>
      </trkpt>
      <trkpt lat="47.14313" lon="-1.69713">
        <ele>10.4</ele>
        <time>2024-04-13T06:33:31Z</time>
      </trkpt>
      <trkpt lat="47.14309" lon="-1.69712">
        <ele>10.2</ele>
        <time>2024-04-13T06:33:32Z</time>
      </trkpt>
      <trkpt lat="47.14273" lon="-1.69706">
        <ele>9.8</ele>
        <time>2024-04-13T06:33:39Z</time>
      </trkpt>
      <trkpt lat="47.1425" lon="-1.69706">
        <ele>9.6</ele>
        <time>2024-04-13T06:33:43Z</time>
      </trkpt>
      <trkpt lat="47.14227" lon="-1.6971">
        <ele>9</ele>
        <time>2024-04-13T06:33:47Z</time>
      </trkpt>
      <trkpt lat="47.14204" lon="-1.69713">
        <ele>8.6</ele>
        <time>2024-04-13T06:33:51Z</time>
      </trkpt>
      <trkpt lat="47.14164" lon="-1.6972">
        <ele>8.4</ele>
        <time>2024-04-13T06:33:58Z</time>
      </trkpt>
      <trkpt lat="47.14158" lon="-1.6972">
        <ele>8.6</ele>
        <time>2024-04-13T06:33:59Z</time>
      </trkpt>
      <trkpt lat="47.14114" lon="-1.69727">
        <ele>8.4</ele>
        <time>2024-04-13T06:34:08Z</time>
      </trkpt>
      <trkpt lat="47.14086" lon="-1.6973">
        <ele>8.8</ele>
        <time>2024-04-13T06:34:14Z</time>
      </trkpt>
      <trkpt lat="47.14073" lon="-1.6973">
        <ele>9</ele>
        <time>2024-04-13T06:34:17Z</time>
      </trkpt>
      <trkpt lat="47.14034" lon="-1.69728">
        <ele>9.6</ele>
        <time>2024-04-13T06:34:25Z</time>
      </trkpt>
      <trkpt lat="47.14024" lon="-1.69726">
        <ele>9.8</ele>
        <time>2024-04-13T06:34:27Z</time>
      </trkpt>
      <trkpt lat="47.13985" lon="-1.69723">
        <ele>10.4</ele>
        <time>2024-04-13T06:34:35Z</time>
      </trkpt>
      <trkpt lat="47.13949" lon="-1.69719">
        <ele>10</ele>
        <time>2024-04-13T06:34:42Z</time>
      </trkpt>
      <trkpt lat="47.13936" lon="-1.69718">
        <ele>9.4</ele>
        <time>2024-04-13T06:34:44Z</time>
      </trkpt>
      <trkpt lat="47.13903" lon="-1.69719">
        <ele>8.4</ele>
        <time>2024-04-13T06:34:49Z</time>
      </trkpt>
      <trkpt lat="47.13891" lon="-1.6972">
        <ele>8.2</ele>
        <time>2024-04-13T06:34:51Z</time>
      </trkpt>
      <trkpt lat="47.13856" lon="-1.69728">
        <ele>8.2</ele>
        <time>2024-04-13T06:34:57Z</time>
      </trkpt>
      <trkpt lat="47.13811" lon="-1.69728">
        <ele>7.6</ele>
        <time>2024-04-13T06:35:05Z</time>
      </trkpt>
      <trkpt lat="47.13794" lon="-1.69727">
        <ele>7.4</ele>
        <time>2024-04-13T06:35:08Z</time>
      </trkpt>
      <trkpt lat="47.13757" lon="-1.69727">
        <ele>6.8</ele>
        <time>2024-04-13T06:35:14Z</time>
      </trkpt>
      <trkpt lat="47.13733" lon="-1.69732">
        <ele>6.6</ele>
        <time>2024-04-13T06:35:18Z</time>
      </trkpt>
      <trkpt lat="47.13716" lon="-1.69736">
        <ele>6.8</ele>
        <time>2024-04-13T06:35:21Z</time>
      </trkpt>
      <trkpt lat="47.13687" lon="-1.69739">
        <ele>6.8</ele>
        <time>2024-04-13T06:35:26Z</time>
      </trkpt>
      <trkpt lat="47.13674" lon="-1.69739">
        <ele>6.6</ele>
        <time>2024-04-13T06:35:28Z</time>
      </trkpt>
      <trkpt lat="47.13661" lon="-1.69738">
        <ele>6.2</ele>
        <time>2024-04-13T06:35:30Z</time>
      </trkpt>
      <trkpt lat="47.13618" lon="-1.69738">
        <ele>5.8</ele>
        <time>2024-04-13T06:35:37Z</time>
      </trkpt>
      <trkpt lat="47.13606" lon="-1.69738">
        <ele>5.6</ele>
        <time>2024-04-13T06:35:39Z</time>
      </trkpt>
      <trkpt lat="47.136" lon="-1.69738">
        <ele>5.2</ele>
        <time>2024-04-13T06:35:40Z</time>
      </trkpt>
      <trkpt lat="47.13572" lon="-1.69741">
        <ele>4.8</ele>
        <time>2024-04-13T06:35:45Z</time>
      </trkpt>
      <trkpt lat="47.13553" lon="-1.69741">
        <ele>4.2</ele>
        <time>2024-04-13T06:35:48Z</time>
      </trkpt>
      <trkpt lat="47.13515" lon="-1.69741">
        <ele>3.8</ele>
        <time>2024-04-13T06:35:54Z</time>
      </trkpt>
      <trkpt lat="47.13475" lon="-1.69745">
        <ele>3.6</ele>
        <time>2024-04-13T06:36:00Z</time>
      </trkpt>
      <trkpt lat="47.13463" lon="-1.69749">
        <ele>3.4</ele>
        <time>2024-04-13T06:36:02Z</time>
      </trkpt>
      <trkpt lat="47.13457" lon="-1.69752">
        <ele>3</ele>
        <time>2024-04-13T06:36:03Z</time>
      </trkpt>
      <trkpt lat="47.13421" lon="-1.69767">
        <ele>2.8</ele>
        <time>2024-04-13T06:36:09Z</time>
      </trkpt>
      <trkpt lat="47.13379" lon="-1.69789">
        <ele>3</ele>
        <time>2024-04-13T06:36:16Z</time>
      </trkpt>
      <trkpt lat="47.13332" lon="-1.69815">
        <ele>3.4</ele>
        <time>2024-04-13T06:36:24Z</time>
      </trkpt>
      <trkpt lat="47.13303" lon="-1.6983">
        <ele>4</ele>
        <time>2024-04-13T06:36:29Z</time>
      </trkpt>
      <trkpt lat="47.13286" lon="-1.69838">
        <ele>4.6</ele>
        <time>2024-04-13T06:36:32Z</time>
      </trkpt>
      <trkpt lat="47.13263" lon="-1.69849">
        <ele>5.4</ele>
        <time>2024-04-13T06:36:36Z</time>
      </trkpt>
      <trkpt lat="47.13234" lon="-1.69865">
        <ele>6</ele>
        <time>2024-04-13T06:36:41Z</time>
      </trkpt>
      <trkpt lat="47.13193" lon="-1.69887">
        <ele>5.2</ele>
        <time>2024-04-13T06:36:47Z</time>
      </trkpt>
      <trkpt lat="47.13159" lon="-1.69904">
        <ele>4</ele>
        <time>2024-04-13T06:36:52Z</time>
      </trkpt>
      <trkpt lat="47.13153" lon="-1.69908">
        <ele>3.8</ele>
        <time>2024-04-13T06:36:53Z</time>
      </trkpt>
      <trkpt lat="47.13111" lon="-1.6993">
        <ele>3</ele>
        <time>2024-04-13T06:37:00Z</time>
      </trkpt>
      <trkpt lat="47.13093" lon="-1.69938">
        <ele>2.8</ele>
        <time>2024-04-13T06:37:03Z</time>
      </trkpt>
      <trkpt lat="47.13076" lon="-1.69947">
        <ele>3</ele>
        <time>2024-04-13T06:37:06Z</time>
      </trkpt>
      <trkpt lat="47.13055" lon="-1.69959">
        <ele>3</ele>
        <time>2024-04-13T06:37:10Z</time>
      </trkpt>
      <trkpt lat="47.13049" lon="-1.69961">
        <ele>3</ele>
        <time>2024-04-13T06:37:11Z</time>
      </trkpt>
      <trkpt lat="47.13023" lon="-1.69975">
        <ele>2.6</ele>
        <time>2024-04-13T06:37:16Z</time>
      </trkpt>
      <trkpt lat="47.13012" lon="-1.69981">
        <ele>2.4</ele>
        <time>2024-04-13T06:37:18Z</time>
      </trkpt>
      <trkpt lat="47.12969" lon="-1.70003">
        <ele>2.6</ele>
        <time>2024-04-13T06:37:26Z</time>
      </trkpt>
      <trkpt lat="47.12924" lon="-1.70027">
        <ele>2.4</ele>
        <time>2024-04-13T06:37:34Z</time>
      </trkpt>
      <trkpt lat="47.12874" lon="-1.70053">
        <ele>2.6</ele>
        <time>2024-04-13T06:37:43Z</time>
      </trkpt>
      <trkpt lat="47.1284" lon="-1.7007">
        <ele>2.6</ele>
        <time>2024-04-13T06:37:49Z</time>
      </trkpt>
      <trkpt lat="47.12799" lon="-1.7009">
        <ele>2.4</ele>
        <time>2024-04-13T06:37:56Z</time>
      </trkpt>
      <trkpt lat="47.12756" lon="-1.70114">
        <ele>2.4</ele>
        <time>2024-04-13T06:38:04Z</time>
      </trkpt>
      <trkpt lat="47.12713" lon="-1.70138">
        <ele>2.4</ele>
        <time>2024-04-13T06:38:12Z</time>
      </trkpt>
      <trkpt lat="47.12667" lon="-1.70162">
        <ele>2.6</ele>
        <time>2024-04-13T06:38:20Z</time>
      </trkpt>
      <trkpt lat="47.12621" lon="-1.70186">
        <ele>2.8</ele>
        <time>2024-04-13T06:38:28Z</time>
      </trkpt>
      <trkpt lat="47.12582" lon="-1.70205">
        <ele>2.6</ele>
        <time>2024-04-13T06:38:35Z</time>
      </trkpt>
      <trkpt lat="47.12532" lon="-1.70231">
        <ele>3</ele>
        <time>2024-04-13T06:38:44Z</time>
      </trkpt>
      <trkpt lat="47.12493" lon="-1.70251">
        <ele>3</ele>
        <time>2024-04-13T06:38:51Z</time>
      </trkpt>
      <trkpt lat="47.12464" lon="-1.70267">
        <ele>3</ele>
        <time>2024-04-13T06:38:56Z</time>
      </trkpt>
      <trkpt lat="47.12459" lon="-1.70271">
        <ele>3</ele>
        <time>2024-04-13T06:38:57Z</time>
      </trkpt>
      <trkpt lat="47.12434" lon="-1.703">
        <ele>3</ele>
        <time>2024-04-13T06:39:02Z</time>
      </trkpt>
      <trkpt lat="47.12418" lon="-1.70335">
        <ele>3</ele>
        <time>2024-04-13T06:39:07Z</time>
      </trkpt>
      <trkpt lat="47.12416" lon="-1.70343">
        <ele>3</ele>
        <time>2024-04-13T06:39:08Z</time>
      </trkpt>
      <trkpt lat="47.12403" lon="-1.704">
        <ele>3.2</ele>
        <time>2024-04-13T06:39:15Z</time>
      </trkpt>
      <trkpt lat="47.12395" lon="-1.70442">
        <ele>3.2</ele>
        <time>2024-04-13T06:39:20Z</time>
      </trkpt>
      <trkpt lat="47.12387" lon="-1.70476">
        <ele>0.60000000000002</ele>
        <time>2024-04-13T06:39:24Z</time>
      </trkpt>
      <trkpt lat="47.12382" lon="-1.70492">
        <ele>0.60000000000002</ele>
        <time>2024-04-13T06:39:26Z</time>
      </trkpt>
      <trkpt lat="47.12378" lon="-1.70508">
        <ele>0.60000000000002</ele>
        <time>2024-04-13T06:39:28Z</time>
      </trkpt>
      <trkpt lat="47.12368" lon="-1.70531">
        <ele>1.4</ele>
        <time>2024-04-13T06:39:31Z</time>
      </trkpt>
      <trkpt lat="47.12344" lon="-1.70571">
        <ele>1.2</ele>
        <time>2024-04-13T06:39:37Z</time>
      </trkpt>
      <trkpt lat="47.12307" lon="-1.70629">
        <ele>1.4</ele>
        <time>2024-04-13T06:39:46Z</time>
      </trkpt>
      <trkpt lat="47.12281" lon="-1.70667">
        <ele>1.6</ele>
        <time>2024-04-13T06:39:52Z</time>
      </trkpt>
      <trkpt lat="47.12258" lon="-1.70699">
        <ele>2.2</ele>
        <time>2024-04-13T06:39:57Z</time>
      </trkpt>
      <trkpt lat="47.12254" lon="-1.70705">
        <ele>3.2</ele>
        <time>2024-04-13T06:39:58Z</time>
      </trkpt>
      <trkpt lat="47.12245" lon="-1.70716">
        <ele>4.4</ele>
        <time>2024-04-13T06:40:00Z</time>
      </trkpt>
      <trkpt lat="47.12236" lon="-1.70727">
        <ele>4.6</ele>
        <time>2024-04-13T06:40:02Z</time>
      </trkpt>
      <trkpt lat="47.12231" lon="-1.70732">
        <ele>4.6</ele>
        <time>2024-04-13T06:40:03Z</time>
      </trkpt>
      <trkpt lat="47.12222" lon="-1.70742">
        <ele>4.8</ele>
        <time>2024-04-13T06:40:05Z</time>
      </trkpt>
      <trkpt lat="47.12211" lon="-1.70752">
        <ele>5</ele>
        <time>2024-04-13T06:40:07Z</time>
      </trkpt>
      <trkpt lat="47.12201" lon="-1.7076">
        <ele>5.2</ele>
        <time>2024-04-13T06:40:09Z</time>
      </trkpt>
      <trkpt lat="47.12186" lon="-1.70771">
        <ele>5.4</ele>
        <time>2024-04-13T06:40:12Z</time>
      </trkpt>
      <trkpt lat="47.12181" lon="-1.70774">
        <ele>5.4</ele>
        <time>2024-04-13T06:40:13Z</time>
      </trkpt>
      <trkpt lat="47.12144" lon="-1.70798">
        <ele>5.4</ele>
        <time>2024-04-13T06:40:20Z</time>
      </trkpt>
      <trkpt lat="47.12092" lon="-1.70834">
        <ele>6.2</ele>
        <time>2024-04-13T06:40:30Z</time>
      </trkpt>
      <trkpt lat="47.1208" lon="-1.70841">
        <ele>6.2</ele>
        <time>2024-04-13T06:40:32Z</time>
      </trkpt>
      <trkpt lat="47.12075" lon="-1.70844">
        <ele>6.4</ele>
        <time>2024-04-13T06:40:33Z</time>
      </trkpt>
      <trkpt lat="47.12064" lon="-1.70851">
        <ele>6.4</ele>
        <time>2024-04-13T06:40:35Z</time>
      </trkpt>
      <trkpt lat="47.12025" lon="-1.70876">
        <ele>7.4</ele>
        <time>2024-04-13T06:40:42Z</time>
      </trkpt>
      <trkpt lat="47.11976" lon="-1.70909">
        <ele>6.2</ele>
        <time>2024-04-13T06:40:51Z</time>
      </trkpt>
      <trkpt lat="47.11935" lon="-1.70936">
        <ele>6</ele>
        <time>2024-04-13T06:40:58Z</time>
      </trkpt>
      <trkpt lat="47.11911" lon="-1.7095">
        <ele>5.6</ele>
        <time>2024-04-13T06:41:02Z</time>
      </trkpt>
      <trkpt lat="47.11899" lon="-1.70958">
        <ele>5.4</ele>
        <time>2024-04-13T06:41:04Z</time>
      </trkpt>
      <trkpt lat="47.11875" lon="-1.70973">
        <ele>5</ele>
        <time>2024-04-13T06:41:08Z</time>
      </trkpt>
      <trkpt lat="47.11859" lon="-1.70984">
        <ele>4.8</ele>
        <time>2024-04-13T06:41:11Z</time>
      </trkpt>
      <trkpt lat="47.11832" lon="-1.71">
        <ele>4.4</ele>
        <time>2024-04-13T06:41:16Z</time>
      </trkpt>
      <trkpt lat="47.11818" lon="-1.71011">
        <ele>4.2</ele>
        <time>2024-04-13T06:41:19Z</time>
      </trkpt>
      <trkpt lat="47.11771" lon="-1.71042">
        <ele>5</ele>
        <time>2024-04-13T06:41:28Z</time>
      </trkpt>
      <trkpt lat="47.11756" lon="-1.71052">
        <ele>5.4</ele>
        <time>2024-04-13T06:41:31Z</time>
      </trkpt>
      <trkpt lat="47.1173" lon="-1.7107">
        <ele>5.4</ele>
        <time>2024-04-13T06:41:36Z</time>
      </trkpt>
      <trkpt lat="47.11698" lon="-1.7109">
        <ele>6.4</ele>
        <time>2024-04-13T06:41:42Z</time>
      </trkpt>
      <trkpt lat="47.11688" lon="-1.71097">
        <ele>6.6</ele>
        <time>2024-04-13T06:41:44Z</time>
      </trkpt>
      <trkpt lat="47.11638" lon="-1.71133">
        <ele>6.6</ele>
        <time>2024-04-13T06:41:53Z</time>
      </trkpt>
      <trkpt lat="47.11633" lon="-1.71138">
        <ele>6.6</ele>
        <time>2024-04-13T06:41:54Z</time>
      </trkpt>
      <trkpt lat="47.11607" lon="-1.71163">
        <ele>6.2</ele>
        <time>2024-04-13T06:41:59Z</time>
      </trkpt>
      <trkpt lat="47.11593" lon="-1.71179">
        <ele>5.4</ele>
        <time>2024-04-13T06:42:02Z</time>
      </trkpt>
      <trkpt lat="47.11588" lon="-1.71185">
        <ele>5.4</ele>
        <time>2024-04-13T06:42:03Z</time>
      </trkpt>
      <trkpt lat="47.11568" lon="-1.71211">
        <ele>5.4</ele>
        <time>2024-04-13T06:42:07Z</time>
      </trkpt>
      <trkpt lat="47.11558" lon="-1.71225">
        <ele>5.4</ele>
        <time>2024-04-13T06:42:09Z</time>
      </trkpt>
      <trkpt lat="47.11554" lon="-1.71232">
        <ele>5.4</ele>
        <time>2024-04-13T06:42:10Z</time>
      </trkpt>
      <trkpt lat="47.11549" lon="-1.71239">
        <ele>5.4</ele>
        <time>2024-04-13T06:42:11Z</time>
      </trkpt>
      <trkpt lat="47.11545" lon="-1.71246">
        <ele>5.4</ele>
        <time>2024-04-13T06:42:12Z</time>
      </trkpt>
      <trkpt lat="47.11524" lon="-1.71283">
        <ele>5</ele>
        <time>2024-04-13T06:42:17Z</time>
      </trkpt>
      <trkpt lat="47.11513" lon="-1.71306">
        <ele>4.8</ele>
        <time>2024-04-13T06:42:20Z</time>
      </trkpt>
      <trkpt lat="47.11491" lon="-1.71351">
        <ele>4.4</ele>
        <time>2024-04-13T06:42:26Z</time>
      </trkpt>
      <trkpt lat="47.11485" lon="-1.71365">
        <ele>4.2</ele>
        <time>2024-04-13T06:42:28Z</time>
      </trkpt>
      <trkpt lat="47.11462" lon="-1.71407">
        <ele>3.8</ele>
        <time>2024-04-13T06:42:34Z</time>
      </trkpt>
      <trkpt lat="47.11442" lon="-1.71449">
        <ele>3.8</ele>
        <time>2024-04-13T06:42:40Z</time>
      </trkpt>
      <trkpt lat="47.11438" lon="-1.71456">
        <ele>3.8</ele>
        <time>2024-04-13T06:42:41Z</time>
      </trkpt>
      <trkpt lat="47.11406" lon="-1.71517">
        <ele>3.6</ele>
        <time>2024-04-13T06:42:50Z</time>
      </trkpt>
      <trkpt lat="47.11374" lon="-1.71581">
        <ele>4</ele>
        <time>2024-04-13T06:42:59Z</time>
      </trkpt>
      <trkpt lat="47.11371" lon="-1.71588">
        <ele>4</ele>
        <time>2024-04-13T06:43:00Z</time>
      </trkpt>
      <trkpt lat="47.11337" lon="-1.71654">
        <ele>3.8</ele>
        <time>2024-04-13T06:43:09Z</time>
      </trkpt>
      <trkpt lat="47.11326" lon="-1.71675">
        <ele>3.8</ele>
        <time>2024-04-13T06:43:12Z</time>
      </trkpt>
      <trkpt lat="47.11318" lon="-1.71689">
        <ele>4</ele>
        <time>2024-04-13T06:43:14Z</time>
      </trkpt>
      <trkpt lat="47.11297" lon="-1.71731">
        <ele>4.6</ele>
        <time>2024-04-13T06:43:20Z</time>
      </trkpt>
      <trkpt lat="47.11266" lon="-1.71791">
        <ele>4.8</ele>
        <time>2024-04-13T06:43:29Z</time>
      </trkpt>
      <trkpt lat="47.11243" lon="-1.71853">
        <ele>5.6</ele>
        <time>2024-04-13T06:43:38Z</time>
      </trkpt>
      <trkpt lat="47.11232" lon="-1.71893">
        <ele>6.8</ele>
        <time>2024-04-13T06:43:44Z</time>
      </trkpt>
      <trkpt lat="47.11229" lon="-1.71906">
        <ele>7</ele>
        <time>2024-04-13T06:43:46Z</time>
      </trkpt>
      <trkpt lat="47.11222" lon="-1.71934">
        <ele>8</ele>
        <time>2024-04-13T06:43:50Z</time>
      </trkpt>
      <trkpt lat="47.11212" lon="-1.71977">
        <ele>9.4</ele>
        <time>2024-04-13T06:43:56Z</time>
      </trkpt>
      <trkpt lat="47.11196" lon="-1.72043">
        <ele>10.2</ele>
        <time>2024-04-13T06:44:05Z</time>
      </trkpt>
      <trkpt lat="47.11194" lon="-1.72051">
        <ele>10.6</ele>
        <time>2024-04-13T06:44:06Z</time>
      </trkpt>
      <trkpt lat="47.11181" lon="-1.72107">
        <ele>11.2</ele>
        <time>2024-04-13T06:44:13Z</time>
      </trkpt>
      <trkpt lat="47.11176" lon="-1.72124">
        <ele>11.6</ele>
        <time>2024-04-13T06:44:15Z</time>
      </trkpt>
      <trkpt lat="47.11174" lon="-1.72132">
        <ele>11.6</ele>
        <time>2024-04-13T06:44:16Z</time>
      </trkpt>
      <trkpt lat="47.11158" lon="-1.72201">
        <ele>11.6</ele>
        <time>2024-04-13T06:44:24Z</time>
      </trkpt>
      <trkpt lat="47.11156" lon="-1.7221">
        <ele>11.6</ele>
        <time>2024-04-13T06:44:25Z</time>
      </trkpt>
      <trkpt lat="47.11137" lon="-1.72289">
        <ele>11.4</ele>
        <time>2024-04-13T06:44:34Z</time>
      </trkpt>
      <trkpt lat="47.11124" lon="-1.72347">
        <ele>11.2</ele>
        <time>2024-04-13T06:44:41Z</time>
      </trkpt>
      <trkpt lat="47.11113" lon="-1.72391">
        <ele>10.6</ele>
        <time>2024-04-13T06:44:46Z</time>
      </trkpt>
      <trkpt lat="47.11105" lon="-1.72428">
        <ele>10.6</ele>
        <time>2024-04-13T06:44:50Z</time>
      </trkpt>
      <trkpt lat="47.1109" lon="-1.72495">
        <ele>10.8</ele>
        <time>2024-04-13T06:44:58Z</time>
      </trkpt>
      <trkpt lat="47.11089" lon="-1.72504">
        <ele>10.8</ele>
        <time>2024-04-13T06:44:59Z</time>
      </trkpt>
      <trkpt lat="47.11087" lon="-1.72513">
        <ele>10.8</ele>
        <time>2024-04-13T06:45:00Z</time>
      </trkpt>
      <trkpt lat="47.11086" lon="-1.72531">
        <ele>10.8</ele>
        <time>2024-04-13T06:45:02Z</time>
      </trkpt>
      <trkpt lat="47.11086" lon="-1.72541">
        <ele>10.8</ele>
        <time>2024-04-13T06:45:03Z</time>
      </trkpt>
      <trkpt lat="47.11087" lon="-1.7255">
        <ele>10.8</ele>
        <time>2024-04-13T06:45:04Z</time>
      </trkpt>
      <trkpt lat="47.11096" lon="-1.72606">
        <ele>11.2</ele>
        <time>2024-04-13T06:45:10Z</time>
      </trkpt>
      <trkpt lat="47.111" lon="-1.72625">
        <ele>11.6</ele>
        <time>2024-04-13T06:45:12Z</time>
      </trkpt>
      <trkpt lat="47.11112" lon="-1.72669">
        <ele>11.8</ele>
        <time>2024-04-13T06:45:17Z</time>
      </trkpt>
      <trkpt lat="47.11131" lon="-1.72745">
        <ele>12</ele>
        <time>2024-04-13T06:45:26Z</time>
      </trkpt>
      <trkpt lat="47.11134" lon="-1.72754">
        <ele>12</ele>
        <time>2024-04-13T06:45:27Z</time>
      </trkpt>
      <trkpt lat="47.11152" lon="-1.7283">
        <ele>12.4</ele>
        <time>2024-04-13T06:45:36Z</time>
      </trkpt>
      <trkpt lat="47.11153" lon="-1.72839">
        <ele>12.4</ele>
        <time>2024-04-13T06:45:37Z</time>
      </trkpt>
      <trkpt lat="47.11155" lon="-1.72848">
        <ele>12.4</ele>
        <time>2024-04-13T06:45:38Z</time>
      </trkpt>
      <trkpt lat="47.11157" lon="-1.72857">
        <ele>12.4</ele>
        <time>2024-04-13T06:45:39Z</time>
      </trkpt>
      <trkpt lat="47.11158" lon="-1.72866">
        <ele>12.4</ele>
        <time>2024-04-13T06:45:40Z</time>
      </trkpt>
      <trkpt lat="47.1116" lon="-1.72874">
        <ele>12.4</ele>
        <time>2024-04-13T06:45:41Z</time>
      </trkpt>
      <trkpt lat="47.11164" lon="-1.72892">
        <ele>12.4</ele>
        <time>2024-04-13T06:45:43Z</time>
      </trkpt>
      <trkpt lat="47.1117" lon="-1.72918">
        <ele>12.6</ele>
        <time>2024-04-13T06:45:46Z</time>
      </trkpt>
      <trkpt lat="47.11176" lon="-1.72944">
        <ele>12.6</ele>
        <time>2024-04-13T06:45:49Z</time>
      </trkpt>
      <trkpt lat="47.11189" lon="-1.72994">
        <ele>12.8</ele>
        <time>2024-04-13T06:45:55Z</time>
      </trkpt>
      <trkpt lat="47.11191" lon="-1.73002">
        <ele>12.8</ele>
        <time>2024-04-13T06:45:56Z</time>
      </trkpt>
      <trkpt lat="47.11209" lon="-1.73084">
        <ele>13</ele>
        <time>2024-04-13T06:46:06Z</time>
      </trkpt>
      <trkpt lat="47.11224" lon="-1.73153">
        <ele>13</ele>
        <time>2024-04-13T06:46:15Z</time>
      </trkpt>
      <trkpt lat="47.11238" lon="-1.73223">
        <ele>12.4</ele>
        <time>2024-04-13T06:46:24Z</time>
      </trkpt>
      <trkpt lat="47.1125" lon="-1.73264">
        <ele>11.6</ele>
        <time>2024-04-13T06:46:29Z</time>
      </trkpt>
      <trkpt lat="47.11252" lon="-1.73272">
        <ele>11.6</ele>
        <time>2024-04-13T06:46:30Z</time>
      </trkpt>
      <trkpt lat="47.11258" lon="-1.73326">
        <ele>10.6</ele>
        <time>2024-04-13T06:46:36Z</time>
      </trkpt>
      <trkpt lat="47.1126" lon="-1.73354">
        <ele>10.6</ele>
        <time>2024-04-13T06:46:39Z</time>
      </trkpt>
      <trkpt lat="47.11261" lon="-1.73373">
        <ele>10.2</ele>
        <time>2024-04-13T06:46:41Z</time>
      </trkpt>
      <trkpt lat="47.11265" lon="-1.7342">
        <ele>9.8</ele>
        <time>2024-04-13T06:46:46Z</time>
      </trkpt>
      <trkpt lat="47.11266" lon="-1.73439">
        <ele>9.2</ele>
        <time>2024-04-13T06:46:48Z</time>
      </trkpt>
      <trkpt lat="47.11269" lon="-1.73458">
        <ele>9</ele>
        <time>2024-04-13T06:46:50Z</time>
      </trkpt>
      <trkpt lat="47.11269" lon="-1.73468">
        <ele>8.8</ele>
        <time>2024-04-13T06:46:51Z</time>
      </trkpt>
      <trkpt lat="47.1127" lon="-1.73488">
        <ele>8.6</ele>
        <time>2024-04-13T06:46:53Z</time>
      </trkpt>
      <trkpt lat="47.11272" lon="-1.73516">
        <ele>8</ele>
        <time>2024-04-13T06:46:56Z</time>
      </trkpt>
      <trkpt lat="47.11273" lon="-1.73544">
        <ele>7.8</ele>
        <time>2024-04-13T06:46:59Z</time>
      </trkpt>
      <trkpt lat="47.11263" lon="-1.73559">
        <ele>7.2</ele>
        <time>2024-04-13T06:47:01Z</time>
      </trkpt>
      <trkpt lat="47.11257" lon="-1.7356">
        <ele>7</ele>
        <time>2024-04-13T06:47:02Z</time>
      </trkpt>
      <trkpt lat="47.11251" lon="-1.7356">
        <ele>7</ele>
        <time>2024-04-13T06:47:03Z</time>
      </trkpt>
      <trkpt lat="47.11245" lon="-1.7356">
        <ele>6.8</ele>
        <time>2024-04-13T06:47:04Z</time>
      </trkpt>
      <trkpt lat="47.11195" lon="-1.73557">
        <ele>6.8</ele>
        <time>2024-04-13T06:47:12Z</time>
      </trkpt>
      <trkpt lat="47.11137" lon="-1.73554">
        <ele>6</ele>
        <time>2024-04-13T06:47:21Z</time>
      </trkpt>
      <trkpt lat="47.11131" lon="-1.73554">
        <ele>5.8</ele>
        <time>2024-04-13T06:47:22Z</time>
      </trkpt>
      <trkpt lat="47.11119" lon="-1.73552">
        <ele>5.6</ele>
        <time>2024-04-13T06:47:24Z</time>
      </trkpt>
      <trkpt lat="47.11082" lon="-1.73539">
        <ele>5.2</ele>
        <time>2024-04-13T06:47:30Z</time>
      </trkpt>
      <trkpt lat="47.11031" lon="-1.73515">
        <ele>5.8</ele>
        <time>2024-04-13T06:47:39Z</time>
      </trkpt>
      <trkpt lat="47.11025" lon="-1.73511">
        <ele>5.8</ele>
        <time>2024-04-13T06:47:40Z</time>
      </trkpt>
      <trkpt lat="47.11002" lon="-1.735">
        <ele>6.6</ele>
        <time>2024-04-13T06:47:44Z</time>
      </trkpt>
      <trkpt lat="47.1098" lon="-1.73493">
        <ele>6.8</ele>
        <time>2024-04-13T06:47:48Z</time>
      </trkpt>
      <trkpt lat="47.10948" lon="-1.73494">
        <ele>6.8</ele>
        <time>2024-04-13T06:47:53Z</time>
      </trkpt>
      <trkpt lat="47.10899" lon="-1.73507">
        <ele>6.8</ele>
        <time>2024-04-13T06:48:01Z</time>
      </trkpt>
      <trkpt lat="47.10866" lon="-1.73519">
        <ele>7</ele>
        <time>2024-04-13T06:48:07Z</time>
      </trkpt>
      <trkpt lat="47.10861" lon="-1.7352">
        <ele>7</ele>
        <time>2024-04-13T06:48:08Z</time>
      </trkpt>
      <trkpt lat="47.10829" lon="-1.73532">
        <ele>7.6</ele>
        <time>2024-04-13T06:48:14Z</time>
      </trkpt>
      <trkpt lat="47.10823" lon="-1.73535">
        <ele>7.6</ele>
        <time>2024-04-13T06:48:15Z</time>
      </trkpt>
      <trkpt lat="47.10808" lon="-1.73545">
        <ele>8</ele>
        <time>2024-04-13T06:48:18Z</time>
      </trkpt>
      <trkpt lat="47.10785" lon="-1.73564">
        <ele>8.4</ele>
        <time>2024-04-13T06:48:23Z</time>
      </trkpt>
      <trkpt lat="47.10776" lon="-1.73572">
        <ele>9.2</ele>
        <time>2024-04-13T06:48:25Z</time>
      </trkpt>
      <trkpt lat="47.1075" lon="-1.73595">
        <ele>10.2</ele>
        <time>2024-04-13T06:48:31Z</time>
      </trkpt>
      <trkpt lat="47.10733" lon="-1.7361">
        <ele>11.2</ele>
        <time>2024-04-13T06:48:35Z</time>
      </trkpt>
      <trkpt lat="47.10729" lon="-1.73614">
        <ele>11.4</ele>
        <time>2024-04-13T06:48:36Z</time>
      </trkpt>
      <trkpt lat="47.107" lon="-1.73641">
        <ele>12.4</ele>
        <time>2024-04-13T06:48:43Z</time>
      </trkpt>
      <trkpt lat="47.10687" lon="-1.73651">
        <ele>13</ele>
        <time>2024-04-13T06:48:46Z</time>
      </trkpt>
      <trkpt lat="47.10669" lon="-1.73662">
        <ele>13.8</ele>
        <time>2024-04-13T06:48:50Z</time>
      </trkpt>
      <trkpt lat="47.10645" lon="-1.73674">
        <ele>14.2</ele>
        <time>2024-04-13T06:48:55Z</time>
      </trkpt>
      <trkpt lat="47.1064" lon="-1.73678">
        <ele>14.2</ele>
        <time>2024-04-13T06:48:56Z</time>
      </trkpt>
      <trkpt lat="47.10632" lon="-1.73687">
        <ele>14.2</ele>
        <time>2024-04-13T06:48:58Z</time>
      </trkpt>
      <trkpt lat="47.10629" lon="-1.73693">
        <ele>14.2</ele>
        <time>2024-04-13T06:48:59Z</time>
      </trkpt>
      <trkpt lat="47.10624" lon="-1.73706">
        <ele>14.2</ele>
        <time>2024-04-13T06:49:01Z</time>
      </trkpt>
      <trkpt lat="47.10614" lon="-1.73727">
        <ele>14</ele>
        <time>2024-04-13T06:49:04Z</time>
      </trkpt>
      <trkpt lat="47.10583" lon="-1.73789">
        <ele>13.2</ele>
        <time>2024-04-13T06:49:13Z</time>
      </trkpt>
      <trkpt lat="47.10553" lon="-1.73844">
        <ele>12.8</ele>
        <time>2024-04-13T06:49:21Z</time>
      </trkpt>
      <trkpt lat="47.10525" lon="-1.73886">
        <ele>14.2</ele>
        <time>2024-04-13T06:49:28Z</time>
      </trkpt>
      <trkpt lat="47.10492" lon="-1.73923">
        <ele>14.2</ele>
        <time>2024-04-13T06:49:35Z</time>
      </trkpt>
      <trkpt lat="47.10487" lon="-1.73928">
        <ele>14</ele>
        <time>2024-04-13T06:49:36Z</time>
      </trkpt>
      <trkpt lat="47.10477" lon="-1.73939">
        <ele>14</ele>
        <time>2024-04-13T06:49:38Z</time>
      </trkpt>
      <trkpt lat="47.10448" lon="-1.7397">
        <ele>14</ele>
        <time>2024-04-13T06:49:44Z</time>
      </trkpt>
      <trkpt lat="47.10409" lon="-1.74011">
        <ele>14</ele>
        <time>2024-04-13T06:49:52Z</time>
      </trkpt>
      <trkpt lat="47.1038" lon="-1.74043">
        <ele>11.4</ele>
        <time>2024-04-13T06:49:58Z</time>
      </trkpt>
      <trkpt lat="47.10367" lon="-1.7406">
        <ele>11</ele>
        <time>2024-04-13T06:50:01Z</time>
      </trkpt>
      <trkpt lat="47.10339" lon="-1.74106">
        <ele>11.6</ele>
        <time>2024-04-13T06:50:08Z</time>
      </trkpt>
      <trkpt lat="47.10336" lon="-1.74113">
        <ele>11.8</ele>
        <time>2024-04-13T06:50:09Z</time>
      </trkpt>
      <trkpt lat="47.10333" lon="-1.74121">
        <ele>11.8</ele>
        <time>2024-04-13T06:50:10Z</time>
      </trkpt>
      <trkpt lat="47.10329" lon="-1.74128">
        <ele>12.2</ele>
        <time>2024-04-13T06:50:11Z</time>
      </trkpt>
      <trkpt lat="47.1032" lon="-1.74149">
        <ele>12.6</ele>
        <time>2024-04-13T06:50:14Z</time>
      </trkpt>
      <trkpt lat="47.10313" lon="-1.74171">
        <ele>12.8</ele>
        <time>2024-04-13T06:50:17Z</time>
      </trkpt>
      <trkpt lat="47.10293" lon="-1.74233">
        <ele>13.6</ele>
        <time>2024-04-13T06:50:25Z</time>
      </trkpt>
      <trkpt lat="47.10291" lon="-1.74241">
        <ele>13.6</ele>
        <time>2024-04-13T06:50:26Z</time>
      </trkpt>
      <trkpt lat="47.10289" lon="-1.74248">
        <ele>13.8</ele>
        <time>2024-04-13T06:50:27Z</time>
      </trkpt>
      <trkpt lat="47.1028" lon="-1.74258">
        <ele>13.8</ele>
        <time>2024-04-13T06:50:29Z</time>
      </trkpt>
      <trkpt lat="47.10276" lon="-1.74265">
        <ele>13.8</ele>
        <time>2024-04-13T06:50:30Z</time>
      </trkpt>
      <trkpt lat="47.10259" lon="-1.7429">
        <ele>13.8</ele>
        <time>2024-04-13T06:50:34Z</time>
      </trkpt>
      <trkpt lat="47.10254" lon="-1.74295">
        <ele>13.8</ele>
        <time>2024-04-13T06:50:35Z</time>
      </trkpt>
      <trkpt lat="47.10229" lon="-1.74321">
        <ele>14.2</ele>
        <time>2024-04-13T06:50:40Z</time>
      </trkpt>
      <trkpt lat="47.10209" lon="-1.74338">
        <ele>14.4</ele>
        <time>2024-04-13T06:50:44Z</time>
      </trkpt>
      <trkpt lat="47.10198" lon="-1.74348">
        <ele>14.6</ele>
        <time>2024-04-13T06:50:46Z</time>
      </trkpt>
      <trkpt lat="47.10168" lon="-1.74377">
        <ele>14.6</ele>
        <time>2024-04-13T06:50:52Z</time>
      </trkpt>
      <trkpt lat="47.10158" lon="-1.74387">
        <ele>14.6</ele>
        <time>2024-04-13T06:50:54Z</time>
      </trkpt>
      <trkpt lat="47.10113" lon="-1.74435">
        <ele>14.8</ele>
        <time>2024-04-13T06:51:03Z</time>
      </trkpt>
      <trkpt lat="47.10071" lon="-1.74485">
        <ele>14.6</ele>
        <time>2024-04-13T06:51:12Z</time>
      </trkpt>
      <trkpt lat="47.10067" lon="-1.7449">
        <ele>14.6</ele>
        <time>2024-04-13T06:51:13Z</time>
      </trkpt>
      <trkpt lat="47.10039" lon="-1.74538">
        <ele>15.4</ele>
        <time>2024-04-13T06:51:20Z</time>
      </trkpt>
      <trkpt lat="47.10023" lon="-1.74577">
        <ele>15.6</ele>
        <time>2024-04-13T06:51:25Z</time>
      </trkpt>
      <trkpt lat="47.1002" lon="-1.74585">
        <ele>15.6</ele>
        <time>2024-04-13T06:51:26Z</time>
      </trkpt>
      <trkpt lat="47.10017" lon="-1.74592">
        <ele>15.6</ele>
        <time>2024-04-13T06:51:27Z</time>
      </trkpt>
      <trkpt lat="47.10015" lon="-1.74601">
        <ele>15.6</ele>
        <time>2024-04-13T06:51:28Z</time>
      </trkpt>
      <trkpt lat="47.10012" lon="-1.74608">
        <ele>15.6</ele>
        <time>2024-04-13T06:51:29Z</time>
      </trkpt>
      <trkpt lat="47.10009" lon="-1.74616">
        <ele>15.8</ele>
        <time>2024-04-13T06:51:30Z</time>
      </trkpt>
      <trkpt lat="47.10004" lon="-1.74633">
        <ele>15.8</ele>
        <time>2024-04-13T06:51:32Z</time>
      </trkpt>
      <trkpt lat="47.10002" lon="-1.74641">
        <ele>17</ele>
        <time>2024-04-13T06:51:33Z</time>
      </trkpt>
      <trkpt lat="47.09999" lon="-1.74648">
        <ele>18.6</ele>
        <time>2024-04-13T06:51:34Z</time>
      </trkpt>
      <trkpt lat="47.09993" lon="-1.74664">
        <ele>18.8</ele>
        <time>2024-04-13T06:51:36Z</time>
      </trkpt>
      <trkpt lat="47.09969" lon="-1.74737">
        <ele>18.4</ele>
        <time>2024-04-13T06:51:45Z</time>
      </trkpt>
      <trkpt lat="47.09967" lon="-1.74745">
        <ele>18.4</ele>
        <time>2024-04-13T06:51:46Z</time>
      </trkpt>
      <trkpt lat="47.09945" lon="-1.74808">
        <ele>19.4</ele>
        <time>2024-04-13T06:51:54Z</time>
      </trkpt>
      <trkpt lat="47.0994" lon="-1.74823">
        <ele>19.6</ele>
        <time>2024-04-13T06:51:56Z</time>
      </trkpt>
      <trkpt lat="47.09922" lon="-1.74877">
        <ele>19.6</ele>
        <time>2024-04-13T06:52:03Z</time>
      </trkpt>
      <trkpt lat="47.09897" lon="-1.74947">
        <ele>20</ele>
        <time>2024-04-13T06:52:12Z</time>
      </trkpt>
      <trkpt lat="47.09867" lon="-1.75014">
        <ele>20.2</ele>
        <time>2024-04-13T06:52:21Z</time>
      </trkpt>
      <trkpt lat="47.09831" lon="-1.75078">
        <ele>19.4</ele>
        <time>2024-04-13T06:52:30Z</time>
      </trkpt>
      <trkpt lat="47.09826" lon="-1.75085">
        <ele>19.4</ele>
        <time>2024-04-13T06:52:31Z</time>
      </trkpt>
      <trkpt lat="47.09809" lon="-1.75113">
        <ele>19.2</ele>
        <time>2024-04-13T06:52:35Z</time>
      </trkpt>
      <trkpt lat="47.09796" lon="-1.75133">
        <ele>19</ele>
        <time>2024-04-13T06:52:38Z</time>
      </trkpt>
      <trkpt lat="47.09791" lon="-1.7514">
        <ele>19</ele>
        <time>2024-04-13T06:52:39Z</time>
      </trkpt>
      <trkpt lat="47.09751" lon="-1.75198">
        <ele>18.6</ele>
        <time>2024-04-13T06:52:48Z</time>
      </trkpt>
      <trkpt lat="47.09747" lon="-1.75205">
        <ele>18.6</ele>
        <time>2024-04-13T06:52:49Z</time>
      </trkpt>
      <trkpt lat="47.09721" lon="-1.75243">
        <ele>18.4</ele>
        <time>2024-04-13T06:52:55Z</time>
      </trkpt>
      <trkpt lat="47.09705" lon="-1.7527">
        <ele>18</ele>
        <time>2024-04-13T06:52:59Z</time>
      </trkpt>
      <trkpt lat="47.09677" lon="-1.75331">
        <ele>17.6</ele>
        <time>2024-04-13T06:53:07Z</time>
      </trkpt>
      <trkpt lat="47.09673" lon="-1.75338">
        <ele>17.6</ele>
        <time>2024-04-13T06:53:08Z</time>
      </trkpt>
      <trkpt lat="47.09669" lon="-1.75345">
        <ele>17.2</ele>
        <time>2024-04-13T06:53:09Z</time>
      </trkpt>
      <trkpt lat="47.09652" lon="-1.75377">
        <ele>17.4</ele>
        <time>2024-04-13T06:53:14Z</time>
      </trkpt>
      <trkpt lat="47.09629" lon="-1.75409">
        <ele>17.6</ele>
        <time>2024-04-13T06:53:19Z</time>
      </trkpt>
      <trkpt lat="47.09625" lon="-1.75415">
        <ele>17.6</ele>
        <time>2024-04-13T06:53:20Z</time>
      </trkpt>
      <trkpt lat="47.0962" lon="-1.75422">
        <ele>17.6</ele>
        <time>2024-04-13T06:53:21Z</time>
      </trkpt>
      <trkpt lat="47.09616" lon="-1.75428">
        <ele>17.4</ele>
        <time>2024-04-13T06:53:22Z</time>
      </trkpt>
      <trkpt lat="47.09607" lon="-1.75441">
        <ele>17.4</ele>
        <time>2024-04-13T06:53:24Z</time>
      </trkpt>
      <trkpt lat="47.09594" lon="-1.75459">
        <ele>17.4</ele>
        <time>2024-04-13T06:53:27Z</time>
      </trkpt>
      <trkpt lat="47.09589" lon="-1.75466">
        <ele>17.4</ele>
        <time>2024-04-13T06:53:28Z</time>
      </trkpt>
      <trkpt lat="47.09581" lon="-1.75479">
        <ele>17.4</ele>
        <time>2024-04-13T06:53:30Z</time>
      </trkpt>
      <trkpt lat="47.09546" lon="-1.75525">
        <ele>16.6</ele>
        <time>2024-04-13T06:53:38Z</time>
      </trkpt>
      <trkpt lat="47.09536" lon="-1.75521">
        <ele>16.4</ele>
        <time>2024-04-13T06:53:40Z</time>
      </trkpt>
      <trkpt lat="47.09531" lon="-1.75508">
        <ele>16.4</ele>
        <time>2024-04-13T06:53:42Z</time>
      </trkpt>
      <trkpt lat="47.09528" lon="-1.75502">
        <ele>16.4</ele>
        <time>2024-04-13T06:53:43Z</time>
      </trkpt>
      <trkpt lat="47.09517" lon="-1.75478">
        <ele>16.8</ele>
        <time>2024-04-13T06:53:47Z</time>
      </trkpt>
      <trkpt lat="47.09513" lon="-1.75463">
        <ele>16.8</ele>
        <time>2024-04-13T06:53:49Z</time>
      </trkpt>
      <trkpt lat="47.09505" lon="-1.75432">
        <ele>17.2</ele>
        <time>2024-04-13T06:53:53Z</time>
      </trkpt>
      <trkpt lat="47.09501" lon="-1.75416">
        <ele>17.2</ele>
        <time>2024-04-13T06:53:55Z</time>
      </trkpt>
      <trkpt lat="47.0948" lon="-1.75341">
        <ele>17.2</ele>
        <time>2024-04-13T06:54:05Z</time>
      </trkpt>
      <trkpt lat="47.09465" lon="-1.7528">
        <ele>16.8</ele>
        <time>2024-04-13T06:54:13Z</time>
      </trkpt>
      <trkpt lat="47.09461" lon="-1.75257">
        <ele>16.8</ele>
        <time>2024-04-13T06:54:16Z</time>
      </trkpt>
      <trkpt lat="47.09453" lon="-1.7522">
        <ele>16.8</ele>
        <time>2024-04-13T06:54:21Z</time>
      </trkpt>
      <trkpt lat="47.0944" lon="-1.7516">
        <ele>16.8</ele>
        <time>2024-04-13T06:54:29Z</time>
      </trkpt>
      <trkpt lat="47.09431" lon="-1.75122">
        <ele>16.8</ele>
        <time>2024-04-13T06:54:34Z</time>
      </trkpt>
      <trkpt lat="47.09429" lon="-1.75115">
        <ele>16.8</ele>
        <time>2024-04-13T06:54:35Z</time>
      </trkpt>
      <trkpt lat="47.09425" lon="-1.751">
        <ele>16.6</ele>
        <time>2024-04-13T06:54:37Z</time>
      </trkpt>
      <trkpt lat="47.0942" lon="-1.7508">
        <ele>16.4</ele>
        <time>2024-04-13T06:54:40Z</time>
      </trkpt>
      <trkpt lat="47.09416" lon="-1.75065">
        <ele>16.4</ele>
        <time>2024-04-13T06:54:42Z</time>
      </trkpt>
      <trkpt lat="47.09412" lon="-1.75044">
        <ele>16.6</ele>
        <time>2024-04-13T06:54:45Z</time>
      </trkpt>
      <trkpt lat="47.09409" lon="-1.75029">
        <ele>16.6</ele>
        <time>2024-04-13T06:54:47Z</time>
      </trkpt>
      <trkpt lat="47.09407" lon="-1.75013">
        <ele>16.4</ele>
        <time>2024-04-13T06:54:49Z</time>
      </trkpt>
      <trkpt lat="47.09405" lon="-1.74982">
        <ele>16.4</ele>
        <time>2024-04-13T06:54:53Z</time>
      </trkpt>
      <trkpt lat="47.09404" lon="-1.74974">
        <ele>16.6</ele>
        <time>2024-04-13T06:54:54Z</time>
      </trkpt>
      <trkpt lat="47.09396" lon="-1.74951">
        <ele>16.6</ele>
        <time>2024-04-13T06:54:57Z</time>
      </trkpt>
      <trkpt lat="47.09381" lon="-1.74913">
        <ele>16.4</ele>
        <time>2024-04-13T06:55:03Z</time>
      </trkpt>
      <trkpt lat="47.09374" lon="-1.74898">
        <ele>16</ele>
        <time>2024-04-13T06:55:06Z</time>
      </trkpt>
      <trkpt lat="47.09369" lon="-1.74889">
        <ele>15.4</ele>
        <time>2024-04-13T06:55:08Z</time>
      </trkpt>
      <trkpt lat="47.09361" lon="-1.74884">
        <ele>15.4</ele>
        <time>2024-04-13T06:55:10Z</time>
      </trkpt>
      <trkpt lat="47.09353" lon="-1.74881">
        <ele>15</ele>
        <time>2024-04-13T06:55:12Z</time>
      </trkpt>
      <trkpt lat="47.09349" lon="-1.74881">
        <ele>15</ele>
        <time>2024-04-13T06:55:13Z</time>
      </trkpt>
      <trkpt lat="47.09333" lon="-1.74882">
        <ele>15</ele>
        <time>2024-04-13T06:55:16Z</time>
      </trkpt>
      <trkpt lat="47.09328" lon="-1.74883">
        <ele>15</ele>
        <time>2024-04-13T06:55:17Z</time>
      </trkpt>
      <trkpt lat="47.09297" lon="-1.74893">
        <ele>14.8</ele>
        <time>2024-04-13T06:55:23Z</time>
      </trkpt>
      <trkpt lat="47.09293" lon="-1.74897">
        <ele>14.6</ele>
        <time>2024-04-13T06:55:24Z</time>
      </trkpt>
      <trkpt lat="47.0928" lon="-1.74906">
        <ele>14.4</ele>
        <time>2024-04-13T06:55:27Z</time>
      </trkpt>
      <trkpt lat="47.09275" lon="-1.7491">
        <ele>14.4</ele>
        <time>2024-04-13T06:55:29Z</time>
      </trkpt>
      <trkpt lat="47.09263" lon="-1.7492">
        <ele>14</ele>
        <time>2024-04-13T06:55:35Z</time>
      </trkpt>
      <trkpt lat="47.09246" lon="-1.74937">
        <ele>14.2</ele>
        <time>2024-04-13T06:55:40Z</time>
      </trkpt>
      <trkpt lat="47.09231" lon="-1.74954">
        <ele>14.4</ele>
        <time>2024-04-13T06:55:44Z</time>
      </trkpt>
      <trkpt lat="47.09227" lon="-1.74965">
        <ele>14.2</ele>
        <time>2024-04-13T06:55:46Z</time>
      </trkpt>
      <trkpt lat="47.09225" lon="-1.7497">
        <ele>14.2</ele>
        <time>2024-04-13T06:55:47Z</time>
      </trkpt>
      <trkpt lat="47.09217" lon="-1.74984">
        <ele>14</ele>
        <time>2024-04-13T06:55:50Z</time>
      </trkpt>
      <trkpt lat="47.09214" lon="-1.74989">
        <ele>14</ele>
        <time>2024-04-13T06:55:51Z</time>
      </trkpt>
      <trkpt lat="47.0921" lon="-1.74994">
        <ele>14.2</ele>
        <time>2024-04-13T06:55:52Z</time>
      </trkpt>
      <trkpt lat="47.09203" lon="-1.75005">
        <ele>14.2</ele>
        <time>2024-04-13T06:55:54Z</time>
      </trkpt>
      <trkpt lat="47.09187" lon="-1.75033">
        <ele>14.2</ele>
        <time>2024-04-13T06:55:59Z</time>
      </trkpt>
      <trkpt lat="47.09184" lon="-1.75038">
        <ele>14.4</ele>
        <time>2024-04-13T06:56:00Z</time>
      </trkpt>
      <trkpt lat="47.09167" lon="-1.75083">
        <ele>14.4</ele>
        <time>2024-04-13T06:56:08Z</time>
      </trkpt>
      <trkpt lat="47.09158" lon="-1.75121">
        <ele>14.2</ele>
        <time>2024-04-13T06:56:14Z</time>
      </trkpt>
      <trkpt lat="47.09147" lon="-1.75153">
        <ele>14</ele>
        <time>2024-04-13T06:56:19Z</time>
      </trkpt>
      <trkpt lat="47.09142" lon="-1.75165">
        <ele>13.8</ele>
        <time>2024-04-13T06:56:21Z</time>
      </trkpt>
      <trkpt lat="47.09121" lon="-1.7522">
        <ele>14</ele>
        <time>2024-04-13T06:56:29Z</time>
      </trkpt>
      <trkpt lat="47.09119" lon="-1.75227">
        <ele>14</ele>
        <time>2024-04-13T06:56:30Z</time>
      </trkpt>
      <trkpt lat="47.09112" lon="-1.75255">
        <ele>13.8</ele>
        <time>2024-04-13T06:56:34Z</time>
      </trkpt>
      <trkpt lat="47.0911" lon="-1.75262">
        <ele>13.8</ele>
        <time>2024-04-13T06:56:35Z</time>
      </trkpt>
      <trkpt lat="47.09109" lon="-1.75269">
        <ele>13.8</ele>
        <time>2024-04-13T06:56:36Z</time>
      </trkpt>
      <trkpt lat="47.09107" lon="-1.75276">
        <ele>13.6</ele>
        <time>2024-04-13T06:56:37Z</time>
      </trkpt>
      <trkpt lat="47.09101" lon="-1.75299">
        <ele>13.2</ele>
        <time>2024-04-13T06:56:41Z</time>
      </trkpt>
      <trkpt lat="47.09097" lon="-1.75313">
        <ele>13.2</ele>
        <time>2024-04-13T06:56:43Z</time>
      </trkpt>
      <trkpt lat="47.0909" lon="-1.75324">
        <ele>13.2</ele>
        <time>2024-04-13T06:56:45Z</time>
      </trkpt>
      <trkpt lat="47.09074" lon="-1.75344">
        <ele>13.4</ele>
        <time>2024-04-13T06:56:49Z</time>
      </trkpt>
      <trkpt lat="47.09066" lon="-1.75353">
        <ele>13.4</ele>
        <time>2024-04-13T06:56:51Z</time>
      </trkpt>
      <trkpt lat="47.09026" lon="-1.75389">
        <ele>13.4</ele>
        <time>2024-04-13T06:57:00Z</time>
      </trkpt>
      <trkpt lat="47.08988" lon="-1.75421">
        <ele>12.8</ele>
        <time>2024-04-13T06:57:08Z</time>
      </trkpt>
      <trkpt lat="47.08947" lon="-1.75466">
        <ele>13</ele>
        <time>2024-04-13T06:57:17Z</time>
      </trkpt>
      <trkpt lat="47.08924" lon="-1.75499">
        <ele>12.6</ele>
        <time>2024-04-13T06:57:23Z</time>
      </trkpt>
      <trkpt lat="47.08887" lon="-1.75551">
        <ele>12.4</ele>
        <time>2024-04-13T06:57:32Z</time>
      </trkpt>
      <trkpt lat="47.08872" lon="-1.75568">
        <ele>12.4</ele>
        <time>2024-04-13T06:57:35Z</time>
      </trkpt>
      <trkpt lat="47.08857" lon="-1.75583">
        <ele>12.4</ele>
        <time>2024-04-13T06:57:38Z</time>
      </trkpt>
      <trkpt lat="47.08853" lon="-1.75588">
        <ele>12.4</ele>
        <time>2024-04-13T06:57:39Z</time>
      </trkpt>
      <trkpt lat="47.08816" lon="-1.75626">
        <ele>12</ele>
        <time>2024-04-13T06:57:47Z</time>
      </trkpt>
      <trkpt lat="47.08811" lon="-1.75631">
        <ele>12</ele>
        <time>2024-04-13T06:57:48Z</time>
      </trkpt>
      <trkpt lat="47.08777" lon="-1.75657">
        <ele>12.2</ele>
        <time>2024-04-13T06:57:54Z</time>
      </trkpt>
      <trkpt lat="47.08766" lon="-1.75665">
        <ele>11.8</ele>
        <time>2024-04-13T06:57:56Z</time>
      </trkpt>
      <trkpt lat="47.08728" lon="-1.75691">
        <ele>11.6</ele>
        <time>2024-04-13T06:58:03Z</time>
      </trkpt>
      <trkpt lat="47.08682" lon="-1.75712">
        <ele>11.6</ele>
        <time>2024-04-13T06:58:11Z</time>
      </trkpt>
      <trkpt lat="47.0867" lon="-1.75715">
        <ele>11.6</ele>
        <time>2024-04-13T06:58:13Z</time>
      </trkpt>
      <trkpt lat="47.08652" lon="-1.7572">
        <ele>11.4</ele>
        <time>2024-04-13T06:58:16Z</time>
      </trkpt>
      <trkpt lat="47.08646" lon="-1.75722">
        <ele>11.4</ele>
        <time>2024-04-13T06:58:17Z</time>
      </trkpt>
      <trkpt lat="47.0864" lon="-1.75725">
        <ele>11.4</ele>
        <time>2024-04-13T06:58:18Z</time>
      </trkpt>
      <trkpt lat="47.08634" lon="-1.75727">
        <ele>11.2</ele>
        <time>2024-04-13T06:58:19Z</time>
      </trkpt>
      <trkpt lat="47.08628" lon="-1.75729">
        <ele>11.2</ele>
        <time>2024-04-13T06:58:20Z</time>
      </trkpt>
      <trkpt lat="47.08609" lon="-1.75733">
        <ele>10.8</ele>
        <time>2024-04-13T06:58:23Z</time>
      </trkpt>
      <trkpt lat="47.08572" lon="-1.75737">
        <ele>10.2</ele>
        <time>2024-04-13T06:58:29Z</time>
      </trkpt>
      <trkpt lat="47.08548" lon="-1.75736">
        <ele>9.6</ele>
        <time>2024-04-13T06:58:33Z</time>
      </trkpt>
      <trkpt lat="47.08542" lon="-1.75738">
        <ele>9.4</ele>
        <time>2024-04-13T06:58:34Z</time>
      </trkpt>
      <trkpt lat="47.08511" lon="-1.75756">
        <ele>9.4</ele>
        <time>2024-04-13T06:58:40Z</time>
      </trkpt>
      <trkpt lat="47.08499" lon="-1.75768">
        <ele>9.6</ele>
        <time>2024-04-13T06:58:43Z</time>
      </trkpt>
      <trkpt lat="47.0849" lon="-1.75778">
        <ele>10</ele>
        <time>2024-04-13T06:58:45Z</time>
      </trkpt>
      <trkpt lat="47.08463" lon="-1.75805">
        <ele>10.2</ele>
        <time>2024-04-13T06:58:51Z</time>
      </trkpt>
      <trkpt lat="47.08459" lon="-1.75809">
        <ele>10.4</ele>
        <time>2024-04-13T06:58:52Z</time>
      </trkpt>
      <trkpt lat="47.08449" lon="-1.75818">
        <ele>10.6</ele>
        <time>2024-04-13T06:58:54Z</time>
      </trkpt>
      <trkpt lat="47.08444" lon="-1.75822">
        <ele>10.8</ele>
        <time>2024-04-13T06:58:55Z</time>
      </trkpt>
      <trkpt lat="47.08425" lon="-1.7584">
        <ele>11.6</ele>
        <time>2024-04-13T06:58:59Z</time>
      </trkpt>
      <trkpt lat="47.08404" lon="-1.7586">
        <ele>11</ele>
        <time>2024-04-13T06:59:04Z</time>
      </trkpt>
      <trkpt lat="47.08397" lon="-1.75867">
        <ele>11</ele>
        <time>2024-04-13T06:59:06Z</time>
      </trkpt>
      <trkpt lat="47.08393" lon="-1.7587">
        <ele>11.4</ele>
        <time>2024-04-13T06:59:07Z</time>
      </trkpt>
      <trkpt lat="47.08386" lon="-1.75876">
        <ele>11.6</ele>
        <time>2024-04-13T06:59:09Z</time>
      </trkpt>
      <trkpt lat="47.08384" lon="-1.75881">
        <ele>11.6</ele>
        <time>2024-04-13T06:59:10Z</time>
      </trkpt>
      <trkpt lat="47.08384" lon="-1.75886">
        <ele>11.6</ele>
        <time>2024-04-13T06:59:11Z</time>
      </trkpt>
      <trkpt lat="47.08384" lon="-1.75891">
        <ele>12.2</ele>
        <time>2024-04-13T06:59:12Z</time>
      </trkpt>
      <trkpt lat="47.08382" lon="-1.75902">
        <ele>12.4</ele>
        <time>2024-04-13T06:59:14Z</time>
      </trkpt>
      <trkpt lat="47.08378" lon="-1.75905">
        <ele>12.6</ele>
        <time>2024-04-13T06:59:15Z</time>
      </trkpt>
      <trkpt lat="47.08352" lon="-1.75924">
        <ele>12.8</ele>
        <time>2024-04-13T06:59:21Z</time>
      </trkpt>
      <trkpt lat="47.0833" lon="-1.7594">
        <ele>13.2</ele>
        <time>2024-04-13T06:59:26Z</time>
      </trkpt>
      <trkpt lat="47.08313" lon="-1.75955">
        <ele>13.6</ele>
        <time>2024-04-13T06:59:30Z</time>
      </trkpt>
      <trkpt lat="47.0828" lon="-1.75981">
        <ele>14.2</ele>
        <time>2024-04-13T06:59:37Z</time>
      </trkpt>
      <trkpt lat="47.08272" lon="-1.75987">
        <ele>14.4</ele>
        <time>2024-04-13T06:59:39Z</time>
      </trkpt>
      <trkpt lat="47.08256" lon="-1.75999">
        <ele>14.6</ele>
        <time>2024-04-13T06:59:43Z</time>
      </trkpt>
      <trkpt lat="47.08247" lon="-1.76004">
        <ele>15</ele>
        <time>2024-04-13T06:59:45Z</time>
      </trkpt>
      <trkpt lat="47.08241" lon="-1.76006">
        <ele>15</ele>
        <time>2024-04-13T06:59:46Z</time>
      </trkpt>
      <trkpt lat="47.0822" lon="-1.76015">
        <ele>15.2</ele>
        <time>2024-04-13T06:59:50Z</time>
      </trkpt>
      <trkpt lat="47.08199" lon="-1.76023">
        <ele>15.6</ele>
        <time>2024-04-13T06:59:54Z</time>
      </trkpt>
      <trkpt lat="47.08158" lon="-1.7603">
        <ele>16</ele>
        <time>2024-04-13T07:00:02Z</time>
      </trkpt>
      <trkpt lat="47.08131" lon="-1.76027">
        <ele>15.8</ele>
        <time>2024-04-13T07:00:08Z</time>
      </trkpt>
      <trkpt lat="47.08126" lon="-1.76027">
        <ele>15.6</ele>
        <time>2024-04-13T07:00:09Z</time>
      </trkpt>
      <trkpt lat="47.08121" lon="-1.76028">
        <ele>15.6</ele>
        <time>2024-04-13T07:00:10Z</time>
      </trkpt>
      <trkpt lat="47.08105" lon="-1.76032">
        <ele>15</ele>
        <time>2024-04-13T07:00:13Z</time>
      </trkpt>
      <trkpt lat="47.08089" lon="-1.76039">
        <ele>15</ele>
        <time>2024-04-13T07:00:16Z</time>
      </trkpt>
      <trkpt lat="47.08074" lon="-1.7605">
        <ele>14.8</ele>
        <time>2024-04-13T07:00:19Z</time>
      </trkpt>
      <trkpt lat="47.08048" lon="-1.76069">
        <ele>14.2</ele>
        <time>2024-04-13T07:00:24Z</time>
      </trkpt>
      <trkpt lat="47.08042" lon="-1.76072">
        <ele>14.2</ele>
        <time>2024-04-13T07:00:25Z</time>
      </trkpt>
      <trkpt lat="47.08009" lon="-1.7608">
        <ele>14.2</ele>
        <time>2024-04-13T07:00:31Z</time>
      </trkpt>
      <trkpt lat="47.07962" lon="-1.76098">
        <ele>14.6</ele>
        <time>2024-04-13T07:00:40Z</time>
      </trkpt>
      <trkpt lat="47.07911" lon="-1.76124">
        <ele>15.2</ele>
        <time>2024-04-13T07:00:50Z</time>
      </trkpt>
      <trkpt lat="47.07905" lon="-1.76128">
        <ele>15.2</ele>
        <time>2024-04-13T07:00:51Z</time>
      </trkpt>
      <trkpt lat="47.07864" lon="-1.76159">
        <ele>15</ele>
        <time>2024-04-13T07:00:59Z</time>
      </trkpt>
      <trkpt lat="47.0783" lon="-1.76178">
        <ele>15.2</ele>
        <time>2024-04-13T07:01:05Z</time>
      </trkpt>
      <trkpt lat="47.07799" lon="-1.76185">
        <ele>15</ele>
        <time>2024-04-13T07:01:10Z</time>
      </trkpt>
      <trkpt lat="47.07779" lon="-1.76189">
        <ele>14.8</ele>
        <time>2024-04-13T07:01:13Z</time>
      </trkpt>
      <trkpt lat="47.07753" lon="-1.76193">
        <ele>14.2</ele>
        <time>2024-04-13T07:01:17Z</time>
      </trkpt>
      <trkpt lat="47.07719" lon="-1.76204">
        <ele>13.4</ele>
        <time>2024-04-13T07:01:22Z</time>
      </trkpt>
      <trkpt lat="47.07708" lon="-1.76214">
        <ele>13.2</ele>
        <time>2024-04-13T07:01:24Z</time>
      </trkpt>
      <trkpt lat="47.07697" lon="-1.76227">
        <ele>13.2</ele>
        <time>2024-04-13T07:01:26Z</time>
      </trkpt>
      <trkpt lat="47.07666" lon="-1.76267">
        <ele>12.8</ele>
        <time>2024-04-13T07:01:33Z</time>
      </trkpt>
      <trkpt lat="47.07636" lon="-1.76296">
        <ele>13.6</ele>
        <time>2024-04-13T07:01:40Z</time>
      </trkpt>
      <trkpt lat="47.07632" lon="-1.76299">
        <ele>13.6</ele>
        <time>2024-04-13T07:01:41Z</time>
      </trkpt>
      <trkpt lat="47.07624" lon="-1.76305">
        <ele>13.8</ele>
        <time>2024-04-13T07:01:43Z</time>
      </trkpt>
      <trkpt lat="47.0762" lon="-1.76307">
        <ele>14</ele>
        <time>2024-04-13T07:01:44Z</time>
      </trkpt>
      <trkpt lat="47.07614" lon="-1.76309">
        <ele>14.4</ele>
        <time>2024-04-13T07:01:46Z</time>
      </trkpt>
      <trkpt lat="47.07611" lon="-1.7631">
        <ele>14.4</ele>
        <time>2024-04-13T07:01:47Z</time>
      </trkpt>
      <trkpt lat="47.07609" lon="-1.76313">
        <ele>14.4</ele>
        <time>2024-04-13T07:01:48Z</time>
      </trkpt>
      <trkpt lat="47.07606" lon="-1.76316">
        <ele>14.4</ele>
        <time>2024-04-13T07:01:49Z</time>
      </trkpt>
      <trkpt lat="47.07603" lon="-1.7632">
        <ele>14.6</ele>
        <time>2024-04-13T07:01:50Z</time>
      </trkpt>
      <trkpt lat="47.07596" lon="-1.76326">
        <ele>14.6</ele>
        <time>2024-04-13T07:01:52Z</time>
      </trkpt>
      <trkpt lat="47.07583" lon="-1.76337">
        <ele>15</ele>
        <time>2024-04-13T07:01:55Z</time>
      </trkpt>
      <trkpt lat="47.07574" lon="-1.76343">
        <ele>15.4</ele>
        <time>2024-04-13T07:01:57Z</time>
      </trkpt>
      <trkpt lat="47.07547" lon="-1.76361">
        <ele>15.8</ele>
        <time>2024-04-13T07:02:03Z</time>
      </trkpt>
      <trkpt lat="47.07518" lon="-1.76381">
        <ele>16.2</ele>
        <time>2024-04-13T07:02:10Z</time>
      </trkpt>
      <trkpt lat="47.07507" lon="-1.76389">
        <ele>16.2</ele>
        <time>2024-04-13T07:02:13Z</time>
      </trkpt>
      <trkpt lat="47.07498" lon="-1.76394">
        <ele>16.4</ele>
        <time>2024-04-13T07:02:15Z</time>
      </trkpt>
      <trkpt lat="47.07495" lon="-1.76397">
        <ele>16.6</ele>
        <time>2024-04-13T07:02:16Z</time>
      </trkpt>
      <trkpt lat="47.07491" lon="-1.764">
        <ele>16.8</ele>
        <time>2024-04-13T07:02:17Z</time>
      </trkpt>
      <trkpt lat="47.0747" lon="-1.76416">
        <ele>17</ele>
        <time>2024-04-13T07:02:22Z</time>
      </trkpt>
      <trkpt lat="47.07466" lon="-1.76419">
        <ele>17</ele>
        <time>2024-04-13T07:02:23Z</time>
      </trkpt>
      <trkpt lat="47.07459" lon="-1.76425">
        <ele>17.4</ele>
        <time>2024-04-13T07:02:25Z</time>
      </trkpt>
      <trkpt lat="47.07437" lon="-1.76438">
        <ele>17.4</ele>
        <time>2024-04-13T07:02:30Z</time>
      </trkpt>
      <trkpt lat="47.07433" lon="-1.76441">
        <ele>17.4</ele>
        <time>2024-04-13T07:02:31Z</time>
      </trkpt>
      <trkpt lat="47.07402" lon="-1.76462">
        <ele>17.8</ele>
        <time>2024-04-13T07:02:38Z</time>
      </trkpt>
      <trkpt lat="47.0739" lon="-1.76474">
        <ele>17.8</ele>
        <time>2024-04-13T07:02:41Z</time>
      </trkpt>
      <trkpt lat="47.07379" lon="-1.76487">
        <ele>17.8</ele>
        <time>2024-04-13T07:02:44Z</time>
      </trkpt>
      <trkpt lat="47.07355" lon="-1.76516">
        <ele>18</ele>
        <time>2024-04-13T07:02:51Z</time>
      </trkpt>
      <trkpt lat="47.07325" lon="-1.76543">
        <ele>18.6</ele>
        <time>2024-04-13T07:02:58Z</time>
      </trkpt>
      <trkpt lat="47.07301" lon="-1.76567">
        <ele>18.6</ele>
        <time>2024-04-13T07:03:04Z</time>
      </trkpt>
      <trkpt lat="47.07278" lon="-1.76595">
        <ele>18.8</ele>
        <time>2024-04-13T07:03:11Z</time>
      </trkpt>
      <trkpt lat="47.07256" lon="-1.76622">
        <ele>18.8</ele>
        <time>2024-04-13T07:03:17Z</time>
      </trkpt>
      <trkpt lat="47.07251" lon="-1.76626">
        <ele>18.8</ele>
        <time>2024-04-13T07:03:18Z</time>
      </trkpt>
      <trkpt lat="47.07237" lon="-1.76637">
        <ele>18.4</ele>
        <time>2024-04-13T07:03:22Z</time>
      </trkpt>
      <trkpt lat="47.0723" lon="-1.76643">
        <ele>18.6</ele>
        <time>2024-04-13T07:03:24Z</time>
      </trkpt>
      <trkpt lat="47.07214" lon="-1.76656">
        <ele>18.8</ele>
        <time>2024-04-13T07:03:30Z</time>
      </trkpt>
      <trkpt lat="47.07197" lon="-1.76671">
        <ele>18.8</ele>
        <time>2024-04-13T07:03:36Z</time>
      </trkpt>
      <trkpt lat="47.0718" lon="-1.76687">
        <ele>19.2</ele>
        <time>2024-04-13T07:03:42Z</time>
      </trkpt>
      <trkpt lat="47.07165" lon="-1.76699">
        <ele>19.4</ele>
        <time>2024-04-13T07:03:49Z</time>
      </trkpt>
      <trkpt lat="47.07161" lon="-1.76703">
        <ele>19.8</ele>
        <time>2024-04-13T07:03:51Z</time>
      </trkpt>
      <trkpt lat="47.07154" lon="-1.7671">
        <ele>20</ele>
        <time>2024-04-13T07:03:55Z</time>
      </trkpt>
      <trkpt lat="47.07146" lon="-1.76717">
        <ele>20.2</ele>
        <time>2024-04-13T07:03:59Z</time>
      </trkpt>
      <trkpt lat="47.07139" lon="-1.76723">
        <ele>20.4</ele>
        <time>2024-04-13T07:04:02Z</time>
      </trkpt>
      <trkpt lat="47.07127" lon="-1.76736">
        <ele>20.4</ele>
        <time>2024-04-13T07:04:08Z</time>
      </trkpt>
      <trkpt lat="47.07116" lon="-1.76747">
        <ele>20.6</ele>
        <time>2024-04-13T07:04:14Z</time>
      </trkpt>
      <trkpt lat="47.07107" lon="-1.76755">
        <ele>20.8</ele>
        <time>2024-04-13T07:04:18Z</time>
      </trkpt>
      <trkpt lat="47.07103" lon="-1.76758">
        <ele>21</ele>
        <time>2024-04-13T07:04:20Z</time>
      </trkpt>
      <trkpt lat="47.07088" lon="-1.76768">
        <ele>21.4</ele>
        <time>2024-04-13T07:04:26Z</time>
      </trkpt>
      <trkpt lat="47.07086" lon="-1.7677">
        <ele>21.4</ele>
        <time>2024-04-13T07:04:27Z</time>
      </trkpt>
      <trkpt lat="47.07083" lon="-1.76774">
        <ele>21.4</ele>
        <time>2024-04-13T07:04:29Z</time>
      </trkpt>
      <trkpt lat="47.07076" lon="-1.76784">
        <ele>21.6</ele>
        <time>2024-04-13T07:04:34Z</time>
      </trkpt>
      <trkpt lat="47.07068" lon="-1.76797">
        <ele>21.8</ele>
        <time>2024-04-13T07:04:39Z</time>
      </trkpt>
      <trkpt lat="47.07067" lon="-1.768">
        <ele>22</ele>
        <time>2024-04-13T07:04:40Z</time>
      </trkpt>
      <trkpt lat="47.07058" lon="-1.76814">
        <ele>22.2</ele>
        <time>2024-04-13T07:04:46Z</time>
      </trkpt>
      <trkpt lat="47.0705" lon="-1.76828">
        <ele>22.2</ele>
        <time>2024-04-13T07:04:51Z</time>
      </trkpt>
      <trkpt lat="47.07046" lon="-1.76834">
        <ele>22.4</ele>
        <time>2024-04-13T07:04:53Z</time>
      </trkpt>
      <trkpt lat="47.07037" lon="-1.76842">
        <ele>22.6</ele>
        <time>2024-04-13T07:04:58Z</time>
      </trkpt>
      <trkpt lat="47.07036" lon="-1.76844">
        <ele>21.2</ele>
        <time>2024-04-13T07:05:01Z</time>
      </trkpt>
      <trkpt lat="47.07021" lon="-1.7687">
        <ele>21.2</ele>
        <time>2024-04-13T07:05:42Z</time>
      </trkpt>
      <trkpt lat="47.07019" lon="-1.76872">
        <ele>21.2</ele>
        <time>2024-04-13T07:05:43Z</time>
      </trkpt>
      <trkpt lat="47.07016" lon="-1.76877">
        <ele>21.6</ele>
        <time>2024-04-13T07:05:46Z</time>
      </trkpt>
      <trkpt lat="47.07011" lon="-1.76886">
        <ele>21.8</ele>
        <time>2024-04-13T07:05:50Z</time>
      </trkpt>
      <trkpt lat="47.06997" lon="-1.76906">
        <ele>22.2</ele>
        <time>2024-04-13T07:05:58Z</time>
      </trkpt>
      <trkpt lat="47.06982" lon="-1.76926">
        <ele>22.8</ele>
        <time>2024-04-13T07:06:06Z</time>
      </trkpt>
      <trkpt lat="47.06979" lon="-1.76928">
        <ele>23</ele>
        <time>2024-04-13T07:06:07Z</time>
      </trkpt>
      <trkpt lat="47.06967" lon="-1.76941">
        <ele>23.6</ele>
        <time>2024-04-13T07:06:12Z</time>
      </trkpt>
      <trkpt lat="47.06965" lon="-1.76944">
        <ele>23.6</ele>
        <time>2024-04-13T07:06:13Z</time>
      </trkpt>
      <trkpt lat="47.06954" lon="-1.76957">
        <ele>24</ele>
        <time>2024-04-13T07:06:17Z</time>
      </trkpt>
      <trkpt lat="47.06944" lon="-1.76968">
        <ele>24.2</ele>
        <time>2024-04-13T07:06:21Z</time>
      </trkpt>
      <trkpt lat="47.06937" lon="-1.7697">
        <ele>24.2</ele>
        <time>2024-04-13T07:06:23Z</time>
      </trkpt>
      <trkpt lat="47.06932" lon="-1.76964">
        <ele>24.4</ele>
        <time>2024-04-13T07:06:25Z</time>
      </trkpt>
      <trkpt lat="47.06928" lon="-1.76954">
        <ele>24.6</ele>
        <time>2024-04-13T07:06:27Z</time>
      </trkpt>
      <trkpt lat="47.06926" lon="-1.76948">
        <ele>24.6</ele>
        <time>2024-04-13T07:06:28Z</time>
      </trkpt>
      <trkpt lat="47.06924" lon="-1.76943">
        <ele>24.8</ele>
        <time>2024-04-13T07:06:29Z</time>
      </trkpt>
      <trkpt lat="47.06921" lon="-1.76937">
        <ele>24.8</ele>
        <time>2024-04-13T07:06:30Z</time>
      </trkpt>
      <trkpt lat="47.0692" lon="-1.76932">
        <ele>24.8</ele>
        <time>2024-04-13T07:06:31Z</time>
      </trkpt>
      <trkpt lat="47.06918" lon="-1.76927">
        <ele>24.8</ele>
        <time>2024-04-13T07:06:32Z</time>
      </trkpt>
      <trkpt lat="47.0691" lon="-1.76908">
        <ele>25</ele>
        <time>2024-04-13T07:06:35Z</time>
      </trkpt>
      <trkpt lat="47.06903" lon="-1.7689">
        <ele>25</ele>
        <time>2024-04-13T07:06:38Z</time>
      </trkpt>
      <trkpt lat="47.06895" lon="-1.76872">
        <ele>25.4</ele>
        <time>2024-04-13T07:06:41Z</time>
      </trkpt>
      <trkpt lat="47.06886" lon="-1.76855">
        <ele>25.6</ele>
        <time>2024-04-13T07:06:44Z</time>
      </trkpt>
      <trkpt lat="47.06877" lon="-1.76846">
        <ele>25.4</ele>
        <time>2024-04-13T07:06:46Z</time>
      </trkpt>
      <trkpt lat="47.06872" lon="-1.76844">
        <ele>25.4</ele>
        <time>2024-04-13T07:06:47Z</time>
      </trkpt>
      <trkpt lat="47.06862" lon="-1.76843">
        <ele>25.4</ele>
        <time>2024-04-13T07:06:49Z</time>
      </trkpt>
      <trkpt lat="47.06857" lon="-1.76844">
        <ele>25.4</ele>
        <time>2024-04-13T07:06:50Z</time>
      </trkpt>
      <trkpt lat="47.06851" lon="-1.76846">
        <ele>25.4</ele>
        <time>2024-04-13T07:06:51Z</time>
      </trkpt>
      <trkpt lat="47.06841" lon="-1.76849">
        <ele>25.6</ele>
        <time>2024-04-13T07:06:53Z</time>
      </trkpt>
      <trkpt lat="47.06837" lon="-1.76851">
        <ele>25.6</ele>
        <time>2024-04-13T07:06:54Z</time>
      </trkpt>
      <trkpt lat="47.06827" lon="-1.76856">
        <ele>25.8</ele>
        <time>2024-04-13T07:06:56Z</time>
      </trkpt>
      <trkpt lat="47.06818" lon="-1.76859">
        <ele>25.8</ele>
        <time>2024-04-13T07:06:58Z</time>
      </trkpt>
      <trkpt lat="47.06795" lon="-1.76867">
        <ele>26.2</ele>
        <time>2024-04-13T07:07:03Z</time>
      </trkpt>
      <trkpt lat="47.06781" lon="-1.7687">
        <ele>26.4</ele>
        <time>2024-04-13T07:07:06Z</time>
      </trkpt>
      <trkpt lat="47.06776" lon="-1.76871">
        <ele>26.8</ele>
        <time>2024-04-13T07:07:07Z</time>
      </trkpt>
      <trkpt lat="47.06771" lon="-1.76872">
        <ele>26.8</ele>
        <time>2024-04-13T07:07:08Z</time>
      </trkpt>
      <trkpt lat="47.06739" lon="-1.76883">
        <ele>27.2</ele>
        <time>2024-04-13T07:07:15Z</time>
      </trkpt>
      <trkpt lat="47.06704" lon="-1.76892">
        <ele>27</ele>
        <time>2024-04-13T07:07:22Z</time>
      </trkpt>
      <trkpt lat="47.0667" lon="-1.76898">
        <ele>27</ele>
        <time>2024-04-13T07:07:29Z</time>
      </trkpt>
      <trkpt lat="47.06659" lon="-1.76903">
        <ele>26.6</ele>
        <time>2024-04-13T07:07:33Z</time>
      </trkpt>
      <trkpt lat="47.06648" lon="-1.76902">
        <ele>26.4</ele>
        <time>2024-04-13T07:07:38Z</time>
      </trkpt>
      <trkpt lat="47.06633" lon="-1.76905">
        <ele>26.8</ele>
        <time>2024-04-13T07:07:42Z</time>
      </trkpt>
      <trkpt lat="47.06607" lon="-1.76914">
        <ele>26.4</ele>
        <time>2024-04-13T07:07:49Z</time>
      </trkpt>
      <trkpt lat="47.06578" lon="-1.76926">
        <ele>26</ele>
        <time>2024-04-13T07:07:56Z</time>
      </trkpt>
      <trkpt lat="47.06554" lon="-1.76934">
        <ele>25.4</ele>
        <time>2024-04-13T07:08:02Z</time>
      </trkpt>
      <trkpt lat="47.06538" lon="-1.76941">
        <ele>25</ele>
        <time>2024-04-13T07:08:06Z</time>
      </trkpt>
      <trkpt lat="47.06525" lon="-1.76951">
        <ele>24.6</ele>
        <time>2024-04-13T07:08:09Z</time>
      </trkpt>
      <trkpt lat="47.06498" lon="-1.7697">
        <ele>24.4</ele>
        <time>2024-04-13T07:08:16Z</time>
      </trkpt>
      <trkpt lat="47.06478" lon="-1.76983">
        <ele>24</ele>
        <time>2024-04-13T07:08:21Z</time>
      </trkpt>
      <trkpt lat="47.06474" lon="-1.76985">
        <ele>23.8</ele>
        <time>2024-04-13T07:08:22Z</time>
      </trkpt>
      <trkpt lat="47.06471" lon="-1.76989">
        <ele>23.8</ele>
        <time>2024-04-13T07:08:23Z</time>
      </trkpt>
      <trkpt lat="47.06453" lon="-1.77004">
        <ele>23.2</ele>
        <time>2024-04-13T07:08:28Z</time>
      </trkpt>
      <trkpt lat="47.06435" lon="-1.77018">
        <ele>22.8</ele>
        <time>2024-04-13T07:08:33Z</time>
      </trkpt>
      <trkpt lat="47.06427" lon="-1.77024">
        <ele>22.6</ele>
        <time>2024-04-13T07:08:35Z</time>
      </trkpt>
      <trkpt lat="47.06399" lon="-1.77056">
        <ele>21.8</ele>
        <time>2024-04-13T07:08:43Z</time>
      </trkpt>
      <trkpt lat="47.06374" lon="-1.77084">
        <ele>21</ele>
        <time>2024-04-13T07:08:50Z</time>
      </trkpt>
      <trkpt lat="47.06359" lon="-1.77097">
        <ele>20.8</ele>
        <time>2024-04-13T07:08:54Z</time>
      </trkpt>
      <trkpt lat="47.06348" lon="-1.77105">
        <ele>20.6</ele>
        <time>2024-04-13T07:08:57Z</time>
      </trkpt>
      <trkpt lat="47.06339" lon="-1.77109">
        <ele>20.4</ele>
        <time>2024-04-13T07:08:59Z</time>
      </trkpt>
      <trkpt lat="47.06317" lon="-1.77119">
        <ele>19.8</ele>
        <time>2024-04-13T07:09:04Z</time>
      </trkpt>
      <trkpt lat="47.06308" lon="-1.77122">
        <ele>19.6</ele>
        <time>2024-04-13T07:09:06Z</time>
      </trkpt>
      <trkpt lat="47.06291" lon="-1.77127">
        <ele>19.6</ele>
        <time>2024-04-13T07:09:10Z</time>
      </trkpt>
      <trkpt lat="47.06264" lon="-1.77129">
        <ele>19</ele>
        <time>2024-04-13T07:09:17Z</time>
      </trkpt>
      <trkpt lat="47.06247" lon="-1.77128">
        <ele>18.8</ele>
        <time>2024-04-13T07:09:23Z</time>
      </trkpt>
      <trkpt lat="47.06242" lon="-1.77128">
        <ele>18.6</ele>
        <time>2024-04-13T07:09:25Z</time>
      </trkpt>
      <trkpt lat="47.06235" lon="-1.77128">
        <ele>18.6</ele>
        <time>2024-04-13T07:09:28Z</time>
      </trkpt>
      <trkpt lat="47.06229" lon="-1.77127">
        <ele>18.6</ele>
        <time>2024-04-13T07:09:30Z</time>
      </trkpt>
      <trkpt lat="47.06218" lon="-1.77127">
        <ele>18.8</ele>
        <time>2024-04-13T07:09:34Z</time>
      </trkpt>
      <trkpt lat="47.06213" lon="-1.77127">
        <ele>18.8</ele>
        <time>2024-04-13T07:09:36Z</time>
      </trkpt>
      <trkpt lat="47.0621" lon="-1.77127">
        <ele>18.8</ele>
        <time>2024-04-13T07:09:37Z</time>
      </trkpt>
      <trkpt lat="47.06207" lon="-1.77127">
        <ele>18.8</ele>
        <time>2024-04-13T07:09:39Z</time>
      </trkpt>
      <trkpt lat="47.06197" lon="-1.77128">
        <ele>18.8</ele>
        <time>2024-04-13T07:09:43Z</time>
      </trkpt>
      <trkpt lat="47.0619" lon="-1.77129">
        <ele>18.8</ele>
        <time>2024-04-13T07:09:50Z</time>
      </trkpt>
      <trkpt lat="47.06158" lon="-1.77129">
        <ele>18.8</ele>
        <time>2024-04-13T07:10:18Z</time>
      </trkpt>
      <trkpt lat="47.06156" lon="-1.7713">
        <ele>19</ele>
        <time>2024-04-13T07:10:19Z</time>
      </trkpt>
      <trkpt lat="47.06155" lon="-1.7713">
        <ele>19.2</ele>
        <time>2024-04-13T07:10:20Z</time>
      </trkpt>
      <trkpt lat="47.06143" lon="-1.77137">
        <ele>19.6</ele>
        <time>2024-04-13T07:10:26Z</time>
      </trkpt>
      <trkpt lat="47.0613" lon="-1.77144">
        <ele>19.8</ele>
        <time>2024-04-13T07:10:32Z</time>
      </trkpt>
      <trkpt lat="47.06127" lon="-1.77144">
        <ele>19.8</ele>
        <time>2024-04-13T07:10:33Z</time>
      </trkpt>
      <trkpt lat="47.06107" lon="-1.77153">
        <ele>19.8</ele>
        <time>2024-04-13T07:10:42Z</time>
      </trkpt>
      <trkpt lat="47.06087" lon="-1.77162">
        <ele>20.2</ele>
        <time>2024-04-13T07:10:51Z</time>
      </trkpt>
      <trkpt lat="47.0607" lon="-1.7717">
        <ele>20.6</ele>
        <time>2024-04-13T07:10:59Z</time>
      </trkpt>
      <trkpt lat="47.06068" lon="-1.77171">
        <ele>20.8</ele>
        <time>2024-04-13T07:11:00Z</time>
      </trkpt>
      <trkpt lat="47.06053" lon="-1.77178">
        <ele>21.8</ele>
        <time>2024-04-13T07:11:06Z</time>
      </trkpt>
      <trkpt lat="47.06047" lon="-1.77182">
        <ele>22</ele>
        <time>2024-04-13T07:11:08Z</time>
      </trkpt>
      <trkpt lat="47.06028" lon="-1.77194">
        <ele>22.4</ele>
        <time>2024-04-13T07:11:14Z</time>
      </trkpt>
      <trkpt lat="47.0602" lon="-1.772">
        <ele>22.4</ele>
        <time>2024-04-13T07:11:17Z</time>
      </trkpt>
      <trkpt lat="47.06004" lon="-1.77211">
        <ele>22.8</ele>
        <time>2024-04-13T07:11:22Z</time>
      </trkpt>
      <trkpt lat="47.05998" lon="-1.77215">
        <ele>23</ele>
        <time>2024-04-13T07:11:24Z</time>
      </trkpt>
      <trkpt lat="47.05969" lon="-1.77234">
        <ele>23.4</ele>
        <time>2024-04-13T07:11:33Z</time>
      </trkpt>
      <trkpt lat="47.05947" lon="-1.7725">
        <ele>23.6</ele>
        <time>2024-04-13T07:11:39Z</time>
      </trkpt>
      <trkpt lat="47.05926" lon="-1.77261">
        <ele>23.8</ele>
        <time>2024-04-13T07:11:45Z</time>
      </trkpt>
      <trkpt lat="47.05922" lon="-1.77264">
        <ele>23.8</ele>
        <time>2024-04-13T07:11:46Z</time>
      </trkpt>
      <trkpt lat="47.05918" lon="-1.77267">
        <ele>23.8</ele>
        <time>2024-04-13T07:11:47Z</time>
      </trkpt>
      <trkpt lat="47.05914" lon="-1.7727">
        <ele>23.8</ele>
        <time>2024-04-13T07:11:48Z</time>
      </trkpt>
      <trkpt lat="47.05893" lon="-1.77287">
        <ele>24.2</ele>
        <time>2024-04-13T07:11:54Z</time>
      </trkpt>
      <trkpt lat="47.05869" lon="-1.77307">
        <ele>24.6</ele>
        <time>2024-04-13T07:12:01Z</time>
      </trkpt>
      <trkpt lat="47.05866" lon="-1.77309">
        <ele>24.6</ele>
        <time>2024-04-13T07:12:02Z</time>
      </trkpt>
      <trkpt lat="47.05855" lon="-1.77318">
        <ele>24.6</ele>
        <time>2024-04-13T07:12:05Z</time>
      </trkpt>
      <trkpt lat="47.05852" lon="-1.77321">
        <ele>24.6</ele>
        <time>2024-04-13T07:12:06Z</time>
      </trkpt>
      <trkpt lat="47.05849" lon="-1.77324">
        <ele>24.6</ele>
        <time>2024-04-13T07:12:07Z</time>
      </trkpt>
      <trkpt lat="47.05845" lon="-1.77327">
        <ele>24.6</ele>
        <time>2024-04-13T07:12:08Z</time>
      </trkpt>
      <trkpt lat="47.05841" lon="-1.7733">
        <ele>24.6</ele>
        <time>2024-04-13T07:12:09Z</time>
      </trkpt>
      <trkpt lat="47.05824" lon="-1.77342">
        <ele>25</ele>
        <time>2024-04-13T07:12:13Z</time>
      </trkpt>
      <trkpt lat="47.05811" lon="-1.7735">
        <ele>25.2</ele>
        <time>2024-04-13T07:12:16Z</time>
      </trkpt>
      <trkpt lat="47.05793" lon="-1.77347">
        <ele>25.2</ele>
        <time>2024-04-13T07:12:21Z</time>
      </trkpt>
      <trkpt lat="47.05771" lon="-1.77341">
        <ele>25.4</ele>
        <time>2024-04-13T07:12:28Z</time>
      </trkpt>
      <trkpt lat="47.05767" lon="-1.77339">
        <ele>25.4</ele>
        <time>2024-04-13T07:12:29Z</time>
      </trkpt>
      <trkpt lat="47.05741" lon="-1.77328">
        <ele>25.6</ele>
        <time>2024-04-13T07:12:36Z</time>
      </trkpt>
      <trkpt lat="47.05716" lon="-1.7732">
        <ele>25.6</ele>
        <time>2024-04-13T07:12:42Z</time>
      </trkpt>
      <trkpt lat="47.05687" lon="-1.77312">
        <ele>25.6</ele>
        <time>2024-04-13T07:12:48Z</time>
      </trkpt>
      <trkpt lat="47.05658" lon="-1.77303">
        <ele>25.2</ele>
        <time>2024-04-13T07:12:55Z</time>
      </trkpt>
      <trkpt lat="47.05632" lon="-1.77294">
        <ele>24.6</ele>
        <time>2024-04-13T07:13:01Z</time>
      </trkpt>
      <trkpt lat="47.05624" lon="-1.77292">
        <ele>24.6</ele>
        <time>2024-04-13T07:13:03Z</time>
      </trkpt>
      <trkpt lat="47.05593" lon="-1.77281">
        <ele>24.4</ele>
        <time>2024-04-13T07:13:10Z</time>
      </trkpt>
      <trkpt lat="47.05572" lon="-1.77276">
        <ele>23.8</ele>
        <time>2024-04-13T07:13:15Z</time>
      </trkpt>
      <trkpt lat="47.05564" lon="-1.77274">
        <ele>23.6</ele>
        <time>2024-04-13T07:13:17Z</time>
      </trkpt>
      <trkpt lat="47.05533" lon="-1.77268">
        <ele>22.8</ele>
        <time>2024-04-13T07:13:24Z</time>
      </trkpt>
      <trkpt lat="47.05511" lon="-1.77268">
        <ele>22.4</ele>
        <time>2024-04-13T07:13:29Z</time>
      </trkpt>
      <trkpt lat="47.0549" lon="-1.77259">
        <ele>22</ele>
        <time>2024-04-13T07:13:34Z</time>
      </trkpt>
      <trkpt lat="47.05477" lon="-1.77261">
        <ele>21.8</ele>
        <time>2024-04-13T07:13:37Z</time>
      </trkpt>
      <trkpt lat="47.05463" lon="-1.77261">
        <ele>21.8</ele>
        <time>2024-04-13T07:13:40Z</time>
      </trkpt>
      <trkpt lat="47.0543" lon="-1.77258">
        <ele>22</ele>
        <time>2024-04-13T07:13:47Z</time>
      </trkpt>
      <trkpt lat="47.05398" lon="-1.77258">
        <ele>21.8</ele>
        <time>2024-04-13T07:13:54Z</time>
      </trkpt>
      <trkpt lat="47.05374" lon="-1.77258">
        <ele>21.8</ele>
        <time>2024-04-13T07:14:00Z</time>
      </trkpt>
      <trkpt lat="47.05358" lon="-1.77259">
        <ele>21.8</ele>
        <time>2024-04-13T07:14:05Z</time>
      </trkpt>
      <trkpt lat="47.05348" lon="-1.7726">
        <ele>21.8</ele>
        <time>2024-04-13T07:14:10Z</time>
      </trkpt>
      <trkpt lat="47.05336" lon="-1.77258">
        <ele>21.8</ele>
        <time>2024-04-13T07:14:16Z</time>
      </trkpt>
      <trkpt lat="47.05324" lon="-1.77258">
        <ele>21.8</ele>
        <time>2024-04-13T07:14:22Z</time>
      </trkpt>
      <trkpt lat="47.05316" lon="-1.77256">
        <ele>22</ele>
        <time>2024-04-13T07:14:28Z</time>
      </trkpt>
      <trkpt lat="47.05316" lon="-1.77256">
        <ele>22</ele>
        <time>2024-04-13T07:14:29Z</time>
      </trkpt>
      <trkpt lat="47.05311" lon="-1.77256">
        <ele>21.8</ele>
        <time>2024-04-13T07:14:32Z</time>
      </trkpt>
      <trkpt lat="47.05308" lon="-1.77256">
        <ele>21.8</ele>
        <time>2024-04-13T07:14:34Z</time>
      </trkpt>
      <trkpt lat="47.053" lon="-1.77255">
        <ele>21.6</ele>
        <time>2024-04-13T07:14:42Z</time>
      </trkpt>
      <trkpt lat="47.05294" lon="-1.77256">
        <ele>21.6</ele>
        <time>2024-04-13T07:14:48Z</time>
      </trkpt>
      <trkpt lat="47.05291" lon="-1.77256">
        <ele>21.6</ele>
        <time>2024-04-13T07:14:50Z</time>
      </trkpt>
      <trkpt lat="47.05284" lon="-1.77255">
        <ele>21.8</ele>
        <time>2024-04-13T07:14:56Z</time>
      </trkpt>
      <trkpt lat="47.05278" lon="-1.77255">
        <ele>22.2</ele>
        <time>2024-04-13T07:15:03Z</time>
      </trkpt>
      <trkpt lat="47.05275" lon="-1.77256">
        <ele>22.2</ele>
        <time>2024-04-13T07:15:05Z</time>
      </trkpt>
      <trkpt lat="47.05274" lon="-1.77255">
        <ele>22.4</ele>
        <time>2024-04-13T07:15:07Z</time>
      </trkpt>
      <trkpt lat="47.05271" lon="-1.77256">
        <ele>22.6</ele>
        <time>2024-04-13T07:15:10Z</time>
      </trkpt>
      <trkpt lat="47.05263" lon="-1.77257">
        <ele>22.6</ele>
        <time>2024-04-13T07:15:17Z</time>
      </trkpt>
      <trkpt lat="47.0526" lon="-1.77257">
        <ele>22.8</ele>
        <time>2024-04-13T07:15:19Z</time>
      </trkpt>
      <trkpt lat="47.05253" lon="-1.77258">
        <ele>23</ele>
        <time>2024-04-13T07:15:26Z</time>
      </trkpt>
      <trkpt lat="47.05246" lon="-1.77258">
        <ele>23.2</ele>
        <time>2024-04-13T07:15:32Z</time>
      </trkpt>
      <trkpt lat="47.05244" lon="-1.77258">
        <ele>23.6</ele>
        <time>2024-04-13T07:15:36Z</time>
      </trkpt>
      <trkpt lat="47.05235" lon="-1.7726">
        <ele>22.8</ele>
        <time>2024-04-13T07:17:24Z</time>
      </trkpt>
      <trkpt lat="47.05233" lon="-1.7726">
        <ele>22.8</ele>
        <time>2024-04-13T07:17:25Z</time>
      </trkpt>
      <trkpt lat="47.05222" lon="-1.77261">
        <ele>23.2</ele>
        <time>2024-04-13T07:17:31Z</time>
      </trkpt>
      <trkpt lat="47.05211" lon="-1.77261">
        <ele>23.4</ele>
        <time>2024-04-13T07:17:37Z</time>
      </trkpt>
      <trkpt lat="47.05199" lon="-1.77261">
        <ele>23.6</ele>
        <time>2024-04-13T07:17:43Z</time>
      </trkpt>
      <trkpt lat="47.05193" lon="-1.77261">
        <ele>23.8</ele>
        <time>2024-04-13T07:17:46Z</time>
      </trkpt>
      <trkpt lat="47.05187" lon="-1.77261">
        <ele>23.8</ele>
        <time>2024-04-13T07:17:49Z</time>
      </trkpt>
      <trkpt lat="47.05184" lon="-1.77261">
        <ele>23.8</ele>
        <time>2024-04-13T07:17:50Z</time>
      </trkpt>
      <trkpt lat="47.05158" lon="-1.77263">
        <ele>24.4</ele>
        <time>2024-04-13T07:17:59Z</time>
      </trkpt>
      <trkpt lat="47.05134" lon="-1.77265">
        <ele>24.4</ele>
        <time>2024-04-13T07:18:07Z</time>
      </trkpt>
      <trkpt lat="47.05123" lon="-1.77265">
        <ele>24.6</ele>
        <time>2024-04-13T07:18:11Z</time>
      </trkpt>
      <trkpt lat="47.0512" lon="-1.77265">
        <ele>24.6</ele>
        <time>2024-04-13T07:18:12Z</time>
      </trkpt>
      <trkpt lat="47.05113" lon="-1.77266">
        <ele>24.6</ele>
        <time>2024-04-13T07:18:14Z</time>
      </trkpt>
      <trkpt lat="47.05101" lon="-1.77265">
        <ele>24.6</ele>
        <time>2024-04-13T07:18:18Z</time>
      </trkpt>
      <trkpt lat="47.05091" lon="-1.77264">
        <ele>24.6</ele>
        <time>2024-04-13T07:18:21Z</time>
      </trkpt>
      <trkpt lat="47.0507" lon="-1.77265">
        <ele>24.2</ele>
        <time>2024-04-13T07:18:28Z</time>
      </trkpt>
      <trkpt lat="47.0506" lon="-1.77263">
        <ele>24</ele>
        <time>2024-04-13T07:18:33Z</time>
      </trkpt>
      <trkpt lat="47.0505" lon="-1.77264">
        <ele>23.8</ele>
        <time>2024-04-13T07:18:38Z</time>
      </trkpt>
      <trkpt lat="47.05037" lon="-1.77262">
        <ele>23.8</ele>
        <time>2024-04-13T07:18:43Z</time>
      </trkpt>
      <trkpt lat="47.05014" lon="-1.77266">
        <ele>24</ele>
        <time>2024-04-13T07:18:50Z</time>
      </trkpt>
      <trkpt lat="47.04988" lon="-1.77272">
        <ele>24</ele>
        <time>2024-04-13T07:18:58Z</time>
      </trkpt>
      <trkpt lat="47.04963" lon="-1.77274">
        <ele>23.8</ele>
        <time>2024-04-13T07:19:04Z</time>
      </trkpt>
      <trkpt lat="47.04931" lon="-1.77272">
        <ele>23.6</ele>
        <time>2024-04-13T07:19:12Z</time>
      </trkpt>
      <trkpt lat="47.04902" lon="-1.7727">
        <ele>23.8</ele>
        <time>2024-04-13T07:19:19Z</time>
      </trkpt>
      <trkpt lat="47.04873" lon="-1.77268">
        <ele>23.6</ele>
        <time>2024-04-13T07:19:26Z</time>
      </trkpt>
      <trkpt lat="47.04851" lon="-1.77265">
        <ele>23.4</ele>
        <time>2024-04-13T07:19:32Z</time>
      </trkpt>
      <trkpt lat="47.04835" lon="-1.77261">
        <ele>23</ele>
        <time>2024-04-13T07:19:37Z</time>
      </trkpt>
      <trkpt lat="47.04817" lon="-1.77255">
        <ele>22.8</ele>
        <time>2024-04-13T07:19:42Z</time>
      </trkpt>
      <trkpt lat="47.04798" lon="-1.77252">
        <ele>22.8</ele>
        <time>2024-04-13T07:19:48Z</time>
      </trkpt>
      <trkpt lat="47.04795" lon="-1.77251">
        <ele>22.8</ele>
        <time>2024-04-13T07:19:49Z</time>
      </trkpt>
      <trkpt lat="47.04777" lon="-1.77249">
        <ele>22.8</ele>
        <time>2024-04-13T07:19:54Z</time>
      </trkpt>
      <trkpt lat="47.04747" lon="-1.77245">
        <ele>23</ele>
        <time>2024-04-13T07:20:01Z</time>
      </trkpt>
      <trkpt lat="47.04723" lon="-1.77243">
        <ele>22.6</ele>
        <time>2024-04-13T07:20:07Z</time>
      </trkpt>
      <trkpt lat="47.04716" lon="-1.77242">
        <ele>22.6</ele>
        <time>2024-04-13T07:20:09Z</time>
      </trkpt>
      <trkpt lat="47.04709" lon="-1.7724">
        <ele>22.8</ele>
        <time>2024-04-13T07:20:11Z</time>
      </trkpt>
      <trkpt lat="47.0468" lon="-1.77241">
        <ele>23</ele>
        <time>2024-04-13T07:20:19Z</time>
      </trkpt>
      <trkpt lat="47.04655" lon="-1.77244">
        <ele>22.8</ele>
        <time>2024-04-13T07:20:26Z</time>
      </trkpt>
      <trkpt lat="47.04642" lon="-1.77247">
        <ele>22.8</ele>
        <time>2024-04-13T07:20:30Z</time>
      </trkpt>
      <trkpt lat="47.04639" lon="-1.77248">
        <ele>22.8</ele>
        <time>2024-04-13T07:20:31Z</time>
      </trkpt>
      <trkpt lat="47.04618" lon="-1.77254">
        <ele>23.2</ele>
        <time>2024-04-13T07:20:38Z</time>
      </trkpt>
      <trkpt lat="47.046" lon="-1.77263">
        <ele>23.6</ele>
        <time>2024-04-13T07:20:45Z</time>
      </trkpt>
      <trkpt lat="47.04582" lon="-1.77267">
        <ele>23.8</ele>
        <time>2024-04-13T07:20:51Z</time>
      </trkpt>
      <trkpt lat="47.04571" lon="-1.77271">
        <ele>23.8</ele>
        <time>2024-04-13T07:20:54Z</time>
      </trkpt>
      <trkpt lat="47.04556" lon="-1.77275">
        <ele>24.2</ele>
        <time>2024-04-13T07:20:58Z</time>
      </trkpt>
      <trkpt lat="47.0454" lon="-1.77272">
        <ele>24.2</ele>
        <time>2024-04-13T07:21:03Z</time>
      </trkpt>
      <trkpt lat="47.04537" lon="-1.77268">
        <ele>24.4</ele>
        <time>2024-04-13T07:21:04Z</time>
      </trkpt>
      <trkpt lat="47.04535" lon="-1.77257">
        <ele>24.4</ele>
        <time>2024-04-13T07:21:06Z</time>
      </trkpt>
      <trkpt lat="47.04533" lon="-1.77219">
        <ele>24.4</ele>
        <time>2024-04-13T07:21:12Z</time>
      </trkpt>
      <trkpt lat="47.04535" lon="-1.77184">
        <ele>24</ele>
        <time>2024-04-13T07:21:19Z</time>
      </trkpt>
      <trkpt lat="47.0455" lon="-1.77174">
        <ele>24</ele>
        <time>2024-04-13T07:21:23Z</time>
      </trkpt>
      <trkpt lat="47.04551" lon="-1.77162">
        <ele>24</ele>
        <time>2024-04-13T07:21:25Z</time>
      </trkpt>
      <trkpt lat="47.04544" lon="-1.77158">
        <ele>24</ele>
        <time>2024-04-13T07:21:27Z</time>
      </trkpt>
      <trkpt lat="47.04532" lon="-1.7716">
        <ele>24</ele>
        <time>2024-04-13T07:21:30Z</time>
      </trkpt>
      <trkpt lat="47.04524" lon="-1.7716">
        <ele>24</ele>
        <time>2024-04-13T07:21:32Z</time>
      </trkpt>
      <trkpt lat="47.04507" lon="-1.77157">
        <ele>24.4</ele>
        <time>2024-04-13T07:21:36Z</time>
      </trkpt>
      <trkpt lat="47.04498" lon="-1.77156">
        <ele>24.4</ele>
        <time>2024-04-13T07:21:38Z</time>
      </trkpt>
      <trkpt lat="47.04473" lon="-1.77154">
        <ele>25</ele>
        <time>2024-04-13T07:21:43Z</time>
      </trkpt>
      <trkpt lat="47.04458" lon="-1.77153">
        <ele>25.2</ele>
        <time>2024-04-13T07:21:46Z</time>
      </trkpt>
      <trkpt lat="47.04444" lon="-1.77151">
        <ele>25.6</ele>
        <time>2024-04-13T07:21:49Z</time>
      </trkpt>
      <trkpt lat="47.0443" lon="-1.7715">
        <ele>26</ele>
        <time>2024-04-13T07:21:52Z</time>
      </trkpt>
      <trkpt lat="47.04425" lon="-1.77148">
        <ele>26</ele>
        <time>2024-04-13T07:21:53Z</time>
      </trkpt>
      <trkpt lat="47.0438" lon="-1.77135">
        <ele>26.4</ele>
        <time>2024-04-13T07:22:02Z</time>
      </trkpt>
      <trkpt lat="47.04345" lon="-1.77121">
        <ele>26.8</ele>
        <time>2024-04-13T07:22:09Z</time>
      </trkpt>
      <trkpt lat="47.04309" lon="-1.77108">
        <ele>26.8</ele>
        <time>2024-04-13T07:22:16Z</time>
      </trkpt>
      <trkpt lat="47.04304" lon="-1.77109">
        <ele>26.8</ele>
        <time>2024-04-13T07:22:17Z</time>
      </trkpt>
      <trkpt lat="47.04298" lon="-1.7711">
        <ele>26.8</ele>
        <time>2024-04-13T07:22:18Z</time>
      </trkpt>
      <trkpt lat="47.04282" lon="-1.77116">
        <ele>26.8</ele>
        <time>2024-04-13T07:22:21Z</time>
      </trkpt>
      <trkpt lat="47.04277" lon="-1.77117">
        <ele>26.6</ele>
        <time>2024-04-13T07:22:22Z</time>
      </trkpt>
      <trkpt lat="47.04237" lon="-1.77127">
        <ele>27</ele>
        <time>2024-04-13T07:22:29Z</time>
      </trkpt>
      <trkpt lat="47.04193" lon="-1.77151">
        <ele>27</ele>
        <time>2024-04-13T07:22:37Z</time>
      </trkpt>
      <trkpt lat="47.04183" lon="-1.77158">
        <ele>27</ele>
        <time>2024-04-13T07:22:39Z</time>
      </trkpt>
      <trkpt lat="47.04161" lon="-1.77163">
        <ele>27</ele>
        <time>2024-04-13T07:22:43Z</time>
      </trkpt>
      <trkpt lat="47.04125" lon="-1.77157">
        <ele>26.6</ele>
        <time>2024-04-13T07:22:49Z</time>
      </trkpt>
      <trkpt lat="47.04084" lon="-1.77141">
        <ele>26.2</ele>
        <time>2024-04-13T07:22:56Z</time>
      </trkpt>
      <trkpt lat="47.04048" lon="-1.77121">
        <ele>26</ele>
        <time>2024-04-13T07:23:02Z</time>
      </trkpt>
      <trkpt lat="47.04042" lon="-1.77116">
        <ele>26</ele>
        <time>2024-04-13T07:23:03Z</time>
      </trkpt>
      <trkpt lat="47.04036" lon="-1.77113">
        <ele>26</ele>
        <time>2024-04-13T07:23:04Z</time>
      </trkpt>
      <trkpt lat="47.04008" lon="-1.77103">
        <ele>26.2</ele>
        <time>2024-04-13T07:23:08Z</time>
      </trkpt>
      <trkpt lat="47.03965" lon="-1.7709">
        <ele>26</ele>
        <time>2024-04-13T07:23:15Z</time>
      </trkpt>
      <trkpt lat="47.03922" lon="-1.77074">
        <ele>25.6</ele>
        <time>2024-04-13T07:23:22Z</time>
      </trkpt>
      <trkpt lat="47.03879" lon="-1.77054">
        <ele>24.8</ele>
        <time>2024-04-13T07:23:29Z</time>
      </trkpt>
      <trkpt lat="47.03873" lon="-1.77051">
        <ele>24.6</ele>
        <time>2024-04-13T07:23:30Z</time>
      </trkpt>
      <trkpt lat="47.03834" lon="-1.77034">
        <ele>24.2</ele>
        <time>2024-04-13T07:23:37Z</time>
      </trkpt>
      <trkpt lat="47.03812" lon="-1.77025">
        <ele>23.8</ele>
        <time>2024-04-13T07:23:41Z</time>
      </trkpt>
      <trkpt lat="47.03797" lon="-1.77017">
        <ele>23.6</ele>
        <time>2024-04-13T07:23:44Z</time>
      </trkpt>
      <trkpt lat="47.03779" lon="-1.77005">
        <ele>23.2</ele>
        <time>2024-04-13T07:23:48Z</time>
      </trkpt>
      <trkpt lat="47.03777" lon="-1.76998">
        <ele>23.2</ele>
        <time>2024-04-13T07:23:49Z</time>
      </trkpt>
      <trkpt lat="47.03776" lon="-1.76989">
        <ele>23</ele>
        <time>2024-04-13T07:23:50Z</time>
      </trkpt>
      <trkpt lat="47.03775" lon="-1.76973">
        <ele>22.6</ele>
        <time>2024-04-13T07:23:52Z</time>
      </trkpt>
      <trkpt lat="47.03774" lon="-1.76966">
        <ele>22.4</ele>
        <time>2024-04-13T07:23:53Z</time>
      </trkpt>
      <trkpt lat="47.03772" lon="-1.76959">
        <ele>22.4</ele>
        <time>2024-04-13T07:23:54Z</time>
      </trkpt>
      <trkpt lat="47.03766" lon="-1.7694">
        <ele>22.2</ele>
        <time>2024-04-13T07:23:57Z</time>
      </trkpt>
      <trkpt lat="47.03764" lon="-1.76933">
        <ele>22.2</ele>
        <time>2024-04-13T07:23:58Z</time>
      </trkpt>
      <trkpt lat="47.03763" lon="-1.76926">
        <ele>22.2</ele>
        <time>2024-04-13T07:23:59Z</time>
      </trkpt>
      <trkpt lat="47.03759" lon="-1.7689">
        <ele>21.6</ele>
        <time>2024-04-13T07:24:04Z</time>
      </trkpt>
      <trkpt lat="47.03756" lon="-1.76876">
        <ele>21.6</ele>
        <time>2024-04-13T07:24:06Z</time>
      </trkpt>
      <trkpt lat="47.03748" lon="-1.76869">
        <ele>21.8</ele>
        <time>2024-04-13T07:24:08Z</time>
      </trkpt>
      <trkpt lat="47.0374" lon="-1.76863">
        <ele>21.6</ele>
        <time>2024-04-13T07:24:11Z</time>
      </trkpt>
      <trkpt lat="47.03738" lon="-1.76859">
        <ele>20.8</ele>
        <time>2024-04-13T07:24:12Z</time>
      </trkpt>
      <trkpt lat="47.03737" lon="-1.76853">
        <ele>20.8</ele>
        <time>2024-04-13T07:24:13Z</time>
      </trkpt>
      <trkpt lat="47.03734" lon="-1.76832">
        <ele>20.6</ele>
        <time>2024-04-13T07:24:16Z</time>
      </trkpt>
      <trkpt lat="47.03733" lon="-1.76825">
        <ele>20.6</ele>
        <time>2024-04-13T07:24:17Z</time>
      </trkpt>
      <trkpt lat="47.03725" lon="-1.76817">
        <ele>21</ele>
        <time>2024-04-13T07:24:19Z</time>
      </trkpt>
      <trkpt lat="47.03721" lon="-1.76817">
        <ele>21.2</ele>
        <time>2024-04-13T07:24:20Z</time>
      </trkpt>
      <trkpt lat="47.03707" lon="-1.76822">
        <ele>22.4</ele>
        <time>2024-04-13T07:24:24Z</time>
      </trkpt>
      <trkpt lat="47.037" lon="-1.76839">
        <ele>22.4</ele>
        <time>2024-04-13T07:24:27Z</time>
      </trkpt>
      <trkpt lat="47.03699" lon="-1.76846">
        <ele>22.2</ele>
        <time>2024-04-13T07:24:28Z</time>
      </trkpt>
      <trkpt lat="47.03693" lon="-1.76868">
        <ele>21.2</ele>
        <time>2024-04-13T07:24:31Z</time>
      </trkpt>
      <trkpt lat="47.03685" lon="-1.76877">
        <ele>20.8</ele>
        <time>2024-04-13T07:24:33Z</time>
      </trkpt>
      <trkpt lat="47.03675" lon="-1.76878">
        <ele>20.8</ele>
        <time>2024-04-13T07:24:35Z</time>
      </trkpt>
      <trkpt lat="47.03665" lon="-1.76879">
        <ele>20.6</ele>
        <time>2024-04-13T07:24:37Z</time>
      </trkpt>
      <trkpt lat="47.03628" lon="-1.7688">
        <ele>20.8</ele>
        <time>2024-04-13T07:24:45Z</time>
      </trkpt>
      <trkpt lat="47.03604" lon="-1.76879">
        <ele>21.2</ele>
        <time>2024-04-13T07:24:51Z</time>
      </trkpt>
      <trkpt lat="47.03578" lon="-1.7688">
        <ele>20.6</ele>
        <time>2024-04-13T07:24:56Z</time>
      </trkpt>
      <trkpt lat="47.03562" lon="-1.76882">
        <ele>20.4</ele>
        <time>2024-04-13T07:24:59Z</time>
      </trkpt>
      <trkpt lat="47.03524" lon="-1.76897">
        <ele>19.4</ele>
        <time>2024-04-13T07:25:06Z</time>
      </trkpt>
      <trkpt lat="47.03505" lon="-1.76904">
        <ele>19</ele>
        <time>2024-04-13T07:25:10Z</time>
      </trkpt>
      <trkpt lat="47.03496" lon="-1.76903">
        <ele>18.6</ele>
        <time>2024-04-13T07:25:12Z</time>
      </trkpt>
      <trkpt lat="47.03489" lon="-1.76896">
        <ele>18.4</ele>
        <time>2024-04-13T07:25:14Z</time>
      </trkpt>
      <trkpt lat="47.03489" lon="-1.76891">
        <ele>18.4</ele>
        <time>2024-04-13T07:25:15Z</time>
      </trkpt>
      <trkpt lat="47.03491" lon="-1.7688">
        <ele>18.4</ele>
        <time>2024-04-13T07:25:17Z</time>
      </trkpt>
      <trkpt lat="47.03497" lon="-1.76856">
        <ele>18.6</ele>
        <time>2024-04-13T07:25:21Z</time>
      </trkpt>
      <trkpt lat="47.03497" lon="-1.76851">
        <ele>18.6</ele>
        <time>2024-04-13T07:25:22Z</time>
      </trkpt>
      <trkpt lat="47.03496" lon="-1.76845">
        <ele>18.6</ele>
        <time>2024-04-13T07:25:23Z</time>
      </trkpt>
      <trkpt lat="47.03491" lon="-1.76838">
        <ele>18.2</ele>
        <time>2024-04-13T07:25:25Z</time>
      </trkpt>
      <trkpt lat="47.03482" lon="-1.76839">
        <ele>18</ele>
        <time>2024-04-13T07:25:27Z</time>
      </trkpt>
      <trkpt lat="47.03478" lon="-1.76841">
        <ele>18</ele>
        <time>2024-04-13T07:25:28Z</time>
      </trkpt>
      <trkpt lat="47.03471" lon="-1.76846">
        <ele>18</ele>
        <time>2024-04-13T07:25:30Z</time>
      </trkpt>
      <trkpt lat="47.03458" lon="-1.76855">
        <ele>19.2</ele>
        <time>2024-04-13T07:25:33Z</time>
      </trkpt>
      <trkpt lat="47.03449" lon="-1.76862">
        <ele>19.4</ele>
        <time>2024-04-13T07:25:35Z</time>
      </trkpt>
      <trkpt lat="47.03424" lon="-1.7688">
        <ele>19.4</ele>
        <time>2024-04-13T07:25:40Z</time>
      </trkpt>
      <trkpt lat="47.03399" lon="-1.76898">
        <ele>19.2</ele>
        <time>2024-04-13T07:25:45Z</time>
      </trkpt>
      <trkpt lat="47.03371" lon="-1.76917">
        <ele>20.2</ele>
        <time>2024-04-13T07:25:51Z</time>
      </trkpt>
      <trkpt lat="47.03357" lon="-1.76927">
        <ele>20.6</ele>
        <time>2024-04-13T07:25:54Z</time>
      </trkpt>
      <trkpt lat="47.03333" lon="-1.76942">
        <ele>20.6</ele>
        <time>2024-04-13T07:25:59Z</time>
      </trkpt>
      <trkpt lat="47.03299" lon="-1.7696">
        <ele>19.6</ele>
        <time>2024-04-13T07:26:05Z</time>
      </trkpt>
      <trkpt lat="47.03279" lon="-1.76966">
        <ele>18.4</ele>
        <time>2024-04-13T07:26:08Z</time>
      </trkpt>
      <trkpt lat="47.03251" lon="-1.76974">
        <ele>17.2</ele>
        <time>2024-04-13T07:26:12Z</time>
      </trkpt>
      <trkpt lat="47.03244" lon="-1.76977">
        <ele>17</ele>
        <time>2024-04-13T07:26:13Z</time>
      </trkpt>
      <trkpt lat="47.03216" lon="-1.76985">
        <ele>16</ele>
        <time>2024-04-13T07:26:17Z</time>
      </trkpt>
      <trkpt lat="47.03204" lon="-1.76987">
        <ele>15.8</ele>
        <time>2024-04-13T07:26:19Z</time>
      </trkpt>
      <trkpt lat="47.03165" lon="-1.76989">
        <ele>15.8</ele>
        <time>2024-04-13T07:26:25Z</time>
      </trkpt>
      <trkpt lat="47.03113" lon="-1.76987">
        <ele>16.4</ele>
        <time>2024-04-13T07:26:33Z</time>
      </trkpt>
      <trkpt lat="47.03062" lon="-1.76986">
        <ele>15.8</ele>
        <time>2024-04-13T07:26:41Z</time>
      </trkpt>
      <trkpt lat="47.03019" lon="-1.76978">
        <ele>15.8</ele>
        <time>2024-04-13T07:26:48Z</time>
      </trkpt>
      <trkpt lat="47.03013" lon="-1.76976">
        <ele>15.8</ele>
        <time>2024-04-13T07:26:49Z</time>
      </trkpt>
      <trkpt lat="47.0298" lon="-1.76964">
        <ele>15.8</ele>
        <time>2024-04-13T07:26:54Z</time>
      </trkpt>
      <trkpt lat="47.02935" lon="-1.7695">
        <ele>15.8</ele>
        <time>2024-04-13T07:27:01Z</time>
      </trkpt>
      <trkpt lat="47.0289" lon="-1.7693">
        <ele>15.8</ele>
        <time>2024-04-13T07:27:09Z</time>
      </trkpt>
      <trkpt lat="47.02865" lon="-1.7692">
        <ele>16.4</ele>
        <time>2024-04-13T07:27:14Z</time>
      </trkpt>
      <trkpt lat="47.02855" lon="-1.76916">
        <ele>16.4</ele>
        <time>2024-04-13T07:27:16Z</time>
      </trkpt>
      <trkpt lat="47.02822" lon="-1.76907">
        <ele>17</ele>
        <time>2024-04-13T07:27:23Z</time>
      </trkpt>
      <trkpt lat="47.02812" lon="-1.76906">
        <ele>17.2</ele>
        <time>2024-04-13T07:27:25Z</time>
      </trkpt>
      <trkpt lat="47.02788" lon="-1.7691">
        <ele>17.6</ele>
        <time>2024-04-13T07:27:30Z</time>
      </trkpt>
      <trkpt lat="47.02741" lon="-1.76921">
        <ele>17.4</ele>
        <time>2024-04-13T07:27:39Z</time>
      </trkpt>
      <trkpt lat="47.02713" lon="-1.76925">
        <ele>16.6</ele>
        <time>2024-04-13T07:27:44Z</time>
      </trkpt>
      <trkpt lat="47.02695" lon="-1.76923">
        <ele>16.6</ele>
        <time>2024-04-13T07:27:47Z</time>
      </trkpt>
      <trkpt lat="47.02642" lon="-1.76918">
        <ele>16.2</ele>
        <time>2024-04-13T07:27:56Z</time>
      </trkpt>
      <trkpt lat="47.02604" lon="-1.76914">
        <ele>16.4</ele>
        <time>2024-04-13T07:28:03Z</time>
      </trkpt>
      <trkpt lat="47.02567" lon="-1.7691">
        <ele>16.4</ele>
        <time>2024-04-13T07:28:10Z</time>
      </trkpt>
      <trkpt lat="47.02523" lon="-1.76911">
        <ele>17</ele>
        <time>2024-04-13T07:28:19Z</time>
      </trkpt>
      <trkpt lat="47.02519" lon="-1.76913">
        <ele>17</ele>
        <time>2024-04-13T07:28:20Z</time>
      </trkpt>
      <trkpt lat="47.0249" lon="-1.76925">
        <ele>16.8</ele>
        <time>2024-04-13T07:28:26Z</time>
      </trkpt>
      <trkpt lat="47.02464" lon="-1.76937">
        <ele>16.2</ele>
        <time>2024-04-13T07:28:31Z</time>
      </trkpt>
      <trkpt lat="47.02458" lon="-1.7694">
        <ele>16</ele>
        <time>2024-04-13T07:28:32Z</time>
      </trkpt>
      <trkpt lat="47.02428" lon="-1.76955">
        <ele>15</ele>
        <time>2024-04-13T07:28:37Z</time>
      </trkpt>
      <trkpt lat="47.02422" lon="-1.76959">
        <ele>14.6</ele>
        <time>2024-04-13T07:28:38Z</time>
      </trkpt>
      <trkpt lat="47.02409" lon="-1.76968">
        <ele>14</ele>
        <time>2024-04-13T07:28:40Z</time>
      </trkpt>
      <trkpt lat="47.02388" lon="-1.76984">
        <ele>12.6</ele>
        <time>2024-04-13T07:28:43Z</time>
      </trkpt>
      <trkpt lat="47.02381" lon="-1.7699">
        <ele>12.4</ele>
        <time>2024-04-13T07:28:44Z</time>
      </trkpt>
      <trkpt lat="47.02361" lon="-1.77006">
        <ele>11.2</ele>
        <time>2024-04-13T07:28:47Z</time>
      </trkpt>
      <trkpt lat="47.0235" lon="-1.77017">
        <ele>10.4</ele>
        <time>2024-04-13T07:28:49Z</time>
      </trkpt>
      <trkpt lat="47.02345" lon="-1.77022">
        <ele>10</ele>
        <time>2024-04-13T07:28:50Z</time>
      </trkpt>
      <trkpt lat="47.0234" lon="-1.77025">
        <ele>9.6</ele>
        <time>2024-04-13T07:28:51Z</time>
      </trkpt>
      <trkpt lat="47.0233" lon="-1.77029">
        <ele>9.2</ele>
        <time>2024-04-13T07:28:53Z</time>
      </trkpt>
      <trkpt lat="47.02319" lon="-1.77035">
        <ele>9</ele>
        <time>2024-04-13T07:28:55Z</time>
      </trkpt>
      <trkpt lat="47.02309" lon="-1.77037">
        <ele>8.6</ele>
        <time>2024-04-13T07:28:57Z</time>
      </trkpt>
      <trkpt lat="47.02304" lon="-1.77037">
        <ele>8.6</ele>
        <time>2024-04-13T07:28:58Z</time>
      </trkpt>
      <trkpt lat="47.02298" lon="-1.77038">
        <ele>8.6</ele>
        <time>2024-04-13T07:28:59Z</time>
      </trkpt>
      <trkpt lat="47.02278" lon="-1.77043">
        <ele>9.2</ele>
        <time>2024-04-13T07:29:04Z</time>
      </trkpt>
      <trkpt lat="47.0227" lon="-1.77047">
        <ele>9.4</ele>
        <time>2024-04-13T07:29:06Z</time>
      </trkpt>
      <trkpt lat="47.02242" lon="-1.77054">
        <ele>10.2</ele>
        <time>2024-04-13T07:29:12Z</time>
      </trkpt>
      <trkpt lat="47.02238" lon="-1.77054">
        <ele>10.4</ele>
        <time>2024-04-13T07:29:13Z</time>
      </trkpt>
      <trkpt lat="47.02222" lon="-1.7705">
        <ele>11</ele>
        <time>2024-04-13T07:29:18Z</time>
      </trkpt>
      <trkpt lat="47.02219" lon="-1.77049">
        <ele>11.2</ele>
        <time>2024-04-13T07:29:19Z</time>
      </trkpt>
      <trkpt lat="47.02195" lon="-1.77044">
        <ele>12.2</ele>
        <time>2024-04-13T07:29:26Z</time>
      </trkpt>
      <trkpt lat="47.02191" lon="-1.77043">
        <ele>12.4</ele>
        <time>2024-04-13T07:29:27Z</time>
      </trkpt>
      <trkpt lat="47.02174" lon="-1.77039">
        <ele>13.4</ele>
        <time>2024-04-13T07:29:33Z</time>
      </trkpt>
      <trkpt lat="47.02171" lon="-1.77039">
        <ele>13.6</ele>
        <time>2024-04-13T07:29:34Z</time>
      </trkpt>
      <trkpt lat="47.02156" lon="-1.77033">
        <ele>14.2</ele>
        <time>2024-04-13T07:29:39Z</time>
      </trkpt>
      <trkpt lat="47.02147" lon="-1.77032">
        <ele>14.6</ele>
        <time>2024-04-13T07:29:42Z</time>
      </trkpt>
      <trkpt lat="47.02137" lon="-1.7703">
        <ele>15</ele>
        <time>2024-04-13T07:29:45Z</time>
      </trkpt>
      <trkpt lat="47.02125" lon="-1.77028">
        <ele>15.4</ele>
        <time>2024-04-13T07:29:49Z</time>
      </trkpt>
      <trkpt lat="47.02121" lon="-1.77034">
        <ele>15.4</ele>
        <time>2024-04-13T07:29:51Z</time>
      </trkpt>
      <trkpt lat="47.02116" lon="-1.77052">
        <ele>15.6</ele>
        <time>2024-04-13T07:29:56Z</time>
      </trkpt>
      <trkpt lat="47.02113" lon="-1.7707">
        <ele>15.8</ele>
        <time>2024-04-13T07:30:00Z</time>
      </trkpt>
      <trkpt lat="47.02108" lon="-1.77086">
        <ele>16</ele>
        <time>2024-04-13T07:30:05Z</time>
      </trkpt>
      <trkpt lat="47.02106" lon="-1.7709">
        <ele>16</ele>
        <time>2024-04-13T07:30:06Z</time>
      </trkpt>
      <trkpt lat="47.02098" lon="-1.77118">
        <ele>16.2</ele>
        <time>2024-04-13T07:30:11Z</time>
      </trkpt>
      <trkpt lat="47.02091" lon="-1.77152">
        <ele>16.4</ele>
        <time>2024-04-13T07:30:18Z</time>
      </trkpt>
      <trkpt lat="47.02084" lon="-1.77184">
        <ele>16.6</ele>
        <time>2024-04-13T07:30:24Z</time>
      </trkpt>
      <trkpt lat="47.02079" lon="-1.772">
        <ele>16.8</ele>
        <time>2024-04-13T07:30:27Z</time>
      </trkpt>
      <trkpt lat="47.02074" lon="-1.77217">
        <ele>17.2</ele>
        <time>2024-04-13T07:30:30Z</time>
      </trkpt>
      <trkpt lat="47.02059" lon="-1.77268">
        <ele>17.4</ele>
        <time>2024-04-13T07:30:39Z</time>
      </trkpt>
      <trkpt lat="47.02047" lon="-1.77301">
        <ele>16.6</ele>
        <time>2024-04-13T07:30:45Z</time>
      </trkpt>
      <trkpt lat="47.02042" lon="-1.77334">
        <ele>16</ele>
        <time>2024-04-13T07:30:51Z</time>
      </trkpt>
      <trkpt lat="47.0204" lon="-1.77361">
        <ele>16</ele>
        <time>2024-04-13T07:30:55Z</time>
      </trkpt>
      <trkpt lat="47.0204" lon="-1.77369">
        <ele>16</ele>
        <time>2024-04-13T07:30:57Z</time>
      </trkpt>
      <trkpt lat="47.0204" lon="-1.77376">
        <ele>16</ele>
        <time>2024-04-13T07:30:58Z</time>
      </trkpt>
      <trkpt lat="47.02042" lon="-1.77389">
        <ele>15.8</ele>
        <time>2024-04-13T07:30:59Z</time>
      </trkpt>
      <trkpt lat="47.02043" lon="-1.77395">
        <ele>15.8</ele>
        <time>2024-04-13T07:31:00Z</time>
      </trkpt>
      <trkpt lat="47.02044" lon="-1.77417">
        <ele>15.6</ele>
        <time>2024-04-13T07:31:03Z</time>
      </trkpt>
      <trkpt lat="47.02053" lon="-1.77452">
        <ele>15.4</ele>
        <time>2024-04-13T07:31:09Z</time>
      </trkpt>
      <trkpt lat="47.02056" lon="-1.77462">
        <ele>15.4</ele>
        <time>2024-04-13T07:31:11Z</time>
      </trkpt>
      <trkpt lat="47.02058" lon="-1.77476">
        <ele>15.2</ele>
        <time>2024-04-13T07:31:13Z</time>
      </trkpt>
      <trkpt lat="47.02059" lon="-1.77482">
        <ele>15.2</ele>
        <time>2024-04-13T07:31:14Z</time>
      </trkpt>
      <trkpt lat="47.02067" lon="-1.77514">
        <ele>15.4</ele>
        <time>2024-04-13T07:31:19Z</time>
      </trkpt>
      <trkpt lat="47.02068" lon="-1.7752">
        <ele>15.2</ele>
        <time>2024-04-13T07:31:20Z</time>
      </trkpt>
      <trkpt lat="47.02073" lon="-1.77541">
        <ele>15.2</ele>
        <time>2024-04-13T07:31:23Z</time>
      </trkpt>
      <trkpt lat="47.02077" lon="-1.77553">
        <ele>15</ele>
        <time>2024-04-13T07:31:25Z</time>
      </trkpt>
      <trkpt lat="47.02092" lon="-1.77602">
        <ele>15.2</ele>
        <time>2024-04-13T07:31:33Z</time>
      </trkpt>
      <trkpt lat="47.02103" lon="-1.77637">
        <ele>15.2</ele>
        <time>2024-04-13T07:31:39Z</time>
      </trkpt>
      <trkpt lat="47.02105" lon="-1.77644">
        <ele>15.4</ele>
        <time>2024-04-13T07:31:40Z</time>
      </trkpt>
      <trkpt lat="47.02107" lon="-1.7765">
        <ele>15.4</ele>
        <time>2024-04-13T07:31:41Z</time>
      </trkpt>
      <trkpt lat="47.02112" lon="-1.77671">
        <ele>15.4</ele>
        <time>2024-04-13T07:31:44Z</time>
      </trkpt>
      <trkpt lat="47.02113" lon="-1.77677">
        <ele>15.4</ele>
        <time>2024-04-13T07:31:45Z</time>
      </trkpt>
      <trkpt lat="47.02115" lon="-1.77684">
        <ele>15.4</ele>
        <time>2024-04-13T07:31:46Z</time>
      </trkpt>
      <trkpt lat="47.02116" lon="-1.77712">
        <ele>15.4</ele>
        <time>2024-04-13T07:31:50Z</time>
      </trkpt>
      <trkpt lat="47.02116" lon="-1.77734">
        <ele>15.4</ele>
        <time>2024-04-13T07:31:53Z</time>
      </trkpt>
      <trkpt lat="47.02116" lon="-1.77752">
        <ele>15.6</ele>
        <time>2024-04-13T07:31:56Z</time>
      </trkpt>
      <trkpt lat="47.02117" lon="-1.77781">
        <ele>15.6</ele>
        <time>2024-04-13T07:32:01Z</time>
      </trkpt>
      <trkpt lat="47.02117" lon="-1.77788">
        <ele>15.4</ele>
        <time>2024-04-13T07:32:02Z</time>
      </trkpt>
      <trkpt lat="47.02116" lon="-1.77801">
        <ele>15.4</ele>
        <time>2024-04-13T07:32:03Z</time>
      </trkpt>
      <trkpt lat="47.02114" lon="-1.77826">
        <ele>15.6</ele>
        <time>2024-04-13T07:32:07Z</time>
      </trkpt>
      <trkpt lat="47.02115" lon="-1.77872">
        <ele>15.4</ele>
        <time>2024-04-13T07:32:14Z</time>
      </trkpt>
      <trkpt lat="47.0212" lon="-1.77948">
        <ele>14.8</ele>
        <time>2024-04-13T07:32:23Z</time>
      </trkpt>
      <trkpt lat="47.0212" lon="-1.77956">
        <ele>14.8</ele>
        <time>2024-04-13T07:32:24Z</time>
      </trkpt>
      <trkpt lat="47.02124" lon="-1.78007">
        <ele>14.2</ele>
        <time>2024-04-13T07:32:30Z</time>
      </trkpt>
      <trkpt lat="47.02126" lon="-1.78036">
        <ele>13.6</ele>
        <time>2024-04-13T07:32:33Z</time>
      </trkpt>
      <trkpt lat="47.0213" lon="-1.78073">
        <ele>13.2</ele>
        <time>2024-04-13T07:32:37Z</time>
      </trkpt>
      <trkpt lat="47.02136" lon="-1.78123">
        <ele>12.6</ele>
        <time>2024-04-13T07:32:42Z</time>
      </trkpt>
      <trkpt lat="47.02138" lon="-1.78131">
        <ele>12.4</ele>
        <time>2024-04-13T07:32:44Z</time>
      </trkpt>
      <trkpt lat="47.02147" lon="-1.78204">
        <ele>11.8</ele>
        <time>2024-04-13T07:32:52Z</time>
      </trkpt>
      <trkpt lat="47.02154" lon="-1.78249">
        <ele>11.6</ele>
        <time>2024-04-13T07:32:56Z</time>
      </trkpt>
      <trkpt lat="47.02162" lon="-1.78292">
        <ele>11.2</ele>
        <time>2024-04-13T07:33:01Z</time>
      </trkpt>
      <trkpt lat="47.02174" lon="-1.78369">
        <ele>11.6</ele>
        <time>2024-04-13T07:33:10Z</time>
      </trkpt>
      <trkpt lat="47.02184" lon="-1.78434">
        <ele>12.2</ele>
        <time>2024-04-13T07:33:18Z</time>
      </trkpt>
      <trkpt lat="47.02191" lon="-1.78473">
        <ele>12.6</ele>
        <time>2024-04-13T07:33:23Z</time>
      </trkpt>
      <trkpt lat="47.02195" lon="-1.78494">
        <ele>13</ele>
        <time>2024-04-13T07:33:26Z</time>
      </trkpt>
      <trkpt lat="47.022" lon="-1.78529">
        <ele>13.8</ele>
        <time>2024-04-13T07:33:31Z</time>
      </trkpt>
      <trkpt lat="47.02202" lon="-1.78543">
        <ele>14</ele>
        <time>2024-04-13T07:33:33Z</time>
      </trkpt>
      <trkpt lat="47.02208" lon="-1.78576">
        <ele>14.8</ele>
        <time>2024-04-13T07:33:38Z</time>
      </trkpt>
      <trkpt lat="47.02211" lon="-1.78589">
        <ele>15.2</ele>
        <time>2024-04-13T07:33:40Z</time>
      </trkpt>
      <trkpt lat="47.02219" lon="-1.78617">
        <ele>15.2</ele>
        <time>2024-04-13T07:33:44Z</time>
      </trkpt>
      <trkpt lat="47.02228" lon="-1.7865">
        <ele>15</ele>
        <time>2024-04-13T07:33:49Z</time>
      </trkpt>
      <trkpt lat="47.02239" lon="-1.78684">
        <ele>14.6</ele>
        <time>2024-04-13T07:33:54Z</time>
      </trkpt>
      <trkpt lat="47.02244" lon="-1.78699">
        <ele>14.2</ele>
        <time>2024-04-13T07:33:56Z</time>
      </trkpt>
      <trkpt lat="47.0225" lon="-1.78716">
        <ele>13.8</ele>
        <time>2024-04-13T07:33:58Z</time>
      </trkpt>
      <trkpt lat="47.02262" lon="-1.78752">
        <ele>12.8</ele>
        <time>2024-04-13T07:34:02Z</time>
      </trkpt>
      <trkpt lat="47.02265" lon="-1.78761">
        <ele>12.6</ele>
        <time>2024-04-13T07:34:03Z</time>
      </trkpt>
      <trkpt lat="47.02276" lon="-1.78804">
        <ele>11.6</ele>
        <time>2024-04-13T07:34:08Z</time>
      </trkpt>
      <trkpt lat="47.0228" lon="-1.78832">
        <ele>11</ele>
        <time>2024-04-13T07:34:11Z</time>
      </trkpt>
      <trkpt lat="47.02285" lon="-1.78859">
        <ele>10.6</ele>
        <time>2024-04-13T07:34:14Z</time>
      </trkpt>
      <trkpt lat="47.02286" lon="-1.78868">
        <ele>10.4</ele>
        <time>2024-04-13T07:34:15Z</time>
      </trkpt>
      <trkpt lat="47.02292" lon="-1.78906">
        <ele>9</ele>
        <time>2024-04-13T07:34:20Z</time>
      </trkpt>
      <trkpt lat="47.02294" lon="-1.78915">
        <ele>8</ele>
        <time>2024-04-13T07:34:23Z</time>
      </trkpt>
      <trkpt lat="47.02293" lon="-1.78919">
        <ele>7.6</ele>
        <time>2024-04-13T07:34:24Z</time>
      </trkpt>
      <trkpt lat="47.02288" lon="-1.78925">
        <ele>7.4</ele>
        <time>2024-04-13T07:34:26Z</time>
      </trkpt>
      <trkpt lat="47.02284" lon="-1.78928">
        <ele>7.2</ele>
        <time>2024-04-13T07:34:27Z</time>
      </trkpt>
      <trkpt lat="47.0226" lon="-1.78948">
        <ele>7.2</ele>
        <time>2024-04-13T07:34:32Z</time>
      </trkpt>
      <trkpt lat="47.02242" lon="-1.78966">
        <ele>7</ele>
        <time>2024-04-13T07:34:36Z</time>
      </trkpt>
      <trkpt lat="47.02238" lon="-1.78972">
        <ele>6.8</ele>
        <time>2024-04-13T07:34:37Z</time>
      </trkpt>
      <trkpt lat="47.02233" lon="-1.78977">
        <ele>6.8</ele>
        <time>2024-04-13T07:34:38Z</time>
      </trkpt>
      <trkpt lat="47.02229" lon="-1.78982">
        <ele>6.6</ele>
        <time>2024-04-13T07:34:39Z</time>
      </trkpt>
      <trkpt lat="47.0221" lon="-1.79012">
        <ele>5.6</ele>
        <time>2024-04-13T07:34:44Z</time>
      </trkpt>
      <trkpt lat="47.022" lon="-1.79032">
        <ele>5.4</ele>
        <time>2024-04-13T07:34:47Z</time>
      </trkpt>
      <trkpt lat="47.02183" lon="-1.79074">
        <ele>5.2</ele>
        <time>2024-04-13T07:34:53Z</time>
      </trkpt>
      <trkpt lat="47.02181" lon="-1.79082">
        <ele>5</ele>
        <time>2024-04-13T07:34:54Z</time>
      </trkpt>
      <trkpt lat="47.02167" lon="-1.79131">
        <ele>5.4</ele>
        <time>2024-04-13T07:35:01Z</time>
      </trkpt>
      <trkpt lat="47.02156" lon="-1.79166">
        <ele>5.4</ele>
        <time>2024-04-13T07:35:06Z</time>
      </trkpt>
      <trkpt lat="47.02152" lon="-1.79179">
        <ele>5.6</ele>
        <time>2024-04-13T07:35:08Z</time>
      </trkpt>
      <trkpt lat="47.0214" lon="-1.79224">
        <ele>5.8</ele>
        <time>2024-04-13T07:35:15Z</time>
      </trkpt>
      <trkpt lat="47.02128" lon="-1.79277">
        <ele>5.4</ele>
        <time>2024-04-13T07:35:22Z</time>
      </trkpt>
      <trkpt lat="47.02111" lon="-1.79351">
        <ele>4.6</ele>
        <time>2024-04-13T07:35:31Z</time>
      </trkpt>
      <trkpt lat="47.02098" lon="-1.79394">
        <ele>4.6</ele>
        <time>2024-04-13T07:35:37Z</time>
      </trkpt>
      <trkpt lat="47.02094" lon="-1.79406">
        <ele>4.6</ele>
        <time>2024-04-13T07:35:39Z</time>
      </trkpt>
      <trkpt lat="47.02093" lon="-1.79421">
        <ele>4.6</ele>
        <time>2024-04-13T07:35:41Z</time>
      </trkpt>
      <trkpt lat="47.02092" lon="-1.79435">
        <ele>4.8</ele>
        <time>2024-04-13T07:35:43Z</time>
      </trkpt>
      <trkpt lat="47.0209" lon="-1.79463">
        <ele>5</ele>
        <time>2024-04-13T07:35:47Z</time>
      </trkpt>
      <trkpt lat="47.0209" lon="-1.79478">
        <ele>5</ele>
        <time>2024-04-13T07:35:49Z</time>
      </trkpt>
      <trkpt lat="47.0209" lon="-1.795">
        <ele>5.6</ele>
        <time>2024-04-13T07:35:52Z</time>
      </trkpt>
      <trkpt lat="47.02089" lon="-1.79536">
        <ele>6.2</ele>
        <time>2024-04-13T07:35:57Z</time>
      </trkpt>
      <trkpt lat="47.02087" lon="-1.79561">
        <ele>6.8</ele>
        <time>2024-04-13T07:36:01Z</time>
      </trkpt>
      <trkpt lat="47.02087" lon="-1.79575">
        <ele>7.2</ele>
        <time>2024-04-13T07:36:03Z</time>
      </trkpt>
      <trkpt lat="47.02088" lon="-1.79596">
        <ele>7.8</ele>
        <time>2024-04-13T07:36:06Z</time>
      </trkpt>
      <trkpt lat="47.02089" lon="-1.79637">
        <ele>8.8</ele>
        <time>2024-04-13T07:36:12Z</time>
      </trkpt>
      <trkpt lat="47.02089" lon="-1.79656">
        <ele>9</ele>
        <time>2024-04-13T07:36:15Z</time>
      </trkpt>
      <trkpt lat="47.02091" lon="-1.79717">
        <ele>9.2</ele>
        <time>2024-04-13T07:36:25Z</time>
      </trkpt>
      <trkpt lat="47.02091" lon="-1.79766">
        <ele>8.6</ele>
        <time>2024-04-13T07:36:31Z</time>
      </trkpt>
      <trkpt lat="47.02095" lon="-1.79834">
        <ele>7.8</ele>
        <time>2024-04-13T07:36:38Z</time>
      </trkpt>
      <trkpt lat="47.02096" lon="-1.79843">
        <ele>7.8</ele>
        <time>2024-04-13T07:36:39Z</time>
      </trkpt>
      <trkpt lat="47.02099" lon="-1.79908">
        <ele>7.8</ele>
        <time>2024-04-13T07:36:47Z</time>
      </trkpt>
      <trkpt lat="47.021" lon="-1.79924">
        <ele>7.8</ele>
        <time>2024-04-13T07:36:49Z</time>
      </trkpt>
      <trkpt lat="47.02106" lon="-1.79986">
        <ele>8.2</ele>
        <time>2024-04-13T07:36:57Z</time>
      </trkpt>
      <trkpt lat="47.02107" lon="-1.80062">
        <ele>8.8</ele>
        <time>2024-04-13T07:37:07Z</time>
      </trkpt>
      <trkpt lat="47.02108" lon="-1.80077">
        <ele>9</ele>
        <time>2024-04-13T07:37:09Z</time>
      </trkpt>
      <trkpt lat="47.02113" lon="-1.80091">
        <ele>9.2</ele>
        <time>2024-04-13T07:37:11Z</time>
      </trkpt>
      <trkpt lat="47.02117" lon="-1.80096">
        <ele>9.4</ele>
        <time>2024-04-13T07:37:12Z</time>
      </trkpt>
      <trkpt lat="47.02121" lon="-1.80099">
        <ele>9.6</ele>
        <time>2024-04-13T07:37:13Z</time>
      </trkpt>
      <trkpt lat="47.02134" lon="-1.80106">
        <ele>9.6</ele>
        <time>2024-04-13T07:37:16Z</time>
      </trkpt>
      <trkpt lat="47.02138" lon="-1.8011">
        <ele>9.6</ele>
        <time>2024-04-13T07:37:17Z</time>
      </trkpt>
      <trkpt lat="47.0215" lon="-1.80121">
        <ele>9.6</ele>
        <time>2024-04-13T07:37:20Z</time>
      </trkpt>
      <trkpt lat="47.02154" lon="-1.80125">
        <ele>9.6</ele>
        <time>2024-04-13T07:37:21Z</time>
      </trkpt>
      <trkpt lat="47.02158" lon="-1.80128">
        <ele>9.8</ele>
        <time>2024-04-13T07:37:22Z</time>
      </trkpt>
      <trkpt lat="47.02182" lon="-1.80139">
        <ele>10.8</ele>
        <time>2024-04-13T07:37:27Z</time>
      </trkpt>
      <trkpt lat="47.02187" lon="-1.80141">
        <ele>10.8</ele>
        <time>2024-04-13T07:37:28Z</time>
      </trkpt>
      <trkpt lat="47.02216" lon="-1.80153">
        <ele>11</ele>
        <time>2024-04-13T07:37:34Z</time>
      </trkpt>
      <trkpt lat="47.02251" lon="-1.80167">
        <ele>11.6</ele>
        <time>2024-04-13T07:37:41Z</time>
      </trkpt>
      <trkpt lat="47.02266" lon="-1.80174">
        <ele>12</ele>
        <time>2024-04-13T07:37:44Z</time>
      </trkpt>
      <trkpt lat="47.02271" lon="-1.80177">
        <ele>12</ele>
        <time>2024-04-13T07:37:45Z</time>
      </trkpt>
      <trkpt lat="47.02276" lon="-1.8018">
        <ele>12.2</ele>
        <time>2024-04-13T07:37:47Z</time>
      </trkpt>
      <trkpt lat="47.02313" lon="-1.80196">
        <ele>13</ele>
        <time>2024-04-13T07:37:55Z</time>
      </trkpt>
      <trkpt lat="47.02348" lon="-1.8022">
        <ele>14</ele>
        <time>2024-04-13T07:38:02Z</time>
      </trkpt>
      <trkpt lat="47.02351" lon="-1.80224">
        <ele>14</ele>
        <time>2024-04-13T07:38:03Z</time>
      </trkpt>
      <trkpt lat="47.02365" lon="-1.80248">
        <ele>15</ele>
        <time>2024-04-13T07:38:08Z</time>
      </trkpt>
      <trkpt lat="47.02367" lon="-1.80252">
        <ele>15.4</ele>
        <time>2024-04-13T07:38:09Z</time>
      </trkpt>
      <trkpt lat="47.02376" lon="-1.80283">
        <ele>16.4</ele>
        <time>2024-04-13T07:38:15Z</time>
      </trkpt>
      <trkpt lat="47.02388" lon="-1.80336">
        <ele>17.4</ele>
        <time>2024-04-13T07:38:25Z</time>
      </trkpt>
      <trkpt lat="47.02396" lon="-1.8037">
        <ele>17.8</ele>
        <time>2024-04-13T07:38:31Z</time>
      </trkpt>
      <trkpt lat="47.024" lon="-1.80382">
        <ele>18.2</ele>
        <time>2024-04-13T07:38:33Z</time>
      </trkpt>
      <trkpt lat="47.02409" lon="-1.80413">
        <ele>18.2</ele>
        <time>2024-04-13T07:38:38Z</time>
      </trkpt>
      <trkpt lat="47.02414" lon="-1.80425">
        <ele>18</ele>
        <time>2024-04-13T07:38:40Z</time>
      </trkpt>
      <trkpt lat="47.02426" lon="-1.80442">
        <ele>17.4</ele>
        <time>2024-04-13T07:38:43Z</time>
      </trkpt>
      <trkpt lat="47.02441" lon="-1.80457">
        <ele>16.6</ele>
        <time>2024-04-13T07:38:46Z</time>
      </trkpt>
      <trkpt lat="47.02451" lon="-1.80469">
        <ele>16.4</ele>
        <time>2024-04-13T07:38:48Z</time>
      </trkpt>
      <trkpt lat="47.02474" lon="-1.80491">
        <ele>15.2</ele>
        <time>2024-04-13T07:38:52Z</time>
      </trkpt>
      <trkpt lat="47.0248" lon="-1.80497">
        <ele>15</ele>
        <time>2024-04-13T07:38:53Z</time>
      </trkpt>
      <trkpt lat="47.02499" lon="-1.80516">
        <ele>14</ele>
        <time>2024-04-13T07:38:56Z</time>
      </trkpt>
      <trkpt lat="47.02518" lon="-1.80537">
        <ele>13</ele>
        <time>2024-04-13T07:38:59Z</time>
      </trkpt>
      <trkpt lat="47.02524" lon="-1.80543">
        <ele>12.6</ele>
        <time>2024-04-13T07:39:00Z</time>
      </trkpt>
      <trkpt lat="47.02567" lon="-1.80583">
        <ele>11.8</ele>
        <time>2024-04-13T07:39:07Z</time>
      </trkpt>
      <trkpt lat="47.02584" lon="-1.80595">
        <ele>11.6</ele>
        <time>2024-04-13T07:39:10Z</time>
      </trkpt>
      <trkpt lat="47.02605" lon="-1.80608">
        <ele>11.6</ele>
        <time>2024-04-13T07:39:14Z</time>
      </trkpt>
      <trkpt lat="47.02639" lon="-1.80629">
        <ele>12.8</ele>
        <time>2024-04-13T07:39:21Z</time>
      </trkpt>
      <trkpt lat="47.02654" lon="-1.80638">
        <ele>13.6</ele>
        <time>2024-04-13T07:39:25Z</time>
      </trkpt>
      <trkpt lat="47.02658" lon="-1.8064">
        <ele>13.8</ele>
        <time>2024-04-13T07:39:26Z</time>
      </trkpt>
      <trkpt lat="47.02668" lon="-1.80646">
        <ele>14.4</ele>
        <time>2024-04-13T07:39:28Z</time>
      </trkpt>
      <trkpt lat="47.0269" lon="-1.8066">
        <ele>15</ele>
        <time>2024-04-13T07:39:33Z</time>
      </trkpt>
      <trkpt lat="47.02702" lon="-1.80669">
        <ele>15.2</ele>
        <time>2024-04-13T07:39:36Z</time>
      </trkpt>
      <trkpt lat="47.02707" lon="-1.80671">
        <ele>15.4</ele>
        <time>2024-04-13T07:39:37Z</time>
      </trkpt>
      <trkpt lat="47.02741" lon="-1.80692">
        <ele>16</ele>
        <time>2024-04-13T07:39:44Z</time>
      </trkpt>
      <trkpt lat="47.0275" lon="-1.80699">
        <ele>16.2</ele>
        <time>2024-04-13T07:39:46Z</time>
      </trkpt>
      <trkpt lat="47.02779" lon="-1.80718">
        <ele>16.4</ele>
        <time>2024-04-13T07:39:52Z</time>
      </trkpt>
      <trkpt lat="47.02805" lon="-1.8073">
        <ele>16.8</ele>
        <time>2024-04-13T07:39:57Z</time>
      </trkpt>
      <trkpt lat="47.02831" lon="-1.80736">
        <ele>17</ele>
        <time>2024-04-13T07:40:02Z</time>
      </trkpt>
      <trkpt lat="47.02842" lon="-1.80736">
        <ele>17.2</ele>
        <time>2024-04-13T07:40:04Z</time>
      </trkpt>
      <trkpt lat="47.02878" lon="-1.80729">
        <ele>18</ele>
        <time>2024-04-13T07:40:11Z</time>
      </trkpt>
      <trkpt lat="47.02893" lon="-1.80725">
        <ele>18.8</ele>
        <time>2024-04-13T07:40:14Z</time>
      </trkpt>
      <trkpt lat="47.02914" lon="-1.80719">
        <ele>19.2</ele>
        <time>2024-04-13T07:40:18Z</time>
      </trkpt>
      <trkpt lat="47.02928" lon="-1.80715">
        <ele>19.6</ele>
        <time>2024-04-13T07:40:21Z</time>
      </trkpt>
      <trkpt lat="47.02951" lon="-1.80708">
        <ele>20.4</ele>
        <time>2024-04-13T07:40:26Z</time>
      </trkpt>
      <trkpt lat="47.02969" lon="-1.80704">
        <ele>20.6</ele>
        <time>2024-04-13T07:40:31Z</time>
      </trkpt>
      <trkpt lat="47.02998" lon="-1.80696">
        <ele>20.4</ele>
        <time>2024-04-13T07:40:37Z</time>
      </trkpt>
      <trkpt lat="47.03022" lon="-1.80688">
        <ele>19.2</ele>
        <time>2024-04-13T07:40:40Z</time>
      </trkpt>
      <trkpt lat="47.03035" lon="-1.80684">
        <ele>18.4</ele>
        <time>2024-04-13T07:40:42Z</time>
      </trkpt>
      <trkpt lat="47.0305" lon="-1.8068">
        <ele>18</ele>
        <time>2024-04-13T07:40:44Z</time>
      </trkpt>
      <trkpt lat="47.03073" lon="-1.80673">
        <ele>16.6</ele>
        <time>2024-04-13T07:40:47Z</time>
      </trkpt>
      <trkpt lat="47.03088" lon="-1.80668">
        <ele>16.2</ele>
        <time>2024-04-13T07:40:49Z</time>
      </trkpt>
      <trkpt lat="47.03096" lon="-1.80666">
        <ele>15.6</ele>
        <time>2024-04-13T07:40:50Z</time>
      </trkpt>
      <trkpt lat="47.03121" lon="-1.8066">
        <ele>14.6</ele>
        <time>2024-04-13T07:40:53Z</time>
      </trkpt>
      <trkpt lat="47.03147" lon="-1.80654">
        <ele>14</ele>
        <time>2024-04-13T07:40:56Z</time>
      </trkpt>
      <trkpt lat="47.03164" lon="-1.80649">
        <ele>13.6</ele>
        <time>2024-04-13T07:40:58Z</time>
      </trkpt>
      <trkpt lat="47.03186" lon="-1.80644">
        <ele>10.8</ele>
        <time>2024-04-13T07:41:01Z</time>
      </trkpt>
      <trkpt lat="47.03192" lon="-1.80643">
        <ele>10.8</ele>
        <time>2024-04-13T07:41:02Z</time>
      </trkpt>
      <trkpt lat="47.03199" lon="-1.80643">
        <ele>10.8</ele>
        <time>2024-04-13T07:41:03Z</time>
      </trkpt>
      <trkpt lat="47.03212" lon="-1.80642">
        <ele>11</ele>
        <time>2024-04-13T07:41:05Z</time>
      </trkpt>
      <trkpt lat="47.03216" lon="-1.80641">
        <ele>13.8</ele>
        <time>2024-04-13T07:41:06Z</time>
      </trkpt>
      <trkpt lat="47.03223" lon="-1.80644">
        <ele>14</ele>
        <time>2024-04-13T07:41:08Z</time>
      </trkpt>
      <trkpt lat="47.03223" lon="-1.80648">
        <ele>14</ele>
        <time>2024-04-13T07:41:09Z</time>
      </trkpt>
      <trkpt lat="47.03224" lon="-1.80651">
        <ele>14.2</ele>
        <time>2024-04-13T07:41:10Z</time>
      </trkpt>
      <trkpt lat="47.03224" lon="-1.80654">
        <ele>14.2</ele>
        <time>2024-04-13T07:41:12Z</time>
      </trkpt>
      <trkpt lat="47.03225" lon="-1.8067">
        <ele>14.8</ele>
        <time>2024-04-13T07:41:18Z</time>
      </trkpt>
      <trkpt lat="47.03224" lon="-1.80673">
        <ele>15</ele>
        <time>2024-04-13T07:41:19Z</time>
      </trkpt>
      <trkpt lat="47.03224" lon="-1.80683">
        <ele>15.2</ele>
        <time>2024-04-13T07:41:23Z</time>
      </trkpt>
      <trkpt lat="47.03221" lon="-1.80702">
        <ele>15.4</ele>
        <time>2024-04-13T07:41:30Z</time>
      </trkpt>
      <trkpt lat="47.03219" lon="-1.80719">
        <ele>15.8</ele>
        <time>2024-04-13T07:41:36Z</time>
      </trkpt>
      <trkpt lat="47.03218" lon="-1.80725">
        <ele>15.8</ele>
        <time>2024-04-13T07:41:38Z</time>
      </trkpt>
      <trkpt lat="47.03219" lon="-1.80739">
        <ele>16</ele>
        <time>2024-04-13T07:41:43Z</time>
      </trkpt>
      <trkpt lat="47.03218" lon="-1.80742">
        <ele>15.8</ele>
        <time>2024-04-13T07:41:44Z</time>
      </trkpt>
      <trkpt lat="47.03216" lon="-1.80757">
        <ele>15.6</ele>
        <time>2024-04-13T07:41:49Z</time>
      </trkpt>
      <trkpt lat="47.03217" lon="-1.80763">
        <ele>15.6</ele>
        <time>2024-04-13T07:41:51Z</time>
      </trkpt>
      <trkpt lat="47.03219" lon="-1.80775">
        <ele>15.4</ele>
        <time>2024-04-13T07:41:55Z</time>
      </trkpt>
      <trkpt lat="47.03223" lon="-1.80795">
        <ele>15.4</ele>
        <time>2024-04-13T07:42:01Z</time>
      </trkpt>
      <trkpt lat="47.03225" lon="-1.8081">
        <ele>15.4</ele>
        <time>2024-04-13T07:42:06Z</time>
      </trkpt>
      <trkpt lat="47.03228" lon="-1.80829">
        <ele>15.4</ele>
        <time>2024-04-13T07:42:13Z</time>
      </trkpt>
      <trkpt lat="47.03229" lon="-1.80836">
        <ele>15.4</ele>
        <time>2024-04-13T07:42:18Z</time>
      </trkpt>
      <trkpt lat="47.03223" lon="-1.80867">
        <ele>15.6</ele>
        <time>2024-04-13T07:42:59Z</time>
      </trkpt>
      <trkpt lat="47.03218" lon="-1.80868">
        <ele>15.4</ele>
        <time>2024-04-13T07:43:01Z</time>
      </trkpt>
      <trkpt lat="47.03213" lon="-1.80869">
        <ele>15</ele>
        <time>2024-04-13T07:43:07Z</time>
      </trkpt>
      <trkpt lat="47.03213" lon="-1.80869">
        <ele>15</ele>
        <time>2024-04-13T07:43:08Z</time>
      </trkpt>
      <trkpt lat="47.03194" lon="-1.80877">
        <ele>15.6</ele>
        <time>2024-04-13T07:43:41Z</time>
      </trkpt>
      <trkpt lat="47.03193" lon="-1.80878">
        <ele>15.6</ele>
        <time>2024-04-13T07:43:42Z</time>
      </trkpt>
      <trkpt lat="47.03191" lon="-1.80878">
        <ele>15.6</ele>
        <time>2024-04-13T07:43:44Z</time>
      </trkpt>
      <trkpt lat="47.03181" lon="-1.80882">
        <ele>16.4</ele>
        <time>2024-04-13T07:43:50Z</time>
      </trkpt>
      <trkpt lat="47.03179" lon="-1.80893">
        <ele>16.6</ele>
        <time>2024-04-13T07:43:54Z</time>
      </trkpt>
      <trkpt lat="47.0318" lon="-1.80895">
        <ele>16.6</ele>
        <time>2024-04-13T07:43:55Z</time>
      </trkpt>
      <trkpt lat="47.03181" lon="-1.80903">
        <ele>17</ele>
        <time>2024-04-13T07:43:59Z</time>
      </trkpt>
      <trkpt lat="47.03182" lon="-1.80912">
        <ele>17.4</ele>
        <time>2024-04-13T07:44:02Z</time>
      </trkpt>
      <trkpt lat="47.03184" lon="-1.80929">
        <ele>18</ele>
        <time>2024-04-13T07:44:08Z</time>
      </trkpt>
      <trkpt lat="47.03184" lon="-1.80932">
        <ele>18.4</ele>
        <time>2024-04-13T07:44:09Z</time>
      </trkpt>
      <trkpt lat="47.03188" lon="-1.80951">
        <ele>19.2</ele>
        <time>2024-04-13T07:44:15Z</time>
      </trkpt>
      <trkpt lat="47.03188" lon="-1.80954">
        <ele>19.2</ele>
        <time>2024-04-13T07:44:16Z</time>
      </trkpt>
      <trkpt lat="47.03189" lon="-1.80976">
        <ele>20.2</ele>
        <time>2024-04-13T07:44:23Z</time>
      </trkpt>
      <trkpt lat="47.03186" lon="-1.80986">
        <ele>21.2</ele>
        <time>2024-04-13T07:44:27Z</time>
      </trkpt>
      <trkpt lat="47.03185" lon="-1.80988">
        <ele>21.4</ele>
        <time>2024-04-13T07:44:28Z</time>
      </trkpt>
      <trkpt lat="47.03185" lon="-1.80987">
        <ele>21.8</ele>
        <time>2024-04-13T07:44:31Z</time>
      </trkpt>
      <trkpt lat="47.03163" lon="-1.81005">
        <ele>23.6</ele>
        <time>2024-04-13T07:45:09Z</time>
      </trkpt>
      <trkpt lat="47.03162" lon="-1.81006">
        <ele>23.8</ele>
        <time>2024-04-13T07:45:10Z</time>
      </trkpt>
      <trkpt lat="47.03159" lon="-1.81008">
        <ele>24.6</ele>
        <time>2024-04-13T07:45:16Z</time>
      </trkpt>
      <trkpt lat="47.03155" lon="-1.81013">
        <ele>24.8</ele>
        <time>2024-04-13T07:45:22Z</time>
      </trkpt>
      <trkpt lat="47.03152" lon="-1.81016">
        <ele>25</ele>
        <time>2024-04-13T07:45:25Z</time>
      </trkpt>
      <trkpt lat="47.03144" lon="-1.81025">
        <ele>25.8</ele>
        <time>2024-04-13T07:45:31Z</time>
      </trkpt>
      <trkpt lat="47.03143" lon="-1.81027">
        <ele>25.8</ele>
        <time>2024-04-13T07:45:32Z</time>
      </trkpt>
      <trkpt lat="47.03143" lon="-1.8103">
        <ele>26</ele>
        <time>2024-04-13T07:45:33Z</time>
      </trkpt>
      <trkpt lat="47.03144" lon="-1.81046">
        <ele>26.4</ele>
        <time>2024-04-13T07:45:39Z</time>
      </trkpt>
      <trkpt lat="47.03144" lon="-1.81048">
        <ele>26.4</ele>
        <time>2024-04-13T07:45:40Z</time>
      </trkpt>
      <trkpt lat="47.03145" lon="-1.81061">
        <ele>26.6</ele>
        <time>2024-04-13T07:45:46Z</time>
      </trkpt>
      <trkpt lat="47.03146" lon="-1.8107">
        <ele>26.8</ele>
        <time>2024-04-13T07:45:50Z</time>
      </trkpt>
      <trkpt lat="47.03146" lon="-1.81087">
        <ele>27.2</ele>
        <time>2024-04-13T07:45:56Z</time>
      </trkpt>
      <trkpt lat="47.03147" lon="-1.81108">
        <ele>27</ele>
        <time>2024-04-13T07:46:03Z</time>
      </trkpt>
      <trkpt lat="47.03149" lon="-1.81135">
        <ele>27</ele>
        <time>2024-04-13T07:46:12Z</time>
      </trkpt>
      <trkpt lat="47.03152" lon="-1.81164">
        <ele>26.8</ele>
        <time>2024-04-13T07:46:21Z</time>
      </trkpt>
      <trkpt lat="47.03155" lon="-1.81196">
        <ele>26.6</ele>
        <time>2024-04-13T07:46:31Z</time>
      </trkpt>
      <trkpt lat="47.03158" lon="-1.8122">
        <ele>26.8</ele>
        <time>2024-04-13T07:46:39Z</time>
      </trkpt>
      <trkpt lat="47.03159" lon="-1.81242">
        <ele>26.4</ele>
        <time>2024-04-13T07:46:46Z</time>
      </trkpt>
      <trkpt lat="47.03167" lon="-1.81277">
        <ele>25.8</ele>
        <time>2024-04-13T07:46:54Z</time>
      </trkpt>
      <trkpt lat="47.03174" lon="-1.8132">
        <ele>26</ele>
        <time>2024-04-13T07:47:03Z</time>
      </trkpt>
      <trkpt lat="47.03178" lon="-1.81357">
        <ele>25.8</ele>
        <time>2024-04-13T07:47:10Z</time>
      </trkpt>
      <trkpt lat="47.03179" lon="-1.8137">
        <ele>26</ele>
        <time>2024-04-13T07:47:12Z</time>
      </trkpt>
      <trkpt lat="47.03179" lon="-1.81375">
        <ele>26.4</ele>
        <time>2024-04-13T07:47:13Z</time>
      </trkpt>
      <trkpt lat="47.0318" lon="-1.81398">
        <ele>26.4</ele>
        <time>2024-04-13T07:47:17Z</time>
      </trkpt>
      <trkpt lat="47.03186" lon="-1.81469">
        <ele>26.2</ele>
        <time>2024-04-13T07:47:29Z</time>
      </trkpt>
      <trkpt lat="47.03192" lon="-1.8153">
        <ele>26.6</ele>
        <time>2024-04-13T07:47:39Z</time>
      </trkpt>
      <trkpt lat="47.03196" lon="-1.81591">
        <ele>26.8</ele>
        <time>2024-04-13T07:47:49Z</time>
      </trkpt>
      <trkpt lat="47.03197" lon="-1.81603">
        <ele>27</ele>
        <time>2024-04-13T07:47:51Z</time>
      </trkpt>
      <trkpt lat="47.03198" lon="-1.81627">
        <ele>27.6</ele>
        <time>2024-04-13T07:47:55Z</time>
      </trkpt>
      <trkpt lat="47.032" lon="-1.8165">
        <ele>28</ele>
        <time>2024-04-13T07:47:59Z</time>
      </trkpt>
      <trkpt lat="47.03199" lon="-1.81701">
        <ele>29</ele>
        <time>2024-04-13T07:48:08Z</time>
      </trkpt>
      <trkpt lat="47.03199" lon="-1.81707">
        <ele>29</ele>
        <time>2024-04-13T07:48:09Z</time>
      </trkpt>
      <trkpt lat="47.03199" lon="-1.8175">
        <ele>30</ele>
        <time>2024-04-13T07:48:17Z</time>
      </trkpt>
      <trkpt lat="47.03198" lon="-1.81761">
        <ele>30.2</ele>
        <time>2024-04-13T07:48:19Z</time>
      </trkpt>
      <trkpt lat="47.03201" lon="-1.81788">
        <ele>30.4</ele>
        <time>2024-04-13T07:48:25Z</time>
      </trkpt>
      <trkpt lat="47.03201" lon="-1.8179">
        <ele>31</ele>
        <time>2024-04-13T07:48:29Z</time>
      </trkpt>
      <trkpt lat="47.03203" lon="-1.81794">
        <ele>31</ele>
        <time>2024-04-13T07:48:53Z</time>
      </trkpt>
      <trkpt lat="47.03198" lon="-1.818">
        <ele>31</ele>
        <time>2024-04-13T07:48:55Z</time>
      </trkpt>
      <trkpt lat="47.03191" lon="-1.81803">
        <ele>31.2</ele>
        <time>2024-04-13T07:48:57Z</time>
      </trkpt>
      <trkpt lat="47.03187" lon="-1.81805">
        <ele>31.4</ele>
        <time>2024-04-13T07:48:58Z</time>
      </trkpt>
      <trkpt lat="47.03179" lon="-1.81809">
        <ele>31.4</ele>
        <time>2024-04-13T07:49:00Z</time>
      </trkpt>
      <trkpt lat="47.0315" lon="-1.81822">
        <ele>31.6</ele>
        <time>2024-04-13T07:49:06Z</time>
      </trkpt>
      <trkpt lat="47.03144" lon="-1.81825">
        <ele>31.6</ele>
        <time>2024-04-13T07:49:07Z</time>
      </trkpt>
      <trkpt lat="47.03101" lon="-1.81851">
        <ele>31.6</ele>
        <time>2024-04-13T07:49:16Z</time>
      </trkpt>
      <trkpt lat="47.03086" lon="-1.81861">
        <ele>29.8</ele>
        <time>2024-04-13T07:49:19Z</time>
      </trkpt>
      <trkpt lat="47.03064" lon="-1.81873">
        <ele>29</ele>
        <time>2024-04-13T07:49:23Z</time>
      </trkpt>
      <trkpt lat="47.03053" lon="-1.81879">
        <ele>31.4</ele>
        <time>2024-04-13T07:49:25Z</time>
      </trkpt>
      <trkpt lat="47.03023" lon="-1.81891">
        <ele>31.6</ele>
        <time>2024-04-13T07:49:30Z</time>
      </trkpt>
      <trkpt lat="47.02988" lon="-1.81893">
        <ele>31</ele>
        <time>2024-04-13T07:49:36Z</time>
      </trkpt>
      <trkpt lat="47.02946" lon="-1.81894">
        <ele>30.4</ele>
        <time>2024-04-13T07:49:43Z</time>
      </trkpt>
      <trkpt lat="47.02934" lon="-1.81895">
        <ele>30.4</ele>
        <time>2024-04-13T07:49:45Z</time>
      </trkpt>
      <trkpt lat="47.02906" lon="-1.81896">
        <ele>30.2</ele>
        <time>2024-04-13T07:49:50Z</time>
      </trkpt>
      <trkpt lat="47.02903" lon="-1.81899">
        <ele>30.2</ele>
        <time>2024-04-13T07:49:51Z</time>
      </trkpt>
      <trkpt lat="47.02902" lon="-1.81901">
        <ele>29.8</ele>
        <time>2024-04-13T07:49:52Z</time>
      </trkpt>
      <trkpt lat="47.02902" lon="-1.81906">
        <ele>29.4</ele>
        <time>2024-04-13T07:49:54Z</time>
      </trkpt>
      <trkpt lat="47.02905" lon="-1.81922">
        <ele>29.2</ele>
        <time>2024-04-13T07:50:01Z</time>
      </trkpt>
      <trkpt lat="47.02909" lon="-1.81943">
        <ele>29.2</ele>
        <time>2024-04-13T07:50:08Z</time>
      </trkpt>
      <trkpt lat="47.02913" lon="-1.81965">
        <ele>28.8</ele>
        <time>2024-04-13T07:50:15Z</time>
      </trkpt>
      <trkpt lat="47.02917" lon="-1.81986">
        <ele>29</ele>
        <time>2024-04-13T07:50:22Z</time>
      </trkpt>
      <trkpt lat="47.02919" lon="-1.82005">
        <ele>29.2</ele>
        <time>2024-04-13T07:50:29Z</time>
      </trkpt>
      <trkpt lat="47.02918" lon="-1.82005">
        <ele>29.2</ele>
        <time>2024-04-13T07:50:31Z</time>
      </trkpt>
      <trkpt lat="47.02921" lon="-1.82034">
        <ele>29</ele>
        <time>2024-04-13T07:51:09Z</time>
      </trkpt>
      <trkpt lat="47.02921" lon="-1.82036">
        <ele>29</ele>
        <time>2024-04-13T07:51:10Z</time>
      </trkpt>
      <trkpt lat="47.02923" lon="-1.82052">
        <ele>29</ele>
        <time>2024-04-13T07:51:17Z</time>
      </trkpt>
      <trkpt lat="47.02924" lon="-1.82063">
        <ele>28.8</ele>
        <time>2024-04-13T07:51:22Z</time>
      </trkpt>
      <trkpt lat="47.02926" lon="-1.82067">
        <ele>29</ele>
        <time>2024-04-13T07:51:24Z</time>
      </trkpt>
      <trkpt lat="47.02928" lon="-1.82079">
        <ele>29</ele>
        <time>2024-04-13T07:51:30Z</time>
      </trkpt>
      <trkpt lat="47.02928" lon="-1.82092">
        <ele>29</ele>
        <time>2024-04-13T07:51:35Z</time>
      </trkpt>
      <trkpt lat="47.02929" lon="-1.82101">
        <ele>28.8</ele>
        <time>2024-04-13T07:51:39Z</time>
      </trkpt>
      <trkpt lat="47.02929" lon="-1.82108">
        <ele>28.6</ele>
        <time>2024-04-13T07:51:41Z</time>
      </trkpt>
      <trkpt lat="47.0293" lon="-1.82131">
        <ele>28.2</ele>
        <time>2024-04-13T07:51:48Z</time>
      </trkpt>
      <trkpt lat="47.02931" lon="-1.82137">
        <ele>28.2</ele>
        <time>2024-04-13T07:51:50Z</time>
      </trkpt>
      <trkpt lat="47.02931" lon="-1.82157">
        <ele>28.4</ele>
        <time>2024-04-13T07:51:56Z</time>
      </trkpt>
      <trkpt lat="47.02933" lon="-1.82178">
        <ele>28.4</ele>
        <time>2024-04-13T07:52:02Z</time>
      </trkpt>
      <trkpt lat="47.02935" lon="-1.82202">
        <ele>27.8</ele>
        <time>2024-04-13T07:52:10Z</time>
      </trkpt>
      <trkpt lat="47.02938" lon="-1.82223">
        <ele>28</ele>
        <time>2024-04-13T07:52:17Z</time>
      </trkpt>
      <trkpt lat="47.0294" lon="-1.82249">
        <ele>27.4</ele>
        <time>2024-04-13T07:52:25Z</time>
      </trkpt>
      <trkpt lat="47.02941" lon="-1.82254">
        <ele>27.2</ele>
        <time>2024-04-13T07:52:27Z</time>
      </trkpt>
      <trkpt lat="47.02942" lon="-1.82266">
        <ele>27</ele>
        <time>2024-04-13T07:52:31Z</time>
      </trkpt>
      <trkpt lat="47.02944" lon="-1.82286">
        <ele>26.4</ele>
        <time>2024-04-13T07:52:38Z</time>
      </trkpt>
      <trkpt lat="47.02945" lon="-1.82295">
        <ele>26</ele>
        <time>2024-04-13T07:52:41Z</time>
      </trkpt>
      <trkpt lat="47.02946" lon="-1.82311">
        <ele>25.6</ele>
        <time>2024-04-13T07:52:46Z</time>
      </trkpt>
      <trkpt lat="47.02946" lon="-1.82313">
        <ele>25.4</ele>
        <time>2024-04-13T07:52:49Z</time>
      </trkpt>
      <trkpt lat="47.02944" lon="-1.8233">
        <ele>25.2</ele>
        <time>2024-04-13T07:53:06Z</time>
      </trkpt>
      <trkpt lat="47.02933" lon="-1.82337">
        <ele>25.2</ele>
        <time>2024-04-13T07:53:12Z</time>
      </trkpt>
      <trkpt lat="47.02916" lon="-1.82347">
        <ele>25.4</ele>
        <time>2024-04-13T07:53:21Z</time>
      </trkpt>
      <trkpt lat="47.02907" lon="-1.82357">
        <ele>25.2</ele>
        <time>2024-04-13T07:53:26Z</time>
      </trkpt>
      <trkpt lat="47.02904" lon="-1.82367">
        <ele>25</ele>
        <time>2024-04-13T07:53:29Z</time>
      </trkpt>
      <trkpt lat="47.02901" lon="-1.82372">
        <ele>24.8</ele>
        <time>2024-04-13T07:53:31Z</time>
      </trkpt>
      <trkpt lat="47.02893" lon="-1.82377">
        <ele>24.8</ele>
        <time>2024-04-13T07:53:35Z</time>
      </trkpt>
      <trkpt lat="47.02889" lon="-1.82378">
        <ele>24.8</ele>
        <time>2024-04-13T07:53:37Z</time>
      </trkpt>
      <trkpt lat="47.02884" lon="-1.82379">
        <ele>24.2</ele>
        <time>2024-04-13T07:53:42Z</time>
      </trkpt>
      <trkpt lat="47.02884" lon="-1.82378">
        <ele>24.2</ele>
        <time>2024-04-13T07:53:43Z</time>
      </trkpt>
      <trkpt lat="47.02881" lon="-1.82383">
        <ele>24.4</ele>
        <time>2024-04-13T07:53:53Z</time>
      </trkpt>
      <trkpt lat="47.02876" lon="-1.82387">
        <ele>24.4</ele>
        <time>2024-04-13T07:53:55Z</time>
      </trkpt>
      <trkpt lat="47.02863" lon="-1.8239">
        <ele>24.2</ele>
        <time>2024-04-13T07:53:59Z</time>
      </trkpt>
      <trkpt lat="47.02859" lon="-1.8239">
        <ele>24.2</ele>
        <time>2024-04-13T07:54:00Z</time>
      </trkpt>
      <trkpt lat="47.02851" lon="-1.8239">
        <ele>24.2</ele>
        <time>2024-04-13T07:54:02Z</time>
      </trkpt>
      <trkpt lat="47.02836" lon="-1.82385">
        <ele>24</ele>
        <time>2024-04-13T07:54:05Z</time>
      </trkpt>
      <trkpt lat="47.0283" lon="-1.82384">
        <ele>24</ele>
        <time>2024-04-13T07:54:06Z</time>
      </trkpt>
      <trkpt lat="47.02816" lon="-1.82385">
        <ele>24</ele>
        <time>2024-04-13T07:54:09Z</time>
      </trkpt>
      <trkpt lat="47.02786" lon="-1.82397">
        <ele>23.8</ele>
        <time>2024-04-13T07:54:16Z</time>
      </trkpt>
      <trkpt lat="47.0276" lon="-1.8241">
        <ele>24.2</ele>
        <time>2024-04-13T07:54:23Z</time>
      </trkpt>
      <trkpt lat="47.02757" lon="-1.82412">
        <ele>24.4</ele>
        <time>2024-04-13T07:54:24Z</time>
      </trkpt>
      <trkpt lat="47.02752" lon="-1.8242">
        <ele>24.8</ele>
        <time>2024-04-13T07:54:29Z</time>
      </trkpt>
      <trkpt lat="47.02752" lon="-1.82423">
        <ele>24.8</ele>
        <time>2024-04-13T07:54:31Z</time>
      </trkpt>
      <trkpt lat="47.02754" lon="-1.82428">
        <ele>24.8</ele>
        <time>2024-04-13T07:54:33Z</time>
      </trkpt>
      <trkpt lat="47.02765" lon="-1.82445">
        <ele>24.8</ele>
        <time>2024-04-13T07:54:38Z</time>
      </trkpt>
      <trkpt lat="47.02781" lon="-1.82469">
        <ele>24.2</ele>
        <time>2024-04-13T07:54:43Z</time>
      </trkpt>
      <trkpt lat="47.02808" lon="-1.82513">
        <ele>23</ele>
        <time>2024-04-13T07:54:50Z</time>
      </trkpt>
      <trkpt lat="47.02834" lon="-1.82557">
        <ele>21.8</ele>
        <time>2024-04-13T07:54:56Z</time>
      </trkpt>
      <trkpt lat="47.02839" lon="-1.82565">
        <ele>21.8</ele>
        <time>2024-04-13T07:54:57Z</time>
      </trkpt>
      <trkpt lat="47.0286" lon="-1.82606">
        <ele>21</ele>
        <time>2024-04-13T07:55:02Z</time>
      </trkpt>
      <trkpt lat="47.02872" lon="-1.82631">
        <ele>20.8</ele>
        <time>2024-04-13T07:55:05Z</time>
      </trkpt>
      <trkpt lat="47.02901" lon="-1.827">
        <ele>20.8</ele>
        <time>2024-04-13T07:55:13Z</time>
      </trkpt>
      <trkpt lat="47.02918" lon="-1.82745">
        <ele>20.4</ele>
        <time>2024-04-13T07:55:19Z</time>
      </trkpt>
      <trkpt lat="47.02935" lon="-1.82786">
        <ele>20.8</ele>
        <time>2024-04-13T07:55:25Z</time>
      </trkpt>
      <trkpt lat="47.0294" lon="-1.82788">
        <ele>20.6</ele>
        <time>2024-04-13T07:55:26Z</time>
      </trkpt>
      <trkpt lat="47.02944" lon="-1.82786">
        <ele>20.6</ele>
        <time>2024-04-13T07:55:27Z</time>
      </trkpt>
      <trkpt lat="47.02951" lon="-1.82781">
        <ele>20.8</ele>
        <time>2024-04-13T07:55:29Z</time>
      </trkpt>
      <trkpt lat="47.02988" lon="-1.82761">
        <ele>21.4</ele>
        <time>2024-04-13T07:55:37Z</time>
      </trkpt>
      <trkpt lat="47.03003" lon="-1.82756">
        <ele>21.6</ele>
        <time>2024-04-13T07:55:40Z</time>
      </trkpt>
      <trkpt lat="47.03023" lon="-1.82751">
        <ele>21.6</ele>
        <time>2024-04-13T07:55:44Z</time>
      </trkpt>
      <trkpt lat="47.03042" lon="-1.82744">
        <ele>21.2</ele>
        <time>2024-04-13T07:55:49Z</time>
      </trkpt>
      <trkpt lat="47.03064" lon="-1.82737">
        <ele>21.4</ele>
        <time>2024-04-13T07:55:54Z</time>
      </trkpt>
      <trkpt lat="47.03068" lon="-1.82736">
        <ele>21.4</ele>
        <time>2024-04-13T07:55:55Z</time>
      </trkpt>
      <trkpt lat="47.03077" lon="-1.82733">
        <ele>21.4</ele>
        <time>2024-04-13T07:55:57Z</time>
      </trkpt>
      <trkpt lat="47.03094" lon="-1.8273">
        <ele>21.4</ele>
        <time>2024-04-13T07:56:01Z</time>
      </trkpt>
      <trkpt lat="47.03099" lon="-1.82731">
        <ele>21.4</ele>
        <time>2024-04-13T07:56:02Z</time>
      </trkpt>
      <trkpt lat="47.03107" lon="-1.82733">
        <ele>21.4</ele>
        <time>2024-04-13T07:56:04Z</time>
      </trkpt>
      <trkpt lat="47.03111" lon="-1.82734">
        <ele>21.4</ele>
        <time>2024-04-13T07:56:05Z</time>
      </trkpt>
      <trkpt lat="47.03136" lon="-1.8274">
        <ele>21.6</ele>
        <time>2024-04-13T07:56:12Z</time>
      </trkpt>
      <trkpt lat="47.03151" lon="-1.82741">
        <ele>21.8</ele>
        <time>2024-04-13T07:56:16Z</time>
      </trkpt>
      <trkpt lat="47.03158" lon="-1.8274">
        <ele>22</ele>
        <time>2024-04-13T07:56:18Z</time>
      </trkpt>
      <trkpt lat="47.03178" lon="-1.82736">
        <ele>22.8</ele>
        <time>2024-04-13T07:56:26Z</time>
      </trkpt>
      <trkpt lat="47.0318" lon="-1.82735">
        <ele>22.8</ele>
        <time>2024-04-13T07:56:27Z</time>
      </trkpt>
      <trkpt lat="47.03193" lon="-1.82734">
        <ele>23.2</ele>
        <time>2024-04-13T07:56:32Z</time>
      </trkpt>
      <trkpt lat="47.03204" lon="-1.82733">
        <ele>23.6</ele>
        <time>2024-04-13T07:56:36Z</time>
      </trkpt>
      <trkpt lat="47.03209" lon="-1.82732">
        <ele>23.8</ele>
        <time>2024-04-13T07:56:38Z</time>
      </trkpt>
      <trkpt lat="47.03217" lon="-1.8273">
        <ele>24.2</ele>
        <time>2024-04-13T07:56:41Z</time>
      </trkpt>
      <trkpt lat="47.03219" lon="-1.8273">
        <ele>24.4</ele>
        <time>2024-04-13T07:56:42Z</time>
      </trkpt>
      <trkpt lat="47.03224" lon="-1.8273">
        <ele>24.6</ele>
        <time>2024-04-13T07:56:44Z</time>
      </trkpt>
      <trkpt lat="47.03237" lon="-1.82731">
        <ele>24.6</ele>
        <time>2024-04-13T07:56:49Z</time>
      </trkpt>
      <trkpt lat="47.03247" lon="-1.82731">
        <ele>25</ele>
        <time>2024-04-13T07:56:52Z</time>
      </trkpt>
      <trkpt lat="47.03256" lon="-1.82731">
        <ele>25.2</ele>
        <time>2024-04-13T07:56:55Z</time>
      </trkpt>
      <trkpt lat="47.03277" lon="-1.8273">
        <ele>26</ele>
        <time>2024-04-13T07:57:02Z</time>
      </trkpt>
      <trkpt lat="47.03282" lon="-1.8273">
        <ele>26.2</ele>
        <time>2024-04-13T07:57:04Z</time>
      </trkpt>
      <trkpt lat="47.03285" lon="-1.8273">
        <ele>26.2</ele>
        <time>2024-04-13T07:57:05Z</time>
      </trkpt>
      <trkpt lat="47.03303" lon="-1.82729">
        <ele>26.8</ele>
        <time>2024-04-13T07:57:12Z</time>
      </trkpt>
      <trkpt lat="47.03305" lon="-1.82729">
        <ele>27</ele>
        <time>2024-04-13T07:57:13Z</time>
      </trkpt>
      <trkpt lat="47.03308" lon="-1.8273">
        <ele>27.2</ele>
        <time>2024-04-13T07:57:14Z</time>
      </trkpt>
      <trkpt lat="47.03322" lon="-1.8273">
        <ele>27.4</ele>
        <time>2024-04-13T07:57:20Z</time>
      </trkpt>
      <trkpt lat="47.03329" lon="-1.82731">
        <ele>27.6</ele>
        <time>2024-04-13T07:57:23Z</time>
      </trkpt>
      <trkpt lat="47.03339" lon="-1.82732">
        <ele>27.8</ele>
        <time>2024-04-13T07:57:27Z</time>
      </trkpt>
      <trkpt lat="47.03353" lon="-1.82731">
        <ele>28.2</ele>
        <time>2024-04-13T07:57:32Z</time>
      </trkpt>
      <trkpt lat="47.03355" lon="-1.82731">
        <ele>28.2</ele>
        <time>2024-04-13T07:57:33Z</time>
      </trkpt>
      <trkpt lat="47.03378" lon="-1.82732">
        <ele>28.4</ele>
        <time>2024-04-13T07:57:42Z</time>
      </trkpt>
      <trkpt lat="47.03395" lon="-1.8273">
        <ele>29.2</ele>
        <time>2024-04-13T07:57:49Z</time>
      </trkpt>
      <trkpt lat="47.03397" lon="-1.8273">
        <ele>29.2</ele>
        <time>2024-04-13T07:57:50Z</time>
      </trkpt>
      <trkpt lat="47.03408" lon="-1.8273">
        <ele>29.2</ele>
        <time>2024-04-13T07:57:54Z</time>
      </trkpt>
      <trkpt lat="47.03435" lon="-1.82731">
        <ele>29.2</ele>
        <time>2024-04-13T07:58:03Z</time>
      </trkpt>
      <trkpt lat="47.03461" lon="-1.82731">
        <ele>30</ele>
        <time>2024-04-13T07:58:11Z</time>
      </trkpt>
      <trkpt lat="47.03481" lon="-1.82729">
        <ele>30</ele>
        <time>2024-04-13T07:58:17Z</time>
      </trkpt>
      <trkpt lat="47.03491" lon="-1.82728">
        <ele>30.4</ele>
        <time>2024-04-13T07:58:20Z</time>
      </trkpt>
      <trkpt lat="47.03502" lon="-1.82728">
        <ele>30.6</ele>
        <time>2024-04-13T07:58:23Z</time>
      </trkpt>
      <trkpt lat="47.03534" lon="-1.82729">
        <ele>30.6</ele>
        <time>2024-04-13T07:58:32Z</time>
      </trkpt>
      <trkpt lat="47.03553" lon="-1.8273">
        <ele>30.4</ele>
        <time>2024-04-13T07:58:38Z</time>
      </trkpt>
      <trkpt lat="47.03574" lon="-1.82729">
        <ele>30.4</ele>
        <time>2024-04-13T07:58:45Z</time>
      </trkpt>
      <trkpt lat="47.03593" lon="-1.82732">
        <ele>30.4</ele>
        <time>2024-04-13T07:58:51Z</time>
      </trkpt>
      <trkpt lat="47.03614" lon="-1.82728">
        <ele>30.4</ele>
        <time>2024-04-13T07:58:56Z</time>
      </trkpt>
      <trkpt lat="47.03654" lon="-1.82729">
        <ele>30.6</ele>
        <time>2024-04-13T07:59:05Z</time>
      </trkpt>
      <trkpt lat="47.03658" lon="-1.82729">
        <ele>30.6</ele>
        <time>2024-04-13T07:59:06Z</time>
      </trkpt>
      <trkpt lat="47.03682" lon="-1.82726">
        <ele>30.4</ele>
        <time>2024-04-13T07:59:11Z</time>
      </trkpt>
      <trkpt lat="47.03724" lon="-1.8272">
        <ele>31.2</ele>
        <time>2024-04-13T07:59:20Z</time>
      </trkpt>
      <trkpt lat="47.03739" lon="-1.82718">
        <ele>31.4</ele>
        <time>2024-04-13T07:59:23Z</time>
      </trkpt>
      <trkpt lat="47.03767" lon="-1.82714">
        <ele>32</ele>
        <time>2024-04-13T07:59:29Z</time>
      </trkpt>
      <trkpt lat="47.03811" lon="-1.82708">
        <ele>32.2</ele>
        <time>2024-04-13T07:59:38Z</time>
      </trkpt>
      <trkpt lat="47.0383" lon="-1.82705">
        <ele>32.4</ele>
        <time>2024-04-13T07:59:42Z</time>
      </trkpt>
      <trkpt lat="47.03849" lon="-1.82702">
        <ele>32.8</ele>
        <time>2024-04-13T07:59:46Z</time>
      </trkpt>
      <trkpt lat="47.03892" lon="-1.82696">
        <ele>33</ele>
        <time>2024-04-13T07:59:55Z</time>
      </trkpt>
      <trkpt lat="47.03922" lon="-1.82694">
        <ele>33.4</ele>
        <time>2024-04-13T08:00:01Z</time>
      </trkpt>
      <trkpt lat="47.03932" lon="-1.82694">
        <ele>33.6</ele>
        <time>2024-04-13T08:00:03Z</time>
      </trkpt>
      <trkpt lat="47.03977" lon="-1.82693">
        <ele>34</ele>
        <time>2024-04-13T08:00:12Z</time>
      </trkpt>
      <trkpt lat="47.04027" lon="-1.82693">
        <ele>34.4</ele>
        <time>2024-04-13T08:00:22Z</time>
      </trkpt>
      <trkpt lat="47.04037" lon="-1.82692">
        <ele>34.6</ele>
        <time>2024-04-13T08:00:24Z</time>
      </trkpt>
      <trkpt lat="47.04068" lon="-1.82694">
        <ele>34.6</ele>
        <time>2024-04-13T08:00:30Z</time>
      </trkpt>
      <trkpt lat="47.04098" lon="-1.82696">
        <ele>34.6</ele>
        <time>2024-04-13T08:00:36Z</time>
      </trkpt>
      <trkpt lat="47.04107" lon="-1.82692">
        <ele>34.8</ele>
        <time>2024-04-13T08:00:38Z</time>
      </trkpt>
      <trkpt lat="47.04111" lon="-1.82693">
        <ele>35</ele>
        <time>2024-04-13T08:00:39Z</time>
      </trkpt>
      <trkpt lat="47.0412" lon="-1.82697">
        <ele>35</ele>
        <time>2024-04-13T08:00:41Z</time>
      </trkpt>
      <trkpt lat="47.04134" lon="-1.82703">
        <ele>35</ele>
        <time>2024-04-13T08:00:44Z</time>
      </trkpt>
      <trkpt lat="47.04142" lon="-1.82703">
        <ele>35.2</ele>
        <time>2024-04-13T08:00:46Z</time>
      </trkpt>
      <trkpt lat="47.04168" lon="-1.82704">
        <ele>35</ele>
        <time>2024-04-13T08:00:52Z</time>
      </trkpt>
      <trkpt lat="47.04191" lon="-1.82704">
        <ele>34.6</ele>
        <time>2024-04-13T08:00:58Z</time>
      </trkpt>
      <trkpt lat="47.04217" lon="-1.82701">
        <ele>35</ele>
        <time>2024-04-13T08:01:05Z</time>
      </trkpt>
      <trkpt lat="47.04247" lon="-1.82699">
        <ele>35.2</ele>
        <time>2024-04-13T08:01:13Z</time>
      </trkpt>
      <trkpt lat="47.04272" lon="-1.82699">
        <ele>35.4</ele>
        <time>2024-04-13T08:01:19Z</time>
      </trkpt>
      <trkpt lat="47.04296" lon="-1.82697">
        <ele>35.4</ele>
        <time>2024-04-13T08:01:25Z</time>
      </trkpt>
      <trkpt lat="47.04312" lon="-1.82697">
        <ele>35.6</ele>
        <time>2024-04-13T08:01:29Z</time>
      </trkpt>
      <trkpt lat="47.0432" lon="-1.82696">
        <ele>35.6</ele>
        <time>2024-04-13T08:01:31Z</time>
      </trkpt>
      <trkpt lat="47.04342" lon="-1.82697">
        <ele>35.8</ele>
        <time>2024-04-13T08:01:37Z</time>
      </trkpt>
      <trkpt lat="47.04368" lon="-1.82699">
        <ele>35.8</ele>
        <time>2024-04-13T08:01:44Z</time>
      </trkpt>
      <trkpt lat="47.04389" lon="-1.82703">
        <ele>36</ele>
        <time>2024-04-13T08:01:50Z</time>
      </trkpt>
      <trkpt lat="47.04406" lon="-1.82708">
        <ele>36.2</ele>
        <time>2024-04-13T08:01:56Z</time>
      </trkpt>
      <trkpt lat="47.04424" lon="-1.82714">
        <ele>36.2</ele>
        <time>2024-04-13T08:02:02Z</time>
      </trkpt>
      <trkpt lat="47.0445" lon="-1.8272">
        <ele>35.8</ele>
        <time>2024-04-13T08:02:11Z</time>
      </trkpt>
      <trkpt lat="47.04462" lon="-1.82724">
        <ele>35.8</ele>
        <time>2024-04-13T08:02:15Z</time>
      </trkpt>
      <trkpt lat="47.04477" lon="-1.82728">
        <ele>35.4</ele>
        <time>2024-04-13T08:02:20Z</time>
      </trkpt>
      <trkpt lat="47.0449" lon="-1.82733">
        <ele>35.4</ele>
        <time>2024-04-13T08:02:25Z</time>
      </trkpt>
      <trkpt lat="47.04497" lon="-1.82735">
        <ele>35.6</ele>
        <time>2024-04-13T08:02:27Z</time>
      </trkpt>
      <trkpt lat="47.04531" lon="-1.82746">
        <ele>35</ele>
        <time>2024-04-13T08:02:39Z</time>
      </trkpt>
      <trkpt lat="47.04548" lon="-1.82754">
        <ele>35</ele>
        <time>2024-04-13T08:02:45Z</time>
      </trkpt>
      <trkpt lat="47.04555" lon="-1.82756">
        <ele>35</ele>
        <time>2024-04-13T08:02:48Z</time>
      </trkpt>
      <trkpt lat="47.04576" lon="-1.82767">
        <ele>34.8</ele>
        <time>2024-04-13T08:02:56Z</time>
      </trkpt>
      <trkpt lat="47.04593" lon="-1.82774">
        <ele>34.6</ele>
        <time>2024-04-13T08:03:01Z</time>
      </trkpt>
      <trkpt lat="47.04597" lon="-1.82777">
        <ele>34.6</ele>
        <time>2024-04-13T08:03:02Z</time>
      </trkpt>
      <trkpt lat="47.04623" lon="-1.8279">
        <ele>33.6</ele>
        <time>2024-04-13T08:03:08Z</time>
      </trkpt>
      <trkpt lat="47.04627" lon="-1.82792">
        <ele>33.4</ele>
        <time>2024-04-13T08:03:09Z</time>
      </trkpt>
      <trkpt lat="47.04657" lon="-1.82809">
        <ele>34.2</ele>
        <time>2024-04-13T08:03:16Z</time>
      </trkpt>
      <trkpt lat="47.04671" lon="-1.82817">
        <ele>34.2</ele>
        <time>2024-04-13T08:03:19Z</time>
      </trkpt>
      <trkpt lat="47.04679" lon="-1.82822">
        <ele>33.4</ele>
        <time>2024-04-13T08:03:21Z</time>
      </trkpt>
      <trkpt lat="47.04702" lon="-1.82835">
        <ele>32.2</ele>
        <time>2024-04-13T08:03:26Z</time>
      </trkpt>
      <trkpt lat="47.04711" lon="-1.82838">
        <ele>31.4</ele>
        <time>2024-04-13T08:03:28Z</time>
      </trkpt>
      <trkpt lat="47.04728" lon="-1.82846">
        <ele>31</ele>
        <time>2024-04-13T08:03:32Z</time>
      </trkpt>
      <trkpt lat="47.04741" lon="-1.82852">
        <ele>31</ele>
        <time>2024-04-13T08:03:35Z</time>
      </trkpt>
      <trkpt lat="47.04757" lon="-1.82858">
        <ele>30.8</ele>
        <time>2024-04-13T08:03:39Z</time>
      </trkpt>
      <trkpt lat="47.04777" lon="-1.82867">
        <ele>31.6</ele>
        <time>2024-04-13T08:03:44Z</time>
      </trkpt>
      <trkpt lat="47.04787" lon="-1.82873">
        <ele>31.6</ele>
        <time>2024-04-13T08:03:47Z</time>
      </trkpt>
      <trkpt lat="47.04791" lon="-1.82875">
        <ele>31.6</ele>
        <time>2024-04-13T08:03:48Z</time>
      </trkpt>
      <trkpt lat="47.04796" lon="-1.82876">
        <ele>31.6</ele>
        <time>2024-04-13T08:03:49Z</time>
      </trkpt>
      <trkpt lat="47.04805" lon="-1.82876">
        <ele>30.6</ele>
        <time>2024-04-13T08:03:51Z</time>
      </trkpt>
      <trkpt lat="47.04818" lon="-1.8288">
        <ele>30.2</ele>
        <time>2024-04-13T08:03:54Z</time>
      </trkpt>
      <trkpt lat="47.04827" lon="-1.82882">
        <ele>30.4</ele>
        <time>2024-04-13T08:03:56Z</time>
      </trkpt>
      <trkpt lat="47.04856" lon="-1.82887">
        <ele>30.4</ele>
        <time>2024-04-13T08:04:02Z</time>
      </trkpt>
      <trkpt lat="47.04875" lon="-1.82889">
        <ele>30.2</ele>
        <time>2024-04-13T08:04:06Z</time>
      </trkpt>
      <trkpt lat="47.04885" lon="-1.82888">
        <ele>30.2</ele>
        <time>2024-04-13T08:04:08Z</time>
      </trkpt>
      <trkpt lat="47.04893" lon="-1.82887">
        <ele>30</ele>
        <time>2024-04-13T08:04:10Z</time>
      </trkpt>
      <trkpt lat="47.04911" lon="-1.82884">
        <ele>30</ele>
        <time>2024-04-13T08:04:14Z</time>
      </trkpt>
      <trkpt lat="47.04928" lon="-1.82882">
        <ele>30</ele>
        <time>2024-04-13T08:04:19Z</time>
      </trkpt>
      <trkpt lat="47.0494" lon="-1.82881">
        <ele>29.8</ele>
        <time>2024-04-13T08:04:24Z</time>
      </trkpt>
      <trkpt lat="47.04954" lon="-1.82879">
        <ele>30.2</ele>
        <time>2024-04-13T08:04:29Z</time>
      </trkpt>
      <trkpt lat="47.04963" lon="-1.82879">
        <ele>30.4</ele>
        <time>2024-04-13T08:04:32Z</time>
      </trkpt>
      <trkpt lat="47.04976" lon="-1.82875">
        <ele>30.4</ele>
        <time>2024-04-13T08:04:37Z</time>
      </trkpt>
      <trkpt lat="47.04993" lon="-1.82872">
        <ele>30.4</ele>
        <time>2024-04-13T08:04:44Z</time>
      </trkpt>
      <trkpt lat="47.05004" lon="-1.8287">
        <ele>30.4</ele>
        <time>2024-04-13T08:04:49Z</time>
      </trkpt>
      <trkpt lat="47.05007" lon="-1.82869">
        <ele>30.6</ele>
        <time>2024-04-13T08:04:50Z</time>
      </trkpt>
      <trkpt lat="47.05009" lon="-1.82869">
        <ele>30.6</ele>
        <time>2024-04-13T08:04:51Z</time>
      </trkpt>
      <trkpt lat="47.05022" lon="-1.82867">
        <ele>30.6</ele>
        <time>2024-04-13T08:04:56Z</time>
      </trkpt>
      <trkpt lat="47.05029" lon="-1.82866">
        <ele>30.8</ele>
        <time>2024-04-13T08:04:59Z</time>
      </trkpt>
      <trkpt lat="47.05046" lon="-1.82866">
        <ele>31</ele>
        <time>2024-04-13T08:05:07Z</time>
      </trkpt>
      <trkpt lat="47.05056" lon="-1.82867">
        <ele>31.2</ele>
        <time>2024-04-13T08:05:11Z</time>
      </trkpt>
      <trkpt lat="47.05061" lon="-1.82868">
        <ele>31.4</ele>
        <time>2024-04-13T08:05:13Z</time>
      </trkpt>
      <trkpt lat="47.05083" lon="-1.82871">
        <ele>31.8</ele>
        <time>2024-04-13T08:05:21Z</time>
      </trkpt>
      <trkpt lat="47.05102" lon="-1.82874">
        <ele>31.8</ele>
        <time>2024-04-13T08:05:27Z</time>
      </trkpt>
      <trkpt lat="47.05128" lon="-1.82878">
        <ele>31.8</ele>
        <time>2024-04-13T08:05:34Z</time>
      </trkpt>
      <trkpt lat="47.0515" lon="-1.82879">
        <ele>31.6</ele>
        <time>2024-04-13T08:05:40Z</time>
      </trkpt>
      <trkpt lat="47.05173" lon="-1.82879">
        <ele>31.4</ele>
        <time>2024-04-13T08:05:47Z</time>
      </trkpt>
      <trkpt lat="47.05192" lon="-1.82879">
        <ele>31</ele>
        <time>2024-04-13T08:05:52Z</time>
      </trkpt>
      <trkpt lat="47.05211" lon="-1.82877">
        <ele>30.6</ele>
        <time>2024-04-13T08:05:58Z</time>
      </trkpt>
      <trkpt lat="47.05229" lon="-1.82877">
        <ele>30.4</ele>
        <time>2024-04-13T08:06:03Z</time>
      </trkpt>
      <trkpt lat="47.0524" lon="-1.82877">
        <ele>30.2</ele>
        <time>2024-04-13T08:06:07Z</time>
      </trkpt>
      <trkpt lat="47.05242" lon="-1.82877">
        <ele>30.2</ele>
        <time>2024-04-13T08:06:08Z</time>
      </trkpt>
      <trkpt lat="47.05251" lon="-1.82877">
        <ele>30</ele>
        <time>2024-04-13T08:06:11Z</time>
      </trkpt>
      <trkpt lat="47.05262" lon="-1.82876">
        <ele>29.6</ele>
        <time>2024-04-13T08:06:15Z</time>
      </trkpt>
      <trkpt lat="47.05282" lon="-1.82878">
        <ele>29.2</ele>
        <time>2024-04-13T08:06:22Z</time>
      </trkpt>
      <trkpt lat="47.05301" lon="-1.82879">
        <ele>29.2</ele>
        <time>2024-04-13T08:06:28Z</time>
      </trkpt>
      <trkpt lat="47.05321" lon="-1.82883">
        <ele>29.2</ele>
        <time>2024-04-13T08:06:35Z</time>
      </trkpt>
      <trkpt lat="47.05341" lon="-1.82887">
        <ele>29.2</ele>
        <time>2024-04-13T08:06:41Z</time>
      </trkpt>
      <trkpt lat="47.05344" lon="-1.82887">
        <ele>29.2</ele>
        <time>2024-04-13T08:06:42Z</time>
      </trkpt>
      <trkpt lat="47.05363" lon="-1.82895">
        <ele>29.4</ele>
        <time>2024-04-13T08:06:49Z</time>
      </trkpt>
      <trkpt lat="47.05376" lon="-1.82895">
        <ele>29.4</ele>
        <time>2024-04-13T08:06:54Z</time>
      </trkpt>
      <trkpt lat="47.05377" lon="-1.82896">
        <ele>29.4</ele>
        <time>2024-04-13T08:06:57Z</time>
      </trkpt>
      <trkpt lat="47.05388" lon="-1.829">
        <ele>29.4</ele>
        <time>2024-04-13T08:10:37Z</time>
      </trkpt>
      <trkpt lat="47.0539" lon="-1.829">
        <ele>29.4</ele>
        <time>2024-04-13T08:10:38Z</time>
      </trkpt>
      <trkpt lat="47.05402" lon="-1.82902">
        <ele>29.4</ele>
        <time>2024-04-13T08:10:43Z</time>
      </trkpt>
      <trkpt lat="47.05409" lon="-1.82898">
        <ele>29.6</ele>
        <time>2024-04-13T08:10:47Z</time>
      </trkpt>
      <trkpt lat="47.05423" lon="-1.82899">
        <ele>29.6</ele>
        <time>2024-04-13T08:10:53Z</time>
      </trkpt>
      <trkpt lat="47.0544" lon="-1.82901">
        <ele>30</ele>
        <time>2024-04-13T08:11:00Z</time>
      </trkpt>
      <trkpt lat="47.05456" lon="-1.82904">
        <ele>31</ele>
        <time>2024-04-13T08:11:06Z</time>
      </trkpt>
      <trkpt lat="47.05458" lon="-1.82905">
        <ele>31.2</ele>
        <time>2024-04-13T08:11:07Z</time>
      </trkpt>
      <trkpt lat="47.0547" lon="-1.82908">
        <ele>31.6</ele>
        <time>2024-04-13T08:11:13Z</time>
      </trkpt>
      <trkpt lat="47.05487" lon="-1.82912">
        <ele>32.2</ele>
        <time>2024-04-13T08:11:21Z</time>
      </trkpt>
      <trkpt lat="47.055" lon="-1.82915">
        <ele>32.2</ele>
        <time>2024-04-13T08:11:27Z</time>
      </trkpt>
      <trkpt lat="47.05514" lon="-1.82917">
        <ele>32.2</ele>
        <time>2024-04-13T08:11:33Z</time>
      </trkpt>
      <trkpt lat="47.0554" lon="-1.8292">
        <ele>32.6</ele>
        <time>2024-04-13T08:11:43Z</time>
      </trkpt>
      <trkpt lat="47.0555" lon="-1.82922">
        <ele>32.8</ele>
        <time>2024-04-13T08:11:46Z</time>
      </trkpt>
      <trkpt lat="47.05555" lon="-1.82924">
        <ele>32.8</ele>
        <time>2024-04-13T08:11:48Z</time>
      </trkpt>
      <trkpt lat="47.05562" lon="-1.82925">
        <ele>32.8</ele>
        <time>2024-04-13T08:11:50Z</time>
      </trkpt>
      <trkpt lat="47.05581" lon="-1.82934">
        <ele>33</ele>
        <time>2024-04-13T08:11:57Z</time>
      </trkpt>
      <trkpt lat="47.05596" lon="-1.82941">
        <ele>33.2</ele>
        <time>2024-04-13T08:12:02Z</time>
      </trkpt>
      <trkpt lat="47.05608" lon="-1.82946">
        <ele>33.4</ele>
        <time>2024-04-13T08:12:06Z</time>
      </trkpt>
      <trkpt lat="47.05634" lon="-1.82964">
        <ele>33.4</ele>
        <time>2024-04-13T08:12:14Z</time>
      </trkpt>
      <trkpt lat="47.05662" lon="-1.82986">
        <ele>33.4</ele>
        <time>2024-04-13T08:12:22Z</time>
      </trkpt>
      <trkpt lat="47.05679" lon="-1.83003">
        <ele>33.6</ele>
        <time>2024-04-13T08:12:28Z</time>
      </trkpt>
      <trkpt lat="47.05694" lon="-1.83021">
        <ele>33.8</ele>
        <time>2024-04-13T08:12:33Z</time>
      </trkpt>
      <trkpt lat="47.05716" lon="-1.8305">
        <ele>34</ele>
        <time>2024-04-13T08:12:40Z</time>
      </trkpt>
      <trkpt lat="47.05738" lon="-1.83082">
        <ele>34</ele>
        <time>2024-04-13T08:12:48Z</time>
      </trkpt>
      <trkpt lat="47.05761" lon="-1.83112">
        <ele>34.2</ele>
        <time>2024-04-13T08:12:56Z</time>
      </trkpt>
      <trkpt lat="47.05763" lon="-1.83115">
        <ele>34.4</ele>
        <time>2024-04-13T08:12:57Z</time>
      </trkpt>
      <trkpt lat="47.0578" lon="-1.83134">
        <ele>34.4</ele>
        <time>2024-04-13T08:13:02Z</time>
      </trkpt>
      <trkpt lat="47.05809" lon="-1.83157">
        <ele>34.2</ele>
        <time>2024-04-13T08:13:09Z</time>
      </trkpt>
      <trkpt lat="47.05839" lon="-1.83174">
        <ele>34</ele>
        <time>2024-04-13T08:13:16Z</time>
      </trkpt>
      <trkpt lat="47.05844" lon="-1.83176">
        <ele>34</ele>
        <time>2024-04-13T08:13:17Z</time>
      </trkpt>
      <trkpt lat="47.05885" lon="-1.83195">
        <ele>34.2</ele>
        <time>2024-04-13T08:13:25Z</time>
      </trkpt>
      <trkpt lat="47.05922" lon="-1.83205">
        <ele>34.2</ele>
        <time>2024-04-13T08:13:32Z</time>
      </trkpt>
      <trkpt lat="47.05962" lon="-1.83216">
        <ele>34.8</ele>
        <time>2024-04-13T08:13:40Z</time>
      </trkpt>
      <trkpt lat="47.05977" lon="-1.83218">
        <ele>34.8</ele>
        <time>2024-04-13T08:13:43Z</time>
      </trkpt>
      <trkpt lat="47.05986" lon="-1.83215">
        <ele>35</ele>
        <time>2024-04-13T08:13:45Z</time>
      </trkpt>
      <trkpt lat="47.0601" lon="-1.83214">
        <ele>35.6</ele>
        <time>2024-04-13T08:13:51Z</time>
      </trkpt>
      <trkpt lat="47.06031" lon="-1.83213">
        <ele>34.6</ele>
        <time>2024-04-13T08:13:56Z</time>
      </trkpt>
      <trkpt lat="47.06039" lon="-1.83212">
        <ele>34.6</ele>
        <time>2024-04-13T08:13:58Z</time>
      </trkpt>
      <trkpt lat="47.06058" lon="-1.83211">
        <ele>34.4</ele>
        <time>2024-04-13T08:14:02Z</time>
      </trkpt>
      <trkpt lat="47.06078" lon="-1.8321">
        <ele>35.6</ele>
        <time>2024-04-13T08:14:06Z</time>
      </trkpt>
      <trkpt lat="47.06109" lon="-1.83208">
        <ele>36</ele>
        <time>2024-04-13T08:14:12Z</time>
      </trkpt>
      <trkpt lat="47.06147" lon="-1.83206">
        <ele>35.6</ele>
        <time>2024-04-13T08:14:19Z</time>
      </trkpt>
      <trkpt lat="47.06197" lon="-1.83204">
        <ele>36.2</ele>
        <time>2024-04-13T08:14:28Z</time>
      </trkpt>
      <trkpt lat="47.0623" lon="-1.83203">
        <ele>36</ele>
        <time>2024-04-13T08:14:34Z</time>
      </trkpt>
      <trkpt lat="47.06246" lon="-1.83202">
        <ele>35.6</ele>
        <time>2024-04-13T08:14:37Z</time>
      </trkpt>
      <trkpt lat="47.06276" lon="-1.83199">
        <ele>35.2</ele>
        <time>2024-04-13T08:14:43Z</time>
      </trkpt>
      <trkpt lat="47.06286" lon="-1.83198">
        <ele>35.2</ele>
        <time>2024-04-13T08:14:45Z</time>
      </trkpt>
      <trkpt lat="47.06309" lon="-1.83194">
        <ele>35</ele>
        <time>2024-04-13T08:14:50Z</time>
      </trkpt>
      <trkpt lat="47.06313" lon="-1.83197">
        <ele>35</ele>
        <time>2024-04-13T08:14:51Z</time>
      </trkpt>
      <trkpt lat="47.06315" lon="-1.83203">
        <ele>35</ele>
        <time>2024-04-13T08:14:52Z</time>
      </trkpt>
      <trkpt lat="47.06316" lon="-1.83215">
        <ele>35</ele>
        <time>2024-04-13T08:14:54Z</time>
      </trkpt>
      <trkpt lat="47.06324" lon="-1.83265">
        <ele>35.6</ele>
        <time>2024-04-13T08:15:01Z</time>
      </trkpt>
      <trkpt lat="47.06327" lon="-1.83287">
        <ele>34</ele>
        <time>2024-04-13T08:15:04Z</time>
      </trkpt>
      <trkpt lat="47.06331" lon="-1.83314">
        <ele>33.8</ele>
        <time>2024-04-13T08:15:08Z</time>
      </trkpt>
      <trkpt lat="47.06336" lon="-1.83351">
        <ele>34.2</ele>
        <time>2024-04-13T08:15:14Z</time>
      </trkpt>
      <trkpt lat="47.06337" lon="-1.83357">
        <ele>34.4</ele>
        <time>2024-04-13T08:15:15Z</time>
      </trkpt>
      <trkpt lat="47.06344" lon="-1.83393">
        <ele>35</ele>
        <time>2024-04-13T08:15:22Z</time>
      </trkpt>
      <trkpt lat="47.06345" lon="-1.83396">
        <ele>35</ele>
        <time>2024-04-13T08:15:23Z</time>
      </trkpt>
      <trkpt lat="47.06345" lon="-1.83398">
        <ele>35.2</ele>
        <time>2024-04-13T08:15:26Z</time>
      </trkpt>
      <trkpt lat="47.06345" lon="-1.83403">
        <ele>34.8</ele>
        <time>2024-04-13T08:15:55Z</time>
      </trkpt>
      <trkpt lat="47.06346" lon="-1.83408">
        <ele>34.6</ele>
        <time>2024-04-13T08:15:57Z</time>
      </trkpt>
      <trkpt lat="47.0635" lon="-1.8343">
        <ele>34.4</ele>
        <time>2024-04-13T08:16:03Z</time>
      </trkpt>
      <trkpt lat="47.06353" lon="-1.83443">
        <ele>34</ele>
        <time>2024-04-13T08:16:06Z</time>
      </trkpt>
      <trkpt lat="47.06359" lon="-1.83465">
        <ele>33.6</ele>
        <time>2024-04-13T08:16:10Z</time>
      </trkpt>
      <trkpt lat="47.06368" lon="-1.83494">
        <ele>33.2</ele>
        <time>2024-04-13T08:16:15Z</time>
      </trkpt>
      <trkpt lat="47.0637" lon="-1.83501">
        <ele>33</ele>
        <time>2024-04-13T08:16:16Z</time>
      </trkpt>
      <trkpt lat="47.06374" lon="-1.83514">
        <ele>32.6</ele>
        <time>2024-04-13T08:16:18Z</time>
      </trkpt>
      <trkpt lat="47.06384" lon="-1.83542">
        <ele>32.6</ele>
        <time>2024-04-13T08:16:22Z</time>
      </trkpt>
      <trkpt lat="47.0639" lon="-1.83566">
        <ele>32.8</ele>
        <time>2024-04-13T08:16:25Z</time>
      </trkpt>
      <trkpt lat="47.06402" lon="-1.83598">
        <ele>33.4</ele>
        <time>2024-04-13T08:16:30Z</time>
      </trkpt>
      <trkpt lat="47.06407" lon="-1.83611">
        <ele>33.4</ele>
        <time>2024-04-13T08:16:32Z</time>
      </trkpt>
      <trkpt lat="47.06412" lon="-1.83625">
        <ele>33.2</ele>
        <time>2024-04-13T08:16:34Z</time>
      </trkpt>
      <trkpt lat="47.06414" lon="-1.83631">
        <ele>33.2</ele>
        <time>2024-04-13T08:16:35Z</time>
      </trkpt>
      <trkpt lat="47.06416" lon="-1.83637">
        <ele>33</ele>
        <time>2024-04-13T08:16:36Z</time>
      </trkpt>
      <trkpt lat="47.06424" lon="-1.83666">
        <ele>32.8</ele>
        <time>2024-04-13T08:16:40Z</time>
      </trkpt>
      <trkpt lat="47.06437" lon="-1.83707">
        <ele>32.8</ele>
        <time>2024-04-13T08:16:46Z</time>
      </trkpt>
      <trkpt lat="47.06447" lon="-1.83737">
        <ele>33</ele>
        <time>2024-04-13T08:16:51Z</time>
      </trkpt>
      <trkpt lat="47.06456" lon="-1.83772">
        <ele>32.6</ele>
        <time>2024-04-13T08:16:56Z</time>
      </trkpt>
      <trkpt lat="47.0646" lon="-1.83788">
        <ele>32.6</ele>
        <time>2024-04-13T08:16:58Z</time>
      </trkpt>
      <trkpt lat="47.06472" lon="-1.83822">
        <ele>32.4</ele>
        <time>2024-04-13T08:17:03Z</time>
      </trkpt>
      <trkpt lat="47.06475" lon="-1.83829">
        <ele>32.4</ele>
        <time>2024-04-13T08:17:04Z</time>
      </trkpt>
      <trkpt lat="47.06478" lon="-1.83836">
        <ele>32.4</ele>
        <time>2024-04-13T08:17:05Z</time>
      </trkpt>
      <trkpt lat="47.0648" lon="-1.83844">
        <ele>32.4</ele>
        <time>2024-04-13T08:17:06Z</time>
      </trkpt>
      <trkpt lat="47.06488" lon="-1.83865">
        <ele>32.2</ele>
        <time>2024-04-13T08:17:09Z</time>
      </trkpt>
      <trkpt lat="47.06508" lon="-1.83913">
        <ele>32.4</ele>
        <time>2024-04-13T08:17:16Z</time>
      </trkpt>
      <trkpt lat="47.06524" lon="-1.83948">
        <ele>32.6</ele>
        <time>2024-04-13T08:17:22Z</time>
      </trkpt>
      <trkpt lat="47.06539" lon="-1.83979">
        <ele>32.8</ele>
        <time>2024-04-13T08:17:28Z</time>
      </trkpt>
      <trkpt lat="47.06541" lon="-1.83984">
        <ele>33</ele>
        <time>2024-04-13T08:17:29Z</time>
      </trkpt>
      <trkpt lat="47.06549" lon="-1.84">
        <ele>33.4</ele>
        <time>2024-04-13T08:17:32Z</time>
      </trkpt>
      <trkpt lat="47.06554" lon="-1.84012">
        <ele>33.4</ele>
        <time>2024-04-13T08:17:34Z</time>
      </trkpt>
      <trkpt lat="47.06576" lon="-1.84046">
        <ele>33.8</ele>
        <time>2024-04-13T08:17:41Z</time>
      </trkpt>
      <trkpt lat="47.06588" lon="-1.84067">
        <ele>34</ele>
        <time>2024-04-13T08:17:46Z</time>
      </trkpt>
      <trkpt lat="47.06597" lon="-1.84074">
        <ele>33.8</ele>
        <time>2024-04-13T08:17:49Z</time>
      </trkpt>
      <trkpt lat="47.06601" lon="-1.84071">
        <ele>33.8</ele>
        <time>2024-04-13T08:17:50Z</time>
      </trkpt>
      <trkpt lat="47.06616" lon="-1.84056">
        <ele>33.8</ele>
        <time>2024-04-13T08:17:55Z</time>
      </trkpt>
      <trkpt lat="47.06637" lon="-1.84032">
        <ele>33.4</ele>
        <time>2024-04-13T08:18:01Z</time>
      </trkpt>
      <trkpt lat="47.06654" lon="-1.84013">
        <ele>33</ele>
        <time>2024-04-13T08:18:05Z</time>
      </trkpt>
      <trkpt lat="47.06667" lon="-1.83997">
        <ele>32.4</ele>
        <time>2024-04-13T08:18:08Z</time>
      </trkpt>
      <trkpt lat="47.06688" lon="-1.83975">
        <ele>31.8</ele>
        <time>2024-04-13T08:18:12Z</time>
      </trkpt>
      <trkpt lat="47.06698" lon="-1.83964">
        <ele>31.6</ele>
        <time>2024-04-13T08:18:14Z</time>
      </trkpt>
      <trkpt lat="47.06709" lon="-1.83951">
        <ele>30.8</ele>
        <time>2024-04-13T08:18:16Z</time>
      </trkpt>
      <trkpt lat="47.0673" lon="-1.83925">
        <ele>29.8</ele>
        <time>2024-04-13T08:18:20Z</time>
      </trkpt>
      <trkpt lat="47.06748" lon="-1.83906">
        <ele>29</ele>
        <time>2024-04-13T08:18:23Z</time>
      </trkpt>
      <trkpt lat="47.0676" lon="-1.83893">
        <ele>28.6</ele>
        <time>2024-04-13T08:18:25Z</time>
      </trkpt>
      <trkpt lat="47.06778" lon="-1.83875">
        <ele>27.6</ele>
        <time>2024-04-13T08:18:28Z</time>
      </trkpt>
      <trkpt lat="47.06795" lon="-1.83861">
        <ele>27.2</ele>
        <time>2024-04-13T08:18:31Z</time>
      </trkpt>
      <trkpt lat="47.06833" lon="-1.8384">
        <ele>27.8</ele>
        <time>2024-04-13T08:18:37Z</time>
      </trkpt>
      <trkpt lat="47.06863" lon="-1.83826">
        <ele>28.6</ele>
        <time>2024-04-13T08:18:42Z</time>
      </trkpt>
      <trkpt lat="47.06869" lon="-1.83824">
        <ele>28.6</ele>
        <time>2024-04-13T08:18:43Z</time>
      </trkpt>
      <trkpt lat="47.06892" lon="-1.83815">
        <ele>29</ele>
        <time>2024-04-13T08:18:47Z</time>
      </trkpt>
      <trkpt lat="47.06903" lon="-1.83811">
        <ele>29.2</ele>
        <time>2024-04-13T08:18:49Z</time>
      </trkpt>
      <trkpt lat="47.06918" lon="-1.83804">
        <ele>29.6</ele>
        <time>2024-04-13T08:18:52Z</time>
      </trkpt>
      <trkpt lat="47.06929" lon="-1.83799">
        <ele>29.8</ele>
        <time>2024-04-13T08:18:54Z</time>
      </trkpt>
      <trkpt lat="47.06946" lon="-1.83791">
        <ele>30</ele>
        <time>2024-04-13T08:18:57Z</time>
      </trkpt>
      <trkpt lat="47.06955" lon="-1.838">
        <ele>30</ele>
        <time>2024-04-13T08:18:59Z</time>
      </trkpt>
      <trkpt lat="47.0696" lon="-1.83822">
        <ele>30</ele>
        <time>2024-04-13T08:19:02Z</time>
      </trkpt>
      <trkpt lat="47.06975" lon="-1.83876">
        <ele>29.6</ele>
        <time>2024-04-13T08:19:09Z</time>
      </trkpt>
      <trkpt lat="47.0699" lon="-1.83928">
        <ele>29.4</ele>
        <time>2024-04-13T08:19:16Z</time>
      </trkpt>
      <trkpt lat="47.06994" lon="-1.83943">
        <ele>29.8</ele>
        <time>2024-04-13T08:19:18Z</time>
      </trkpt>
      <trkpt lat="47.07003" lon="-1.83974">
        <ele>28.4</ele>
        <time>2024-04-13T08:19:22Z</time>
      </trkpt>
      <trkpt lat="47.07006" lon="-1.8399">
        <ele>28</ele>
        <time>2024-04-13T08:19:24Z</time>
      </trkpt>
      <trkpt lat="47.07022" lon="-1.84045">
        <ele>27.8</ele>
        <time>2024-04-13T08:19:31Z</time>
      </trkpt>
      <trkpt lat="47.07037" lon="-1.84112">
        <ele>27.2</ele>
        <time>2024-04-13T08:19:39Z</time>
      </trkpt>
      <trkpt lat="47.07041" lon="-1.84128">
        <ele>27</ele>
        <time>2024-04-13T08:19:41Z</time>
      </trkpt>
      <trkpt lat="47.07043" lon="-1.84137">
        <ele>26.8</ele>
        <time>2024-04-13T08:19:42Z</time>
      </trkpt>
      <trkpt lat="47.07045" lon="-1.84146">
        <ele>26.6</ele>
        <time>2024-04-13T08:19:43Z</time>
      </trkpt>
      <trkpt lat="47.07056" lon="-1.84182">
        <ele>26.2</ele>
        <time>2024-04-13T08:19:47Z</time>
      </trkpt>
      <trkpt lat="47.07058" lon="-1.8419">
        <ele>26</ele>
        <time>2024-04-13T08:19:48Z</time>
      </trkpt>
      <trkpt lat="47.07073" lon="-1.84234">
        <ele>25</ele>
        <time>2024-04-13T08:19:53Z</time>
      </trkpt>
      <trkpt lat="47.07076" lon="-1.84242">
        <ele>25</ele>
        <time>2024-04-13T08:19:54Z</time>
      </trkpt>
      <trkpt lat="47.07098" lon="-1.84309">
        <ele>24</ele>
        <time>2024-04-13T08:20:02Z</time>
      </trkpt>
      <trkpt lat="47.07108" lon="-1.84367">
        <ele>24.6</ele>
        <time>2024-04-13T08:20:08Z</time>
      </trkpt>
      <trkpt lat="47.07106" lon="-1.84382">
        <ele>24.6</ele>
        <time>2024-04-13T08:20:10Z</time>
      </trkpt>
      <trkpt lat="47.07104" lon="-1.84387">
        <ele>24.2</ele>
        <time>2024-04-13T08:20:11Z</time>
      </trkpt>
      <trkpt lat="47.07101" lon="-1.84389">
        <ele>24</ele>
        <time>2024-04-13T08:20:12Z</time>
      </trkpt>
      <trkpt lat="47.07095" lon="-1.84395">
        <ele>23.6</ele>
        <time>2024-04-13T08:20:14Z</time>
      </trkpt>
      <trkpt lat="47.07076" lon="-1.84404">
        <ele>23.4</ele>
        <time>2024-04-13T08:20:20Z</time>
      </trkpt>
      <trkpt lat="47.07055" lon="-1.84406">
        <ele>23.8</ele>
        <time>2024-04-13T08:20:27Z</time>
      </trkpt>
      <trkpt lat="47.07036" lon="-1.84414">
        <ele>23.4</ele>
        <time>2024-04-13T08:20:33Z</time>
      </trkpt>
      <trkpt lat="47.07017" lon="-1.84427">
        <ele>22.8</ele>
        <time>2024-04-13T08:20:38Z</time>
      </trkpt>
      <trkpt lat="47.07009" lon="-1.84435">
        <ele>21.6</ele>
        <time>2024-04-13T08:20:40Z</time>
      </trkpt>
      <trkpt lat="47.07003" lon="-1.84439">
        <ele>20</ele>
        <time>2024-04-13T08:20:42Z</time>
      </trkpt>
      <trkpt lat="47.06998" lon="-1.84444">
        <ele>19.6</ele>
        <time>2024-04-13T08:20:44Z</time>
      </trkpt>
      <trkpt lat="47.06995" lon="-1.84452">
        <ele>19.2</ele>
        <time>2024-04-13T08:20:46Z</time>
      </trkpt>
      <trkpt lat="47.06992" lon="-1.84466">
        <ele>19</ele>
        <time>2024-04-13T08:20:49Z</time>
      </trkpt>
      <trkpt lat="47.0699" lon="-1.8448">
        <ele>19</ele>
        <time>2024-04-13T08:20:52Z</time>
      </trkpt>
      <trkpt lat="47.06988" lon="-1.84509">
        <ele>19</ele>
        <time>2024-04-13T08:20:58Z</time>
      </trkpt>
      <trkpt lat="47.06989" lon="-1.84532">
        <ele>19.2</ele>
        <time>2024-04-13T08:21:03Z</time>
      </trkpt>
      <trkpt lat="47.06991" lon="-1.84536">
        <ele>19.4</ele>
        <time>2024-04-13T08:21:04Z</time>
      </trkpt>
      <trkpt lat="47.06992" lon="-1.84558">
        <ele>19.4</ele>
        <time>2024-04-13T08:21:09Z</time>
      </trkpt>
      <trkpt lat="47.06986" lon="-1.84582">
        <ele>19.2</ele>
        <time>2024-04-13T08:21:14Z</time>
      </trkpt>
      <trkpt lat="47.06973" lon="-1.84599">
        <ele>18.6</ele>
        <time>2024-04-13T08:21:19Z</time>
      </trkpt>
      <trkpt lat="47.06956" lon="-1.8461">
        <ele>18.4</ele>
        <time>2024-04-13T08:21:25Z</time>
      </trkpt>
      <trkpt lat="47.0694" lon="-1.8462">
        <ele>18.8</ele>
        <time>2024-04-13T08:21:31Z</time>
      </trkpt>
      <trkpt lat="47.06924" lon="-1.84631">
        <ele>18.6</ele>
        <time>2024-04-13T08:21:37Z</time>
      </trkpt>
      <trkpt lat="47.06912" lon="-1.84642">
        <ele>18.8</ele>
        <time>2024-04-13T08:21:43Z</time>
      </trkpt>
      <trkpt lat="47.06897" lon="-1.84656">
        <ele>19.2</ele>
        <time>2024-04-13T08:21:50Z</time>
      </trkpt>
      <trkpt lat="47.06889" lon="-1.84667">
        <ele>19</ele>
        <time>2024-04-13T08:21:56Z</time>
      </trkpt>
      <trkpt lat="47.06886" lon="-1.84672">
        <ele>19</ele>
        <time>2024-04-13T08:21:58Z</time>
      </trkpt>
      <trkpt lat="47.06881" lon="-1.84679">
        <ele>19</ele>
        <time>2024-04-13T08:22:02Z</time>
      </trkpt>
      <trkpt lat="47.06867" lon="-1.84695">
        <ele>18.8</ele>
        <time>2024-04-13T08:22:10Z</time>
      </trkpt>
      <trkpt lat="47.0686" lon="-1.84715">
        <ele>18.8</ele>
        <time>2024-04-13T08:22:17Z</time>
      </trkpt>
      <trkpt lat="47.06857" lon="-1.84737">
        <ele>18.4</ele>
        <time>2024-04-13T08:22:24Z</time>
      </trkpt>
      <trkpt lat="47.0685" lon="-1.8476">
        <ele>18.4</ele>
        <time>2024-04-13T08:22:31Z</time>
      </trkpt>
      <trkpt lat="47.06841" lon="-1.84776">
        <ele>18.4</ele>
        <time>2024-04-13T08:22:37Z</time>
      </trkpt>
      <trkpt lat="47.06833" lon="-1.84786">
        <ele>18.6</ele>
        <time>2024-04-13T08:22:41Z</time>
      </trkpt>
      <trkpt lat="47.06829" lon="-1.8479">
        <ele>18.6</ele>
        <time>2024-04-13T08:22:43Z</time>
      </trkpt>
      <trkpt lat="47.06828" lon="-1.84792">
        <ele>18.6</ele>
        <time>2024-04-13T08:22:44Z</time>
      </trkpt>
      <trkpt lat="47.06816" lon="-1.84809">
        <ele>18.6</ele>
        <time>2024-04-13T08:22:49Z</time>
      </trkpt>
      <trkpt lat="47.06794" lon="-1.84833">
        <ele>18.4</ele>
        <time>2024-04-13T08:22:57Z</time>
      </trkpt>
      <trkpt lat="47.06776" lon="-1.84845">
        <ele>18.4</ele>
        <time>2024-04-13T08:23:03Z</time>
      </trkpt>
      <trkpt lat="47.06759" lon="-1.84847">
        <ele>18.8</ele>
        <time>2024-04-13T08:23:09Z</time>
      </trkpt>
      <trkpt lat="47.06743" lon="-1.84856">
        <ele>18.8</ele>
        <time>2024-04-13T08:23:14Z</time>
      </trkpt>
      <trkpt lat="47.06732" lon="-1.84875">
        <ele>18.4</ele>
        <time>2024-04-13T08:23:20Z</time>
      </trkpt>
      <trkpt lat="47.06731" lon="-1.84883">
        <ele>18.4</ele>
        <time>2024-04-13T08:23:22Z</time>
      </trkpt>
      <trkpt lat="47.06732" lon="-1.84886">
        <ele>18.2</ele>
        <time>2024-04-13T08:23:23Z</time>
      </trkpt>
      <trkpt lat="47.06732" lon="-1.84895">
        <ele>18.2</ele>
        <time>2024-04-13T08:23:25Z</time>
      </trkpt>
      <trkpt lat="47.06732" lon="-1.84899">
        <ele>18.4</ele>
        <time>2024-04-13T08:23:26Z</time>
      </trkpt>
      <trkpt lat="47.06727" lon="-1.84925">
        <ele>18.2</ele>
        <time>2024-04-13T08:23:32Z</time>
      </trkpt>
      <trkpt lat="47.06725" lon="-1.84932">
        <ele>18.2</ele>
        <time>2024-04-13T08:23:34Z</time>
      </trkpt>
      <trkpt lat="47.06724" lon="-1.84936">
        <ele>18.2</ele>
        <time>2024-04-13T08:23:35Z</time>
      </trkpt>
      <trkpt lat="47.0672" lon="-1.84948">
        <ele>18.2</ele>
        <time>2024-04-13T08:23:38Z</time>
      </trkpt>
      <trkpt lat="47.06718" lon="-1.84951">
        <ele>18.2</ele>
        <time>2024-04-13T08:23:39Z</time>
      </trkpt>
      <trkpt lat="47.06715" lon="-1.84957">
        <ele>18</ele>
        <time>2024-04-13T08:23:41Z</time>
      </trkpt>
      <trkpt lat="47.06713" lon="-1.84961">
        <ele>18</ele>
        <time>2024-04-13T08:23:42Z</time>
      </trkpt>
      <trkpt lat="47.06705" lon="-1.84975">
        <ele>17.8</ele>
        <time>2024-04-13T08:23:46Z</time>
      </trkpt>
      <trkpt lat="47.06702" lon="-1.84993">
        <ele>17.8</ele>
        <time>2024-04-13T08:23:51Z</time>
      </trkpt>
      <trkpt lat="47.06698" lon="-1.8501">
        <ele>17.6</ele>
        <time>2024-04-13T08:23:56Z</time>
      </trkpt>
      <trkpt lat="47.06691" lon="-1.85023">
        <ele>17.4</ele>
        <time>2024-04-13T08:24:01Z</time>
      </trkpt>
      <trkpt lat="47.06689" lon="-1.85037">
        <ele>17.4</ele>
        <time>2024-04-13T08:24:07Z</time>
      </trkpt>
      <trkpt lat="47.06689" lon="-1.8504">
        <ele>17.4</ele>
        <time>2024-04-13T08:24:08Z</time>
      </trkpt>
      <trkpt lat="47.06691" lon="-1.85046">
        <ele>17.4</ele>
        <time>2024-04-13T08:24:11Z</time>
      </trkpt>
      <trkpt lat="47.0669" lon="-1.85049">
        <ele>17.6</ele>
        <time>2024-04-13T08:24:15Z</time>
      </trkpt>
      <trkpt lat="47.0669" lon="-1.85049">
        <ele>17.6</ele>
        <time>2024-04-13T08:24:16Z</time>
      </trkpt>
      <trkpt lat="47.06687" lon="-1.85062">
        <ele>17.6</ele>
        <time>2024-04-13T08:26:33Z</time>
      </trkpt>
      <trkpt lat="47.06687" lon="-1.85064">
        <ele>17.6</ele>
        <time>2024-04-13T08:26:34Z</time>
      </trkpt>
      <trkpt lat="47.06686" lon="-1.85066">
        <ele>17.6</ele>
        <time>2024-04-13T08:26:35Z</time>
      </trkpt>
      <trkpt lat="47.06683" lon="-1.85077">
        <ele>17.4</ele>
        <time>2024-04-13T08:26:39Z</time>
      </trkpt>
      <trkpt lat="47.06684" lon="-1.8508">
        <ele>17.4</ele>
        <time>2024-04-13T08:26:40Z</time>
      </trkpt>
      <trkpt lat="47.06687" lon="-1.85083">
        <ele>17.6</ele>
        <time>2024-04-13T08:26:42Z</time>
      </trkpt>
      <trkpt lat="47.06691" lon="-1.85084">
        <ele>17.6</ele>
        <time>2024-04-13T08:26:44Z</time>
      </trkpt>
      <trkpt lat="47.06693" lon="-1.85087">
        <ele>17.6</ele>
        <time>2024-04-13T08:26:46Z</time>
      </trkpt>
      <trkpt lat="47.06693" lon="-1.85095">
        <ele>17.6</ele>
        <time>2024-04-13T08:26:49Z</time>
      </trkpt>
      <trkpt lat="47.06689" lon="-1.85111">
        <ele>17.8</ele>
        <time>2024-04-13T08:26:55Z</time>
      </trkpt>
      <trkpt lat="47.06689" lon="-1.85135">
        <ele>17.6</ele>
        <time>2024-04-13T08:27:01Z</time>
      </trkpt>
      <trkpt lat="47.06687" lon="-1.85159">
        <ele>17.6</ele>
        <time>2024-04-13T08:27:08Z</time>
      </trkpt>
      <trkpt lat="47.06688" lon="-1.85178">
        <ele>17.8</ele>
        <time>2024-04-13T08:27:13Z</time>
      </trkpt>
      <trkpt lat="47.0669" lon="-1.85189">
        <ele>17.8</ele>
        <time>2024-04-13T08:27:16Z</time>
      </trkpt>
      <trkpt lat="47.06694" lon="-1.85216">
        <ele>17.8</ele>
        <time>2024-04-13T08:27:23Z</time>
      </trkpt>
      <trkpt lat="47.06693" lon="-1.85231">
        <ele>17.8</ele>
        <time>2024-04-13T08:27:29Z</time>
      </trkpt>
      <trkpt lat="47.06694" lon="-1.85232">
        <ele>17.8</ele>
        <time>2024-04-13T08:27:31Z</time>
      </trkpt>
      <trkpt lat="47.06698" lon="-1.8539">
        <ele>21.2</ele>
        <time>2024-04-13T08:30:17Z</time>
      </trkpt>
      <trkpt lat="47.06696" lon="-1.85391">
        <ele>21.2</ele>
        <time>2024-04-13T08:30:18Z</time>
      </trkpt>
      <trkpt lat="47.06695" lon="-1.85393">
        <ele>21.2</ele>
        <time>2024-04-13T08:30:19Z</time>
      </trkpt>
      <trkpt lat="47.06684" lon="-1.85405">
        <ele>21.6</ele>
        <time>2024-04-13T08:30:26Z</time>
      </trkpt>
      <trkpt lat="47.0668" lon="-1.85424">
        <ele>22.4</ele>
        <time>2024-04-13T08:30:31Z</time>
      </trkpt>
      <trkpt lat="47.06677" lon="-1.85448">
        <ele>23.2</ele>
        <time>2024-04-13T08:30:38Z</time>
      </trkpt>
      <trkpt lat="47.0668" lon="-1.85453">
        <ele>23.2</ele>
        <time>2024-04-13T08:30:40Z</time>
      </trkpt>
      <trkpt lat="47.06683" lon="-1.85455">
        <ele>23.4</ele>
        <time>2024-04-13T08:30:41Z</time>
      </trkpt>
      <trkpt lat="47.06685" lon="-1.85457">
        <ele>23.4</ele>
        <time>2024-04-13T08:30:42Z</time>
      </trkpt>
      <trkpt lat="47.06707" lon="-1.85468">
        <ele>24</ele>
        <time>2024-04-13T08:30:50Z</time>
      </trkpt>
      <trkpt lat="47.06725" lon="-1.85478">
        <ele>24.4</ele>
        <time>2024-04-13T08:30:56Z</time>
      </trkpt>
      <trkpt lat="47.0673" lon="-1.85481">
        <ele>24.6</ele>
        <time>2024-04-13T08:30:58Z</time>
      </trkpt>
      <trkpt lat="47.06745" lon="-1.85496">
        <ele>25.2</ele>
        <time>2024-04-13T08:31:04Z</time>
      </trkpt>
      <trkpt lat="47.06753" lon="-1.85503">
        <ele>25.4</ele>
        <time>2024-04-13T08:31:07Z</time>
      </trkpt>
      <trkpt lat="47.06762" lon="-1.85509">
        <ele>25.8</ele>
        <time>2024-04-13T08:31:10Z</time>
      </trkpt>
      <trkpt lat="47.06779" lon="-1.85519">
        <ele>26.6</ele>
        <time>2024-04-13T08:31:15Z</time>
      </trkpt>
      <trkpt lat="47.06788" lon="-1.85524">
        <ele>26.8</ele>
        <time>2024-04-13T08:31:18Z</time>
      </trkpt>
      <trkpt lat="47.06795" lon="-1.85528">
        <ele>27</ele>
        <time>2024-04-13T08:31:20Z</time>
      </trkpt>
      <trkpt lat="47.06811" lon="-1.8554">
        <ele>27.6</ele>
        <time>2024-04-13T08:31:25Z</time>
      </trkpt>
      <trkpt lat="47.06829" lon="-1.85552">
        <ele>28</ele>
        <time>2024-04-13T08:31:30Z</time>
      </trkpt>
      <trkpt lat="47.06861" lon="-1.85571">
        <ele>28.4</ele>
        <time>2024-04-13T08:31:38Z</time>
      </trkpt>
      <trkpt lat="47.06875" lon="-1.85577">
        <ele>28.6</ele>
        <time>2024-04-13T08:31:41Z</time>
      </trkpt>
      <trkpt lat="47.069" lon="-1.85585">
        <ele>28.4</ele>
        <time>2024-04-13T08:31:46Z</time>
      </trkpt>
      <trkpt lat="47.06946" lon="-1.85604">
        <ele>27.4</ele>
        <time>2024-04-13T08:31:55Z</time>
      </trkpt>
      <trkpt lat="47.06981" lon="-1.85624">
        <ele>27.2</ele>
        <time>2024-04-13T08:32:02Z</time>
      </trkpt>
      <trkpt lat="47.07026" lon="-1.85649">
        <ele>28</ele>
        <time>2024-04-13T08:32:10Z</time>
      </trkpt>
      <trkpt lat="47.07064" lon="-1.85669">
        <ele>27.8</ele>
        <time>2024-04-13T08:32:17Z</time>
      </trkpt>
      <trkpt lat="47.0711" lon="-1.85692">
        <ele>27.2</ele>
        <time>2024-04-13T08:32:25Z</time>
      </trkpt>
      <trkpt lat="47.07162" lon="-1.85716">
        <ele>26.8</ele>
        <time>2024-04-13T08:32:34Z</time>
      </trkpt>
      <trkpt lat="47.07184" lon="-1.85725">
        <ele>26.8</ele>
        <time>2024-04-13T08:32:38Z</time>
      </trkpt>
      <trkpt lat="47.07207" lon="-1.85732">
        <ele>27</ele>
        <time>2024-04-13T08:32:42Z</time>
      </trkpt>
      <trkpt lat="47.07246" lon="-1.85742">
        <ele>27.4</ele>
        <time>2024-04-13T08:32:49Z</time>
      </trkpt>
      <trkpt lat="47.07285" lon="-1.85752">
        <ele>27.8</ele>
        <time>2024-04-13T08:32:56Z</time>
      </trkpt>
      <trkpt lat="47.073" lon="-1.85754">
        <ele>28.2</ele>
        <time>2024-04-13T08:32:59Z</time>
      </trkpt>
      <trkpt lat="47.07314" lon="-1.85756">
        <ele>28.4</ele>
        <time>2024-04-13T08:33:02Z</time>
      </trkpt>
      <trkpt lat="47.07323" lon="-1.85758">
        <ele>28.4</ele>
        <time>2024-04-13T08:33:04Z</time>
      </trkpt>
      <trkpt lat="47.07365" lon="-1.85774">
        <ele>29</ele>
        <time>2024-04-13T08:33:13Z</time>
      </trkpt>
      <trkpt lat="47.07384" lon="-1.85784">
        <ele>29.4</ele>
        <time>2024-04-13T08:33:17Z</time>
      </trkpt>
      <trkpt lat="47.07412" lon="-1.85798">
        <ele>29.6</ele>
        <time>2024-04-13T08:33:23Z</time>
      </trkpt>
      <trkpt lat="47.07438" lon="-1.85815">
        <ele>30.4</ele>
        <time>2024-04-13T08:33:29Z</time>
      </trkpt>
      <trkpt lat="47.07442" lon="-1.85818">
        <ele>31</ele>
        <time>2024-04-13T08:33:30Z</time>
      </trkpt>
      <trkpt lat="47.07455" lon="-1.85823">
        <ele>31.6</ele>
        <time>2024-04-13T08:33:33Z</time>
      </trkpt>
      <trkpt lat="47.07459" lon="-1.85821">
        <ele>31.6</ele>
        <time>2024-04-13T08:33:34Z</time>
      </trkpt>
      <trkpt lat="47.07463" lon="-1.85816">
        <ele>31.6</ele>
        <time>2024-04-13T08:33:35Z</time>
      </trkpt>
      <trkpt lat="47.0747" lon="-1.85807">
        <ele>30.8</ele>
        <time>2024-04-13T08:33:37Z</time>
      </trkpt>
      <trkpt lat="47.07501" lon="-1.85773">
        <ele>31.2</ele>
        <time>2024-04-13T08:33:45Z</time>
      </trkpt>
      <trkpt lat="47.07505" lon="-1.85771">
        <ele>31.2</ele>
        <time>2024-04-13T08:33:46Z</time>
      </trkpt>
      <trkpt lat="47.07542" lon="-1.85745">
        <ele>32</ele>
        <time>2024-04-13T08:33:54Z</time>
      </trkpt>
      <trkpt lat="47.07557" lon="-1.85736">
        <ele>32</ele>
        <time>2024-04-13T08:33:57Z</time>
      </trkpt>
      <trkpt lat="47.07597" lon="-1.85711">
        <ele>32.4</ele>
        <time>2024-04-13T08:34:05Z</time>
      </trkpt>
      <trkpt lat="47.07642" lon="-1.85682">
        <ele>32.4</ele>
        <time>2024-04-13T08:34:14Z</time>
      </trkpt>
      <trkpt lat="47.07668" lon="-1.85664">
        <ele>32.2</ele>
        <time>2024-04-13T08:34:19Z</time>
      </trkpt>
      <trkpt lat="47.07682" lon="-1.85649">
        <ele>32</ele>
        <time>2024-04-13T08:34:22Z</time>
      </trkpt>
      <trkpt lat="47.077" lon="-1.8563">
        <ele>32.8</ele>
        <time>2024-04-13T08:34:26Z</time>
      </trkpt>
      <trkpt lat="47.07706" lon="-1.85627">
        <ele>32.8</ele>
        <time>2024-04-13T08:34:27Z</time>
      </trkpt>
      <trkpt lat="47.07718" lon="-1.85622">
        <ele>32.8</ele>
        <time>2024-04-13T08:34:29Z</time>
      </trkpt>
      <trkpt lat="47.07724" lon="-1.85621">
        <ele>32.6</ele>
        <time>2024-04-13T08:34:30Z</time>
      </trkpt>
      <trkpt lat="47.07742" lon="-1.85619">
        <ele>31</ele>
        <time>2024-04-13T08:34:33Z</time>
      </trkpt>
      <trkpt lat="47.07753" lon="-1.85618">
        <ele>31</ele>
        <time>2024-04-13T08:34:35Z</time>
      </trkpt>
      <trkpt lat="47.07789" lon="-1.85614">
        <ele>31</ele>
        <time>2024-04-13T08:34:41Z</time>
      </trkpt>
      <trkpt lat="47.07819" lon="-1.8561">
        <ele>30.8</ele>
        <time>2024-04-13T08:34:46Z</time>
      </trkpt>
      <trkpt lat="47.07873" lon="-1.85602">
        <ele>30</ele>
        <time>2024-04-13T08:34:55Z</time>
      </trkpt>
      <trkpt lat="47.07926" lon="-1.85592">
        <ele>29.2</ele>
        <time>2024-04-13T08:35:03Z</time>
      </trkpt>
      <trkpt lat="47.07939" lon="-1.85588">
        <ele>29</ele>
        <time>2024-04-13T08:35:05Z</time>
      </trkpt>
      <trkpt lat="47.0796" lon="-1.85583">
        <ele>28.4</ele>
        <time>2024-04-13T08:35:08Z</time>
      </trkpt>
      <trkpt lat="47.07974" lon="-1.85578">
        <ele>27.8</ele>
        <time>2024-04-13T08:35:10Z</time>
      </trkpt>
      <trkpt lat="47.08016" lon="-1.8556">
        <ele>26.8</ele>
        <time>2024-04-13T08:35:16Z</time>
      </trkpt>
      <trkpt lat="47.0803" lon="-1.85553">
        <ele>26.2</ele>
        <time>2024-04-13T08:35:18Z</time>
      </trkpt>
      <trkpt lat="47.08037" lon="-1.85549">
        <ele>25.6</ele>
        <time>2024-04-13T08:35:19Z</time>
      </trkpt>
      <trkpt lat="47.08071" lon="-1.85527">
        <ele>24.6</ele>
        <time>2024-04-13T08:35:24Z</time>
      </trkpt>
      <trkpt lat="47.08084" lon="-1.85514">
        <ele>24</ele>
        <time>2024-04-13T08:35:26Z</time>
      </trkpt>
      <trkpt lat="47.08102" lon="-1.85494">
        <ele>23.4</ele>
        <time>2024-04-13T08:35:29Z</time>
      </trkpt>
      <trkpt lat="47.08125" lon="-1.85468">
        <ele>22.8</ele>
        <time>2024-04-13T08:35:33Z</time>
      </trkpt>
      <trkpt lat="47.08149" lon="-1.85447">
        <ele>22.4</ele>
        <time>2024-04-13T08:35:37Z</time>
      </trkpt>
      <trkpt lat="47.08163" lon="-1.85439">
        <ele>22</ele>
        <time>2024-04-13T08:35:39Z</time>
      </trkpt>
      <trkpt lat="47.08182" lon="-1.85427">
        <ele>21.4</ele>
        <time>2024-04-13T08:35:42Z</time>
      </trkpt>
      <trkpt lat="47.08219" lon="-1.85406">
        <ele>21</ele>
        <time>2024-04-13T08:35:48Z</time>
      </trkpt>
      <trkpt lat="47.08225" lon="-1.85402">
        <ele>20</ele>
        <time>2024-04-13T08:35:49Z</time>
      </trkpt>
      <trkpt lat="47.08258" lon="-1.85382">
        <ele>19.2</ele>
        <time>2024-04-13T08:35:55Z</time>
      </trkpt>
      <trkpt lat="47.08264" lon="-1.85378">
        <ele>19</ele>
        <time>2024-04-13T08:35:56Z</time>
      </trkpt>
      <trkpt lat="47.08285" lon="-1.85359">
        <ele>18.4</ele>
        <time>2024-04-13T08:36:00Z</time>
      </trkpt>
      <trkpt lat="47.08301" lon="-1.85341">
        <ele>17.8</ele>
        <time>2024-04-13T08:36:03Z</time>
      </trkpt>
      <trkpt lat="47.0832" lon="-1.85314">
        <ele>16.8</ele>
        <time>2024-04-13T08:36:07Z</time>
      </trkpt>
      <trkpt lat="47.08325" lon="-1.85308">
        <ele>16.8</ele>
        <time>2024-04-13T08:36:08Z</time>
      </trkpt>
      <trkpt lat="47.08362" lon="-1.85261">
        <ele>15.4</ele>
        <time>2024-04-13T08:36:15Z</time>
      </trkpt>
      <trkpt lat="47.08367" lon="-1.85254">
        <ele>15.2</ele>
        <time>2024-04-13T08:36:16Z</time>
      </trkpt>
      <trkpt lat="47.08404" lon="-1.8521">
        <ele>14.8</ele>
        <time>2024-04-13T08:36:23Z</time>
      </trkpt>
      <trkpt lat="47.08426" lon="-1.85184">
        <ele>14.4</ele>
        <time>2024-04-13T08:36:27Z</time>
      </trkpt>
      <trkpt lat="47.08447" lon="-1.85158">
        <ele>14.2</ele>
        <time>2024-04-13T08:36:31Z</time>
      </trkpt>
      <trkpt lat="47.08492" lon="-1.85102">
        <ele>13.2</ele>
        <time>2024-04-13T08:36:40Z</time>
      </trkpt>
      <trkpt lat="47.08502" lon="-1.85091">
        <ele>13.2</ele>
        <time>2024-04-13T08:36:42Z</time>
      </trkpt>
      <trkpt lat="47.08515" lon="-1.85074">
        <ele>13.6</ele>
        <time>2024-04-13T08:36:45Z</time>
      </trkpt>
      <trkpt lat="47.08525" lon="-1.8507">
        <ele>13.6</ele>
        <time>2024-04-13T08:36:47Z</time>
      </trkpt>
      <trkpt lat="47.0853" lon="-1.85071">
        <ele>13.6</ele>
        <time>2024-04-13T08:36:48Z</time>
      </trkpt>
      <trkpt lat="47.08535" lon="-1.85074">
        <ele>13.6</ele>
        <time>2024-04-13T08:36:49Z</time>
      </trkpt>
      <trkpt lat="47.08557" lon="-1.85087">
        <ele>14.4</ele>
        <time>2024-04-13T08:36:53Z</time>
      </trkpt>
      <trkpt lat="47.08571" lon="-1.85096">
        <ele>15</ele>
        <time>2024-04-13T08:36:56Z</time>
      </trkpt>
      <trkpt lat="47.08576" lon="-1.85099">
        <ele>15.2</ele>
        <time>2024-04-13T08:36:57Z</time>
      </trkpt>
      <trkpt lat="47.08585" lon="-1.85104">
        <ele>15.2</ele>
        <time>2024-04-13T08:36:59Z</time>
      </trkpt>
      <trkpt lat="47.08589" lon="-1.85107">
        <ele>15.2</ele>
        <time>2024-04-13T08:37:00Z</time>
      </trkpt>
      <trkpt lat="47.08598" lon="-1.85106">
        <ele>15.2</ele>
        <time>2024-04-13T08:37:02Z</time>
      </trkpt>
      <trkpt lat="47.08601" lon="-1.851">
        <ele>15.2</ele>
        <time>2024-04-13T08:37:03Z</time>
      </trkpt>
      <trkpt lat="47.08602" lon="-1.85094">
        <ele>15.2</ele>
        <time>2024-04-13T08:37:04Z</time>
      </trkpt>
      <trkpt lat="47.08603" lon="-1.85079">
        <ele>15.2</ele>
        <time>2024-04-13T08:37:06Z</time>
      </trkpt>
      <trkpt lat="47.0861" lon="-1.85012">
        <ele>15</ele>
        <time>2024-04-13T08:37:15Z</time>
      </trkpt>
      <trkpt lat="47.08613" lon="-1.8499">
        <ele>14.6</ele>
        <time>2024-04-13T08:37:18Z</time>
      </trkpt>
      <trkpt lat="47.08616" lon="-1.84967">
        <ele>14.4</ele>
        <time>2024-04-13T08:37:21Z</time>
      </trkpt>
      <trkpt lat="47.08618" lon="-1.84952">
        <ele>14.2</ele>
        <time>2024-04-13T08:37:23Z</time>
      </trkpt>
      <trkpt lat="47.08628" lon="-1.84884">
        <ele>13.8</ele>
        <time>2024-04-13T08:37:32Z</time>
      </trkpt>
      <trkpt lat="47.08639" lon="-1.84807">
        <ele>13.6</ele>
        <time>2024-04-13T08:37:42Z</time>
      </trkpt>
      <trkpt lat="47.08641" lon="-1.84792">
        <ele>13.4</ele>
        <time>2024-04-13T08:37:44Z</time>
      </trkpt>
      <trkpt lat="47.08651" lon="-1.84732">
        <ele>13.2</ele>
        <time>2024-04-13T08:37:52Z</time>
      </trkpt>
      <trkpt lat="47.08661" lon="-1.84691">
        <ele>13.8</ele>
        <time>2024-04-13T08:37:58Z</time>
      </trkpt>
      <trkpt lat="47.08666" lon="-1.84677">
        <ele>13.8</ele>
        <time>2024-04-13T08:38:00Z</time>
      </trkpt>
      <trkpt lat="47.08673" lon="-1.84665">
        <ele>13.2</ele>
        <time>2024-04-13T08:38:02Z</time>
      </trkpt>
      <trkpt lat="47.08676" lon="-1.84661">
        <ele>13.2</ele>
        <time>2024-04-13T08:38:03Z</time>
      </trkpt>
      <trkpt lat="47.08685" lon="-1.84662">
        <ele>12.8</ele>
        <time>2024-04-13T08:38:05Z</time>
      </trkpt>
      <trkpt lat="47.08707" lon="-1.84667">
        <ele>12.2</ele>
        <time>2024-04-13T08:38:10Z</time>
      </trkpt>
      <trkpt lat="47.08715" lon="-1.84669">
        <ele>12.2</ele>
        <time>2024-04-13T08:38:12Z</time>
      </trkpt>
      <trkpt lat="47.08735" lon="-1.84677">
        <ele>10.8</ele>
        <time>2024-04-13T08:38:17Z</time>
      </trkpt>
      <trkpt lat="47.08739" lon="-1.84679">
        <ele>10.6</ele>
        <time>2024-04-13T08:38:18Z</time>
      </trkpt>
      <trkpt lat="47.08762" lon="-1.84693">
        <ele>10</ele>
        <time>2024-04-13T08:38:23Z</time>
      </trkpt>
      <trkpt lat="47.08789" lon="-1.84716">
        <ele>10.2</ele>
        <time>2024-04-13T08:38:29Z</time>
      </trkpt>
      <trkpt lat="47.08813" lon="-1.84747">
        <ele>10.2</ele>
        <time>2024-04-13T08:38:35Z</time>
      </trkpt>
      <trkpt lat="47.0883" lon="-1.84776">
        <ele>10.2</ele>
        <time>2024-04-13T08:38:40Z</time>
      </trkpt>
      <trkpt lat="47.08837" lon="-1.84788">
        <ele>10.2</ele>
        <time>2024-04-13T08:38:42Z</time>
      </trkpt>
      <trkpt lat="47.08854" lon="-1.84826">
        <ele>10.4</ele>
        <time>2024-04-13T08:38:48Z</time>
      </trkpt>
      <trkpt lat="47.08861" lon="-1.84847">
        <ele>10.6</ele>
        <time>2024-04-13T08:38:51Z</time>
      </trkpt>
      <trkpt lat="47.08875" lon="-1.84887">
        <ele>10.6</ele>
        <time>2024-04-13T08:38:57Z</time>
      </trkpt>
      <trkpt lat="47.08894" lon="-1.84934">
        <ele>11</ele>
        <time>2024-04-13T08:39:04Z</time>
      </trkpt>
      <trkpt lat="47.08904" lon="-1.84958">
        <ele>11.4</ele>
        <time>2024-04-13T08:39:08Z</time>
      </trkpt>
      <trkpt lat="47.08912" lon="-1.84976">
        <ele>11.6</ele>
        <time>2024-04-13T08:39:11Z</time>
      </trkpt>
      <trkpt lat="47.0892" lon="-1.84998">
        <ele>11.8</ele>
        <time>2024-04-13T08:39:15Z</time>
      </trkpt>
      <trkpt lat="47.08923" lon="-1.85003">
        <ele>11.8</ele>
        <time>2024-04-13T08:39:16Z</time>
      </trkpt>
      <trkpt lat="47.08925" lon="-1.85008">
        <ele>12</ele>
        <time>2024-04-13T08:39:17Z</time>
      </trkpt>
      <trkpt lat="47.08931" lon="-1.85024">
        <ele>12</ele>
        <time>2024-04-13T08:39:20Z</time>
      </trkpt>
      <trkpt lat="47.08938" lon="-1.8504">
        <ele>13.6</ele>
        <time>2024-04-13T08:39:23Z</time>
      </trkpt>
      <trkpt lat="47.0894" lon="-1.85046">
        <ele>13.8</ele>
        <time>2024-04-13T08:39:24Z</time>
      </trkpt>
      <trkpt lat="47.08943" lon="-1.85053">
        <ele>13.8</ele>
        <time>2024-04-13T08:39:26Z</time>
      </trkpt>
      <trkpt lat="47.08943" lon="-1.85055">
        <ele>13.8</ele>
        <time>2024-04-13T08:39:27Z</time>
      </trkpt>
      <trkpt lat="47.08943" lon="-1.85056">
        <ele>13.8</ele>
        <time>2024-04-13T08:39:28Z</time>
      </trkpt>
      <trkpt lat="47.08944" lon="-1.85052">
        <ele>13.6</ele>
        <time>2024-04-13T08:39:35Z</time>
      </trkpt>
      <trkpt lat="47.08947" lon="-1.85047">
        <ele>13.6</ele>
        <time>2024-04-13T08:39:37Z</time>
      </trkpt>
      <trkpt lat="47.08954" lon="-1.85032">
        <ele>13.6</ele>
        <time>2024-04-13T08:39:42Z</time>
      </trkpt>
      <trkpt lat="47.08958" lon="-1.85021">
        <ele>13.4</ele>
        <time>2024-04-13T08:39:45Z</time>
      </trkpt>
      <trkpt lat="47.08966" lon="-1.85005">
        <ele>13.4</ele>
        <time>2024-04-13T08:39:49Z</time>
      </trkpt>
      <trkpt lat="47.08978" lon="-1.84984">
        <ele>13.6</ele>
        <time>2024-04-13T08:39:55Z</time>
      </trkpt>
      <trkpt lat="47.0899" lon="-1.84966">
        <ele>13.6</ele>
        <time>2024-04-13T08:40:01Z</time>
      </trkpt>
      <trkpt lat="47.08996" lon="-1.84957">
        <ele>13.8</ele>
        <time>2024-04-13T08:40:04Z</time>
      </trkpt>
      <trkpt lat="47.09" lon="-1.84951">
        <ele>13.8</ele>
        <time>2024-04-13T08:40:06Z</time>
      </trkpt>
      <trkpt lat="47.09002" lon="-1.84948">
        <ele>13.8</ele>
        <time>2024-04-13T08:40:07Z</time>
      </trkpt>
      <trkpt lat="47.09018" lon="-1.84926">
        <ele>14</ele>
        <time>2024-04-13T08:40:14Z</time>
      </trkpt>
      <trkpt lat="47.09027" lon="-1.84912">
        <ele>14</ele>
        <time>2024-04-13T08:40:19Z</time>
      </trkpt>
      <trkpt lat="47.09037" lon="-1.84899">
        <ele>14.2</ele>
        <time>2024-04-13T08:40:25Z</time>
      </trkpt>
      <trkpt lat="47.09048" lon="-1.84884">
        <ele>14.4</ele>
        <time>2024-04-13T08:40:31Z</time>
      </trkpt>
      <trkpt lat="47.09057" lon="-1.84872">
        <ele>14.4</ele>
        <time>2024-04-13T08:40:38Z</time>
      </trkpt>
      <trkpt lat="47.09062" lon="-1.84863">
        <ele>14.6</ele>
        <time>2024-04-13T08:40:42Z</time>
      </trkpt>
      <trkpt lat="47.09066" lon="-1.84858">
        <ele>14.8</ele>
        <time>2024-04-13T08:40:45Z</time>
      </trkpt>
      <trkpt lat="47.09077" lon="-1.84842">
        <ele>15</ele>
        <time>2024-04-13T08:40:53Z</time>
      </trkpt>
      <trkpt lat="47.09089" lon="-1.84826">
        <ele>15</ele>
        <time>2024-04-13T08:41:01Z</time>
      </trkpt>
      <trkpt lat="47.09104" lon="-1.84808">
        <ele>15</ele>
        <time>2024-04-13T08:41:10Z</time>
      </trkpt>
      <trkpt lat="47.09114" lon="-1.84791">
        <ele>15</ele>
        <time>2024-04-13T08:41:17Z</time>
      </trkpt>
      <trkpt lat="47.09122" lon="-1.84772">
        <ele>15.2</ele>
        <time>2024-04-13T08:41:24Z</time>
      </trkpt>
      <trkpt lat="47.09135" lon="-1.84751">
        <ele>15.4</ele>
        <time>2024-04-13T08:41:31Z</time>
      </trkpt>
      <trkpt lat="47.09145" lon="-1.84738">
        <ele>15.4</ele>
        <time>2024-04-13T08:41:37Z</time>
      </trkpt>
      <trkpt lat="47.09159" lon="-1.84722">
        <ele>15.6</ele>
        <time>2024-04-13T08:41:43Z</time>
      </trkpt>
      <trkpt lat="47.09162" lon="-1.84719">
        <ele>15.6</ele>
        <time>2024-04-13T08:41:44Z</time>
      </trkpt>
      <trkpt lat="47.09178" lon="-1.84701">
        <ele>15.6</ele>
        <time>2024-04-13T08:41:52Z</time>
      </trkpt>
      <trkpt lat="47.09187" lon="-1.84692">
        <ele>15.6</ele>
        <time>2024-04-13T08:41:56Z</time>
      </trkpt>
      <trkpt lat="47.09195" lon="-1.84684">
        <ele>16</ele>
        <time>2024-04-13T08:42:00Z</time>
      </trkpt>
      <trkpt lat="47.09211" lon="-1.84667">
        <ele>16.2</ele>
        <time>2024-04-13T08:42:07Z</time>
      </trkpt>
      <trkpt lat="47.0922" lon="-1.84657">
        <ele>16.6</ele>
        <time>2024-04-13T08:42:11Z</time>
      </trkpt>
      <trkpt lat="47.09227" lon="-1.84648">
        <ele>16.6</ele>
        <time>2024-04-13T08:42:15Z</time>
      </trkpt>
      <trkpt lat="47.0924" lon="-1.84634">
        <ele>16.8</ele>
        <time>2024-04-13T08:42:21Z</time>
      </trkpt>
      <trkpt lat="47.09246" lon="-1.84626">
        <ele>16.8</ele>
        <time>2024-04-13T08:42:24Z</time>
      </trkpt>
      <trkpt lat="47.09248" lon="-1.84623">
        <ele>17</ele>
        <time>2024-04-13T08:42:25Z</time>
      </trkpt>
      <trkpt lat="47.09256" lon="-1.84616">
        <ele>17</ele>
        <time>2024-04-13T08:42:28Z</time>
      </trkpt>
      <trkpt lat="47.09261" lon="-1.84609">
        <ele>17.2</ele>
        <time>2024-04-13T08:42:30Z</time>
      </trkpt>
      <trkpt lat="47.09279" lon="-1.84587">
        <ele>17.4</ele>
        <time>2024-04-13T08:42:37Z</time>
      </trkpt>
      <trkpt lat="47.09293" lon="-1.84572">
        <ele>17.6</ele>
        <time>2024-04-13T08:42:43Z</time>
      </trkpt>
      <trkpt lat="47.09307" lon="-1.84556">
        <ele>17.6</ele>
        <time>2024-04-13T08:42:50Z</time>
      </trkpt>
      <trkpt lat="47.09313" lon="-1.84548">
        <ele>17.6</ele>
        <time>2024-04-13T08:42:53Z</time>
      </trkpt>
      <trkpt lat="47.09321" lon="-1.84538">
        <ele>17.8</ele>
        <time>2024-04-13T08:42:57Z</time>
      </trkpt>
      <trkpt lat="47.09336" lon="-1.84519">
        <ele>18</ele>
        <time>2024-04-13T08:43:04Z</time>
      </trkpt>
      <trkpt lat="47.09354" lon="-1.84497">
        <ele>18.2</ele>
        <time>2024-04-13T08:43:11Z</time>
      </trkpt>
      <trkpt lat="47.09375" lon="-1.8447">
        <ele>18</ele>
        <time>2024-04-13T08:43:19Z</time>
      </trkpt>
      <trkpt lat="47.09392" lon="-1.84451">
        <ele>17.8</ele>
        <time>2024-04-13T08:43:25Z</time>
      </trkpt>
      <trkpt lat="47.09422" lon="-1.84424">
        <ele>17.8</ele>
        <time>2024-04-13T08:43:34Z</time>
      </trkpt>
      <trkpt lat="47.09433" lon="-1.84408">
        <ele>18</ele>
        <time>2024-04-13T08:43:38Z</time>
      </trkpt>
      <trkpt lat="47.09439" lon="-1.844">
        <ele>18</ele>
        <time>2024-04-13T08:43:40Z</time>
      </trkpt>
      <trkpt lat="47.09446" lon="-1.84394">
        <ele>17.8</ele>
        <time>2024-04-13T08:43:42Z</time>
      </trkpt>
      <trkpt lat="47.09459" lon="-1.84387">
        <ele>18</ele>
        <time>2024-04-13T08:43:45Z</time>
      </trkpt>
      <trkpt lat="47.09487" lon="-1.84376">
        <ele>17.2</ele>
        <time>2024-04-13T08:43:52Z</time>
      </trkpt>
      <trkpt lat="47.09507" lon="-1.84364">
        <ele>17.2</ele>
        <time>2024-04-13T08:43:58Z</time>
      </trkpt>
      <trkpt lat="47.09519" lon="-1.84358">
        <ele>17.2</ele>
        <time>2024-04-13T08:44:02Z</time>
      </trkpt>
      <trkpt lat="47.09538" lon="-1.84356">
        <ele>17.2</ele>
        <time>2024-04-13T08:44:07Z</time>
      </trkpt>
      <trkpt lat="47.09559" lon="-1.8435">
        <ele>17.6</ele>
        <time>2024-04-13T08:44:13Z</time>
      </trkpt>
      <trkpt lat="47.09566" lon="-1.84346">
        <ele>17.6</ele>
        <time>2024-04-13T08:44:15Z</time>
      </trkpt>
      <trkpt lat="47.09581" lon="-1.84339">
        <ele>17.2</ele>
        <time>2024-04-13T08:44:19Z</time>
      </trkpt>
      <trkpt lat="47.09612" lon="-1.8432">
        <ele>17.2</ele>
        <time>2024-04-13T08:44:27Z</time>
      </trkpt>
      <trkpt lat="47.09615" lon="-1.84317">
        <ele>17.2</ele>
        <time>2024-04-13T08:44:28Z</time>
      </trkpt>
      <trkpt lat="47.09632" lon="-1.843">
        <ele>17.4</ele>
        <time>2024-04-13T08:44:33Z</time>
      </trkpt>
      <trkpt lat="47.09654" lon="-1.84277">
        <ele>17.6</ele>
        <time>2024-04-13T08:44:39Z</time>
      </trkpt>
      <trkpt lat="47.09658" lon="-1.84273">
        <ele>17.6</ele>
        <time>2024-04-13T08:44:40Z</time>
      </trkpt>
      <trkpt lat="47.09662" lon="-1.84269">
        <ele>17.6</ele>
        <time>2024-04-13T08:44:41Z</time>
      </trkpt>
      <trkpt lat="47.09696" lon="-1.84236">
        <ele>18</ele>
        <time>2024-04-13T08:44:50Z</time>
      </trkpt>
      <trkpt lat="47.09729" lon="-1.84206">
        <ele>17.8</ele>
        <time>2024-04-13T08:44:59Z</time>
      </trkpt>
      <trkpt lat="47.09751" lon="-1.84185">
        <ele>17.2</ele>
        <time>2024-04-13T08:45:05Z</time>
      </trkpt>
      <trkpt lat="47.0977" lon="-1.84166">
        <ele>17.2</ele>
        <time>2024-04-13T08:45:11Z</time>
      </trkpt>
      <trkpt lat="47.09795" lon="-1.84141">
        <ele>17.4</ele>
        <time>2024-04-13T08:45:18Z</time>
      </trkpt>
      <trkpt lat="47.0982" lon="-1.84116">
        <ele>16.6</ele>
        <time>2024-04-13T08:45:25Z</time>
      </trkpt>
      <trkpt lat="47.09835" lon="-1.841">
        <ele>16.2</ele>
        <time>2024-04-13T08:45:29Z</time>
      </trkpt>
      <trkpt lat="47.09846" lon="-1.84088">
        <ele>16.2</ele>
        <time>2024-04-13T08:45:32Z</time>
      </trkpt>
      <trkpt lat="47.09862" lon="-1.84063">
        <ele>16.2</ele>
        <time>2024-04-13T08:45:38Z</time>
      </trkpt>
      <trkpt lat="47.09859" lon="-1.84051">
        <ele>16</ele>
        <time>2024-04-13T08:45:40Z</time>
      </trkpt>
      <trkpt lat="47.09857" lon="-1.84037">
        <ele>16</ele>
        <time>2024-04-13T08:45:42Z</time>
      </trkpt>
      <trkpt lat="47.09854" lon="-1.84007">
        <ele>16.6</ele>
        <time>2024-04-13T08:45:46Z</time>
      </trkpt>
      <trkpt lat="47.09852" lon="-1.8399">
        <ele>17</ele>
        <time>2024-04-13T08:45:48Z</time>
      </trkpt>
      <trkpt lat="47.0985" lon="-1.83934">
        <ele>16</ele>
        <time>2024-04-13T08:45:55Z</time>
      </trkpt>
      <trkpt lat="47.09851" lon="-1.83926">
        <ele>16</ele>
        <time>2024-04-13T08:45:56Z</time>
      </trkpt>
      <trkpt lat="47.09852" lon="-1.83912">
        <ele>14.8</ele>
        <time>2024-04-13T08:45:58Z</time>
      </trkpt>
      <trkpt lat="47.09854" lon="-1.8389">
        <ele>14.4</ele>
        <time>2024-04-13T08:46:01Z</time>
      </trkpt>
      <trkpt lat="47.09856" lon="-1.83869">
        <ele>14.6</ele>
        <time>2024-04-13T08:46:04Z</time>
      </trkpt>
      <trkpt lat="47.09857" lon="-1.83854">
        <ele>14.8</ele>
        <time>2024-04-13T08:46:06Z</time>
      </trkpt>
      <trkpt lat="47.09859" lon="-1.83848">
        <ele>14.6</ele>
        <time>2024-04-13T08:46:07Z</time>
      </trkpt>
      <trkpt lat="47.09866" lon="-1.83839">
        <ele>14.4</ele>
        <time>2024-04-13T08:46:09Z</time>
      </trkpt>
      <trkpt lat="47.09875" lon="-1.8384">
        <ele>14.2</ele>
        <time>2024-04-13T08:46:11Z</time>
      </trkpt>
      <trkpt lat="47.09879" lon="-1.83842">
        <ele>14.2</ele>
        <time>2024-04-13T08:46:12Z</time>
      </trkpt>
      <trkpt lat="47.09887" lon="-1.83847">
        <ele>14.2</ele>
        <time>2024-04-13T08:46:14Z</time>
      </trkpt>
      <trkpt lat="47.09899" lon="-1.83853">
        <ele>14</ele>
        <time>2024-04-13T08:46:17Z</time>
      </trkpt>
      <trkpt lat="47.0992" lon="-1.8386">
        <ele>14</ele>
        <time>2024-04-13T08:46:22Z</time>
      </trkpt>
      <trkpt lat="47.09928" lon="-1.83861">
        <ele>14.2</ele>
        <time>2024-04-13T08:46:24Z</time>
      </trkpt>
      <trkpt lat="47.09943" lon="-1.83868">
        <ele>15.8</ele>
        <time>2024-04-13T08:46:28Z</time>
      </trkpt>
      <trkpt lat="47.09947" lon="-1.8387">
        <ele>16</ele>
        <time>2024-04-13T08:46:29Z</time>
      </trkpt>
      <trkpt lat="47.09968" lon="-1.83883">
        <ele>16.4</ele>
        <time>2024-04-13T08:46:35Z</time>
      </trkpt>
      <trkpt lat="47.09993" lon="-1.83899">
        <ele>16.6</ele>
        <time>2024-04-13T08:46:42Z</time>
      </trkpt>
      <trkpt lat="47.10015" lon="-1.8391">
        <ele>16.4</ele>
        <time>2024-04-13T08:46:48Z</time>
      </trkpt>
      <trkpt lat="47.10049" lon="-1.83917">
        <ele>15.4</ele>
        <time>2024-04-13T08:46:56Z</time>
      </trkpt>
      <trkpt lat="47.10061" lon="-1.83919">
        <ele>15.2</ele>
        <time>2024-04-13T08:46:59Z</time>
      </trkpt>
      <trkpt lat="47.10078" lon="-1.83921">
        <ele>14.8</ele>
        <time>2024-04-13T08:47:03Z</time>
      </trkpt>
      <trkpt lat="47.10083" lon="-1.83922">
        <ele>14.8</ele>
        <time>2024-04-13T08:47:04Z</time>
      </trkpt>
      <trkpt lat="47.10087" lon="-1.83922">
        <ele>14</ele>
        <time>2024-04-13T08:47:05Z</time>
      </trkpt>
      <trkpt lat="47.10092" lon="-1.83923">
        <ele>13</ele>
        <time>2024-04-13T08:47:06Z</time>
      </trkpt>
      <trkpt lat="47.10101" lon="-1.83922">
        <ele>12.8</ele>
        <time>2024-04-13T08:47:08Z</time>
      </trkpt>
      <trkpt lat="47.1011" lon="-1.83921">
        <ele>12.8</ele>
        <time>2024-04-13T08:47:10Z</time>
      </trkpt>
      <trkpt lat="47.10115" lon="-1.83919">
        <ele>12.8</ele>
        <time>2024-04-13T08:47:11Z</time>
      </trkpt>
      <trkpt lat="47.10128" lon="-1.83909">
        <ele>12.8</ele>
        <time>2024-04-13T08:47:14Z</time>
      </trkpt>
      <trkpt lat="47.1014" lon="-1.83895">
        <ele>13</ele>
        <time>2024-04-13T08:47:17Z</time>
      </trkpt>
      <trkpt lat="47.10149" lon="-1.83879">
        <ele>12.8</ele>
        <time>2024-04-13T08:47:20Z</time>
      </trkpt>
      <trkpt lat="47.10166" lon="-1.8385">
        <ele>13.2</ele>
        <time>2024-04-13T08:47:25Z</time>
      </trkpt>
      <trkpt lat="47.10196" lon="-1.83807">
        <ele>13</ele>
        <time>2024-04-13T08:47:33Z</time>
      </trkpt>
      <trkpt lat="47.10215" lon="-1.83783">
        <ele>12.6</ele>
        <time>2024-04-13T08:47:38Z</time>
      </trkpt>
      <trkpt lat="47.10219" lon="-1.83779">
        <ele>11.6</ele>
        <time>2024-04-13T08:47:39Z</time>
      </trkpt>
      <trkpt lat="47.10238" lon="-1.83759">
        <ele>11.4</ele>
        <time>2024-04-13T08:47:44Z</time>
      </trkpt>
      <trkpt lat="47.10242" lon="-1.83755">
        <ele>11.4</ele>
        <time>2024-04-13T08:47:45Z</time>
      </trkpt>
      <trkpt lat="47.10257" lon="-1.8374">
        <ele>11.4</ele>
        <time>2024-04-13T08:47:49Z</time>
      </trkpt>
      <trkpt lat="47.10281" lon="-1.83715">
        <ele>11.6</ele>
        <time>2024-04-13T08:47:55Z</time>
      </trkpt>
      <trkpt lat="47.10296" lon="-1.83699">
        <ele>11.6</ele>
        <time>2024-04-13T08:47:59Z</time>
      </trkpt>
      <trkpt lat="47.10312" lon="-1.83684">
        <ele>11.2</ele>
        <time>2024-04-13T08:48:03Z</time>
      </trkpt>
      <trkpt lat="47.10316" lon="-1.8368">
        <ele>11.2</ele>
        <time>2024-04-13T08:48:04Z</time>
      </trkpt>
      <trkpt lat="47.1032" lon="-1.83676">
        <ele>11</ele>
        <time>2024-04-13T08:48:05Z</time>
      </trkpt>
      <trkpt lat="47.10343" lon="-1.83652">
        <ele>11</ele>
        <time>2024-04-13T08:48:11Z</time>
      </trkpt>
      <trkpt lat="47.10348" lon="-1.8365">
        <ele>11</ele>
        <time>2024-04-13T08:48:12Z</time>
      </trkpt>
      <trkpt lat="47.10356" lon="-1.83649">
        <ele>11</ele>
        <time>2024-04-13T08:48:14Z</time>
      </trkpt>
      <trkpt lat="47.1036" lon="-1.83651">
        <ele>11</ele>
        <time>2024-04-13T08:48:15Z</time>
      </trkpt>
      <trkpt lat="47.10365" lon="-1.83654">
        <ele>11</ele>
        <time>2024-04-13T08:48:16Z</time>
      </trkpt>
      <trkpt lat="47.10381" lon="-1.83667">
        <ele>11.2</ele>
        <time>2024-04-13T08:48:20Z</time>
      </trkpt>
      <trkpt lat="47.10389" lon="-1.83661">
        <ele>11.2</ele>
        <time>2024-04-13T08:48:22Z</time>
      </trkpt>
      <trkpt lat="47.10392" lon="-1.83656">
        <ele>11.2</ele>
        <time>2024-04-13T08:48:23Z</time>
      </trkpt>
      <trkpt lat="47.10419" lon="-1.83615">
        <ele>11</ele>
        <time>2024-04-13T08:48:31Z</time>
      </trkpt>
      <trkpt lat="47.10433" lon="-1.83593">
        <ele>10.8</ele>
        <time>2024-04-13T08:48:35Z</time>
      </trkpt>
      <trkpt lat="47.10447" lon="-1.83572">
        <ele>10.8</ele>
        <time>2024-04-13T08:48:39Z</time>
      </trkpt>
      <trkpt lat="47.10478" lon="-1.83525">
        <ele>11</ele>
        <time>2024-04-13T08:48:48Z</time>
      </trkpt>
      <trkpt lat="47.10503" lon="-1.83493">
        <ele>11.2</ele>
        <time>2024-04-13T08:48:55Z</time>
      </trkpt>
      <trkpt lat="47.10524" lon="-1.83459">
        <ele>11.6</ele>
        <time>2024-04-13T08:49:02Z</time>
      </trkpt>
      <trkpt lat="47.10552" lon="-1.83416">
        <ele>12</ele>
        <time>2024-04-13T08:49:11Z</time>
      </trkpt>
      <trkpt lat="47.10578" lon="-1.83377">
        <ele>12.2</ele>
        <time>2024-04-13T08:49:19Z</time>
      </trkpt>
      <trkpt lat="47.10587" lon="-1.83365">
        <ele>12.2</ele>
        <time>2024-04-13T08:49:22Z</time>
      </trkpt>
      <trkpt lat="47.10599" lon="-1.83354">
        <ele>12.6</ele>
        <time>2024-04-13T08:49:25Z</time>
      </trkpt>
      <trkpt lat="47.10603" lon="-1.83352">
        <ele>12.8</ele>
        <time>2024-04-13T08:49:26Z</time>
      </trkpt>
      <trkpt lat="47.10614" lon="-1.83346">
        <ele>13.2</ele>
        <time>2024-04-13T08:49:29Z</time>
      </trkpt>
      <trkpt lat="47.1063" lon="-1.83338">
        <ele>13.4</ele>
        <time>2024-04-13T08:49:33Z</time>
      </trkpt>
      <trkpt lat="47.10637" lon="-1.83334">
        <ele>13.8</ele>
        <time>2024-04-13T08:49:35Z</time>
      </trkpt>
      <trkpt lat="47.10657" lon="-1.83323">
        <ele>14.4</ele>
        <time>2024-04-13T08:49:41Z</time>
      </trkpt>
      <trkpt lat="47.10671" lon="-1.83319">
        <ele>15.6</ele>
        <time>2024-04-13T08:49:45Z</time>
      </trkpt>
      <trkpt lat="47.10689" lon="-1.8331">
        <ele>16</ele>
        <time>2024-04-13T08:49:50Z</time>
      </trkpt>
      <trkpt lat="47.10707" lon="-1.83302">
        <ele>16.6</ele>
        <time>2024-04-13T08:49:55Z</time>
      </trkpt>
      <trkpt lat="47.10732" lon="-1.83288">
        <ele>17</ele>
        <time>2024-04-13T08:50:03Z</time>
      </trkpt>
      <trkpt lat="47.10746" lon="-1.83293">
        <ele>16.8</ele>
        <time>2024-04-13T08:50:07Z</time>
      </trkpt>
      <trkpt lat="47.1075" lon="-1.83307">
        <ele>16.8</ele>
        <time>2024-04-13T08:50:10Z</time>
      </trkpt>
      <trkpt lat="47.10751" lon="-1.83314">
        <ele>16.8</ele>
        <time>2024-04-13T08:50:11Z</time>
      </trkpt>
      <trkpt lat="47.10758" lon="-1.83364">
        <ele>16.4</ele>
        <time>2024-04-13T08:50:18Z</time>
      </trkpt>
      <trkpt lat="47.10761" lon="-1.83381">
        <ele>15.8</ele>
        <time>2024-04-13T08:50:20Z</time>
      </trkpt>
      <trkpt lat="47.10762" lon="-1.8339">
        <ele>15.6</ele>
        <time>2024-04-13T08:50:21Z</time>
      </trkpt>
      <trkpt lat="47.10764" lon="-1.83399">
        <ele>14.8</ele>
        <time>2024-04-13T08:50:22Z</time>
      </trkpt>
      <trkpt lat="47.10765" lon="-1.83409">
        <ele>14.6</ele>
        <time>2024-04-13T08:50:23Z</time>
      </trkpt>
      <trkpt lat="47.10767" lon="-1.83419">
        <ele>14.6</ele>
        <time>2024-04-13T08:50:24Z</time>
      </trkpt>
      <trkpt lat="47.10768" lon="-1.8343">
        <ele>14.4</ele>
        <time>2024-04-13T08:50:25Z</time>
      </trkpt>
      <trkpt lat="47.10777" lon="-1.83476">
        <ele>13.8</ele>
        <time>2024-04-13T08:50:30Z</time>
      </trkpt>
      <trkpt lat="47.10787" lon="-1.83521">
        <ele>13.8</ele>
        <time>2024-04-13T08:50:36Z</time>
      </trkpt>
      <trkpt lat="47.10788" lon="-1.83529">
        <ele>14</ele>
        <time>2024-04-13T08:50:37Z</time>
      </trkpt>
      <trkpt lat="47.10804" lon="-1.83592">
        <ele>15.4</ele>
        <time>2024-04-13T08:50:47Z</time>
      </trkpt>
      <trkpt lat="47.10809" lon="-1.8361">
        <ele>15.6</ele>
        <time>2024-04-13T08:50:50Z</time>
      </trkpt>
      <trkpt lat="47.10819" lon="-1.83654">
        <ele>16</ele>
        <time>2024-04-13T08:50:57Z</time>
      </trkpt>
      <trkpt lat="47.10834" lon="-1.83718">
        <ele>16.4</ele>
        <time>2024-04-13T08:51:07Z</time>
      </trkpt>
      <trkpt lat="47.10841" lon="-1.83741">
        <ele>16.6</ele>
        <time>2024-04-13T08:51:11Z</time>
      </trkpt>
      <trkpt lat="47.10847" lon="-1.83765">
        <ele>16.8</ele>
        <time>2024-04-13T08:51:15Z</time>
      </trkpt>
      <trkpt lat="47.10854" lon="-1.83783">
        <ele>16.8</ele>
        <time>2024-04-13T08:51:18Z</time>
      </trkpt>
      <trkpt lat="47.10865" lon="-1.83805">
        <ele>16.8</ele>
        <time>2024-04-13T08:51:22Z</time>
      </trkpt>
      <trkpt lat="47.10885" lon="-1.83843">
        <ele>16.6</ele>
        <time>2024-04-13T08:51:29Z</time>
      </trkpt>
      <trkpt lat="47.10908" lon="-1.83887">
        <ele>16.2</ele>
        <time>2024-04-13T08:51:37Z</time>
      </trkpt>
      <trkpt lat="47.10938" lon="-1.83944">
        <ele>16.4</ele>
        <time>2024-04-13T08:51:47Z</time>
      </trkpt>
      <trkpt lat="47.10972" lon="-1.8401">
        <ele>15.6</ele>
        <time>2024-04-13T08:51:58Z</time>
      </trkpt>
      <trkpt lat="47.10976" lon="-1.84016">
        <ele>15.6</ele>
        <time>2024-04-13T08:51:59Z</time>
      </trkpt>
      <trkpt lat="47.11006" lon="-1.84073">
        <ele>16.2</ele>
        <time>2024-04-13T08:52:08Z</time>
      </trkpt>
      <trkpt lat="47.1103" lon="-1.84128">
        <ele>15.8</ele>
        <time>2024-04-13T08:52:16Z</time>
      </trkpt>
      <trkpt lat="47.11039" lon="-1.8415">
        <ele>15.4</ele>
        <time>2024-04-13T08:52:19Z</time>
      </trkpt>
      <trkpt lat="47.11048" lon="-1.84186">
        <ele>15.2</ele>
        <time>2024-04-13T08:52:24Z</time>
      </trkpt>
      <trkpt lat="47.11047" lon="-1.84219">
        <ele>15.2</ele>
        <time>2024-04-13T08:52:28Z</time>
      </trkpt>
      <trkpt lat="47.11046" lon="-1.84278">
        <ele>15.4</ele>
        <time>2024-04-13T08:52:35Z</time>
      </trkpt>
      <trkpt lat="47.11045" lon="-1.84355">
        <ele>14.8</ele>
        <time>2024-04-13T08:52:44Z</time>
      </trkpt>
      <trkpt lat="47.11045" lon="-1.84409">
        <ele>14.4</ele>
        <time>2024-04-13T08:52:50Z</time>
      </trkpt>
      <trkpt lat="47.11044" lon="-1.84427">
        <ele>14</ele>
        <time>2024-04-13T08:52:52Z</time>
      </trkpt>
      <trkpt lat="47.11044" lon="-1.84472">
        <ele>15.2</ele>
        <time>2024-04-13T08:52:57Z</time>
      </trkpt>
      <trkpt lat="47.11043" lon="-1.84523">
        <ele>14.4</ele>
        <time>2024-04-13T08:53:03Z</time>
      </trkpt>
      <trkpt lat="47.1104" lon="-1.84575">
        <ele>14</ele>
        <time>2024-04-13T08:53:09Z</time>
      </trkpt>
      <trkpt lat="47.11033" lon="-1.84624">
        <ele>13.8</ele>
        <time>2024-04-13T08:53:15Z</time>
      </trkpt>
      <trkpt lat="47.11028" lon="-1.84657">
        <ele>13.4</ele>
        <time>2024-04-13T08:53:19Z</time>
      </trkpt>
      <trkpt lat="47.11023" lon="-1.8469">
        <ele>12.8</ele>
        <time>2024-04-13T08:53:23Z</time>
      </trkpt>
      <trkpt lat="47.11018" lon="-1.84717">
        <ele>12.4</ele>
        <time>2024-04-13T08:53:26Z</time>
      </trkpt>
      <trkpt lat="47.11013" lon="-1.84752">
        <ele>11.8</ele>
        <time>2024-04-13T08:53:30Z</time>
      </trkpt>
      <trkpt lat="47.1101" lon="-1.8478">
        <ele>11.2</ele>
        <time>2024-04-13T08:53:33Z</time>
      </trkpt>
      <trkpt lat="47.11006" lon="-1.84814">
        <ele>10.4</ele>
        <time>2024-04-13T08:53:37Z</time>
      </trkpt>
      <trkpt lat="47.11006" lon="-1.84823">
        <ele>10.4</ele>
        <time>2024-04-13T08:53:38Z</time>
      </trkpt>
      <trkpt lat="47.11006" lon="-1.84838">
        <ele>8.2</ele>
        <time>2024-04-13T08:53:40Z</time>
      </trkpt>
      <trkpt lat="47.11008" lon="-1.84846">
        <ele>8</ele>
        <time>2024-04-13T08:53:41Z</time>
      </trkpt>
      <trkpt lat="47.11011" lon="-1.84859">
        <ele>7.8</ele>
        <time>2024-04-13T08:53:43Z</time>
      </trkpt>
      <trkpt lat="47.11009" lon="-1.84874">
        <ele>7.8</ele>
        <time>2024-04-13T08:53:45Z</time>
      </trkpt>
      <trkpt lat="47.11006" lon="-1.84882">
        <ele>7.8</ele>
        <time>2024-04-13T08:53:46Z</time>
      </trkpt>
      <trkpt lat="47.10997" lon="-1.84905">
        <ele>7.8</ele>
        <time>2024-04-13T08:53:49Z</time>
      </trkpt>
      <trkpt lat="47.10992" lon="-1.84931">
        <ele>7.8</ele>
        <time>2024-04-13T08:53:52Z</time>
      </trkpt>
      <trkpt lat="47.10989" lon="-1.84966">
        <ele>7.6</ele>
        <time>2024-04-13T08:53:56Z</time>
      </trkpt>
      <trkpt lat="47.10988" lon="-1.84984">
        <ele>7.6</ele>
        <time>2024-04-13T08:53:58Z</time>
      </trkpt>
      <trkpt lat="47.10985" lon="-1.85058">
        <ele>7.4</ele>
        <time>2024-04-13T08:54:07Z</time>
      </trkpt>
      <trkpt lat="47.10984" lon="-1.85082">
        <ele>7.4</ele>
        <time>2024-04-13T08:54:10Z</time>
      </trkpt>
      <trkpt lat="47.10979" lon="-1.85134">
        <ele>7.4</ele>
        <time>2024-04-13T08:54:17Z</time>
      </trkpt>
      <trkpt lat="47.10974" lon="-1.85162">
        <ele>7.4</ele>
        <time>2024-04-13T08:54:21Z</time>
      </trkpt>
      <trkpt lat="47.10967" lon="-1.85196">
        <ele>7.8</ele>
        <time>2024-04-13T08:54:26Z</time>
      </trkpt>
      <trkpt lat="47.10951" lon="-1.85251">
        <ele>7.6</ele>
        <time>2024-04-13T08:54:34Z</time>
      </trkpt>
      <trkpt lat="47.10931" lon="-1.85318">
        <ele>7.6</ele>
        <time>2024-04-13T08:54:44Z</time>
      </trkpt>
      <trkpt lat="47.10914" lon="-1.85378">
        <ele>8</ele>
        <time>2024-04-13T08:54:53Z</time>
      </trkpt>
      <trkpt lat="47.10919" lon="-1.85389">
        <ele>8</ele>
        <time>2024-04-13T08:54:55Z</time>
      </trkpt>
      <trkpt lat="47.10923" lon="-1.85392">
        <ele>7.8</ele>
        <time>2024-04-13T08:54:56Z</time>
      </trkpt>
      <trkpt lat="47.10936" lon="-1.85403">
        <ele>7.2</ele>
        <time>2024-04-13T08:54:59Z</time>
      </trkpt>
      <trkpt lat="47.10944" lon="-1.8541">
        <ele>7</ele>
        <time>2024-04-13T08:55:01Z</time>
      </trkpt>
      <trkpt lat="47.10947" lon="-1.85415">
        <ele>7</ele>
        <time>2024-04-13T08:55:02Z</time>
      </trkpt>
      <trkpt lat="47.10958" lon="-1.85426">
        <ele>7</ele>
        <time>2024-04-13T08:55:05Z</time>
      </trkpt>
      <trkpt lat="47.1099" lon="-1.8546">
        <ele>6.8</ele>
        <time>2024-04-13T08:55:13Z</time>
      </trkpt>
      <trkpt lat="47.11014" lon="-1.85491">
        <ele>6.2</ele>
        <time>2024-04-13T08:55:20Z</time>
      </trkpt>
      <trkpt lat="47.11021" lon="-1.85499">
        <ele>6</ele>
        <time>2024-04-13T08:55:22Z</time>
      </trkpt>
      <trkpt lat="47.1103" lon="-1.85512">
        <ele>5.8</ele>
        <time>2024-04-13T08:55:25Z</time>
      </trkpt>
      <trkpt lat="47.11036" lon="-1.85523">
        <ele>6</ele>
        <time>2024-04-13T08:55:27Z</time>
      </trkpt>
      <trkpt lat="47.11059" lon="-1.85558">
        <ele>6</ele>
        <time>2024-04-13T08:55:34Z</time>
      </trkpt>
      <trkpt lat="47.11069" lon="-1.85574">
        <ele>5.8</ele>
        <time>2024-04-13T08:55:37Z</time>
      </trkpt>
      <trkpt lat="47.11078" lon="-1.8559">
        <ele>5.6</ele>
        <time>2024-04-13T08:55:40Z</time>
      </trkpt>
      <trkpt lat="47.11085" lon="-1.85606">
        <ele>5</ele>
        <time>2024-04-13T08:55:43Z</time>
      </trkpt>
      <trkpt lat="47.11094" lon="-1.85625">
        <ele>4.6</ele>
        <time>2024-04-13T08:55:47Z</time>
      </trkpt>
      <trkpt lat="47.11108" lon="-1.85656">
        <ele>5.6</ele>
        <time>2024-04-13T08:55:54Z</time>
      </trkpt>
      <trkpt lat="47.11109" lon="-1.85658">
        <ele>6</ele>
        <time>2024-04-13T08:55:55Z</time>
      </trkpt>
      <trkpt lat="47.11113" lon="-1.85669">
        <ele>6.2</ele>
        <time>2024-04-13T08:55:58Z</time>
      </trkpt>
      <trkpt lat="47.11122" lon="-1.85699">
        <ele>6.2</ele>
        <time>2024-04-13T08:56:05Z</time>
      </trkpt>
      <trkpt lat="47.11124" lon="-1.85707">
        <ele>6.2</ele>
        <time>2024-04-13T08:56:07Z</time>
      </trkpt>
      <trkpt lat="47.11132" lon="-1.85735">
        <ele>7</ele>
        <time>2024-04-13T08:56:13Z</time>
      </trkpt>
      <trkpt lat="47.11135" lon="-1.85747">
        <ele>7</ele>
        <time>2024-04-13T08:56:15Z</time>
      </trkpt>
      <trkpt lat="47.11137" lon="-1.85754">
        <ele>7</ele>
        <time>2024-04-13T08:56:16Z</time>
      </trkpt>
      <trkpt lat="47.11142" lon="-1.85775">
        <ele>7.2</ele>
        <time>2024-04-13T08:56:20Z</time>
      </trkpt>
      <trkpt lat="47.11148" lon="-1.85805">
        <ele>7.6</ele>
        <time>2024-04-13T08:56:26Z</time>
      </trkpt>
      <trkpt lat="47.11151" lon="-1.85815">
        <ele>8.2</ele>
        <time>2024-04-13T08:56:28Z</time>
      </trkpt>
      <trkpt lat="47.11155" lon="-1.85834">
        <ele>8.2</ele>
        <time>2024-04-13T08:56:32Z</time>
      </trkpt>
      <trkpt lat="47.11163" lon="-1.85867">
        <ele>8.2</ele>
        <time>2024-04-13T08:56:39Z</time>
      </trkpt>
      <trkpt lat="47.11171" lon="-1.85889">
        <ele>7.8</ele>
        <time>2024-04-13T08:56:44Z</time>
      </trkpt>
      <trkpt lat="47.11177" lon="-1.85887">
        <ele>7.8</ele>
        <time>2024-04-13T08:56:46Z</time>
      </trkpt>
      <trkpt lat="47.1118" lon="-1.85886">
        <ele>7.8</ele>
        <time>2024-04-13T08:56:47Z</time>
      </trkpt>
      <trkpt lat="47.11206" lon="-1.85867">
        <ele>7.4</ele>
        <time>2024-04-13T08:56:54Z</time>
      </trkpt>
      <trkpt lat="47.11233" lon="-1.85849">
        <ele>7.6</ele>
        <time>2024-04-13T08:57:00Z</time>
      </trkpt>
      <trkpt lat="47.11259" lon="-1.85833">
        <ele>7.8</ele>
        <time>2024-04-13T08:57:06Z</time>
      </trkpt>
      <trkpt lat="47.11291" lon="-1.8581">
        <ele>6.8</ele>
        <time>2024-04-13T08:57:13Z</time>
      </trkpt>
      <trkpt lat="47.11319" lon="-1.85789">
        <ele>6.2</ele>
        <time>2024-04-13T08:57:20Z</time>
      </trkpt>
      <trkpt lat="47.11338" lon="-1.85777">
        <ele>6</ele>
        <time>2024-04-13T08:57:26Z</time>
      </trkpt>
      <trkpt lat="47.11348" lon="-1.8577">
        <ele>5.8</ele>
        <time>2024-04-13T08:57:29Z</time>
      </trkpt>
      <trkpt lat="47.11352" lon="-1.85768">
        <ele>5.8</ele>
        <time>2024-04-13T08:57:30Z</time>
      </trkpt>
      <trkpt lat="47.11356" lon="-1.85766">
        <ele>5.8</ele>
        <time>2024-04-13T08:57:31Z</time>
      </trkpt>
      <trkpt lat="47.11362" lon="-1.85761">
        <ele>5.8</ele>
        <time>2024-04-13T08:57:33Z</time>
      </trkpt>
      <trkpt lat="47.11382" lon="-1.85748">
        <ele>6.2</ele>
        <time>2024-04-13T08:57:39Z</time>
      </trkpt>
      <trkpt lat="47.11395" lon="-1.85738">
        <ele>5.8</ele>
        <time>2024-04-13T08:57:45Z</time>
      </trkpt>
      <trkpt lat="47.11398" lon="-1.85736">
        <ele>5.8</ele>
        <time>2024-04-13T08:57:49Z</time>
      </trkpt>
      <trkpt lat="47.11399" lon="-1.85737">
        <ele>5.8</ele>
        <time>2024-04-13T08:57:50Z</time>
      </trkpt>
      <trkpt lat="47.11397" lon="-1.85724">
        <ele>5.8</ele>
        <time>2024-04-13T09:02:35Z</time>
      </trkpt>
      <trkpt lat="47.11397" lon="-1.8572">
        <ele>5.6</ele>
        <time>2024-04-13T09:02:36Z</time>
      </trkpt>
      <trkpt lat="47.11397" lon="-1.85716">
        <ele>5.6</ele>
        <time>2024-04-13T09:02:37Z</time>
      </trkpt>
      <trkpt lat="47.11403" lon="-1.85696">
        <ele>5.8</ele>
        <time>2024-04-13T09:02:42Z</time>
      </trkpt>
      <trkpt lat="47.11407" lon="-1.85677">
        <ele>6</ele>
        <time>2024-04-13T09:02:47Z</time>
      </trkpt>
      <trkpt lat="47.11415" lon="-1.85656">
        <ele>6.2</ele>
        <time>2024-04-13T09:02:53Z</time>
      </trkpt>
      <trkpt lat="47.11426" lon="-1.85635">
        <ele>6.2</ele>
        <time>2024-04-13T09:02:59Z</time>
      </trkpt>
      <trkpt lat="47.11442" lon="-1.85617">
        <ele>6.6</ele>
        <time>2024-04-13T09:03:06Z</time>
      </trkpt>
      <trkpt lat="47.11451" lon="-1.85609">
        <ele>6.8</ele>
        <time>2024-04-13T09:03:10Z</time>
      </trkpt>
      <trkpt lat="47.11464" lon="-1.85603">
        <ele>7.2</ele>
        <time>2024-04-13T09:03:14Z</time>
      </trkpt>
      <trkpt lat="47.11481" lon="-1.85597">
        <ele>7.8</ele>
        <time>2024-04-13T09:03:19Z</time>
      </trkpt>
      <trkpt lat="47.1149" lon="-1.85594">
        <ele>8.2</ele>
        <time>2024-04-13T09:03:22Z</time>
      </trkpt>
      <trkpt lat="47.11516" lon="-1.85586">
        <ele>8.8</ele>
        <time>2024-04-13T09:03:30Z</time>
      </trkpt>
      <trkpt lat="47.11519" lon="-1.85586">
        <ele>9</ele>
        <time>2024-04-13T09:03:31Z</time>
      </trkpt>
      <trkpt lat="47.11534" lon="-1.85582">
        <ele>9.4</ele>
        <time>2024-04-13T09:03:36Z</time>
      </trkpt>
      <trkpt lat="47.11551" lon="-1.85576">
        <ele>10</ele>
        <time>2024-04-13T09:03:41Z</time>
      </trkpt>
      <trkpt lat="47.11557" lon="-1.85574">
        <ele>10</ele>
        <time>2024-04-13T09:03:43Z</time>
      </trkpt>
      <trkpt lat="47.11579" lon="-1.85567">
        <ele>10.6</ele>
        <time>2024-04-13T09:03:49Z</time>
      </trkpt>
      <trkpt lat="47.11591" lon="-1.85565">
        <ele>11</ele>
        <time>2024-04-13T09:03:52Z</time>
      </trkpt>
      <trkpt lat="47.11606" lon="-1.85564">
        <ele>11.4</ele>
        <time>2024-04-13T09:03:56Z</time>
      </trkpt>
      <trkpt lat="47.11625" lon="-1.85558">
        <ele>12</ele>
        <time>2024-04-13T09:04:01Z</time>
      </trkpt>
      <trkpt lat="47.11629" lon="-1.85556">
        <ele>12</ele>
        <time>2024-04-13T09:04:02Z</time>
      </trkpt>
      <trkpt lat="47.11658" lon="-1.85548">
        <ele>12.8</ele>
        <time>2024-04-13T09:04:10Z</time>
      </trkpt>
      <trkpt lat="47.11676" lon="-1.85543">
        <ele>13</ele>
        <time>2024-04-13T09:04:15Z</time>
      </trkpt>
      <trkpt lat="47.1168" lon="-1.85543">
        <ele>13</ele>
        <time>2024-04-13T09:04:16Z</time>
      </trkpt>
      <trkpt lat="47.11709" lon="-1.85533">
        <ele>13.4</ele>
        <time>2024-04-13T09:04:23Z</time>
      </trkpt>
      <trkpt lat="47.11744" lon="-1.85524">
        <ele>13.8</ele>
        <time>2024-04-13T09:04:31Z</time>
      </trkpt>
      <trkpt lat="47.11778" lon="-1.85514">
        <ele>14</ele>
        <time>2024-04-13T09:04:39Z</time>
      </trkpt>
      <trkpt lat="47.11795" lon="-1.8551">
        <ele>14</ele>
        <time>2024-04-13T09:04:43Z</time>
      </trkpt>
      <trkpt lat="47.11806" lon="-1.85506">
        <ele>14.2</ele>
        <time>2024-04-13T09:04:46Z</time>
      </trkpt>
      <trkpt lat="47.11827" lon="-1.85499">
        <ele>14.2</ele>
        <time>2024-04-13T09:04:52Z</time>
      </trkpt>
      <trkpt lat="47.11831" lon="-1.855">
        <ele>14.2</ele>
        <time>2024-04-13T09:04:53Z</time>
      </trkpt>
      <trkpt lat="47.11835" lon="-1.85509">
        <ele>14.2</ele>
        <time>2024-04-13T09:04:55Z</time>
      </trkpt>
      <trkpt lat="47.11839" lon="-1.85533">
        <ele>14.2</ele>
        <time>2024-04-13T09:05:00Z</time>
      </trkpt>
      <trkpt lat="47.1184" lon="-1.85539">
        <ele>14</ele>
        <time>2024-04-13T09:05:01Z</time>
      </trkpt>
      <trkpt lat="47.11844" lon="-1.85561">
        <ele>13.6</ele>
        <time>2024-04-13T09:05:05Z</time>
      </trkpt>
      <trkpt lat="47.11847" lon="-1.85579">
        <ele>13.6</ele>
        <time>2024-04-13T09:05:08Z</time>
      </trkpt>
      <trkpt lat="47.11849" lon="-1.8559">
        <ele>14</ele>
        <time>2024-04-13T09:05:10Z</time>
      </trkpt>
      <trkpt lat="47.11852" lon="-1.85608">
        <ele>14.4</ele>
        <time>2024-04-13T09:05:13Z</time>
      </trkpt>
      <trkpt lat="47.11858" lon="-1.85651">
        <ele>15</ele>
        <time>2024-04-13T09:05:20Z</time>
      </trkpt>
      <trkpt lat="47.11859" lon="-1.85657">
        <ele>15</ele>
        <time>2024-04-13T09:05:21Z</time>
      </trkpt>
      <trkpt lat="47.11862" lon="-1.85677">
        <ele>15.2</ele>
        <time>2024-04-13T09:05:24Z</time>
      </trkpt>
      <trkpt lat="47.11866" lon="-1.85688">
        <ele>15.2</ele>
        <time>2024-04-13T09:05:26Z</time>
      </trkpt>
      <trkpt lat="47.11874" lon="-1.85697">
        <ele>16.4</ele>
        <time>2024-04-13T09:05:28Z</time>
      </trkpt>
      <trkpt lat="47.11882" lon="-1.85704">
        <ele>16.6</ele>
        <time>2024-04-13T09:05:30Z</time>
      </trkpt>
      <trkpt lat="47.11892" lon="-1.85708">
        <ele>16.8</ele>
        <time>2024-04-13T09:05:32Z</time>
      </trkpt>
      <trkpt lat="47.119" lon="-1.85709">
        <ele>17.4</ele>
        <time>2024-04-13T09:05:34Z</time>
      </trkpt>
      <trkpt lat="47.11904" lon="-1.85709">
        <ele>17.4</ele>
        <time>2024-04-13T09:05:35Z</time>
      </trkpt>
      <trkpt lat="47.11929" lon="-1.85703">
        <ele>17.8</ele>
        <time>2024-04-13T09:05:42Z</time>
      </trkpt>
      <trkpt lat="47.11963" lon="-1.85696">
        <ele>18.4</ele>
        <time>2024-04-13T09:05:50Z</time>
      </trkpt>
      <trkpt lat="47.11967" lon="-1.85696">
        <ele>18.4</ele>
        <time>2024-04-13T09:05:51Z</time>
      </trkpt>
      <trkpt lat="47.12" lon="-1.85688">
        <ele>18.6</ele>
        <time>2024-04-13T09:05:58Z</time>
      </trkpt>
      <trkpt lat="47.12041" lon="-1.85679">
        <ele>19.2</ele>
        <time>2024-04-13T09:06:07Z</time>
      </trkpt>
      <trkpt lat="47.1208" lon="-1.8567">
        <ele>19.2</ele>
        <time>2024-04-13T09:06:15Z</time>
      </trkpt>
      <trkpt lat="47.121" lon="-1.85665">
        <ele>19.4</ele>
        <time>2024-04-13T09:06:19Z</time>
      </trkpt>
      <trkpt lat="47.12114" lon="-1.85662">
        <ele>19.4</ele>
        <time>2024-04-13T09:06:22Z</time>
      </trkpt>
      <trkpt lat="47.1212" lon="-1.85661">
        <ele>19.4</ele>
        <time>2024-04-13T09:06:23Z</time>
      </trkpt>
      <trkpt lat="47.12158" lon="-1.85652">
        <ele>19.8</ele>
        <time>2024-04-13T09:06:30Z</time>
      </trkpt>
      <trkpt lat="47.12194" lon="-1.85643">
        <ele>18.4</ele>
        <time>2024-04-13T09:06:37Z</time>
      </trkpt>
      <trkpt lat="47.12199" lon="-1.85642">
        <ele>18.4</ele>
        <time>2024-04-13T09:06:38Z</time>
      </trkpt>
      <trkpt lat="47.1222" lon="-1.85638">
        <ele>18.4</ele>
        <time>2024-04-13T09:06:42Z</time>
      </trkpt>
      <trkpt lat="47.12237" lon="-1.85634">
        <ele>18.4</ele>
        <time>2024-04-13T09:06:45Z</time>
      </trkpt>
      <trkpt lat="47.12248" lon="-1.85631">
        <ele>18.2</ele>
        <time>2024-04-13T09:06:47Z</time>
      </trkpt>
      <trkpt lat="47.123" lon="-1.8562">
        <ele>18.2</ele>
        <time>2024-04-13T09:06:56Z</time>
      </trkpt>
      <trkpt lat="47.12341" lon="-1.8561">
        <ele>18</ele>
        <time>2024-04-13T09:07:03Z</time>
      </trkpt>
      <trkpt lat="47.12362" lon="-1.85605">
        <ele>20.4</ele>
        <time>2024-04-13T09:07:07Z</time>
      </trkpt>
      <trkpt lat="47.12379" lon="-1.85601">
        <ele>20.4</ele>
        <time>2024-04-13T09:07:10Z</time>
      </trkpt>
      <trkpt lat="47.12419" lon="-1.85591">
        <ele>20</ele>
        <time>2024-04-13T09:07:17Z</time>
      </trkpt>
      <trkpt lat="47.12445" lon="-1.85585">
        <ele>19</ele>
        <time>2024-04-13T09:07:21Z</time>
      </trkpt>
      <trkpt lat="47.12452" lon="-1.85584">
        <ele>19</ele>
        <time>2024-04-13T09:07:22Z</time>
      </trkpt>
      <trkpt lat="47.12503" lon="-1.85573">
        <ele>18.2</ele>
        <time>2024-04-13T09:07:30Z</time>
      </trkpt>
      <trkpt lat="47.1251" lon="-1.85571">
        <ele>18</ele>
        <time>2024-04-13T09:07:31Z</time>
      </trkpt>
      <trkpt lat="47.12566" lon="-1.85557">
        <ele>16.8</ele>
        <time>2024-04-13T09:07:40Z</time>
      </trkpt>
      <trkpt lat="47.12623" lon="-1.85545">
        <ele>16.2</ele>
        <time>2024-04-13T09:07:49Z</time>
      </trkpt>
      <trkpt lat="47.1263" lon="-1.85543">
        <ele>16</ele>
        <time>2024-04-13T09:07:50Z</time>
      </trkpt>
      <trkpt lat="47.12642" lon="-1.8554">
        <ele>15.8</ele>
        <time>2024-04-13T09:07:52Z</time>
      </trkpt>
      <trkpt lat="47.12684" lon="-1.85531">
        <ele>15.4</ele>
        <time>2024-04-13T09:07:59Z</time>
      </trkpt>
      <trkpt lat="47.12718" lon="-1.85521">
        <ele>15</ele>
        <time>2024-04-13T09:08:05Z</time>
      </trkpt>
      <trkpt lat="47.12736" lon="-1.85517">
        <ele>14.8</ele>
        <time>2024-04-13T09:08:08Z</time>
      </trkpt>
      <trkpt lat="47.1276" lon="-1.85511">
        <ele>14.8</ele>
        <time>2024-04-13T09:08:12Z</time>
      </trkpt>
      <trkpt lat="47.12802" lon="-1.85502">
        <ele>14.8</ele>
        <time>2024-04-13T09:08:19Z</time>
      </trkpt>
      <trkpt lat="47.12845" lon="-1.85493">
        <ele>14</ele>
        <time>2024-04-13T09:08:26Z</time>
      </trkpt>
      <trkpt lat="47.12858" lon="-1.8549">
        <ele>13.6</ele>
        <time>2024-04-13T09:08:28Z</time>
      </trkpt>
      <trkpt lat="47.12882" lon="-1.85484">
        <ele>13.8</ele>
        <time>2024-04-13T09:08:32Z</time>
      </trkpt>
      <trkpt lat="47.12917" lon="-1.85476">
        <ele>13.4</ele>
        <time>2024-04-13T09:08:38Z</time>
      </trkpt>
      <trkpt lat="47.12964" lon="-1.85465">
        <ele>13.4</ele>
        <time>2024-04-13T09:08:46Z</time>
      </trkpt>
      <trkpt lat="47.13017" lon="-1.85451">
        <ele>12.8</ele>
        <time>2024-04-13T09:08:55Z</time>
      </trkpt>
      <trkpt lat="47.13023" lon="-1.85449">
        <ele>12.6</ele>
        <time>2024-04-13T09:08:56Z</time>
      </trkpt>
      <trkpt lat="47.13029" lon="-1.85448">
        <ele>12.6</ele>
        <time>2024-04-13T09:08:57Z</time>
      </trkpt>
      <trkpt lat="47.1304" lon="-1.85445">
        <ele>10.4</ele>
        <time>2024-04-13T09:08:59Z</time>
      </trkpt>
      <trkpt lat="47.1307" lon="-1.85439">
        <ele>10.2</ele>
        <time>2024-04-13T09:09:04Z</time>
      </trkpt>
      <trkpt lat="47.1313" lon="-1.85425">
        <ele>10.4</ele>
        <time>2024-04-13T09:09:14Z</time>
      </trkpt>
      <trkpt lat="47.1318" lon="-1.85414">
        <ele>10.6</ele>
        <time>2024-04-13T09:09:23Z</time>
      </trkpt>
      <trkpt lat="47.13205" lon="-1.85407">
        <ele>11.6</ele>
        <time>2024-04-13T09:09:29Z</time>
      </trkpt>
      <trkpt lat="47.13213" lon="-1.85407">
        <ele>11.8</ele>
        <time>2024-04-13T09:09:31Z</time>
      </trkpt>
      <trkpt lat="47.13222" lon="-1.85411">
        <ele>12.2</ele>
        <time>2024-04-13T09:09:33Z</time>
      </trkpt>
      <trkpt lat="47.13226" lon="-1.85421">
        <ele>12.2</ele>
        <time>2024-04-13T09:09:35Z</time>
      </trkpt>
      <trkpt lat="47.13228" lon="-1.85429">
        <ele>12.2</ele>
        <time>2024-04-13T09:09:36Z</time>
      </trkpt>
      <trkpt lat="47.13229" lon="-1.85436">
        <ele>12</ele>
        <time>2024-04-13T09:09:37Z</time>
      </trkpt>
      <trkpt lat="47.13231" lon="-1.8546">
        <ele>11.4</ele>
        <time>2024-04-13T09:09:40Z</time>
      </trkpt>
      <trkpt lat="47.1323" lon="-1.85468">
        <ele>11.4</ele>
        <time>2024-04-13T09:09:41Z</time>
      </trkpt>
      <trkpt lat="47.13232" lon="-1.85515">
        <ele>12.6</ele>
        <time>2024-04-13T09:09:47Z</time>
      </trkpt>
      <trkpt lat="47.13235" lon="-1.85591">
        <ele>12</ele>
        <time>2024-04-13T09:09:57Z</time>
      </trkpt>
      <trkpt lat="47.13237" lon="-1.85657">
        <ele>12.6</ele>
        <time>2024-04-13T09:10:06Z</time>
      </trkpt>
      <trkpt lat="47.1324" lon="-1.85733">
        <ele>12.2</ele>
        <time>2024-04-13T09:10:16Z</time>
      </trkpt>
      <trkpt lat="47.13239" lon="-1.8581">
        <ele>12.6</ele>
        <time>2024-04-13T09:10:26Z</time>
      </trkpt>
      <trkpt lat="47.13235" lon="-1.85877">
        <ele>12.6</ele>
        <time>2024-04-13T09:10:35Z</time>
      </trkpt>
      <trkpt lat="47.13234" lon="-1.85884">
        <ele>12.6</ele>
        <time>2024-04-13T09:10:36Z</time>
      </trkpt>
      <trkpt lat="47.13229" lon="-1.8592">
        <ele>12.4</ele>
        <time>2024-04-13T09:10:42Z</time>
      </trkpt>
      <trkpt lat="47.13229" lon="-1.85936">
        <ele>12.4</ele>
        <time>2024-04-13T09:10:45Z</time>
      </trkpt>
      <trkpt lat="47.13233" lon="-1.85941">
        <ele>12.4</ele>
        <time>2024-04-13T09:10:47Z</time>
      </trkpt>
      <trkpt lat="47.13233" lon="-1.85942">
        <ele>12</ele>
        <time>2024-04-13T09:10:50Z</time>
      </trkpt>
      <trkpt lat="47.13237" lon="-1.85943">
        <ele>12</ele>
        <time>2024-04-13T09:10:56Z</time>
      </trkpt>
      <trkpt lat="47.13241" lon="-1.85945">
        <ele>12</ele>
        <time>2024-04-13T09:10:58Z</time>
      </trkpt>
      <trkpt lat="47.13258" lon="-1.85948">
        <ele>12.6</ele>
        <time>2024-04-13T09:11:05Z</time>
      </trkpt>
      <trkpt lat="47.13259" lon="-1.85948">
        <ele>12.6</ele>
        <time>2024-04-13T09:11:08Z</time>
      </trkpt>
      <trkpt lat="47.13264" lon="-1.85944">
        <ele>12.8</ele>
        <time>2024-04-13T09:11:42Z</time>
      </trkpt>
      <trkpt lat="47.13267" lon="-1.85944">
        <ele>12.8</ele>
        <time>2024-04-13T09:11:43Z</time>
      </trkpt>
      <trkpt lat="47.13279" lon="-1.85937">
        <ele>13.2</ele>
        <time>2024-04-13T09:11:46Z</time>
      </trkpt>
      <trkpt lat="47.1328" lon="-1.85931">
        <ele>13.2</ele>
        <time>2024-04-13T09:11:47Z</time>
      </trkpt>
      <trkpt lat="47.13281" lon="-1.85924">
        <ele>13.2</ele>
        <time>2024-04-13T09:11:48Z</time>
      </trkpt>
      <trkpt lat="47.13283" lon="-1.85894">
        <ele>13.2</ele>
        <time>2024-04-13T09:11:52Z</time>
      </trkpt>
      <trkpt lat="47.13284" lon="-1.85835">
        <ele>12.4</ele>
        <time>2024-04-13T09:11:59Z</time>
      </trkpt>
      <trkpt lat="47.13283" lon="-1.8578">
        <ele>12.2</ele>
        <time>2024-04-13T09:12:05Z</time>
      </trkpt>
      <trkpt lat="47.13282" lon="-1.85762">
        <ele>12.2</ele>
        <time>2024-04-13T09:12:07Z</time>
      </trkpt>
      <trkpt lat="47.1328" lon="-1.8569">
        <ele>11.6</ele>
        <time>2024-04-13T09:12:15Z</time>
      </trkpt>
      <trkpt lat="47.13276" lon="-1.8563">
        <ele>11.8</ele>
        <time>2024-04-13T09:12:22Z</time>
      </trkpt>
      <trkpt lat="47.13273" lon="-1.85558">
        <ele>12.2</ele>
        <time>2024-04-13T09:12:31Z</time>
      </trkpt>
      <trkpt lat="47.13272" lon="-1.85521">
        <ele>12.6</ele>
        <time>2024-04-13T09:12:36Z</time>
      </trkpt>
      <trkpt lat="47.13271" lon="-1.85493">
        <ele>13</ele>
        <time>2024-04-13T09:12:40Z</time>
      </trkpt>
      <trkpt lat="47.13268" lon="-1.8544">
        <ele>13.6</ele>
        <time>2024-04-13T09:12:48Z</time>
      </trkpt>
      <trkpt lat="47.13268" lon="-1.85419">
        <ele>13.8</ele>
        <time>2024-04-13T09:12:51Z</time>
      </trkpt>
      <trkpt lat="47.13268" lon="-1.85412">
        <ele>13.8</ele>
        <time>2024-04-13T09:12:52Z</time>
      </trkpt>
      <trkpt lat="47.13272" lon="-1.854">
        <ele>13.8</ele>
        <time>2024-04-13T09:12:54Z</time>
      </trkpt>
      <trkpt lat="47.13278" lon="-1.85391">
        <ele>13.8</ele>
        <time>2024-04-13T09:12:56Z</time>
      </trkpt>
      <trkpt lat="47.13283" lon="-1.85388">
        <ele>13.8</ele>
        <time>2024-04-13T09:12:57Z</time>
      </trkpt>
      <trkpt lat="47.13288" lon="-1.85387">
        <ele>14</ele>
        <time>2024-04-13T09:12:58Z</time>
      </trkpt>
      <trkpt lat="47.13313" lon="-1.85382">
        <ele>14.4</ele>
        <time>2024-04-13T09:13:03Z</time>
      </trkpt>
      <trkpt lat="47.13317" lon="-1.85381">
        <ele>14.8</ele>
        <time>2024-04-13T09:13:04Z</time>
      </trkpt>
      <trkpt lat="47.13352" lon="-1.85373">
        <ele>15.6</ele>
        <time>2024-04-13T09:13:11Z</time>
      </trkpt>
      <trkpt lat="47.13378" lon="-1.85368">
        <ele>15.6</ele>
        <time>2024-04-13T09:13:16Z</time>
      </trkpt>
      <trkpt lat="47.13392" lon="-1.85364">
        <ele>15.8</ele>
        <time>2024-04-13T09:13:19Z</time>
      </trkpt>
      <trkpt lat="47.13397" lon="-1.85364">
        <ele>15.8</ele>
        <time>2024-04-13T09:13:20Z</time>
      </trkpt>
      <trkpt lat="47.13423" lon="-1.85358">
        <ele>16.2</ele>
        <time>2024-04-13T09:13:25Z</time>
      </trkpt>
      <trkpt lat="47.13459" lon="-1.85349">
        <ele>16.4</ele>
        <time>2024-04-13T09:13:32Z</time>
      </trkpt>
      <trkpt lat="47.13464" lon="-1.85348">
        <ele>16.4</ele>
        <time>2024-04-13T09:13:33Z</time>
      </trkpt>
      <trkpt lat="47.13505" lon="-1.85338">
        <ele>15.4</ele>
        <time>2024-04-13T09:13:41Z</time>
      </trkpt>
      <trkpt lat="47.13559" lon="-1.85325">
        <ele>15.8</ele>
        <time>2024-04-13T09:13:51Z</time>
      </trkpt>
      <trkpt lat="47.13605" lon="-1.85315">
        <ele>15.6</ele>
        <time>2024-04-13T09:13:59Z</time>
      </trkpt>
      <trkpt lat="47.1365" lon="-1.85303">
        <ele>15.4</ele>
        <time>2024-04-13T09:14:07Z</time>
      </trkpt>
      <trkpt lat="47.13676" lon="-1.85297">
        <ele>15.8</ele>
        <time>2024-04-13T09:14:12Z</time>
      </trkpt>
      <trkpt lat="47.13685" lon="-1.85295">
        <ele>16</ele>
        <time>2024-04-13T09:14:14Z</time>
      </trkpt>
      <trkpt lat="47.13699" lon="-1.85292">
        <ele>17</ele>
        <time>2024-04-13T09:14:17Z</time>
      </trkpt>
      <trkpt lat="47.13725" lon="-1.85286">
        <ele>17.4</ele>
        <time>2024-04-13T09:14:22Z</time>
      </trkpt>
      <trkpt lat="47.13772" lon="-1.85275">
        <ele>17.8</ele>
        <time>2024-04-13T09:14:31Z</time>
      </trkpt>
      <trkpt lat="47.13808" lon="-1.85266">
        <ele>18</ele>
        <time>2024-04-13T09:14:38Z</time>
      </trkpt>
      <trkpt lat="47.13818" lon="-1.85264">
        <ele>18.2</ele>
        <time>2024-04-13T09:14:40Z</time>
      </trkpt>
      <trkpt lat="47.13832" lon="-1.85261">
        <ele>18.2</ele>
        <time>2024-04-13T09:14:43Z</time>
      </trkpt>
      <trkpt lat="47.13846" lon="-1.85257">
        <ele>18.2</ele>
        <time>2024-04-13T09:14:46Z</time>
      </trkpt>
      <trkpt lat="47.13852" lon="-1.85244">
        <ele>18.2</ele>
        <time>2024-04-13T09:14:48Z</time>
      </trkpt>
      <trkpt lat="47.13851" lon="-1.85237">
        <ele>18.2</ele>
        <time>2024-04-13T09:14:49Z</time>
      </trkpt>
      <trkpt lat="47.13848" lon="-1.85201">
        <ele>19</ele>
        <time>2024-04-13T09:14:54Z</time>
      </trkpt>
      <trkpt lat="47.13846" lon="-1.85179">
        <ele>19.2</ele>
        <time>2024-04-13T09:14:57Z</time>
      </trkpt>
      <trkpt lat="47.1384" lon="-1.85116">
        <ele>19.4</ele>
        <time>2024-04-13T09:15:05Z</time>
      </trkpt>
      <trkpt lat="47.13833" lon="-1.85046">
        <ele>19.4</ele>
        <time>2024-04-13T09:15:14Z</time>
      </trkpt>
      <trkpt lat="47.13832" lon="-1.85038">
        <ele>19.4</ele>
        <time>2024-04-13T09:15:15Z</time>
      </trkpt>
      <trkpt lat="47.13823" lon="-1.84968">
        <ele>19.2</ele>
        <time>2024-04-13T09:15:24Z</time>
      </trkpt>
      <trkpt lat="47.13805" lon="-1.84896">
        <ele>19.6</ele>
        <time>2024-04-13T09:15:34Z</time>
      </trkpt>
      <trkpt lat="47.13796" lon="-1.84863">
        <ele>19.6</ele>
        <time>2024-04-13T09:15:39Z</time>
      </trkpt>
      <trkpt lat="47.13795" lon="-1.84855">
        <ele>19.6</ele>
        <time>2024-04-13T09:15:40Z</time>
      </trkpt>
      <trkpt lat="47.13795" lon="-1.84842">
        <ele>19.8</ele>
        <time>2024-04-13T09:15:42Z</time>
      </trkpt>
      <trkpt lat="47.13794" lon="-1.84815">
        <ele>20</ele>
        <time>2024-04-13T09:15:46Z</time>
      </trkpt>
      <trkpt lat="47.13795" lon="-1.84777">
        <ele>20</ele>
        <time>2024-04-13T09:15:52Z</time>
      </trkpt>
      <trkpt lat="47.13796" lon="-1.8477">
        <ele>20</ele>
        <time>2024-04-13T09:15:53Z</time>
      </trkpt>
      <trkpt lat="47.13797" lon="-1.84738">
        <ele>20.2</ele>
        <time>2024-04-13T09:15:58Z</time>
      </trkpt>
      <trkpt lat="47.13798" lon="-1.84717">
        <ele>20.2</ele>
        <time>2024-04-13T09:16:01Z</time>
      </trkpt>
      <trkpt lat="47.13797" lon="-1.84653">
        <ele>20.6</ele>
        <time>2024-04-13T09:16:10Z</time>
      </trkpt>
      <trkpt lat="47.13798" lon="-1.84608">
        <ele>21.2</ele>
        <time>2024-04-13T09:16:16Z</time>
      </trkpt>
      <trkpt lat="47.13799" lon="-1.84594">
        <ele>21.4</ele>
        <time>2024-04-13T09:16:18Z</time>
      </trkpt>
      <trkpt lat="47.138" lon="-1.84579">
        <ele>21.4</ele>
        <time>2024-04-13T09:16:20Z</time>
      </trkpt>
      <trkpt lat="47.13801" lon="-1.84521">
        <ele>21.8</ele>
        <time>2024-04-13T09:16:28Z</time>
      </trkpt>
      <trkpt lat="47.13802" lon="-1.84492">
        <ele>22.2</ele>
        <time>2024-04-13T09:16:32Z</time>
      </trkpt>
      <trkpt lat="47.13803" lon="-1.84471">
        <ele>22.6</ele>
        <time>2024-04-13T09:16:35Z</time>
      </trkpt>
      <trkpt lat="47.13804" lon="-1.84412">
        <ele>22.8</ele>
        <time>2024-04-13T09:16:43Z</time>
      </trkpt>
      <trkpt lat="47.13806" lon="-1.84368">
        <ele>23</ele>
        <time>2024-04-13T09:16:49Z</time>
      </trkpt>
      <trkpt lat="47.13807" lon="-1.84333">
        <ele>23.2</ele>
        <time>2024-04-13T09:16:54Z</time>
      </trkpt>
      <trkpt lat="47.13807" lon="-1.84326">
        <ele>23.4</ele>
        <time>2024-04-13T09:16:55Z</time>
      </trkpt>
      <trkpt lat="47.13808" lon="-1.84279">
        <ele>23.8</ele>
        <time>2024-04-13T09:17:01Z</time>
      </trkpt>
      <trkpt lat="47.13809" lon="-1.84228">
        <ele>23.8</ele>
        <time>2024-04-13T09:17:08Z</time>
      </trkpt>
      <trkpt lat="47.13809" lon="-1.84221">
        <ele>24</ele>
        <time>2024-04-13T09:17:09Z</time>
      </trkpt>
      <trkpt lat="47.13812" lon="-1.84166">
        <ele>24.6</ele>
        <time>2024-04-13T09:17:17Z</time>
      </trkpt>
      <trkpt lat="47.13818" lon="-1.84147">
        <ele>24.8</ele>
        <time>2024-04-13T09:17:21Z</time>
      </trkpt>
      <trkpt lat="47.13827" lon="-1.84147">
        <ele>24.8</ele>
        <time>2024-04-13T09:17:24Z</time>
      </trkpt>
      <trkpt lat="47.13844" lon="-1.84154">
        <ele>24.4</ele>
        <time>2024-04-13T09:17:29Z</time>
      </trkpt>
      <trkpt lat="47.13869" lon="-1.84167">
        <ele>24.4</ele>
        <time>2024-04-13T09:17:35Z</time>
      </trkpt>
      <trkpt lat="47.13877" lon="-1.84171">
        <ele>26</ele>
        <time>2024-04-13T09:17:37Z</time>
      </trkpt>
      <trkpt lat="47.13894" lon="-1.8418">
        <ele>26.4</ele>
        <time>2024-04-13T09:17:41Z</time>
      </trkpt>
      <trkpt lat="47.13915" lon="-1.84195">
        <ele>25</ele>
        <time>2024-04-13T09:17:46Z</time>
      </trkpt>
      <trkpt lat="47.13919" lon="-1.84198">
        <ele>24.6</ele>
        <time>2024-04-13T09:17:47Z</time>
      </trkpt>
      <trkpt lat="47.13946" lon="-1.84215">
        <ele>25.6</ele>
        <time>2024-04-13T09:17:53Z</time>
      </trkpt>
      <trkpt lat="47.13984" lon="-1.84238">
        <ele>24.4</ele>
        <time>2024-04-13T09:18:01Z</time>
      </trkpt>
      <trkpt lat="47.1402" lon="-1.84259">
        <ele>25</ele>
        <time>2024-04-13T09:18:08Z</time>
      </trkpt>
      <trkpt lat="47.14057" lon="-1.84284">
        <ele>25.2</ele>
        <time>2024-04-13T09:18:16Z</time>
      </trkpt>
      <trkpt lat="47.14081" lon="-1.84303">
        <ele>24.6</ele>
        <time>2024-04-13T09:18:22Z</time>
      </trkpt>
      <trkpt lat="47.14085" lon="-1.84306">
        <ele>24.6</ele>
        <time>2024-04-13T09:18:23Z</time>
      </trkpt>
      <trkpt lat="47.14102" lon="-1.84318">
        <ele>24.4</ele>
        <time>2024-04-13T09:18:27Z</time>
      </trkpt>
      <trkpt lat="47.1411" lon="-1.84324">
        <ele>24.6</ele>
        <time>2024-04-13T09:18:29Z</time>
      </trkpt>
      <trkpt lat="47.14145" lon="-1.84349">
        <ele>24.6</ele>
        <time>2024-04-13T09:18:37Z</time>
      </trkpt>
      <trkpt lat="47.14172" lon="-1.84369">
        <ele>24.6</ele>
        <time>2024-04-13T09:18:44Z</time>
      </trkpt>
      <trkpt lat="47.14204" lon="-1.84392">
        <ele>24.8</ele>
        <time>2024-04-13T09:18:52Z</time>
      </trkpt>
      <trkpt lat="47.14242" lon="-1.84417">
        <ele>24.6</ele>
        <time>2024-04-13T09:19:01Z</time>
      </trkpt>
      <trkpt lat="47.14269" lon="-1.84432">
        <ele>24.8</ele>
        <time>2024-04-13T09:19:07Z</time>
      </trkpt>
      <trkpt lat="47.14295" lon="-1.84443">
        <ele>25.2</ele>
        <time>2024-04-13T09:19:13Z</time>
      </trkpt>
      <trkpt lat="47.14299" lon="-1.84442">
        <ele>25.4</ele>
        <time>2024-04-13T09:19:14Z</time>
      </trkpt>
      <trkpt lat="47.14327" lon="-1.84441">
        <ele>25.8</ele>
        <time>2024-04-13T09:19:21Z</time>
      </trkpt>
      <trkpt lat="47.14337" lon="-1.84443">
        <ele>25.8</ele>
        <time>2024-04-13T09:19:23Z</time>
      </trkpt>
      <trkpt lat="47.14355" lon="-1.8445">
        <ele>26</ele>
        <time>2024-04-13T09:19:27Z</time>
      </trkpt>
      <trkpt lat="47.14364" lon="-1.84455">
        <ele>26</ele>
        <time>2024-04-13T09:19:29Z</time>
      </trkpt>
      <trkpt lat="47.14376" lon="-1.8446">
        <ele>26.2</ele>
        <time>2024-04-13T09:19:32Z</time>
      </trkpt>
      <trkpt lat="47.14407" lon="-1.84474">
        <ele>26.8</ele>
        <time>2024-04-13T09:19:39Z</time>
      </trkpt>
      <trkpt lat="47.14423" lon="-1.84483">
        <ele>27</ele>
        <time>2024-04-13T09:19:43Z</time>
      </trkpt>
      <trkpt lat="47.14438" lon="-1.84496">
        <ele>27.4</ele>
        <time>2024-04-13T09:19:47Z</time>
      </trkpt>
      <trkpt lat="47.14468" lon="-1.84522">
        <ele>27.4</ele>
        <time>2024-04-13T09:19:55Z</time>
      </trkpt>
      <trkpt lat="47.14475" lon="-1.84528">
        <ele>27.6</ele>
        <time>2024-04-13T09:19:57Z</time>
      </trkpt>
      <trkpt lat="47.14483" lon="-1.84533">
        <ele>28</ele>
        <time>2024-04-13T09:19:59Z</time>
      </trkpt>
      <trkpt lat="47.14511" lon="-1.84552">
        <ele>28.4</ele>
        <time>2024-04-13T09:20:06Z</time>
      </trkpt>
      <trkpt lat="47.14535" lon="-1.84567">
        <ele>28.4</ele>
        <time>2024-04-13T09:20:12Z</time>
      </trkpt>
      <trkpt lat="47.14569" lon="-1.84587">
        <ele>28.4</ele>
        <time>2024-04-13T09:20:20Z</time>
      </trkpt>
      <trkpt lat="47.14596" lon="-1.84606">
        <ele>28.8</ele>
        <time>2024-04-13T09:20:27Z</time>
      </trkpt>
      <trkpt lat="47.14619" lon="-1.8463">
        <ele>28.6</ele>
        <time>2024-04-13T09:20:33Z</time>
      </trkpt>
      <trkpt lat="47.14653" lon="-1.84663">
        <ele>28.8</ele>
        <time>2024-04-13T09:20:42Z</time>
      </trkpt>
      <trkpt lat="47.14682" lon="-1.84684">
        <ele>29.2</ele>
        <time>2024-04-13T09:20:49Z</time>
      </trkpt>
      <trkpt lat="47.1469" lon="-1.84691">
        <ele>29.4</ele>
        <time>2024-04-13T09:20:51Z</time>
      </trkpt>
      <trkpt lat="47.1472" lon="-1.84712">
        <ele>29.8</ele>
        <time>2024-04-13T09:20:58Z</time>
      </trkpt>
      <trkpt lat="47.14724" lon="-1.84714">
        <ele>30</ele>
        <time>2024-04-13T09:20:59Z</time>
      </trkpt>
      <trkpt lat="47.14728" lon="-1.84717">
        <ele>30.6</ele>
        <time>2024-04-13T09:21:00Z</time>
      </trkpt>
      <trkpt lat="47.14739" lon="-1.84725">
        <ele>31</ele>
        <time>2024-04-13T09:21:03Z</time>
      </trkpt>
      <trkpt lat="47.14767" lon="-1.84744">
        <ele>31.6</ele>
        <time>2024-04-13T09:21:10Z</time>
      </trkpt>
      <trkpt lat="47.14771" lon="-1.84747">
        <ele>31.6</ele>
        <time>2024-04-13T09:21:11Z</time>
      </trkpt>
      <trkpt lat="47.14791" lon="-1.84762">
        <ele>31.6</ele>
        <time>2024-04-13T09:21:16Z</time>
      </trkpt>
      <trkpt lat="47.14803" lon="-1.84773">
        <ele>30.6</ele>
        <time>2024-04-13T09:21:19Z</time>
      </trkpt>
      <trkpt lat="47.14819" lon="-1.84788">
        <ele>30.4</ele>
        <time>2024-04-13T09:21:23Z</time>
      </trkpt>
      <trkpt lat="47.14832" lon="-1.84799">
        <ele>30.2</ele>
        <time>2024-04-13T09:21:26Z</time>
      </trkpt>
      <trkpt lat="47.14845" lon="-1.8481">
        <ele>30.2</ele>
        <time>2024-04-13T09:21:29Z</time>
      </trkpt>
      <trkpt lat="47.14887" lon="-1.84844">
        <ele>30.2</ele>
        <time>2024-04-13T09:21:38Z</time>
      </trkpt>
      <trkpt lat="47.14892" lon="-1.84847">
        <ele>30.2</ele>
        <time>2024-04-13T09:21:39Z</time>
      </trkpt>
      <trkpt lat="47.14908" lon="-1.8486">
        <ele>30.2</ele>
        <time>2024-04-13T09:21:43Z</time>
      </trkpt>
      <trkpt lat="47.14942" lon="-1.84885">
        <ele>30.4</ele>
        <time>2024-04-13T09:21:51Z</time>
      </trkpt>
      <trkpt lat="47.1495" lon="-1.84893">
        <ele>31.4</ele>
        <time>2024-04-13T09:21:53Z</time>
      </trkpt>
      <trkpt lat="47.14954" lon="-1.84898">
        <ele>31.8</ele>
        <time>2024-04-13T09:21:54Z</time>
      </trkpt>
      <trkpt lat="47.14957" lon="-1.84904">
        <ele>31.8</ele>
        <time>2024-04-13T09:21:55Z</time>
      </trkpt>
      <trkpt lat="47.14959" lon="-1.84911">
        <ele>32</ele>
        <time>2024-04-13T09:21:56Z</time>
      </trkpt>
      <trkpt lat="47.14959" lon="-1.84918">
        <ele>32</ele>
        <time>2024-04-13T09:21:57Z</time>
      </trkpt>
      <trkpt lat="47.14955" lon="-1.84932">
        <ele>32</ele>
        <time>2024-04-13T09:21:59Z</time>
      </trkpt>
      <trkpt lat="47.1495" lon="-1.84943">
        <ele>32</ele>
        <time>2024-04-13T09:22:01Z</time>
      </trkpt>
      <trkpt lat="47.14948" lon="-1.84957">
        <ele>32</ele>
        <time>2024-04-13T09:22:03Z</time>
      </trkpt>
      <trkpt lat="47.14952" lon="-1.84969">
        <ele>31</ele>
        <time>2024-04-13T09:22:05Z</time>
      </trkpt>
      <trkpt lat="47.14955" lon="-1.84974">
        <ele>31</ele>
        <time>2024-04-13T09:22:06Z</time>
      </trkpt>
      <trkpt lat="47.14959" lon="-1.84978">
        <ele>30.8</ele>
        <time>2024-04-13T09:22:07Z</time>
      </trkpt>
      <trkpt lat="47.14966" lon="-1.84984">
        <ele>30.8</ele>
        <time>2024-04-13T09:22:09Z</time>
      </trkpt>
      <trkpt lat="47.14972" lon="-1.84989">
        <ele>31</ele>
        <time>2024-04-13T09:22:11Z</time>
      </trkpt>
      <trkpt lat="47.14994" lon="-1.85001">
        <ele>31</ele>
        <time>2024-04-13T09:22:17Z</time>
      </trkpt>
      <trkpt lat="47.15005" lon="-1.84994">
        <ele>31.6</ele>
        <time>2024-04-13T09:22:20Z</time>
      </trkpt>
      <trkpt lat="47.15008" lon="-1.84989">
        <ele>31.8</ele>
        <time>2024-04-13T09:22:21Z</time>
      </trkpt>
      <trkpt lat="47.15012" lon="-1.84979">
        <ele>32</ele>
        <time>2024-04-13T09:22:23Z</time>
      </trkpt>
      <trkpt lat="47.15015" lon="-1.84974">
        <ele>32</ele>
        <time>2024-04-13T09:22:24Z</time>
      </trkpt>
      <trkpt lat="47.15022" lon="-1.84967">
        <ele>32</ele>
        <time>2024-04-13T09:22:26Z</time>
      </trkpt>
      <trkpt lat="47.1503" lon="-1.84967">
        <ele>31.8</ele>
        <time>2024-04-13T09:22:28Z</time>
      </trkpt>
      <trkpt lat="47.15037" lon="-1.84972">
        <ele>31.6</ele>
        <time>2024-04-13T09:22:30Z</time>
      </trkpt>
      <trkpt lat="47.15044" lon="-1.84979">
        <ele>31.4</ele>
        <time>2024-04-13T09:22:32Z</time>
      </trkpt>
      <trkpt lat="47.15072" lon="-1.85007">
        <ele>31.4</ele>
        <time>2024-04-13T09:22:40Z</time>
      </trkpt>
      <trkpt lat="47.15104" lon="-1.85035">
        <ele>31.6</ele>
        <time>2024-04-13T09:22:49Z</time>
      </trkpt>
      <trkpt lat="47.15115" lon="-1.85046">
        <ele>32.8</ele>
        <time>2024-04-13T09:22:52Z</time>
      </trkpt>
      <trkpt lat="47.15123" lon="-1.85052">
        <ele>33</ele>
        <time>2024-04-13T09:22:54Z</time>
      </trkpt>
      <trkpt lat="47.15134" lon="-1.85062">
        <ele>33.2</ele>
        <time>2024-04-13T09:22:57Z</time>
      </trkpt>
      <trkpt lat="47.15145" lon="-1.8507">
        <ele>33.2</ele>
        <time>2024-04-13T09:23:00Z</time>
      </trkpt>
      <trkpt lat="47.15159" lon="-1.85083">
        <ele>33.4</ele>
        <time>2024-04-13T09:23:04Z</time>
      </trkpt>
      <trkpt lat="47.1517" lon="-1.85093">
        <ele>33.6</ele>
        <time>2024-04-13T09:23:07Z</time>
      </trkpt>
      <trkpt lat="47.15183" lon="-1.85101">
        <ele>33.2</ele>
        <time>2024-04-13T09:23:10Z</time>
      </trkpt>
      <trkpt lat="47.15213" lon="-1.85114">
        <ele>33</ele>
        <time>2024-04-13T09:23:17Z</time>
      </trkpt>
      <trkpt lat="47.15255" lon="-1.85122">
        <ele>33.4</ele>
        <time>2024-04-13T09:23:26Z</time>
      </trkpt>
      <trkpt lat="47.1529" lon="-1.85131">
        <ele>34</ele>
        <time>2024-04-13T09:23:34Z</time>
      </trkpt>
      <trkpt lat="47.15321" lon="-1.85141">
        <ele>34</ele>
        <time>2024-04-13T09:23:41Z</time>
      </trkpt>
      <trkpt lat="47.15353" lon="-1.85154">
        <ele>34.4</ele>
        <time>2024-04-13T09:23:48Z</time>
      </trkpt>
      <trkpt lat="47.15387" lon="-1.85181">
        <ele>34.4</ele>
        <time>2024-04-13T09:23:56Z</time>
      </trkpt>
      <trkpt lat="47.15412" lon="-1.85206">
        <ele>34.6</ele>
        <time>2024-04-13T09:24:02Z</time>
      </trkpt>
      <trkpt lat="47.15421" lon="-1.85214">
        <ele>34.8</ele>
        <time>2024-04-13T09:24:04Z</time>
      </trkpt>
      <trkpt lat="47.15425" lon="-1.85218">
        <ele>35</ele>
        <time>2024-04-13T09:24:05Z</time>
      </trkpt>
      <trkpt lat="47.15457" lon="-1.85247">
        <ele>35.4</ele>
        <time>2024-04-13T09:24:13Z</time>
      </trkpt>
      <trkpt lat="47.15486" lon="-1.85277">
        <ele>35.8</ele>
        <time>2024-04-13T09:24:21Z</time>
      </trkpt>
      <trkpt lat="47.155" lon="-1.85294">
        <ele>36</ele>
        <time>2024-04-13T09:24:25Z</time>
      </trkpt>
      <trkpt lat="47.15521" lon="-1.85322">
        <ele>36.4</ele>
        <time>2024-04-13T09:24:31Z</time>
      </trkpt>
      <trkpt lat="47.15549" lon="-1.85365">
        <ele>36.8</ele>
        <time>2024-04-13T09:24:40Z</time>
      </trkpt>
      <trkpt lat="47.15552" lon="-1.85369">
        <ele>36.8</ele>
        <time>2024-04-13T09:24:41Z</time>
      </trkpt>
      <trkpt lat="47.1556" lon="-1.85387">
        <ele>37.4</ele>
        <time>2024-04-13T09:24:44Z</time>
      </trkpt>
      <trkpt lat="47.15562" lon="-1.85393">
        <ele>37.6</ele>
        <time>2024-04-13T09:24:45Z</time>
      </trkpt>
      <trkpt lat="47.15574" lon="-1.85425">
        <ele>37.6</ele>
        <time>2024-04-13T09:24:50Z</time>
      </trkpt>
      <trkpt lat="47.15578" lon="-1.8543">
        <ele>37.4</ele>
        <time>2024-04-13T09:24:51Z</time>
      </trkpt>
      <trkpt lat="47.15584" lon="-1.85441">
        <ele>37.6</ele>
        <time>2024-04-13T09:24:53Z</time>
      </trkpt>
      <trkpt lat="47.15618" lon="-1.85483">
        <ele>37.8</ele>
        <time>2024-04-13T09:25:02Z</time>
      </trkpt>
      <trkpt lat="47.15643" lon="-1.85514">
        <ele>37.6</ele>
        <time>2024-04-13T09:25:09Z</time>
      </trkpt>
      <trkpt lat="47.15664" lon="-1.85539">
        <ele>37.6</ele>
        <time>2024-04-13T09:25:15Z</time>
      </trkpt>
      <trkpt lat="47.15679" lon="-1.85566">
        <ele>36.2</ele>
        <time>2024-04-13T09:25:20Z</time>
      </trkpt>
      <trkpt lat="47.15682" lon="-1.85571">
        <ele>36</ele>
        <time>2024-04-13T09:25:21Z</time>
      </trkpt>
      <trkpt lat="47.15708" lon="-1.85612">
        <ele>36.2</ele>
        <time>2024-04-13T09:25:29Z</time>
      </trkpt>
      <trkpt lat="47.15733" lon="-1.85652">
        <ele>36.8</ele>
        <time>2024-04-13T09:25:37Z</time>
      </trkpt>
      <trkpt lat="47.15763" lon="-1.85696">
        <ele>37.2</ele>
        <time>2024-04-13T09:25:46Z</time>
      </trkpt>
      <trkpt lat="47.15766" lon="-1.85701">
        <ele>37.2</ele>
        <time>2024-04-13T09:25:47Z</time>
      </trkpt>
      <trkpt lat="47.15772" lon="-1.85711">
        <ele>37.2</ele>
        <time>2024-04-13T09:25:49Z</time>
      </trkpt>
      <trkpt lat="47.15783" lon="-1.85729">
        <ele>37.2</ele>
        <time>2024-04-13T09:25:53Z</time>
      </trkpt>
      <trkpt lat="47.15804" lon="-1.8576">
        <ele>38.2</ele>
        <time>2024-04-13T09:26:01Z</time>
      </trkpt>
      <trkpt lat="47.15806" lon="-1.85763">
        <ele>38.2</ele>
        <time>2024-04-13T09:26:02Z</time>
      </trkpt>
      <trkpt lat="47.15815" lon="-1.85777">
        <ele>38.6</ele>
        <time>2024-04-13T09:26:06Z</time>
      </trkpt>
      <trkpt lat="47.15822" lon="-1.85785">
        <ele>38.6</ele>
        <time>2024-04-13T09:26:08Z</time>
      </trkpt>
      <trkpt lat="47.15837" lon="-1.85796">
        <ele>38.4</ele>
        <time>2024-04-13T09:26:12Z</time>
      </trkpt>
      <trkpt lat="47.15866" lon="-1.85812">
        <ele>38</ele>
        <time>2024-04-13T09:26:19Z</time>
      </trkpt>
      <trkpt lat="47.15892" lon="-1.85827">
        <ele>39</ele>
        <time>2024-04-13T09:26:25Z</time>
      </trkpt>
      <trkpt lat="47.15913" lon="-1.85839">
        <ele>37.8</ele>
        <time>2024-04-13T09:26:31Z</time>
      </trkpt>
      <trkpt lat="47.15938" lon="-1.8585">
        <ele>37.6</ele>
        <time>2024-04-13T09:26:37Z</time>
      </trkpt>
      <trkpt lat="47.15947" lon="-1.85855">
        <ele>37.8</ele>
        <time>2024-04-13T09:26:39Z</time>
      </trkpt>
      <trkpt lat="47.15961" lon="-1.85862">
        <ele>37.2</ele>
        <time>2024-04-13T09:26:42Z</time>
      </trkpt>
      <trkpt lat="47.15996" lon="-1.85876">
        <ele>36.6</ele>
        <time>2024-04-13T09:26:48Z</time>
      </trkpt>
      <trkpt lat="47.16009" lon="-1.85878">
        <ele>35.6</ele>
        <time>2024-04-13T09:26:50Z</time>
      </trkpt>
      <trkpt lat="47.16037" lon="-1.85883">
        <ele>34.8</ele>
        <time>2024-04-13T09:26:54Z</time>
      </trkpt>
      <trkpt lat="47.16045" lon="-1.85884">
        <ele>34.6</ele>
        <time>2024-04-13T09:26:55Z</time>
      </trkpt>
      <trkpt lat="47.1608" lon="-1.85886">
        <ele>33.6</ele>
        <time>2024-04-13T09:27:00Z</time>
      </trkpt>
      <trkpt lat="47.16087" lon="-1.85887">
        <ele>33.4</ele>
        <time>2024-04-13T09:27:01Z</time>
      </trkpt>
      <trkpt lat="47.16094" lon="-1.85887">
        <ele>33.2</ele>
        <time>2024-04-13T09:27:02Z</time>
      </trkpt>
      <trkpt lat="47.16115" lon="-1.85879">
        <ele>32.6</ele>
        <time>2024-04-13T09:27:05Z</time>
      </trkpt>
      <trkpt lat="47.16122" lon="-1.85874">
        <ele>32.2</ele>
        <time>2024-04-13T09:27:06Z</time>
      </trkpt>
      <trkpt lat="47.16142" lon="-1.85859">
        <ele>30.8</ele>
        <time>2024-04-13T09:27:09Z</time>
      </trkpt>
      <trkpt lat="47.16148" lon="-1.85855">
        <ele>30.8</ele>
        <time>2024-04-13T09:27:10Z</time>
      </trkpt>
      <trkpt lat="47.16178" lon="-1.85842">
        <ele>30.4</ele>
        <time>2024-04-13T09:27:15Z</time>
      </trkpt>
      <trkpt lat="47.16184" lon="-1.8584">
        <ele>29.8</ele>
        <time>2024-04-13T09:27:16Z</time>
      </trkpt>
      <trkpt lat="47.16212" lon="-1.8583">
        <ele>30</ele>
        <time>2024-04-13T09:27:22Z</time>
      </trkpt>
      <trkpt lat="47.16233" lon="-1.85821">
        <ele>30.8</ele>
        <time>2024-04-13T09:27:28Z</time>
      </trkpt>
      <trkpt lat="47.16236" lon="-1.85819">
        <ele>30.8</ele>
        <time>2024-04-13T09:27:29Z</time>
      </trkpt>
      <trkpt lat="47.16253" lon="-1.8581">
        <ele>31</ele>
        <time>2024-04-13T09:27:34Z</time>
      </trkpt>
      <trkpt lat="47.1627" lon="-1.85804">
        <ele>31.2</ele>
        <time>2024-04-13T09:27:38Z</time>
      </trkpt>
      <trkpt lat="47.16273" lon="-1.858">
        <ele>31.2</ele>
        <time>2024-04-13T09:27:39Z</time>
      </trkpt>
      <trkpt lat="47.16277" lon="-1.8579">
        <ele>31.8</ele>
        <time>2024-04-13T09:27:41Z</time>
      </trkpt>
      <trkpt lat="47.16277" lon="-1.85778">
        <ele>32.4</ele>
        <time>2024-04-13T09:27:43Z</time>
      </trkpt>
      <trkpt lat="47.16273" lon="-1.8576">
        <ele>32.4</ele>
        <time>2024-04-13T09:27:46Z</time>
      </trkpt>
      <trkpt lat="47.16269" lon="-1.85747">
        <ele>32.4</ele>
        <time>2024-04-13T09:27:48Z</time>
      </trkpt>
      <trkpt lat="47.1626" lon="-1.85714">
        <ele>32.4</ele>
        <time>2024-04-13T09:27:53Z</time>
      </trkpt>
      <trkpt lat="47.16247" lon="-1.85671">
        <ele>32.2</ele>
        <time>2024-04-13T09:27:59Z</time>
      </trkpt>
      <trkpt lat="47.16243" lon="-1.85656">
        <ele>31.4</ele>
        <time>2024-04-13T09:28:01Z</time>
      </trkpt>
      <trkpt lat="47.16238" lon="-1.8564">
        <ele>30.6</ele>
        <time>2024-04-13T09:28:03Z</time>
      </trkpt>
      <trkpt lat="47.16234" lon="-1.85622">
        <ele>30.2</ele>
        <time>2024-04-13T09:28:05Z</time>
      </trkpt>
      <trkpt lat="47.16227" lon="-1.85593">
        <ele>29.4</ele>
        <time>2024-04-13T09:28:08Z</time>
      </trkpt>
      <trkpt lat="47.16222" lon="-1.85572">
        <ele>28.4</ele>
        <time>2024-04-13T09:28:10Z</time>
      </trkpt>
      <trkpt lat="47.16221" lon="-1.8556">
        <ele>28</ele>
        <time>2024-04-13T09:28:11Z</time>
      </trkpt>
      <trkpt lat="47.1622" lon="-1.85524">
        <ele>26.8</ele>
        <time>2024-04-13T09:28:14Z</time>
      </trkpt>
      <trkpt lat="47.16221" lon="-1.85512">
        <ele>26.6</ele>
        <time>2024-04-13T09:28:15Z</time>
      </trkpt>
      <trkpt lat="47.16223" lon="-1.85476">
        <ele>25.6</ele>
        <time>2024-04-13T09:28:18Z</time>
      </trkpt>
      <trkpt lat="47.16227" lon="-1.8544">
        <ele>24.6</ele>
        <time>2024-04-13T09:28:21Z</time>
      </trkpt>
      <trkpt lat="47.16229" lon="-1.85428">
        <ele>24.2</ele>
        <time>2024-04-13T09:28:22Z</time>
      </trkpt>
      <trkpt lat="47.16236" lon="-1.85362">
        <ele>23.8</ele>
        <time>2024-04-13T09:28:28Z</time>
      </trkpt>
      <trkpt lat="47.16239" lon="-1.85329">
        <ele>23.6</ele>
        <time>2024-04-13T09:28:32Z</time>
      </trkpt>
      <trkpt lat="47.1624" lon="-1.85321">
        <ele>23.6</ele>
        <time>2024-04-13T09:28:33Z</time>
      </trkpt>
      <trkpt lat="47.16242" lon="-1.85307">
        <ele>23.6</ele>
        <time>2024-04-13T09:28:35Z</time>
      </trkpt>
      <trkpt lat="47.16244" lon="-1.85287">
        <ele>24</ele>
        <time>2024-04-13T09:28:38Z</time>
      </trkpt>
      <trkpt lat="47.16247" lon="-1.85256">
        <ele>24.8</ele>
        <time>2024-04-13T09:28:43Z</time>
      </trkpt>
      <trkpt lat="47.16249" lon="-1.85233">
        <ele>25.6</ele>
        <time>2024-04-13T09:28:47Z</time>
      </trkpt>
      <trkpt lat="47.16252" lon="-1.8521">
        <ele>26</ele>
        <time>2024-04-13T09:28:51Z</time>
      </trkpt>
      <trkpt lat="47.16255" lon="-1.85182">
        <ele>26.6</ele>
        <time>2024-04-13T09:28:56Z</time>
      </trkpt>
      <trkpt lat="47.16256" lon="-1.85177">
        <ele>26.6</ele>
        <time>2024-04-13T09:28:57Z</time>
      </trkpt>
      <trkpt lat="47.16264" lon="-1.85134">
        <ele>27</ele>
        <time>2024-04-13T09:29:04Z</time>
      </trkpt>
      <trkpt lat="47.16273" lon="-1.85097">
        <ele>27</ele>
        <time>2024-04-13T09:29:10Z</time>
      </trkpt>
      <trkpt lat="47.16278" lon="-1.85072">
        <ele>27.4</ele>
        <time>2024-04-13T09:29:14Z</time>
      </trkpt>
      <trkpt lat="47.16284" lon="-1.85043">
        <ele>27.6</ele>
        <time>2024-04-13T09:29:19Z</time>
      </trkpt>
      <trkpt lat="47.16288" lon="-1.85022">
        <ele>27.8</ele>
        <time>2024-04-13T09:29:23Z</time>
      </trkpt>
      <trkpt lat="47.16298" lon="-1.84974">
        <ele>28.8</ele>
        <time>2024-04-13T09:29:32Z</time>
      </trkpt>
      <trkpt lat="47.16302" lon="-1.84956">
        <ele>29.4</ele>
        <time>2024-04-13T09:29:35Z</time>
      </trkpt>
      <trkpt lat="47.16304" lon="-1.84945">
        <ele>29.6</ele>
        <time>2024-04-13T09:29:37Z</time>
      </trkpt>
      <trkpt lat="47.16308" lon="-1.84931">
        <ele>30</ele>
        <time>2024-04-13T09:29:40Z</time>
      </trkpt>
      <trkpt lat="47.16314" lon="-1.84911">
        <ele>30.4</ele>
        <time>2024-04-13T09:29:44Z</time>
      </trkpt>
      <trkpt lat="47.16326" lon="-1.84863">
        <ele>30.6</ele>
        <time>2024-04-13T09:29:53Z</time>
      </trkpt>
      <trkpt lat="47.1633" lon="-1.84853">
        <ele>30.8</ele>
        <time>2024-04-13T09:29:55Z</time>
      </trkpt>
      <trkpt lat="47.16331" lon="-1.84848">
        <ele>31</ele>
        <time>2024-04-13T09:29:56Z</time>
      </trkpt>
      <trkpt lat="47.16335" lon="-1.84836">
        <ele>32</ele>
        <time>2024-04-13T09:29:58Z</time>
      </trkpt>
      <trkpt lat="47.16337" lon="-1.84829">
        <ele>32.2</ele>
        <time>2024-04-13T09:29:59Z</time>
      </trkpt>
      <trkpt lat="47.16342" lon="-1.84811">
        <ele>32.2</ele>
        <time>2024-04-13T09:30:02Z</time>
      </trkpt>
      <trkpt lat="47.16347" lon="-1.84793">
        <ele>32</ele>
        <time>2024-04-13T09:30:05Z</time>
      </trkpt>
      <trkpt lat="47.16361" lon="-1.84753">
        <ele>32.8</ele>
        <time>2024-04-13T09:30:12Z</time>
      </trkpt>
      <trkpt lat="47.16369" lon="-1.8473">
        <ele>33.2</ele>
        <time>2024-04-13T09:30:16Z</time>
      </trkpt>
      <trkpt lat="47.16374" lon="-1.84719">
        <ele>33.2</ele>
        <time>2024-04-13T09:30:18Z</time>
      </trkpt>
      <trkpt lat="47.16387" lon="-1.84684">
        <ele>33.4</ele>
        <time>2024-04-13T09:30:24Z</time>
      </trkpt>
      <trkpt lat="47.164" lon="-1.84652">
        <ele>33</ele>
        <time>2024-04-13T09:30:30Z</time>
      </trkpt>
      <trkpt lat="47.16406" lon="-1.84644">
        <ele>33</ele>
        <time>2024-04-13T09:30:32Z</time>
      </trkpt>
      <trkpt lat="47.16413" lon="-1.84642">
        <ele>32.8</ele>
        <time>2024-04-13T09:30:34Z</time>
      </trkpt>
      <trkpt lat="47.16426" lon="-1.84632">
        <ele>32.4</ele>
        <time>2024-04-13T09:30:38Z</time>
      </trkpt>
      <trkpt lat="47.16437" lon="-1.84608">
        <ele>32</ele>
        <time>2024-04-13T09:30:42Z</time>
      </trkpt>
      <trkpt lat="47.1644" lon="-1.84602">
        <ele>32</ele>
        <time>2024-04-13T09:30:43Z</time>
      </trkpt>
      <trkpt lat="47.16461" lon="-1.84555">
        <ele>31</ele>
        <time>2024-04-13T09:30:50Z</time>
      </trkpt>
      <trkpt lat="47.16492" lon="-1.845">
        <ele>30.4</ele>
        <time>2024-04-13T09:30:58Z</time>
      </trkpt>
      <trkpt lat="47.165" lon="-1.84485">
        <ele>30.2</ele>
        <time>2024-04-13T09:31:00Z</time>
      </trkpt>
      <trkpt lat="47.16508" lon="-1.84469">
        <ele>30</ele>
        <time>2024-04-13T09:31:02Z</time>
      </trkpt>
      <trkpt lat="47.16522" lon="-1.84445">
        <ele>29.6</ele>
        <time>2024-04-13T09:31:05Z</time>
      </trkpt>
      <trkpt lat="47.1653" lon="-1.84428">
        <ele>28.8</ele>
        <time>2024-04-13T09:31:07Z</time>
      </trkpt>
      <trkpt lat="47.16548" lon="-1.84393">
        <ele>28.4</ele>
        <time>2024-04-13T09:31:11Z</time>
      </trkpt>
      <trkpt lat="47.16567" lon="-1.84362">
        <ele>27.8</ele>
        <time>2024-04-13T09:31:15Z</time>
      </trkpt>
      <trkpt lat="47.16581" lon="-1.84341">
        <ele>27</ele>
        <time>2024-04-13T09:31:18Z</time>
      </trkpt>
      <trkpt lat="47.16591" lon="-1.84329">
        <ele>26.8</ele>
        <time>2024-04-13T09:31:20Z</time>
      </trkpt>
      <trkpt lat="47.16618" lon="-1.84303">
        <ele>26</ele>
        <time>2024-04-13T09:31:25Z</time>
      </trkpt>
      <trkpt lat="47.16658" lon="-1.84266">
        <ele>26.4</ele>
        <time>2024-04-13T09:31:33Z</time>
      </trkpt>
      <trkpt lat="47.16691" lon="-1.84233">
        <ele>28</ele>
        <time>2024-04-13T09:31:41Z</time>
      </trkpt>
      <trkpt lat="47.16728" lon="-1.84199">
        <ele>29</ele>
        <time>2024-04-13T09:31:50Z</time>
      </trkpt>
      <trkpt lat="47.16737" lon="-1.84191">
        <ele>29.2</ele>
        <time>2024-04-13T09:31:52Z</time>
      </trkpt>
      <trkpt lat="47.16757" lon="-1.8417">
        <ele>29</ele>
        <time>2024-04-13T09:31:57Z</time>
      </trkpt>
      <trkpt lat="47.16772" lon="-1.84152">
        <ele>28.2</ele>
        <time>2024-04-13T09:32:01Z</time>
      </trkpt>
      <trkpt lat="47.16797" lon="-1.84119">
        <ele>28.8</ele>
        <time>2024-04-13T09:32:08Z</time>
      </trkpt>
      <trkpt lat="47.168" lon="-1.84114">
        <ele>30.2</ele>
        <time>2024-04-13T09:32:09Z</time>
      </trkpt>
      <trkpt lat="47.16818" lon="-1.84082">
        <ele>31.2</ele>
        <time>2024-04-13T09:32:15Z</time>
      </trkpt>
      <trkpt lat="47.16822" lon="-1.84077">
        <ele>31.2</ele>
        <time>2024-04-13T09:32:16Z</time>
      </trkpt>
      <trkpt lat="47.16825" lon="-1.84071">
        <ele>31.2</ele>
        <time>2024-04-13T09:32:17Z</time>
      </trkpt>
      <trkpt lat="47.16834" lon="-1.84055">
        <ele>31.4</ele>
        <time>2024-04-13T09:32:20Z</time>
      </trkpt>
      <trkpt lat="47.16837" lon="-1.8405">
        <ele>31.2</ele>
        <time>2024-04-13T09:32:21Z</time>
      </trkpt>
      <trkpt lat="47.16859" lon="-1.84012">
        <ele>31.6</ele>
        <time>2024-04-13T09:32:28Z</time>
      </trkpt>
      <trkpt lat="47.16891" lon="-1.8396">
        <ele>31.6</ele>
        <time>2024-04-13T09:32:37Z</time>
      </trkpt>
      <trkpt lat="47.16904" lon="-1.83937">
        <ele>32.6</ele>
        <time>2024-04-13T09:32:41Z</time>
      </trkpt>
      <trkpt lat="47.16908" lon="-1.83931">
        <ele>32.6</ele>
        <time>2024-04-13T09:32:42Z</time>
      </trkpt>
      <trkpt lat="47.16929" lon="-1.83896">
        <ele>32.8</ele>
        <time>2024-04-13T09:32:48Z</time>
      </trkpt>
      <trkpt lat="47.16949" lon="-1.83855">
        <ele>32.2</ele>
        <time>2024-04-13T09:32:55Z</time>
      </trkpt>
      <trkpt lat="47.16956" lon="-1.83838">
        <ele>32</ele>
        <time>2024-04-13T09:32:58Z</time>
      </trkpt>
      <trkpt lat="47.1696" lon="-1.83827">
        <ele>31.8</ele>
        <time>2024-04-13T09:33:00Z</time>
      </trkpt>
      <trkpt lat="47.16965" lon="-1.83816">
        <ele>30.6</ele>
        <time>2024-04-13T09:33:02Z</time>
      </trkpt>
      <trkpt lat="47.16966" lon="-1.8381">
        <ele>30.6</ele>
        <time>2024-04-13T09:33:03Z</time>
      </trkpt>
      <trkpt lat="47.16967" lon="-1.83796">
        <ele>30.4</ele>
        <time>2024-04-13T09:33:05Z</time>
      </trkpt>
      <trkpt lat="47.16967" lon="-1.83789">
        <ele>30.4</ele>
        <time>2024-04-13T09:33:06Z</time>
      </trkpt>
      <trkpt lat="47.16965" lon="-1.83782">
        <ele>30.4</ele>
        <time>2024-04-13T09:33:07Z</time>
      </trkpt>
      <trkpt lat="47.1696" lon="-1.83769">
        <ele>30.2</ele>
        <time>2024-04-13T09:33:09Z</time>
      </trkpt>
      <trkpt lat="47.16958" lon="-1.83763">
        <ele>30.2</ele>
        <time>2024-04-13T09:33:10Z</time>
      </trkpt>
      <trkpt lat="47.16948" lon="-1.83741">
        <ele>30.6</ele>
        <time>2024-04-13T09:33:14Z</time>
      </trkpt>
      <trkpt lat="47.16943" lon="-1.83728">
        <ele>32</ele>
        <time>2024-04-13T09:33:16Z</time>
      </trkpt>
      <trkpt lat="47.16923" lon="-1.83688">
        <ele>32.6</ele>
        <time>2024-04-13T09:33:23Z</time>
      </trkpt>
      <trkpt lat="47.16913" lon="-1.83666">
        <ele>33</ele>
        <time>2024-04-13T09:33:27Z</time>
      </trkpt>
      <trkpt lat="47.169" lon="-1.83644">
        <ele>33.4</ele>
        <time>2024-04-13T09:33:31Z</time>
      </trkpt>
      <trkpt lat="47.16878" lon="-1.83605">
        <ele>33.4</ele>
        <time>2024-04-13T09:33:38Z</time>
      </trkpt>
      <trkpt lat="47.16854" lon="-1.83566">
        <ele>33.2</ele>
        <time>2024-04-13T09:33:45Z</time>
      </trkpt>
      <trkpt lat="47.16834" lon="-1.83529">
        <ele>32.4</ele>
        <time>2024-04-13T09:33:51Z</time>
      </trkpt>
      <trkpt lat="47.16817" lon="-1.8348">
        <ele>32</ele>
        <time>2024-04-13T09:33:58Z</time>
      </trkpt>
      <trkpt lat="47.16799" lon="-1.83427">
        <ele>31.4</ele>
        <time>2024-04-13T09:34:05Z</time>
      </trkpt>
      <trkpt lat="47.16789" lon="-1.83396">
        <ele>30.8</ele>
        <time>2024-04-13T09:34:09Z</time>
      </trkpt>
      <trkpt lat="47.16773" lon="-1.83354">
        <ele>29.8</ele>
        <time>2024-04-13T09:34:14Z</time>
      </trkpt>
      <trkpt lat="47.16757" lon="-1.83319">
        <ele>28.8</ele>
        <time>2024-04-13T09:34:18Z</time>
      </trkpt>
      <trkpt lat="47.16747" lon="-1.83302">
        <ele>28.2</ele>
        <time>2024-04-13T09:34:20Z</time>
      </trkpt>
      <trkpt lat="47.16741" lon="-1.83294">
        <ele>27.8</ele>
        <time>2024-04-13T09:34:21Z</time>
      </trkpt>
      <trkpt lat="47.16721" lon="-1.83272">
        <ele>26.6</ele>
        <time>2024-04-13T09:34:24Z</time>
      </trkpt>
      <trkpt lat="47.16713" lon="-1.83265">
        <ele>26.4</ele>
        <time>2024-04-13T09:34:25Z</time>
      </trkpt>
      <trkpt lat="47.16697" lon="-1.83252">
        <ele>25.6</ele>
        <time>2024-04-13T09:34:27Z</time>
      </trkpt>
      <trkpt lat="47.16681" lon="-1.83238">
        <ele>24</ele>
        <time>2024-04-13T09:34:29Z</time>
      </trkpt>
      <trkpt lat="47.16664" lon="-1.83225">
        <ele>23</ele>
        <time>2024-04-13T09:34:31Z</time>
      </trkpt>
      <trkpt lat="47.16656" lon="-1.83218">
        <ele>22.8</ele>
        <time>2024-04-13T09:34:32Z</time>
      </trkpt>
      <trkpt lat="47.16642" lon="-1.83196">
        <ele>22.2</ele>
        <time>2024-04-13T09:34:34Z</time>
      </trkpt>
      <trkpt lat="47.1664" lon="-1.83183">
        <ele>22</ele>
        <time>2024-04-13T09:34:35Z</time>
      </trkpt>
      <trkpt lat="47.1664" lon="-1.83169">
        <ele>21.4</ele>
        <time>2024-04-13T09:34:36Z</time>
      </trkpt>
      <trkpt lat="47.16644" lon="-1.83154">
        <ele>21</ele>
        <time>2024-04-13T09:34:37Z</time>
      </trkpt>
      <trkpt lat="47.16649" lon="-1.83141">
        <ele>20</ele>
        <time>2024-04-13T09:34:38Z</time>
      </trkpt>
      <trkpt lat="47.16665" lon="-1.83122">
        <ele>17.6</ele>
        <time>2024-04-13T09:34:40Z</time>
      </trkpt>
      <trkpt lat="47.16681" lon="-1.83103">
        <ele>16.6</ele>
        <time>2024-04-13T09:34:42Z</time>
      </trkpt>
      <trkpt lat="47.16687" lon="-1.8309">
        <ele>15.2</ele>
        <time>2024-04-13T09:34:43Z</time>
      </trkpt>
      <trkpt lat="47.16691" lon="-1.83074">
        <ele>13.8</ele>
        <time>2024-04-13T09:34:44Z</time>
      </trkpt>
      <trkpt lat="47.16688" lon="-1.83043">
        <ele>13.4</ele>
        <time>2024-04-13T09:34:46Z</time>
      </trkpt>
      <trkpt lat="47.16683" lon="-1.83028">
        <ele>12.4</ele>
        <time>2024-04-13T09:34:47Z</time>
      </trkpt>
      <trkpt lat="47.16678" lon="-1.83014">
        <ele>11.6</ele>
        <time>2024-04-13T09:34:48Z</time>
      </trkpt>
      <trkpt lat="47.16672" lon="-1.83">
        <ele>11.4</ele>
        <time>2024-04-13T09:34:49Z</time>
      </trkpt>
      <trkpt lat="47.16666" lon="-1.82985">
        <ele>11.2</ele>
        <time>2024-04-13T09:34:50Z</time>
      </trkpt>
      <trkpt lat="47.16644" lon="-1.8293">
        <ele>10.2</ele>
        <time>2024-04-13T09:34:54Z</time>
      </trkpt>
      <trkpt lat="47.16622" lon="-1.82877">
        <ele>9.4</ele>
        <time>2024-04-13T09:34:58Z</time>
      </trkpt>
      <trkpt lat="47.16617" lon="-1.82865">
        <ele>9</ele>
        <time>2024-04-13T09:34:59Z</time>
      </trkpt>
      <trkpt lat="47.166" lon="-1.82823">
        <ele>8</ele>
        <time>2024-04-13T09:35:03Z</time>
      </trkpt>
      <trkpt lat="47.16586" lon="-1.8279">
        <ele>6.8</ele>
        <time>2024-04-13T09:35:07Z</time>
      </trkpt>
      <trkpt lat="47.1658" lon="-1.82775">
        <ele>6.4</ele>
        <time>2024-04-13T09:35:09Z</time>
      </trkpt>
      <trkpt lat="47.16565" lon="-1.82736">
        <ele>6.2</ele>
        <time>2024-04-13T09:35:14Z</time>
      </trkpt>
      <trkpt lat="47.16555" lon="-1.82713">
        <ele>6.6</ele>
        <time>2024-04-13T09:35:18Z</time>
      </trkpt>
      <trkpt lat="47.16552" lon="-1.82709">
        <ele>6.8</ele>
        <time>2024-04-13T09:35:19Z</time>
      </trkpt>
      <trkpt lat="47.16549" lon="-1.82705">
        <ele>7.2</ele>
        <time>2024-04-13T09:35:20Z</time>
      </trkpt>
      <trkpt lat="47.16538" lon="-1.82695">
        <ele>7.6</ele>
        <time>2024-04-13T09:35:24Z</time>
      </trkpt>
      <trkpt lat="47.16535" lon="-1.82694">
        <ele>8</ele>
        <time>2024-04-13T09:35:25Z</time>
      </trkpt>
      <trkpt lat="47.16517" lon="-1.82691">
        <ele>9.2</ele>
        <time>2024-04-13T09:35:31Z</time>
      </trkpt>
      <trkpt lat="47.16502" lon="-1.82691">
        <ele>10.2</ele>
        <time>2024-04-13T09:35:36Z</time>
      </trkpt>
      <trkpt lat="47.16493" lon="-1.82692">
        <ele>10.6</ele>
        <time>2024-04-13T09:35:39Z</time>
      </trkpt>
      <trkpt lat="47.16484" lon="-1.82693">
        <ele>11.4</ele>
        <time>2024-04-13T09:35:42Z</time>
      </trkpt>
      <trkpt lat="47.16465" lon="-1.82693">
        <ele>12.2</ele>
        <time>2024-04-13T09:35:48Z</time>
      </trkpt>
      <trkpt lat="47.16461" lon="-1.82693">
        <ele>12.8</ele>
        <time>2024-04-13T09:35:49Z</time>
      </trkpt>
      <trkpt lat="47.16443" lon="-1.82694">
        <ele>13.8</ele>
        <time>2024-04-13T09:35:55Z</time>
      </trkpt>
      <trkpt lat="47.16437" lon="-1.82694">
        <ele>14</ele>
        <time>2024-04-13T09:35:57Z</time>
      </trkpt>
      <trkpt lat="47.16427" lon="-1.82693">
        <ele>14.8</ele>
        <time>2024-04-13T09:36:01Z</time>
      </trkpt>
      <trkpt lat="47.1642" lon="-1.82689">
        <ele>15.2</ele>
        <time>2024-04-13T09:36:04Z</time>
      </trkpt>
      <trkpt lat="47.16417" lon="-1.82687">
        <ele>15.4</ele>
        <time>2024-04-13T09:36:05Z</time>
      </trkpt>
      <trkpt lat="47.16408" lon="-1.82678">
        <ele>16</ele>
        <time>2024-04-13T09:36:09Z</time>
      </trkpt>
      <trkpt lat="47.16403" lon="-1.82668">
        <ele>16.4</ele>
        <time>2024-04-13T09:36:12Z</time>
      </trkpt>
      <trkpt lat="47.164" lon="-1.82653">
        <ele>17</ele>
        <time>2024-04-13T09:36:16Z</time>
      </trkpt>
      <trkpt lat="47.164" lon="-1.8265">
        <ele>17.2</ele>
        <time>2024-04-13T09:36:17Z</time>
      </trkpt>
      <trkpt lat="47.16401" lon="-1.82642">
        <ele>17.2</ele>
        <time>2024-04-13T09:36:19Z</time>
      </trkpt>
      <trkpt lat="47.16404" lon="-1.82619">
        <ele>18.2</ele>
        <time>2024-04-13T09:36:25Z</time>
      </trkpt>
      <trkpt lat="47.16405" lon="-1.82612">
        <ele>18.6</ele>
        <time>2024-04-13T09:36:27Z</time>
      </trkpt>
      <trkpt lat="47.16409" lon="-1.8259">
        <ele>19.4</ele>
        <time>2024-04-13T09:36:33Z</time>
      </trkpt>
      <trkpt lat="47.1641" lon="-1.82583">
        <ele>19.8</ele>
        <time>2024-04-13T09:36:35Z</time>
      </trkpt>
      <trkpt lat="47.16413" lon="-1.82562">
        <ele>20.6</ele>
        <time>2024-04-13T09:36:41Z</time>
      </trkpt>
      <trkpt lat="47.16414" lon="-1.82558">
        <ele>21</ele>
        <time>2024-04-13T09:36:42Z</time>
      </trkpt>
      <trkpt lat="47.16418" lon="-1.82532">
        <ele>21.8</ele>
        <time>2024-04-13T09:36:49Z</time>
      </trkpt>
      <trkpt lat="47.16418" lon="-1.82524">
        <ele>22.2</ele>
        <time>2024-04-13T09:36:51Z</time>
      </trkpt>
      <trkpt lat="47.16419" lon="-1.82509">
        <ele>22.8</ele>
        <time>2024-04-13T09:36:56Z</time>
      </trkpt>
      <trkpt lat="47.1642" lon="-1.82495">
        <ele>23.4</ele>
        <time>2024-04-13T09:37:00Z</time>
      </trkpt>
      <trkpt lat="47.16419" lon="-1.82485">
        <ele>24</ele>
        <time>2024-04-13T09:37:03Z</time>
      </trkpt>
      <trkpt lat="47.16416" lon="-1.82467">
        <ele>24.4</ele>
        <time>2024-04-13T09:37:08Z</time>
      </trkpt>
      <trkpt lat="47.16414" lon="-1.82457">
        <ele>25</ele>
        <time>2024-04-13T09:37:11Z</time>
      </trkpt>
      <trkpt lat="47.16408" lon="-1.82435">
        <ele>25.4</ele>
        <time>2024-04-13T09:37:17Z</time>
      </trkpt>
      <trkpt lat="47.16404" lon="-1.82416">
        <ele>26</ele>
        <time>2024-04-13T09:37:22Z</time>
      </trkpt>
      <trkpt lat="47.164" lon="-1.824">
        <ele>26.2</ele>
        <time>2024-04-13T09:37:26Z</time>
      </trkpt>
      <trkpt lat="47.16387" lon="-1.82352">
        <ele>26.8</ele>
        <time>2024-04-13T09:37:37Z</time>
      </trkpt>
      <trkpt lat="47.16383" lon="-1.82331">
        <ele>27</ele>
        <time>2024-04-13T09:37:41Z</time>
      </trkpt>
      <trkpt lat="47.16376" lon="-1.82301">
        <ele>27.4</ele>
        <time>2024-04-13T09:37:47Z</time>
      </trkpt>
      <trkpt lat="47.16369" lon="-1.82273">
        <ele>28</ele>
        <time>2024-04-13T09:37:52Z</time>
      </trkpt>
      <trkpt lat="47.16366" lon="-1.82262">
        <ele>28.2</ele>
        <time>2024-04-13T09:37:54Z</time>
      </trkpt>
      <trkpt lat="47.16358" lon="-1.82229">
        <ele>28.6</ele>
        <time>2024-04-13T09:38:00Z</time>
      </trkpt>
      <trkpt lat="47.16353" lon="-1.82206">
        <ele>28.8</ele>
        <time>2024-04-13T09:38:04Z</time>
      </trkpt>
      <trkpt lat="47.16352" lon="-1.82199">
        <ele>28.8</ele>
        <time>2024-04-13T09:38:05Z</time>
      </trkpt>
      <trkpt lat="47.16339" lon="-1.82149">
        <ele>28.8</ele>
        <time>2024-04-13T09:38:14Z</time>
      </trkpt>
      <trkpt lat="47.16331" lon="-1.82123">
        <ele>28.4</ele>
        <time>2024-04-13T09:38:19Z</time>
      </trkpt>
      <trkpt lat="47.16331" lon="-1.82112">
        <ele>28.4</ele>
        <time>2024-04-13T09:38:21Z</time>
      </trkpt>
      <trkpt lat="47.16334" lon="-1.82108">
        <ele>28.4</ele>
        <time>2024-04-13T09:38:22Z</time>
      </trkpt>
      <trkpt lat="47.16341" lon="-1.82102">
        <ele>28.2</ele>
        <time>2024-04-13T09:38:24Z</time>
      </trkpt>
      <trkpt lat="47.16349" lon="-1.82097">
        <ele>28.2</ele>
        <time>2024-04-13T09:38:26Z</time>
      </trkpt>
      <trkpt lat="47.1638" lon="-1.82074">
        <ele>29.2</ele>
        <time>2024-04-13T09:38:33Z</time>
      </trkpt>
      <trkpt lat="47.16388" lon="-1.82067">
        <ele>29.4</ele>
        <time>2024-04-13T09:38:35Z</time>
      </trkpt>
      <trkpt lat="47.16419" lon="-1.82041">
        <ele>29</ele>
        <time>2024-04-13T09:38:42Z</time>
      </trkpt>
      <trkpt lat="47.1645" lon="-1.82023">
        <ele>29.4</ele>
        <time>2024-04-13T09:38:49Z</time>
      </trkpt>
      <trkpt lat="47.16469" lon="-1.82013">
        <ele>29</ele>
        <time>2024-04-13T09:38:54Z</time>
      </trkpt>
      <trkpt lat="47.16474" lon="-1.82016">
        <ele>28.8</ele>
        <time>2024-04-13T09:38:56Z</time>
      </trkpt>
      <trkpt lat="47.16475" lon="-1.82018">
        <ele>28.8</ele>
        <time>2024-04-13T09:38:57Z</time>
      </trkpt>
      <trkpt lat="47.16485" lon="-1.82038">
        <ele>29</ele>
        <time>2024-04-13T09:39:03Z</time>
      </trkpt>
      <trkpt lat="47.16489" lon="-1.82053">
        <ele>29.2</ele>
        <time>2024-04-13T09:39:09Z</time>
      </trkpt>
      <trkpt lat="47.16492" lon="-1.82058">
        <ele>29.4</ele>
        <time>2024-04-13T09:39:14Z</time>
      </trkpt>
      <trkpt lat="47.16492" lon="-1.82061">
        <ele>29.4</ele>
        <time>2024-04-13T09:39:18Z</time>
      </trkpt>
      <trkpt lat="47.16497" lon="-1.82071">
        <ele>29.2</ele>
        <time>2024-04-13T09:39:31Z</time>
      </trkpt>
      <trkpt lat="47.16498" lon="-1.82073">
        <ele>29.2</ele>
        <time>2024-04-13T09:39:32Z</time>
      </trkpt>
      <trkpt lat="47.16504" lon="-1.82086">
        <ele>29.4</ele>
        <time>2024-04-13T09:39:37Z</time>
      </trkpt>
      <trkpt lat="47.16508" lon="-1.821">
        <ele>29.4</ele>
        <time>2024-04-13T09:39:43Z</time>
      </trkpt>
      <trkpt lat="47.16513" lon="-1.82114">
        <ele>29.6</ele>
        <time>2024-04-13T09:39:51Z</time>
      </trkpt>
      <trkpt lat="47.16513" lon="-1.82117">
        <ele>29.6</ele>
        <time>2024-04-13T09:39:57Z</time>
      </trkpt>
      <trkpt lat="47.16514" lon="-1.82125">
        <ele>29.8</ele>
        <time>2024-04-13T09:40:02Z</time>
      </trkpt>
      <trkpt lat="47.16514" lon="-1.82126">
        <ele>29.8</ele>
        <time>2024-04-13T09:40:03Z</time>
      </trkpt>
      <trkpt lat="47.16516" lon="-1.82129">
        <ele>29.8</ele>
        <time>2024-04-13T09:40:05Z</time>
      </trkpt>
      <trkpt lat="47.16518" lon="-1.82132">
        <ele>29.6</ele>
        <time>2024-04-13T09:40:09Z</time>
      </trkpt>
      <trkpt lat="47.16519" lon="-1.82133">
        <ele>29.8</ele>
        <time>2024-04-13T09:40:10Z</time>
      </trkpt>
      <trkpt lat="47.16488" lon="-1.82048">
        <ele>29.6</ele>
        <time>2024-04-13T09:41:48Z</time>
      </trkpt>
      <trkpt lat="47.16486" lon="-1.82044">
        <ele>29.6</ele>
        <time>2024-04-13T09:41:50Z</time>
      </trkpt>
      <trkpt lat="47.16477" lon="-1.82024">
        <ele>29.6</ele>
        <time>2024-04-13T09:41:57Z</time>
      </trkpt>
      <trkpt lat="47.16476" lon="-1.82011">
        <ele>29.4</ele>
        <time>2024-04-13T09:42:03Z</time>
      </trkpt>
      <trkpt lat="47.16477" lon="-1.82011">
        <ele>29.4</ele>
        <time>2024-04-13T09:42:04Z</time>
      </trkpt>
      <trkpt lat="47.16483" lon="-1.82006">
        <ele>29</ele>
        <time>2024-04-13T09:42:08Z</time>
      </trkpt>
      <trkpt lat="47.16497" lon="-1.81997">
        <ele>28.6</ele>
        <time>2024-04-13T09:42:14Z</time>
      </trkpt>
      <trkpt lat="47.16508" lon="-1.8199">
        <ele>28.6</ele>
        <time>2024-04-13T09:42:19Z</time>
      </trkpt>
      <trkpt lat="47.1651" lon="-1.81989">
        <ele>28.6</ele>
        <time>2024-04-13T09:42:20Z</time>
      </trkpt>
      <trkpt lat="47.1652" lon="-1.81983">
        <ele>28.4</ele>
        <time>2024-04-13T09:42:24Z</time>
      </trkpt>
      <trkpt lat="47.1653" lon="-1.81976">
        <ele>28.2</ele>
        <time>2024-04-13T09:42:28Z</time>
      </trkpt>
      <trkpt lat="47.16533" lon="-1.81974">
        <ele>28</ele>
        <time>2024-04-13T09:42:29Z</time>
      </trkpt>
      <trkpt lat="47.16549" lon="-1.81964">
        <ele>27.6</ele>
        <time>2024-04-13T09:42:35Z</time>
      </trkpt>
      <trkpt lat="47.16554" lon="-1.81961">
        <ele>27.4</ele>
        <time>2024-04-13T09:42:37Z</time>
      </trkpt>
      <trkpt lat="47.16565" lon="-1.81952">
        <ele>27.2</ele>
        <time>2024-04-13T09:42:41Z</time>
      </trkpt>
      <trkpt lat="47.16568" lon="-1.8195">
        <ele>27.2</ele>
        <time>2024-04-13T09:42:42Z</time>
      </trkpt>
      <trkpt lat="47.1658" lon="-1.8194">
        <ele>26.8</ele>
        <time>2024-04-13T09:42:46Z</time>
      </trkpt>
      <trkpt lat="47.16591" lon="-1.81935">
        <ele>26</ele>
        <time>2024-04-13T09:42:50Z</time>
      </trkpt>
      <trkpt lat="47.16593" lon="-1.81934">
        <ele>26</ele>
        <time>2024-04-13T09:42:51Z</time>
      </trkpt>
      <trkpt lat="47.16603" lon="-1.81928">
        <ele>25.6</ele>
        <time>2024-04-13T09:42:56Z</time>
      </trkpt>
      <trkpt lat="47.16604" lon="-1.81927">
        <ele>25.6</ele>
        <time>2024-04-13T09:42:57Z</time>
      </trkpt>
      <trkpt lat="47.16618" lon="-1.8192">
        <ele>25.2</ele>
        <time>2024-04-13T09:43:04Z</time>
      </trkpt>
      <trkpt lat="47.16625" lon="-1.81913">
        <ele>25</ele>
        <time>2024-04-13T09:43:08Z</time>
      </trkpt>
      <trkpt lat="47.16629" lon="-1.81907">
        <ele>24.8</ele>
        <time>2024-04-13T09:43:10Z</time>
      </trkpt>
      <trkpt lat="47.16639" lon="-1.81899">
        <ele>24.6</ele>
        <time>2024-04-13T09:43:16Z</time>
      </trkpt>
      <trkpt lat="47.16657" lon="-1.81887">
        <ele>24.4</ele>
        <time>2024-04-13T09:43:23Z</time>
      </trkpt>
      <trkpt lat="47.16669" lon="-1.8188">
        <ele>24</ele>
        <time>2024-04-13T09:43:27Z</time>
      </trkpt>
      <trkpt lat="47.1668" lon="-1.81875">
        <ele>23.6</ele>
        <time>2024-04-13T09:43:30Z</time>
      </trkpt>
      <trkpt lat="47.16699" lon="-1.81869">
        <ele>22.8</ele>
        <time>2024-04-13T09:43:35Z</time>
      </trkpt>
      <trkpt lat="47.1671" lon="-1.81866">
        <ele>22.6</ele>
        <time>2024-04-13T09:43:38Z</time>
      </trkpt>
      <trkpt lat="47.16726" lon="-1.81863">
        <ele>22.2</ele>
        <time>2024-04-13T09:43:42Z</time>
      </trkpt>
      <trkpt lat="47.16739" lon="-1.81862">
        <ele>22.2</ele>
        <time>2024-04-13T09:43:45Z</time>
      </trkpt>
      <trkpt lat="47.16743" lon="-1.81861">
        <ele>22</ele>
        <time>2024-04-13T09:43:46Z</time>
      </trkpt>
      <trkpt lat="47.1676" lon="-1.81861">
        <ele>21.6</ele>
        <time>2024-04-13T09:43:50Z</time>
      </trkpt>
      <trkpt lat="47.16769" lon="-1.8186">
        <ele>21.4</ele>
        <time>2024-04-13T09:43:52Z</time>
      </trkpt>
      <trkpt lat="47.1679" lon="-1.81864">
        <ele>20.6</ele>
        <time>2024-04-13T09:43:56Z</time>
      </trkpt>
      <trkpt lat="47.16796" lon="-1.81865">
        <ele>20.4</ele>
        <time>2024-04-13T09:43:57Z</time>
      </trkpt>
      <trkpt lat="47.16802" lon="-1.81867">
        <ele>19.2</ele>
        <time>2024-04-13T09:43:58Z</time>
      </trkpt>
      <trkpt lat="47.16845" lon="-1.81877">
        <ele>19</ele>
        <time>2024-04-13T09:44:05Z</time>
      </trkpt>
      <trkpt lat="47.16856" lon="-1.81879">
        <ele>18.8</ele>
        <time>2024-04-13T09:44:08Z</time>
      </trkpt>
      <trkpt lat="47.1686" lon="-1.81876">
        <ele>18.2</ele>
        <time>2024-04-13T09:44:11Z</time>
      </trkpt>
      <trkpt lat="47.16861" lon="-1.81874">
        <ele>18.2</ele>
        <time>2024-04-13T09:44:12Z</time>
      </trkpt>
      <trkpt lat="47.16861" lon="-1.81872">
        <ele>18.2</ele>
        <time>2024-04-13T09:44:13Z</time>
      </trkpt>
      <trkpt lat="47.16861" lon="-1.8187">
        <ele>18.2</ele>
        <time>2024-04-13T09:44:14Z</time>
      </trkpt>
      <trkpt lat="47.16858" lon="-1.81869">
        <ele>18.2</ele>
        <time>2024-04-13T09:44:17Z</time>
      </trkpt>
      <trkpt lat="47.16859" lon="-1.81871">
        <ele>18.4</ele>
        <time>2024-04-13T09:44:19Z</time>
      </trkpt>
      <trkpt lat="47.16859" lon="-1.81875">
        <ele>18.4</ele>
        <time>2024-04-13T09:44:21Z</time>
      </trkpt>
      <trkpt lat="47.1686" lon="-1.81877">
        <ele>18.4</ele>
        <time>2024-04-13T09:44:22Z</time>
      </trkpt>
      <trkpt lat="47.1686" lon="-1.81881">
        <ele>18.2</ele>
        <time>2024-04-13T09:44:24Z</time>
      </trkpt>
      <trkpt lat="47.1686" lon="-1.81886">
        <ele>17.8</ele>
        <time>2024-04-13T09:44:28Z</time>
      </trkpt>
      <trkpt lat="47.1686" lon="-1.81886">
        <ele>17.8</ele>
        <time>2024-04-13T09:44:29Z</time>
      </trkpt>
      <trkpt lat="47.16857" lon="-1.81881">
        <ele>18</ele>
        <time>2024-04-13T09:44:35Z</time>
      </trkpt>
      <trkpt lat="47.16858" lon="-1.81875">
        <ele>18.2</ele>
        <time>2024-04-13T09:44:37Z</time>
      </trkpt>
      <trkpt lat="47.16858" lon="-1.81855">
        <ele>18.2</ele>
        <time>2024-04-13T09:44:43Z</time>
      </trkpt>
      <trkpt lat="47.16858" lon="-1.81848">
        <ele>18.2</ele>
        <time>2024-04-13T09:44:48Z</time>
      </trkpt>
      <trkpt lat="47.16858" lon="-1.81848">
        <ele>18.2</ele>
        <time>2024-04-13T09:44:50Z</time>
      </trkpt>
      <trkpt lat="47.16858" lon="-1.81842">
        <ele>17.6</ele>
        <time>2024-04-13T09:45:28Z</time>
      </trkpt>
      <trkpt lat="47.16858" lon="-1.81838">
        <ele>17.6</ele>
        <time>2024-04-13T09:45:29Z</time>
      </trkpt>
      <trkpt lat="47.16855" lon="-1.81809">
        <ele>17.8</ele>
        <time>2024-04-13T09:45:36Z</time>
      </trkpt>
      <trkpt lat="47.16854" lon="-1.81804">
        <ele>17.8</ele>
        <time>2024-04-13T09:45:37Z</time>
      </trkpt>
      <trkpt lat="47.16854" lon="-1.818">
        <ele>17.8</ele>
        <time>2024-04-13T09:45:38Z</time>
      </trkpt>
      <trkpt lat="47.16854" lon="-1.81795">
        <ele>17.8</ele>
        <time>2024-04-13T09:45:39Z</time>
      </trkpt>
      <trkpt lat="47.16852" lon="-1.81771">
        <ele>17.2</ele>
        <time>2024-04-13T09:45:44Z</time>
      </trkpt>
      <trkpt lat="47.16852" lon="-1.81765">
        <ele>17</ele>
        <time>2024-04-13T09:45:45Z</time>
      </trkpt>
      <trkpt lat="47.16854" lon="-1.8175">
        <ele>16.6</ele>
        <time>2024-04-13T09:45:50Z</time>
      </trkpt>
      <trkpt lat="47.16854" lon="-1.81749">
        <ele>16.4</ele>
        <time>2024-04-13T09:45:51Z</time>
      </trkpt>
      <trkpt lat="47.16855" lon="-1.81741">
        <ele>16.2</ele>
        <time>2024-04-13T09:46:55Z</time>
      </trkpt>
      <trkpt lat="47.16856" lon="-1.81734">
        <ele>16.2</ele>
        <time>2024-04-13T09:46:57Z</time>
      </trkpt>
      <trkpt lat="47.16858" lon="-1.81704">
        <ele>16</ele>
        <time>2024-04-13T09:47:02Z</time>
      </trkpt>
      <trkpt lat="47.16857" lon="-1.81691">
        <ele>15.2</ele>
        <time>2024-04-13T09:47:04Z</time>
      </trkpt>
      <trkpt lat="47.16859" lon="-1.81656">
        <ele>14</ele>
        <time>2024-04-13T09:47:09Z</time>
      </trkpt>
      <trkpt lat="47.1686" lon="-1.81649">
        <ele>13.8</ele>
        <time>2024-04-13T09:47:10Z</time>
      </trkpt>
      <trkpt lat="47.16865" lon="-1.81637">
        <ele>12.6</ele>
        <time>2024-04-13T09:47:12Z</time>
      </trkpt>
      <trkpt lat="47.16868" lon="-1.8163">
        <ele>12.4</ele>
        <time>2024-04-13T09:47:13Z</time>
      </trkpt>
      <trkpt lat="47.16876" lon="-1.81612">
        <ele>11.4</ele>
        <time>2024-04-13T09:47:15Z</time>
      </trkpt>
      <trkpt lat="47.16884" lon="-1.81592">
        <ele>10</ele>
        <time>2024-04-13T09:47:17Z</time>
      </trkpt>
      <trkpt lat="47.16889" lon="-1.81573">
        <ele>9.8</ele>
        <time>2024-04-13T09:47:19Z</time>
      </trkpt>
      <trkpt lat="47.16892" lon="-1.81558">
        <ele>8.4</ele>
        <time>2024-04-13T09:47:21Z</time>
      </trkpt>
      <trkpt lat="47.16897" lon="-1.81544">
        <ele>6.8</ele>
        <time>2024-04-13T09:47:24Z</time>
      </trkpt>
      <trkpt lat="47.16901" lon="-1.81542">
        <ele>6.4</ele>
        <time>2024-04-13T09:47:25Z</time>
      </trkpt>
      <trkpt lat="47.16908" lon="-1.81541">
        <ele>5.8</ele>
        <time>2024-04-13T09:47:27Z</time>
      </trkpt>
      <trkpt lat="47.16917" lon="-1.81539">
        <ele>5.6</ele>
        <time>2024-04-13T09:47:29Z</time>
      </trkpt>
      <trkpt lat="47.16927" lon="-1.81539">
        <ele>5.4</ele>
        <time>2024-04-13T09:47:31Z</time>
      </trkpt>
      <trkpt lat="47.16932" lon="-1.81539">
        <ele>4.6</ele>
        <time>2024-04-13T09:47:32Z</time>
      </trkpt>
      <trkpt lat="47.16937" lon="-1.81539">
        <ele>3.6</ele>
        <time>2024-04-13T09:47:33Z</time>
      </trkpt>
      <trkpt lat="47.16943" lon="-1.8154">
        <ele>3.2</ele>
        <time>2024-04-13T09:47:34Z</time>
      </trkpt>
      <trkpt lat="47.16966" lon="-1.81547">
        <ele>3.2</ele>
        <time>2024-04-13T09:47:39Z</time>
      </trkpt>
      <trkpt lat="47.16971" lon="-1.8155">
        <ele>3.2</ele>
        <time>2024-04-13T09:47:40Z</time>
      </trkpt>
      <trkpt lat="47.16981" lon="-1.81555">
        <ele>3.2</ele>
        <time>2024-04-13T09:47:42Z</time>
      </trkpt>
      <trkpt lat="47.16997" lon="-1.8156">
        <ele>3</ele>
        <time>2024-04-13T09:47:45Z</time>
      </trkpt>
      <trkpt lat="47.17003" lon="-1.81563">
        <ele>2.8</ele>
        <time>2024-04-13T09:47:46Z</time>
      </trkpt>
      <trkpt lat="47.17031" lon="-1.81575">
        <ele>3</ele>
        <time>2024-04-13T09:47:51Z</time>
      </trkpt>
      <trkpt lat="47.1705" lon="-1.81584">
        <ele>3.8</ele>
        <time>2024-04-13T09:47:55Z</time>
      </trkpt>
      <trkpt lat="47.17054" lon="-1.81586">
        <ele>3.8</ele>
        <time>2024-04-13T09:47:56Z</time>
      </trkpt>
      <trkpt lat="47.1708" lon="-1.81599">
        <ele>3.4</ele>
        <time>2024-04-13T09:48:02Z</time>
      </trkpt>
      <trkpt lat="47.17093" lon="-1.81606">
        <ele>3.2</ele>
        <time>2024-04-13T09:48:05Z</time>
      </trkpt>
      <trkpt lat="47.17103" lon="-1.8161">
        <ele>3.2</ele>
        <time>2024-04-13T09:48:07Z</time>
      </trkpt>
      <trkpt lat="47.17123" lon="-1.8162">
        <ele>3</ele>
        <time>2024-04-13T09:48:11Z</time>
      </trkpt>
      <trkpt lat="47.17135" lon="-1.81622">
        <ele>3</ele>
        <time>2024-04-13T09:48:13Z</time>
      </trkpt>
      <trkpt lat="47.17148" lon="-1.81613">
        <ele>4.2</ele>
        <time>2024-04-13T09:48:16Z</time>
      </trkpt>
      <trkpt lat="47.17167" lon="-1.81586">
        <ele>2.8</ele>
        <time>2024-04-13T09:48:21Z</time>
      </trkpt>
      <trkpt lat="47.17171" lon="-1.8158">
        <ele>2.6</ele>
        <time>2024-04-13T09:48:22Z</time>
      </trkpt>
      <trkpt lat="47.17189" lon="-1.81557">
        <ele>1.6</ele>
        <time>2024-04-13T09:48:26Z</time>
      </trkpt>
      <trkpt lat="47.17193" lon="-1.8155">
        <ele>1.4</ele>
        <time>2024-04-13T09:48:27Z</time>
      </trkpt>
      <trkpt lat="47.17197" lon="-1.81545">
        <ele>1.4</ele>
        <time>2024-04-13T09:48:28Z</time>
      </trkpt>
      <trkpt lat="47.17201" lon="-1.81539">
        <ele>1.2</ele>
        <time>2024-04-13T09:48:29Z</time>
      </trkpt>
      <trkpt lat="47.17212" lon="-1.81523">
        <ele>1.2</ele>
        <time>2024-04-13T09:48:32Z</time>
      </trkpt>
      <trkpt lat="47.17236" lon="-1.81491">
        <ele>1.8</ele>
        <time>2024-04-13T09:48:38Z</time>
      </trkpt>
      <trkpt lat="47.1726" lon="-1.81458">
        <ele>2.6</ele>
        <time>2024-04-13T09:48:44Z</time>
      </trkpt>
      <trkpt lat="47.17265" lon="-1.81452">
        <ele>4.2</ele>
        <time>2024-04-13T09:48:45Z</time>
      </trkpt>
      <trkpt lat="47.17284" lon="-1.81426">
        <ele>4.2</ele>
        <time>2024-04-13T09:48:50Z</time>
      </trkpt>
      <trkpt lat="47.1731" lon="-1.8139">
        <ele>3.8</ele>
        <time>2024-04-13T09:48:57Z</time>
      </trkpt>
      <trkpt lat="47.17317" lon="-1.81379">
        <ele>3.8</ele>
        <time>2024-04-13T09:48:59Z</time>
      </trkpt>
      <trkpt lat="47.17331" lon="-1.81366">
        <ele>3.8</ele>
        <time>2024-04-13T09:49:02Z</time>
      </trkpt>
      <trkpt lat="47.17351" lon="-1.81352">
        <ele>3.8</ele>
        <time>2024-04-13T09:49:06Z</time>
      </trkpt>
      <trkpt lat="47.17362" lon="-1.81349">
        <ele>3.6</ele>
        <time>2024-04-13T09:49:08Z</time>
      </trkpt>
      <trkpt lat="47.17388" lon="-1.81345">
        <ele>3.2</ele>
        <time>2024-04-13T09:49:13Z</time>
      </trkpt>
      <trkpt lat="47.174" lon="-1.81346">
        <ele>3.2</ele>
        <time>2024-04-13T09:49:15Z</time>
      </trkpt>
      <trkpt lat="47.17455" lon="-1.81357">
        <ele>3.2</ele>
        <time>2024-04-13T09:49:25Z</time>
      </trkpt>
      <trkpt lat="47.17461" lon="-1.81358">
        <ele>3.2</ele>
        <time>2024-04-13T09:49:26Z</time>
      </trkpt>
      <trkpt lat="47.17492" lon="-1.81363">
        <ele>3.4</ele>
        <time>2024-04-13T09:49:32Z</time>
      </trkpt>
      <trkpt lat="47.17503" lon="-1.81366">
        <ele>3.8</ele>
        <time>2024-04-13T09:49:34Z</time>
      </trkpt>
      <trkpt lat="47.17512" lon="-1.81367">
        <ele>4.2</ele>
        <time>2024-04-13T09:49:36Z</time>
      </trkpt>
      <trkpt lat="47.17517" lon="-1.81368">
        <ele>4.2</ele>
        <time>2024-04-13T09:49:37Z</time>
      </trkpt>
      <trkpt lat="47.17534" lon="-1.81372">
        <ele>4.8</ele>
        <time>2024-04-13T09:49:41Z</time>
      </trkpt>
      <trkpt lat="47.17545" lon="-1.81373">
        <ele>5.4</ele>
        <time>2024-04-13T09:49:44Z</time>
      </trkpt>
      <trkpt lat="47.17558" lon="-1.81376">
        <ele>6.2</ele>
        <time>2024-04-13T09:49:48Z</time>
      </trkpt>
      <trkpt lat="47.17562" lon="-1.81376">
        <ele>6.4</ele>
        <time>2024-04-13T09:49:49Z</time>
      </trkpt>
      <trkpt lat="47.17588" lon="-1.81381">
        <ele>6.4</ele>
        <time>2024-04-13T09:49:55Z</time>
      </trkpt>
      <trkpt lat="47.17602" lon="-1.8138">
        <ele>6.6</ele>
        <time>2024-04-13T09:49:58Z</time>
      </trkpt>
      <trkpt lat="47.17624" lon="-1.81384">
        <ele>6.8</ele>
        <time>2024-04-13T09:50:03Z</time>
      </trkpt>
      <trkpt lat="47.17661" lon="-1.81392">
        <ele>7.2</ele>
        <time>2024-04-13T09:50:11Z</time>
      </trkpt>
      <trkpt lat="47.17674" lon="-1.81395">
        <ele>7.4</ele>
        <time>2024-04-13T09:50:14Z</time>
      </trkpt>
      <trkpt lat="47.17679" lon="-1.81395">
        <ele>7.4</ele>
        <time>2024-04-13T09:50:15Z</time>
      </trkpt>
      <trkpt lat="47.17696" lon="-1.81397">
        <ele>7.4</ele>
        <time>2024-04-13T09:50:19Z</time>
      </trkpt>
      <trkpt lat="47.17701" lon="-1.81397">
        <ele>7.4</ele>
        <time>2024-04-13T09:50:20Z</time>
      </trkpt>
      <trkpt lat="47.17722" lon="-1.81399">
        <ele>7.4</ele>
        <time>2024-04-13T09:50:25Z</time>
      </trkpt>
      <trkpt lat="47.17756" lon="-1.81394">
        <ele>8.2</ele>
        <time>2024-04-13T09:50:33Z</time>
      </trkpt>
      <trkpt lat="47.17765" lon="-1.81393">
        <ele>8.4</ele>
        <time>2024-04-13T09:50:35Z</time>
      </trkpt>
      <trkpt lat="47.17781" lon="-1.8139">
        <ele>8.8</ele>
        <time>2024-04-13T09:50:39Z</time>
      </trkpt>
      <trkpt lat="47.17823" lon="-1.81383">
        <ele>9.4</ele>
        <time>2024-04-13T09:50:49Z</time>
      </trkpt>
      <trkpt lat="47.17832" lon="-1.81382">
        <ele>9.6</ele>
        <time>2024-04-13T09:50:51Z</time>
      </trkpt>
      <trkpt lat="47.17852" lon="-1.81376">
        <ele>10.2</ele>
        <time>2024-04-13T09:50:56Z</time>
      </trkpt>
      <trkpt lat="47.17856" lon="-1.81374">
        <ele>10.4</ele>
        <time>2024-04-13T09:50:57Z</time>
      </trkpt>
      <trkpt lat="47.17891" lon="-1.81369">
        <ele>10.6</ele>
        <time>2024-04-13T09:51:05Z</time>
      </trkpt>
      <trkpt lat="47.17895" lon="-1.81368">
        <ele>10.6</ele>
        <time>2024-04-13T09:51:06Z</time>
      </trkpt>
      <trkpt lat="47.17917" lon="-1.81366">
        <ele>11.2</ele>
        <time>2024-04-13T09:51:11Z</time>
      </trkpt>
      <trkpt lat="47.17925" lon="-1.81365">
        <ele>11.4</ele>
        <time>2024-04-13T09:51:13Z</time>
      </trkpt>
      <trkpt lat="47.17939" lon="-1.81362">
        <ele>11.6</ele>
        <time>2024-04-13T09:51:16Z</time>
      </trkpt>
      <trkpt lat="47.17952" lon="-1.81361">
        <ele>12.6</ele>
        <time>2024-04-13T09:51:19Z</time>
      </trkpt>
      <trkpt lat="47.17969" lon="-1.81358">
        <ele>12.8</ele>
        <time>2024-04-13T09:51:23Z</time>
      </trkpt>
      <trkpt lat="47.18021" lon="-1.81348">
        <ele>13.2</ele>
        <time>2024-04-13T09:51:35Z</time>
      </trkpt>
      <trkpt lat="47.18038" lon="-1.81346">
        <ele>13.6</ele>
        <time>2024-04-13T09:51:39Z</time>
      </trkpt>
      <trkpt lat="47.18061" lon="-1.81341">
        <ele>13.8</ele>
        <time>2024-04-13T09:51:44Z</time>
      </trkpt>
      <trkpt lat="47.18065" lon="-1.81338">
        <ele>13.8</ele>
        <time>2024-04-13T09:51:45Z</time>
      </trkpt>
      <trkpt lat="47.18069" lon="-1.81333">
        <ele>13.8</ele>
        <time>2024-04-13T09:51:46Z</time>
      </trkpt>
      <trkpt lat="47.1807" lon="-1.81321">
        <ele>14</ele>
        <time>2024-04-13T09:51:48Z</time>
      </trkpt>
      <trkpt lat="47.18066" lon="-1.8131">
        <ele>14.2</ele>
        <time>2024-04-13T09:51:50Z</time>
      </trkpt>
      <trkpt lat="47.18061" lon="-1.81299">
        <ele>14.4</ele>
        <time>2024-04-13T09:51:52Z</time>
      </trkpt>
      <trkpt lat="47.1805" lon="-1.81273">
        <ele>14.8</ele>
        <time>2024-04-13T09:51:56Z</time>
      </trkpt>
      <trkpt lat="47.18048" lon="-1.81266">
        <ele>14.8</ele>
        <time>2024-04-13T09:51:57Z</time>
      </trkpt>
      <trkpt lat="47.18031" lon="-1.81225">
        <ele>14</ele>
        <time>2024-04-13T09:52:03Z</time>
      </trkpt>
      <trkpt lat="47.18023" lon="-1.81202">
        <ele>13.8</ele>
        <time>2024-04-13T09:52:06Z</time>
      </trkpt>
      <trkpt lat="47.18014" lon="-1.8118">
        <ele>13.6</ele>
        <time>2024-04-13T09:52:09Z</time>
      </trkpt>
      <trkpt lat="47.1799" lon="-1.8112">
        <ele>13.2</ele>
        <time>2024-04-13T09:52:17Z</time>
      </trkpt>
      <trkpt lat="47.17971" lon="-1.81069">
        <ele>13</ele>
        <time>2024-04-13T09:52:24Z</time>
      </trkpt>
      <trkpt lat="47.17957" lon="-1.81045">
        <ele>13</ele>
        <time>2024-04-13T09:52:28Z</time>
      </trkpt>
      <trkpt lat="47.17949" lon="-1.81035">
        <ele>12.8</ele>
        <time>2024-04-13T09:52:30Z</time>
      </trkpt>
      <trkpt lat="47.17918" lon="-1.81002">
        <ele>12.8</ele>
        <time>2024-04-13T09:52:37Z</time>
      </trkpt>
      <trkpt lat="47.17913" lon="-1.80997">
        <ele>12.8</ele>
        <time>2024-04-13T09:52:38Z</time>
      </trkpt>
      <trkpt lat="47.17909" lon="-1.80991">
        <ele>12.6</ele>
        <time>2024-04-13T09:52:39Z</time>
      </trkpt>
      <trkpt lat="47.17898" lon="-1.80969">
        <ele>11.8</ele>
        <time>2024-04-13T09:52:42Z</time>
      </trkpt>
      <trkpt lat="47.17893" lon="-1.80945">
        <ele>11.6</ele>
        <time>2024-04-13T09:52:45Z</time>
      </trkpt>
      <trkpt lat="47.1789" lon="-1.80927">
        <ele>11.6</ele>
        <time>2024-04-13T09:52:47Z</time>
      </trkpt>
      <trkpt lat="47.17881" lon="-1.80859">
        <ele>11.4</ele>
        <time>2024-04-13T09:52:55Z</time>
      </trkpt>
      <trkpt lat="47.17873" lon="-1.80789">
        <ele>11.4</ele>
        <time>2024-04-13T09:53:03Z</time>
      </trkpt>
      <trkpt lat="47.17863" lon="-1.80711">
        <ele>10.6</ele>
        <time>2024-04-13T09:53:12Z</time>
      </trkpt>
      <trkpt lat="47.17862" lon="-1.80702">
        <ele>10.6</ele>
        <time>2024-04-13T09:53:13Z</time>
      </trkpt>
      <trkpt lat="47.1786" lon="-1.80676">
        <ele>10.6</ele>
        <time>2024-04-13T09:53:16Z</time>
      </trkpt>
      <trkpt lat="47.17859" lon="-1.80633">
        <ele>10.6</ele>
        <time>2024-04-13T09:53:21Z</time>
      </trkpt>
      <trkpt lat="47.17867" lon="-1.80572">
        <ele>10.8</ele>
        <time>2024-04-13T09:53:28Z</time>
      </trkpt>
      <trkpt lat="47.1787" lon="-1.80508">
        <ele>11.4</ele>
        <time>2024-04-13T09:53:36Z</time>
      </trkpt>
      <trkpt lat="47.17869" lon="-1.80493">
        <ele>11.6</ele>
        <time>2024-04-13T09:53:38Z</time>
      </trkpt>
      <trkpt lat="47.17869" lon="-1.80457">
        <ele>12.2</ele>
        <time>2024-04-13T09:53:43Z</time>
      </trkpt>
      <trkpt lat="47.17868" lon="-1.80443">
        <ele>12.6</ele>
        <time>2024-04-13T09:53:45Z</time>
      </trkpt>
      <trkpt lat="47.17868" lon="-1.80408">
        <ele>13.2</ele>
        <time>2024-04-13T09:53:50Z</time>
      </trkpt>
      <trkpt lat="47.17867" lon="-1.8038">
        <ele>13.8</ele>
        <time>2024-04-13T09:53:54Z</time>
      </trkpt>
      <trkpt lat="47.17868" lon="-1.80366">
        <ele>14</ele>
        <time>2024-04-13T09:53:56Z</time>
      </trkpt>
      <trkpt lat="47.1787" lon="-1.80359">
        <ele>14</ele>
        <time>2024-04-13T09:53:57Z</time>
      </trkpt>
      <trkpt lat="47.17876" lon="-1.8034">
        <ele>14</ele>
        <time>2024-04-13T09:54:00Z</time>
      </trkpt>
      <trkpt lat="47.17883" lon="-1.80329">
        <ele>14.2</ele>
        <time>2024-04-13T09:54:02Z</time>
      </trkpt>
      <trkpt lat="47.17898" lon="-1.80311">
        <ele>14.4</ele>
        <time>2024-04-13T09:54:06Z</time>
      </trkpt>
      <trkpt lat="47.17915" lon="-1.80283">
        <ele>14.6</ele>
        <time>2024-04-13T09:54:11Z</time>
      </trkpt>
      <trkpt lat="47.17917" lon="-1.80276">
        <ele>14.8</ele>
        <time>2024-04-13T09:54:12Z</time>
      </trkpt>
      <trkpt lat="47.17919" lon="-1.80269">
        <ele>14.8</ele>
        <time>2024-04-13T09:54:13Z</time>
      </trkpt>
      <trkpt lat="47.17921" lon="-1.80254">
        <ele>14.8</ele>
        <time>2024-04-13T09:54:15Z</time>
      </trkpt>
      <trkpt lat="47.17922" lon="-1.80246">
        <ele>15</ele>
        <time>2024-04-13T09:54:16Z</time>
      </trkpt>
      <trkpt lat="47.17922" lon="-1.8024">
        <ele>15</ele>
        <time>2024-04-13T09:54:17Z</time>
      </trkpt>
      <trkpt lat="47.17921" lon="-1.8019">
        <ele>14.8</ele>
        <time>2024-04-13T09:54:23Z</time>
      </trkpt>
      <trkpt lat="47.17915" lon="-1.80141">
        <ele>13.6</ele>
        <time>2024-04-13T09:54:28Z</time>
      </trkpt>
      <trkpt lat="47.17914" lon="-1.80129">
        <ele>12.8</ele>
        <time>2024-04-13T09:54:29Z</time>
      </trkpt>
      <trkpt lat="47.17914" lon="-1.80117">
        <ele>12.4</ele>
        <time>2024-04-13T09:54:30Z</time>
      </trkpt>
      <trkpt lat="47.17918" lon="-1.80093">
        <ele>12</ele>
        <time>2024-04-13T09:54:32Z</time>
      </trkpt>
      <trkpt lat="47.17921" lon="-1.80069">
        <ele>11.4</ele>
        <time>2024-04-13T09:54:34Z</time>
      </trkpt>
      <trkpt lat="47.17921" lon="-1.80057">
        <ele>11.2</ele>
        <time>2024-04-13T09:54:35Z</time>
      </trkpt>
      <trkpt lat="47.17921" lon="-1.80045">
        <ele>10.8</ele>
        <time>2024-04-13T09:54:36Z</time>
      </trkpt>
      <trkpt lat="47.17918" lon="-1.80023">
        <ele>10.4</ele>
        <time>2024-04-13T09:54:38Z</time>
      </trkpt>
      <trkpt lat="47.17913" lon="-1.79995">
        <ele>10.2</ele>
        <time>2024-04-13T09:54:41Z</time>
      </trkpt>
      <trkpt lat="47.17908" lon="-1.79969">
        <ele>10.6</ele>
        <time>2024-04-13T09:54:44Z</time>
      </trkpt>
      <trkpt lat="47.17901" lon="-1.79937">
        <ele>10.2</ele>
        <time>2024-04-13T09:54:48Z</time>
      </trkpt>
      <trkpt lat="47.17896" lon="-1.79912">
        <ele>10.2</ele>
        <time>2024-04-13T09:54:51Z</time>
      </trkpt>
      <trkpt lat="47.17893" lon="-1.79895">
        <ele>10</ele>
        <time>2024-04-13T09:54:53Z</time>
      </trkpt>
      <trkpt lat="47.17893" lon="-1.79887">
        <ele>9.8</ele>
        <time>2024-04-13T09:54:54Z</time>
      </trkpt>
      <trkpt lat="47.17893" lon="-1.79878">
        <ele>9.6</ele>
        <time>2024-04-13T09:54:55Z</time>
      </trkpt>
      <trkpt lat="47.17896" lon="-1.7986">
        <ele>9.4</ele>
        <time>2024-04-13T09:54:57Z</time>
      </trkpt>
      <trkpt lat="47.17898" lon="-1.79853">
        <ele>9.4</ele>
        <time>2024-04-13T09:54:58Z</time>
      </trkpt>
      <trkpt lat="47.17901" lon="-1.79845">
        <ele>9.4</ele>
        <time>2024-04-13T09:54:59Z</time>
      </trkpt>
      <trkpt lat="47.17908" lon="-1.79833">
        <ele>9.4</ele>
        <time>2024-04-13T09:55:01Z</time>
      </trkpt>
      <trkpt lat="47.17916" lon="-1.79823">
        <ele>9.4</ele>
        <time>2024-04-13T09:55:03Z</time>
      </trkpt>
      <trkpt lat="47.17922" lon="-1.79815">
        <ele>9.6</ele>
        <time>2024-04-13T09:55:05Z</time>
      </trkpt>
      <trkpt lat="47.17934" lon="-1.79802">
        <ele>10.2</ele>
        <time>2024-04-13T09:55:09Z</time>
      </trkpt>
      <trkpt lat="47.17936" lon="-1.79798">
        <ele>10.4</ele>
        <time>2024-04-13T09:55:10Z</time>
      </trkpt>
      <trkpt lat="47.17949" lon="-1.79784">
        <ele>11.6</ele>
        <time>2024-04-13T09:55:15Z</time>
      </trkpt>
      <trkpt lat="47.17954" lon="-1.79779">
        <ele>12</ele>
        <time>2024-04-13T09:55:17Z</time>
      </trkpt>
      <trkpt lat="47.17961" lon="-1.7977">
        <ele>12.4</ele>
        <time>2024-04-13T09:55:20Z</time>
      </trkpt>
      <trkpt lat="47.17964" lon="-1.79768">
        <ele>12.6</ele>
        <time>2024-04-13T09:55:21Z</time>
      </trkpt>
      <trkpt lat="47.17971" lon="-1.79761">
        <ele>13</ele>
        <time>2024-04-13T09:55:24Z</time>
      </trkpt>
      <trkpt lat="47.17975" lon="-1.79755">
        <ele>13.8</ele>
        <time>2024-04-13T09:55:26Z</time>
      </trkpt>
      <trkpt lat="47.17988" lon="-1.79737">
        <ele>14.6</ele>
        <time>2024-04-13T09:55:32Z</time>
      </trkpt>
      <trkpt lat="47.17994" lon="-1.79727">
        <ele>14.8</ele>
        <time>2024-04-13T09:55:35Z</time>
      </trkpt>
      <trkpt lat="47.18" lon="-1.79715">
        <ele>15.2</ele>
        <time>2024-04-13T09:55:38Z</time>
      </trkpt>
      <trkpt lat="47.18004" lon="-1.79708">
        <ele>15.4</ele>
        <time>2024-04-13T09:55:40Z</time>
      </trkpt>
      <trkpt lat="47.18015" lon="-1.79689">
        <ele>15.8</ele>
        <time>2024-04-13T09:55:45Z</time>
      </trkpt>
      <trkpt lat="47.18017" lon="-1.79685">
        <ele>16.2</ele>
        <time>2024-04-13T09:55:46Z</time>
      </trkpt>
      <trkpt lat="47.18024" lon="-1.79659">
        <ele>16.8</ele>
        <time>2024-04-13T09:55:51Z</time>
      </trkpt>
      <trkpt lat="47.18027" lon="-1.79643">
        <ele>17</ele>
        <time>2024-04-13T09:55:54Z</time>
      </trkpt>
      <trkpt lat="47.1803" lon="-1.79611">
        <ele>17.2</ele>
        <time>2024-04-13T09:56:00Z</time>
      </trkpt>
      <trkpt lat="47.18036" lon="-1.79575">
        <ele>17.2</ele>
        <time>2024-04-13T09:56:07Z</time>
      </trkpt>
      <trkpt lat="47.18038" lon="-1.7957">
        <ele>17.2</ele>
        <time>2024-04-13T09:56:08Z</time>
      </trkpt>
      <trkpt lat="47.18043" lon="-1.79559">
        <ele>17.6</ele>
        <time>2024-04-13T09:56:10Z</time>
      </trkpt>
      <trkpt lat="47.18046" lon="-1.79555">
        <ele>17.8</ele>
        <time>2024-04-13T09:56:11Z</time>
      </trkpt>
      <trkpt lat="47.1806" lon="-1.79541">
        <ele>18</ele>
        <time>2024-04-13T09:56:15Z</time>
      </trkpt>
      <trkpt lat="47.18063" lon="-1.79538">
        <ele>18</ele>
        <time>2024-04-13T09:56:16Z</time>
      </trkpt>
      <trkpt lat="47.18067" lon="-1.79536">
        <ele>18</ele>
        <time>2024-04-13T09:56:17Z</time>
      </trkpt>
      <trkpt lat="47.18075" lon="-1.7953">
        <ele>18.2</ele>
        <time>2024-04-13T09:56:19Z</time>
      </trkpt>
      <trkpt lat="47.18098" lon="-1.79511">
        <ele>18.6</ele>
        <time>2024-04-13T09:56:25Z</time>
      </trkpt>
      <trkpt lat="47.18119" lon="-1.79488">
        <ele>19</ele>
        <time>2024-04-13T09:56:31Z</time>
      </trkpt>
      <trkpt lat="47.18122" lon="-1.79483">
        <ele>19</ele>
        <time>2024-04-13T09:56:32Z</time>
      </trkpt>
      <trkpt lat="47.18125" lon="-1.79479">
        <ele>19.2</ele>
        <time>2024-04-13T09:56:33Z</time>
      </trkpt>
      <trkpt lat="47.18147" lon="-1.79448">
        <ele>19.6</ele>
        <time>2024-04-13T09:56:40Z</time>
      </trkpt>
      <trkpt lat="47.18156" lon="-1.79434">
        <ele>19.6</ele>
        <time>2024-04-13T09:56:43Z</time>
      </trkpt>
      <trkpt lat="47.18161" lon="-1.79424">
        <ele>19.6</ele>
        <time>2024-04-13T09:56:45Z</time>
      </trkpt>
      <trkpt lat="47.18165" lon="-1.79411">
        <ele>19.4</ele>
        <time>2024-04-13T09:56:47Z</time>
      </trkpt>
      <trkpt lat="47.18166" lon="-1.79398">
        <ele>19.4</ele>
        <time>2024-04-13T09:56:49Z</time>
      </trkpt>
      <trkpt lat="47.18167" lon="-1.79392">
        <ele>19.4</ele>
        <time>2024-04-13T09:56:50Z</time>
      </trkpt>
      <trkpt lat="47.18166" lon="-1.79385">
        <ele>19.2</ele>
        <time>2024-04-13T09:56:51Z</time>
      </trkpt>
      <trkpt lat="47.18164" lon="-1.79371">
        <ele>19.2</ele>
        <time>2024-04-13T09:56:53Z</time>
      </trkpt>
      <trkpt lat="47.18162" lon="-1.79364">
        <ele>19</ele>
        <time>2024-04-13T09:56:54Z</time>
      </trkpt>
      <trkpt lat="47.1816" lon="-1.79348">
        <ele>18.6</ele>
        <time>2024-04-13T09:56:56Z</time>
      </trkpt>
      <trkpt lat="47.18162" lon="-1.79341">
        <ele>18.2</ele>
        <time>2024-04-13T09:56:57Z</time>
      </trkpt>
      <trkpt lat="47.18166" lon="-1.79336">
        <ele>17.6</ele>
        <time>2024-04-13T09:56:58Z</time>
      </trkpt>
      <trkpt lat="47.18171" lon="-1.79333">
        <ele>17.2</ele>
        <time>2024-04-13T09:56:59Z</time>
      </trkpt>
      <trkpt lat="47.18174" lon="-1.79334">
        <ele>17</ele>
        <time>2024-04-13T09:57:00Z</time>
      </trkpt>
      <trkpt lat="47.18182" lon="-1.79343">
        <ele>17</ele>
        <time>2024-04-13T09:57:04Z</time>
      </trkpt>
      <trkpt lat="47.18189" lon="-1.79351">
        <ele>17.4</ele>
        <time>2024-04-13T09:57:09Z</time>
      </trkpt>
      <trkpt lat="47.18197" lon="-1.79358">
        <ele>18.4</ele>
        <time>2024-04-13T09:57:13Z</time>
      </trkpt>
      <trkpt lat="47.18202" lon="-1.79364">
        <ele>18.6</ele>
        <time>2024-04-13T09:57:16Z</time>
      </trkpt>
      <trkpt lat="47.18214" lon="-1.79379">
        <ele>19</ele>
        <time>2024-04-13T09:57:23Z</time>
      </trkpt>
      <trkpt lat="47.18218" lon="-1.79384">
        <ele>19.4</ele>
        <time>2024-04-13T09:57:25Z</time>
      </trkpt>
      <trkpt lat="47.18228" lon="-1.79395">
        <ele>20.2</ele>
        <time>2024-04-13T09:57:30Z</time>
      </trkpt>
      <trkpt lat="47.18234" lon="-1.79401">
        <ele>20.4</ele>
        <time>2024-04-13T09:57:33Z</time>
      </trkpt>
      <trkpt lat="47.18245" lon="-1.79411">
        <ele>21</ele>
        <time>2024-04-13T09:57:38Z</time>
      </trkpt>
      <trkpt lat="47.18259" lon="-1.79424">
        <ele>21.4</ele>
        <time>2024-04-13T09:57:44Z</time>
      </trkpt>
      <trkpt lat="47.18262" lon="-1.79427">
        <ele>21.6</ele>
        <time>2024-04-13T09:57:45Z</time>
      </trkpt>
      <trkpt lat="47.18278" lon="-1.79448">
        <ele>22</ele>
        <time>2024-04-13T09:57:52Z</time>
      </trkpt>
      <trkpt lat="47.18292" lon="-1.79461">
        <ele>22.2</ele>
        <time>2024-04-13T09:57:58Z</time>
      </trkpt>
      <trkpt lat="47.18311" lon="-1.79478">
        <ele>22.4</ele>
        <time>2024-04-13T09:58:05Z</time>
      </trkpt>
      <trkpt lat="47.18338" lon="-1.795">
        <ele>22.4</ele>
        <time>2024-04-13T09:58:14Z</time>
      </trkpt>
      <trkpt lat="47.18352" lon="-1.79511">
        <ele>22.6</ele>
        <time>2024-04-13T09:58:19Z</time>
      </trkpt>
      <trkpt lat="47.1836" lon="-1.79517">
        <ele>22.6</ele>
        <time>2024-04-13T09:58:22Z</time>
      </trkpt>
      <trkpt lat="47.18385" lon="-1.79538">
        <ele>22.2</ele>
        <time>2024-04-13T09:58:30Z</time>
      </trkpt>
      <trkpt lat="47.18405" lon="-1.79552">
        <ele>22</ele>
        <time>2024-04-13T09:58:37Z</time>
      </trkpt>
      <trkpt lat="47.18424" lon="-1.7957">
        <ele>21.6</ele>
        <time>2024-04-13T09:58:45Z</time>
      </trkpt>
      <trkpt lat="47.18437" lon="-1.79577">
        <ele>21.4</ele>
        <time>2024-04-13T09:58:49Z</time>
      </trkpt>
      <trkpt lat="47.18446" lon="-1.79582">
        <ele>21.4</ele>
        <time>2024-04-13T09:58:52Z</time>
      </trkpt>
      <trkpt lat="47.18469" lon="-1.79592">
        <ele>22.2</ele>
        <time>2024-04-13T09:58:58Z</time>
      </trkpt>
      <trkpt lat="47.18487" lon="-1.79599">
        <ele>22</ele>
        <time>2024-04-13T09:59:03Z</time>
      </trkpt>
      <trkpt lat="47.18508" lon="-1.7961">
        <ele>21.6</ele>
        <time>2024-04-13T09:59:09Z</time>
      </trkpt>
      <trkpt lat="47.18531" lon="-1.79622">
        <ele>21.8</ele>
        <time>2024-04-13T09:59:16Z</time>
      </trkpt>
      <trkpt lat="47.18548" lon="-1.79629">
        <ele>21.8</ele>
        <time>2024-04-13T09:59:21Z</time>
      </trkpt>
      <trkpt lat="47.18561" lon="-1.79636">
        <ele>22.6</ele>
        <time>2024-04-13T09:59:24Z</time>
      </trkpt>
      <trkpt lat="47.1857" lon="-1.7964">
        <ele>22.6</ele>
        <time>2024-04-13T09:59:26Z</time>
      </trkpt>
      <trkpt lat="47.18603" lon="-1.79656">
        <ele>22.6</ele>
        <time>2024-04-13T09:59:34Z</time>
      </trkpt>
      <trkpt lat="47.18633" lon="-1.79679">
        <ele>22</ele>
        <time>2024-04-13T09:59:42Z</time>
      </trkpt>
      <trkpt lat="47.18642" lon="-1.7968">
        <ele>22</ele>
        <time>2024-04-13T09:59:45Z</time>
      </trkpt>
      <trkpt lat="47.18645" lon="-1.79677">
        <ele>21.8</ele>
        <time>2024-04-13T09:59:46Z</time>
      </trkpt>
      <trkpt lat="47.18647" lon="-1.79673">
        <ele>21.8</ele>
        <time>2024-04-13T09:59:47Z</time>
      </trkpt>
      <trkpt lat="47.18647" lon="-1.79663">
        <ele>21.2</ele>
        <time>2024-04-13T09:59:49Z</time>
      </trkpt>
      <trkpt lat="47.18644" lon="-1.79645">
        <ele>21.2</ele>
        <time>2024-04-13T09:59:53Z</time>
      </trkpt>
      <trkpt lat="47.18642" lon="-1.79641">
        <ele>21</ele>
        <time>2024-04-13T09:59:54Z</time>
      </trkpt>
      <trkpt lat="47.18639" lon="-1.79614">
        <ele>20.8</ele>
        <time>2024-04-13T10:00:00Z</time>
      </trkpt>
      <trkpt lat="47.18639" lon="-1.79588">
        <ele>20</ele>
        <time>2024-04-13T10:00:05Z</time>
      </trkpt>
      <trkpt lat="47.18644" lon="-1.79577">
        <ele>19.6</ele>
        <time>2024-04-13T10:00:07Z</time>
      </trkpt>
      <trkpt lat="47.18647" lon="-1.79573">
        <ele>19.4</ele>
        <time>2024-04-13T10:00:08Z</time>
      </trkpt>
      <trkpt lat="47.18652" lon="-1.79571">
        <ele>18.8</ele>
        <time>2024-04-13T10:00:09Z</time>
      </trkpt>
      <trkpt lat="47.1866" lon="-1.79568">
        <ele>18</ele>
        <time>2024-04-13T10:00:11Z</time>
      </trkpt>
      <trkpt lat="47.18668" lon="-1.79565">
        <ele>17.8</ele>
        <time>2024-04-13T10:00:12Z</time>
      </trkpt>
      <trkpt lat="47.18676" lon="-1.79562">
        <ele>17.6</ele>
        <time>2024-04-13T10:00:13Z</time>
      </trkpt>
      <trkpt lat="47.18686" lon="-1.79562">
        <ele>17.4</ele>
        <time>2024-04-13T10:00:15Z</time>
      </trkpt>
      <trkpt lat="47.18692" lon="-1.79562">
        <ele>17.4</ele>
        <time>2024-04-13T10:00:16Z</time>
      </trkpt>
      <trkpt lat="47.18705" lon="-1.7956">
        <ele>17.4</ele>
        <time>2024-04-13T10:00:19Z</time>
      </trkpt>
      <trkpt lat="47.18718" lon="-1.79549">
        <ele>17.8</ele>
        <time>2024-04-13T10:00:23Z</time>
      </trkpt>
      <trkpt lat="47.18724" lon="-1.79524">
        <ele>18.8</ele>
        <time>2024-04-13T10:00:28Z</time>
      </trkpt>
      <trkpt lat="47.1873" lon="-1.79485">
        <ele>19.8</ele>
        <time>2024-04-13T10:00:35Z</time>
      </trkpt>
      <trkpt lat="47.18731" lon="-1.79478">
        <ele>19.8</ele>
        <time>2024-04-13T10:00:36Z</time>
      </trkpt>
      <trkpt lat="47.18734" lon="-1.79451">
        <ele>20.2</ele>
        <time>2024-04-13T10:00:40Z</time>
      </trkpt>
      <trkpt lat="47.18738" lon="-1.79425">
        <ele>18.8</ele>
        <time>2024-04-13T10:00:44Z</time>
      </trkpt>
      <trkpt lat="47.1874" lon="-1.79412">
        <ele>18.6</ele>
        <time>2024-04-13T10:00:46Z</time>
      </trkpt>
      <trkpt lat="47.18745" lon="-1.79373">
        <ele>19.2</ele>
        <time>2024-04-13T10:00:52Z</time>
      </trkpt>
      <trkpt lat="47.18747" lon="-1.79361">
        <ele>19.4</ele>
        <time>2024-04-13T10:00:54Z</time>
      </trkpt>
      <trkpt lat="47.18749" lon="-1.79343">
        <ele>19.8</ele>
        <time>2024-04-13T10:00:57Z</time>
      </trkpt>
      <trkpt lat="47.18753" lon="-1.7932">
        <ele>20</ele>
        <time>2024-04-13T10:01:00Z</time>
      </trkpt>
      <trkpt lat="47.18757" lon="-1.79289">
        <ele>21</ele>
        <time>2024-04-13T10:01:04Z</time>
      </trkpt>
      <trkpt lat="47.18758" lon="-1.79275">
        <ele>21.2</ele>
        <time>2024-04-13T10:01:06Z</time>
      </trkpt>
      <trkpt lat="47.18761" lon="-1.79248">
        <ele>21.4</ele>
        <time>2024-04-13T10:01:10Z</time>
      </trkpt>
      <trkpt lat="47.18762" lon="-1.79235">
        <ele>21.4</ele>
        <time>2024-04-13T10:01:12Z</time>
      </trkpt>
      <trkpt lat="47.18765" lon="-1.79206">
        <ele>21.4</ele>
        <time>2024-04-13T10:01:16Z</time>
      </trkpt>
      <trkpt lat="47.18765" lon="-1.79198">
        <ele>21.4</ele>
        <time>2024-04-13T10:01:17Z</time>
      </trkpt>
      <trkpt lat="47.18766" lon="-1.79156">
        <ele>21.4</ele>
        <time>2024-04-13T10:01:23Z</time>
      </trkpt>
      <trkpt lat="47.18766" lon="-1.79149">
        <ele>21.4</ele>
        <time>2024-04-13T10:01:24Z</time>
      </trkpt>
      <trkpt lat="47.1877" lon="-1.79115">
        <ele>21.4</ele>
        <time>2024-04-13T10:01:30Z</time>
      </trkpt>
      <trkpt lat="47.1877" lon="-1.79101">
        <ele>21.2</ele>
        <time>2024-04-13T10:01:32Z</time>
      </trkpt>
      <trkpt lat="47.18772" lon="-1.79081">
        <ele>21.2</ele>
        <time>2024-04-13T10:01:34Z</time>
      </trkpt>
      <trkpt lat="47.18774" lon="-1.79066">
        <ele>21.2</ele>
        <time>2024-04-13T10:01:36Z</time>
      </trkpt>
      <trkpt lat="47.18778" lon="-1.79041">
        <ele>21.4</ele>
        <time>2024-04-13T10:01:40Z</time>
      </trkpt>
      <trkpt lat="47.1878" lon="-1.79022">
        <ele>21.6</ele>
        <time>2024-04-13T10:01:43Z</time>
      </trkpt>
      <trkpt lat="47.18782" lon="-1.79009">
        <ele>21.8</ele>
        <time>2024-04-13T10:01:45Z</time>
      </trkpt>
      <trkpt lat="47.18788" lon="-1.78976">
        <ele>22</ele>
        <time>2024-04-13T10:01:50Z</time>
      </trkpt>
      <trkpt lat="47.18788" lon="-1.7897">
        <ele>22</ele>
        <time>2024-04-13T10:01:51Z</time>
      </trkpt>
      <trkpt lat="47.1879" lon="-1.78944">
        <ele>22.2</ele>
        <time>2024-04-13T10:01:55Z</time>
      </trkpt>
      <trkpt lat="47.1879" lon="-1.78937">
        <ele>22.2</ele>
        <time>2024-04-13T10:01:56Z</time>
      </trkpt>
      <trkpt lat="47.18794" lon="-1.78902">
        <ele>21.8</ele>
        <time>2024-04-13T10:02:02Z</time>
      </trkpt>
      <trkpt lat="47.18798" lon="-1.78867">
        <ele>21.4</ele>
        <time>2024-04-13T10:02:08Z</time>
      </trkpt>
      <trkpt lat="47.18805" lon="-1.78802">
        <ele>21.4</ele>
        <time>2024-04-13T10:02:18Z</time>
      </trkpt>
      <trkpt lat="47.1881" lon="-1.78746">
        <ele>22</ele>
        <time>2024-04-13T10:02:26Z</time>
      </trkpt>
      <trkpt lat="47.18817" lon="-1.787">
        <ele>21.6</ele>
        <time>2024-04-13T10:02:33Z</time>
      </trkpt>
      <trkpt lat="47.18823" lon="-1.78664">
        <ele>21.6</ele>
        <time>2024-04-13T10:02:40Z</time>
      </trkpt>
      <trkpt lat="47.18827" lon="-1.78612">
        <ele>21.8</ele>
        <time>2024-04-13T10:02:48Z</time>
      </trkpt>
      <trkpt lat="47.1883" lon="-1.78583">
        <ele>21.8</ele>
        <time>2024-04-13T10:02:51Z</time>
      </trkpt>
      <trkpt lat="47.18833" lon="-1.78559">
        <ele>21.8</ele>
        <time>2024-04-13T10:02:54Z</time>
      </trkpt>
      <trkpt lat="47.18839" lon="-1.78512">
        <ele>21.8</ele>
        <time>2024-04-13T10:03:00Z</time>
      </trkpt>
      <trkpt lat="47.1884" lon="-1.78505">
        <ele>21.8</ele>
        <time>2024-04-13T10:03:01Z</time>
      </trkpt>
      <trkpt lat="47.18842" lon="-1.78489">
        <ele>21.8</ele>
        <time>2024-04-13T10:03:03Z</time>
      </trkpt>
      <trkpt lat="47.18846" lon="-1.78467">
        <ele>21.6</ele>
        <time>2024-04-13T10:03:06Z</time>
      </trkpt>
      <trkpt lat="47.18854" lon="-1.7843">
        <ele>21.4</ele>
        <time>2024-04-13T10:03:11Z</time>
      </trkpt>
      <trkpt lat="47.18856" lon="-1.78417">
        <ele>21.4</ele>
        <time>2024-04-13T10:03:13Z</time>
      </trkpt>
      <trkpt lat="47.18862" lon="-1.78389">
        <ele>21</ele>
        <time>2024-04-13T10:03:17Z</time>
      </trkpt>
      <trkpt lat="47.18866" lon="-1.78373">
        <ele>21</ele>
        <time>2024-04-13T10:03:19Z</time>
      </trkpt>
      <trkpt lat="47.18867" lon="-1.78366">
        <ele>21</ele>
        <time>2024-04-13T10:03:20Z</time>
      </trkpt>
      <trkpt lat="47.18876" lon="-1.78315">
        <ele>21</ele>
        <time>2024-04-13T10:03:27Z</time>
      </trkpt>
      <trkpt lat="47.18881" lon="-1.78288">
        <ele>20.8</ele>
        <time>2024-04-13T10:03:31Z</time>
      </trkpt>
      <trkpt lat="47.18884" lon="-1.78277">
        <ele>20.8</ele>
        <time>2024-04-13T10:03:33Z</time>
      </trkpt>
      <trkpt lat="47.1889" lon="-1.78244">
        <ele>21</ele>
        <time>2024-04-13T10:03:39Z</time>
      </trkpt>
      <trkpt lat="47.18898" lon="-1.78214">
        <ele>21</ele>
        <time>2024-04-13T10:03:44Z</time>
      </trkpt>
      <trkpt lat="47.18901" lon="-1.78208">
        <ele>20.8</ele>
        <time>2024-04-13T10:03:45Z</time>
      </trkpt>
      <trkpt lat="47.18904" lon="-1.78195">
        <ele>20.4</ele>
        <time>2024-04-13T10:03:47Z</time>
      </trkpt>
      <trkpt lat="47.18909" lon="-1.78167">
        <ele>20.4</ele>
        <time>2024-04-13T10:03:51Z</time>
      </trkpt>
      <trkpt lat="47.18917" lon="-1.78125">
        <ele>19.8</ele>
        <time>2024-04-13T10:03:57Z</time>
      </trkpt>
      <trkpt lat="47.18919" lon="-1.78118">
        <ele>18.6</ele>
        <time>2024-04-13T10:03:58Z</time>
      </trkpt>
      <trkpt lat="47.18933" lon="-1.78061">
        <ele>19.8</ele>
        <time>2024-04-13T10:04:06Z</time>
      </trkpt>
      <trkpt lat="47.18936" lon="-1.78047">
        <ele>20.4</ele>
        <time>2024-04-13T10:04:08Z</time>
      </trkpt>
      <trkpt lat="47.18941" lon="-1.78026">
        <ele>20.2</ele>
        <time>2024-04-13T10:04:12Z</time>
      </trkpt>
      <trkpt lat="47.18943" lon="-1.78011">
        <ele>20.2</ele>
        <time>2024-04-13T10:04:14Z</time>
      </trkpt>
      <trkpt lat="47.1895" lon="-1.77951">
        <ele>19.8</ele>
        <time>2024-04-13T10:04:21Z</time>
      </trkpt>
      <trkpt lat="47.18953" lon="-1.77892">
        <ele>19.6</ele>
        <time>2024-04-13T10:04:29Z</time>
      </trkpt>
      <trkpt lat="47.18955" lon="-1.77832">
        <ele>19</ele>
        <time>2024-04-13T10:04:37Z</time>
      </trkpt>
      <trkpt lat="47.18958" lon="-1.77772">
        <ele>18.4</ele>
        <time>2024-04-13T10:04:45Z</time>
      </trkpt>
      <trkpt lat="47.1896" lon="-1.77758">
        <ele>18.2</ele>
        <time>2024-04-13T10:04:47Z</time>
      </trkpt>
      <trkpt lat="47.18964" lon="-1.77727">
        <ele>17.8</ele>
        <time>2024-04-13T10:04:51Z</time>
      </trkpt>
      <trkpt lat="47.18969" lon="-1.77704">
        <ele>17.4</ele>
        <time>2024-04-13T10:04:54Z</time>
      </trkpt>
      <trkpt lat="47.1897" lon="-1.77696">
        <ele>17.2</ele>
        <time>2024-04-13T10:04:56Z</time>
      </trkpt>
      <trkpt lat="47.18979" lon="-1.77649">
        <ele>17</ele>
        <time>2024-04-13T10:05:02Z</time>
      </trkpt>
      <trkpt lat="47.18984" lon="-1.77622">
        <ele>16.2</ele>
        <time>2024-04-13T10:05:05Z</time>
      </trkpt>
      <trkpt lat="47.18987" lon="-1.77603">
        <ele>16.2</ele>
        <time>2024-04-13T10:05:08Z</time>
      </trkpt>
      <trkpt lat="47.18988" lon="-1.77598">
        <ele>16.2</ele>
        <time>2024-04-13T10:05:09Z</time>
      </trkpt>
      <trkpt lat="47.18988" lon="-1.77592">
        <ele>16.2</ele>
        <time>2024-04-13T10:05:10Z</time>
      </trkpt>
      <trkpt lat="47.1899" lon="-1.77583">
        <ele>16.2</ele>
        <time>2024-04-13T10:05:13Z</time>
      </trkpt>
      <trkpt lat="47.18991" lon="-1.77565">
        <ele>16</ele>
        <time>2024-04-13T10:05:17Z</time>
      </trkpt>
      <trkpt lat="47.18995" lon="-1.77533">
        <ele>16.6</ele>
        <time>2024-04-13T10:05:24Z</time>
      </trkpt>
      <trkpt lat="47.19" lon="-1.77505">
        <ele>16.6</ele>
        <time>2024-04-13T10:05:29Z</time>
      </trkpt>
      <trkpt lat="47.19009" lon="-1.77442">
        <ele>17.2</ele>
        <time>2024-04-13T10:05:39Z</time>
      </trkpt>
      <trkpt lat="47.19016" lon="-1.77383">
        <ele>17.6</ele>
        <time>2024-04-13T10:05:48Z</time>
      </trkpt>
      <trkpt lat="47.19023" lon="-1.77333">
        <ele>18.4</ele>
        <time>2024-04-13T10:05:56Z</time>
      </trkpt>
      <trkpt lat="47.19024" lon="-1.77319">
        <ele>18.4</ele>
        <time>2024-04-13T10:05:58Z</time>
      </trkpt>
      <trkpt lat="47.19024" lon="-1.77308">
        <ele>18.6</ele>
        <time>2024-04-13T10:06:00Z</time>
      </trkpt>
      <trkpt lat="47.19026" lon="-1.77299">
        <ele>19</ele>
        <time>2024-04-13T10:06:02Z</time>
      </trkpt>
      <trkpt lat="47.19032" lon="-1.77265">
        <ele>19.4</ele>
        <time>2024-04-13T10:06:08Z</time>
      </trkpt>
      <trkpt lat="47.19042" lon="-1.77227">
        <ele>19.4</ele>
        <time>2024-04-13T10:06:14Z</time>
      </trkpt>
      <trkpt lat="47.19045" lon="-1.77221">
        <ele>19.8</ele>
        <time>2024-04-13T10:06:16Z</time>
      </trkpt>
      <trkpt lat="47.19051" lon="-1.77202">
        <ele>20.8</ele>
        <time>2024-04-13T10:06:19Z</time>
      </trkpt>
      <trkpt lat="47.1906" lon="-1.77179">
        <ele>20.8</ele>
        <time>2024-04-13T10:06:22Z</time>
      </trkpt>
      <trkpt lat="47.19077" lon="-1.77134">
        <ele>20.6</ele>
        <time>2024-04-13T10:06:29Z</time>
      </trkpt>
      <trkpt lat="47.19084" lon="-1.77114">
        <ele>20.4</ele>
        <time>2024-04-13T10:06:32Z</time>
      </trkpt>
      <trkpt lat="47.1909" lon="-1.77092">
        <ele>19.8</ele>
        <time>2024-04-13T10:06:35Z</time>
      </trkpt>
      <trkpt lat="47.19097" lon="-1.77056">
        <ele>19.2</ele>
        <time>2024-04-13T10:06:40Z</time>
      </trkpt>
      <trkpt lat="47.19099" lon="-1.77049">
        <ele>19.2</ele>
        <time>2024-04-13T10:06:41Z</time>
      </trkpt>
      <trkpt lat="47.19108" lon="-1.76994">
        <ele>19.2</ele>
        <time>2024-04-13T10:06:49Z</time>
      </trkpt>
      <trkpt lat="47.1911" lon="-1.7698">
        <ele>18.8</ele>
        <time>2024-04-13T10:06:51Z</time>
      </trkpt>
      <trkpt lat="47.19112" lon="-1.76967">
        <ele>18.6</ele>
        <time>2024-04-13T10:06:53Z</time>
      </trkpt>
      <trkpt lat="47.19113" lon="-1.76959">
        <ele>18.6</ele>
        <time>2024-04-13T10:06:54Z</time>
      </trkpt>
      <trkpt lat="47.19114" lon="-1.76953">
        <ele>18.6</ele>
        <time>2024-04-13T10:06:55Z</time>
      </trkpt>
      <trkpt lat="47.1912" lon="-1.76925">
        <ele>18.2</ele>
        <time>2024-04-13T10:06:59Z</time>
      </trkpt>
      <trkpt lat="47.19133" lon="-1.76924">
        <ele>17.8</ele>
        <time>2024-04-13T10:07:02Z</time>
      </trkpt>
      <trkpt lat="47.19138" lon="-1.76934">
        <ele>17</ele>
        <time>2024-04-13T10:07:04Z</time>
      </trkpt>
      <trkpt lat="47.19143" lon="-1.76946">
        <ele>17</ele>
        <time>2024-04-13T10:07:06Z</time>
      </trkpt>
      <trkpt lat="47.19163" lon="-1.76995">
        <ele>18.8</ele>
        <time>2024-04-13T10:07:14Z</time>
      </trkpt>
      <trkpt lat="47.19166" lon="-1.77001">
        <ele>18.8</ele>
        <time>2024-04-13T10:07:15Z</time>
      </trkpt>
      <trkpt lat="47.19173" lon="-1.7702">
        <ele>18.8</ele>
        <time>2024-04-13T10:07:18Z</time>
      </trkpt>
      <trkpt lat="47.19178" lon="-1.77033">
        <ele>18.4</ele>
        <time>2024-04-13T10:07:20Z</time>
      </trkpt>
      <trkpt lat="47.19194" lon="-1.77073">
        <ele>17.6</ele>
        <time>2024-04-13T10:07:27Z</time>
      </trkpt>
      <trkpt lat="47.19197" lon="-1.77079">
        <ele>16.8</ele>
        <time>2024-04-13T10:07:28Z</time>
      </trkpt>
      <trkpt lat="47.19204" lon="-1.77099">
        <ele>16.4</ele>
        <time>2024-04-13T10:07:30Z</time>
      </trkpt>
      <trkpt lat="47.19214" lon="-1.77125">
        <ele>16.2</ele>
        <time>2024-04-13T10:07:34Z</time>
      </trkpt>
      <trkpt lat="47.19228" lon="-1.77156">
        <ele>16.4</ele>
        <time>2024-04-13T10:07:40Z</time>
      </trkpt>
      <trkpt lat="47.19233" lon="-1.77168">
        <ele>16.2</ele>
        <time>2024-04-13T10:07:42Z</time>
      </trkpt>
      <trkpt lat="47.19243" lon="-1.77193">
        <ele>15</ele>
        <time>2024-04-13T10:07:45Z</time>
      </trkpt>
      <trkpt lat="47.19251" lon="-1.77212">
        <ele>13.8</ele>
        <time>2024-04-13T10:07:48Z</time>
      </trkpt>
      <trkpt lat="47.19256" lon="-1.77225">
        <ele>13.8</ele>
        <time>2024-04-13T10:07:50Z</time>
      </trkpt>
      <trkpt lat="47.19265" lon="-1.77236">
        <ele>13.2</ele>
        <time>2024-04-13T10:07:52Z</time>
      </trkpt>
      <trkpt lat="47.19274" lon="-1.77245">
        <ele>13</ele>
        <time>2024-04-13T10:07:54Z</time>
      </trkpt>
      <trkpt lat="47.1928" lon="-1.77249">
        <ele>13</ele>
        <time>2024-04-13T10:07:55Z</time>
      </trkpt>
      <trkpt lat="47.19296" lon="-1.77259">
        <ele>12.8</ele>
        <time>2024-04-13T10:07:58Z</time>
      </trkpt>
      <trkpt lat="47.19301" lon="-1.77264">
        <ele>12.6</ele>
        <time>2024-04-13T10:07:59Z</time>
      </trkpt>
      <trkpt lat="47.19311" lon="-1.77275">
        <ele>12.4</ele>
        <time>2024-04-13T10:08:01Z</time>
      </trkpt>
      <trkpt lat="47.19322" lon="-1.77294">
        <ele>11.8</ele>
        <time>2024-04-13T10:08:05Z</time>
      </trkpt>
      <trkpt lat="47.19326" lon="-1.77301">
        <ele>11.8</ele>
        <time>2024-04-13T10:08:06Z</time>
      </trkpt>
      <trkpt lat="47.19333" lon="-1.77316">
        <ele>11.8</ele>
        <time>2024-04-13T10:08:07Z</time>
      </trkpt>
      <trkpt lat="47.19341" lon="-1.77313">
        <ele>11.4</ele>
        <time>2024-04-13T10:08:09Z</time>
      </trkpt>
      <trkpt lat="47.19366" lon="-1.77284">
        <ele>10.8</ele>
        <time>2024-04-13T10:08:15Z</time>
      </trkpt>
      <trkpt lat="47.1937" lon="-1.77279">
        <ele>10.8</ele>
        <time>2024-04-13T10:08:16Z</time>
      </trkpt>
      <trkpt lat="47.19378" lon="-1.77271">
        <ele>10.4</ele>
        <time>2024-04-13T10:08:18Z</time>
      </trkpt>
      <trkpt lat="47.19381" lon="-1.77268">
        <ele>10.4</ele>
        <time>2024-04-13T10:08:19Z</time>
      </trkpt>
      <trkpt lat="47.19392" lon="-1.77258">
        <ele>10.8</ele>
        <time>2024-04-13T10:08:23Z</time>
      </trkpt>
      <trkpt lat="47.19396" lon="-1.77255">
        <ele>10.8</ele>
        <time>2024-04-13T10:08:24Z</time>
      </trkpt>
      <trkpt lat="47.19414" lon="-1.77235">
        <ele>11.6</ele>
        <time>2024-04-13T10:08:29Z</time>
      </trkpt>
      <trkpt lat="47.19417" lon="-1.77232">
        <ele>11.8</ele>
        <time>2024-04-13T10:08:30Z</time>
      </trkpt>
      <trkpt lat="47.19434" lon="-1.77215">
        <ele>12.6</ele>
        <time>2024-04-13T10:08:37Z</time>
      </trkpt>
      <trkpt lat="47.19441" lon="-1.77207">
        <ele>13.2</ele>
        <time>2024-04-13T10:08:40Z</time>
      </trkpt>
      <trkpt lat="47.19453" lon="-1.77196">
        <ele>13.8</ele>
        <time>2024-04-13T10:08:44Z</time>
      </trkpt>
      <trkpt lat="47.19455" lon="-1.77193">
        <ele>14</ele>
        <time>2024-04-13T10:08:45Z</time>
      </trkpt>
      <trkpt lat="47.19457" lon="-1.7719">
        <ele>14.2</ele>
        <time>2024-04-13T10:08:46Z</time>
      </trkpt>
      <trkpt lat="47.19467" lon="-1.77184">
        <ele>15.2</ele>
        <time>2024-04-13T10:08:51Z</time>
      </trkpt>
      <trkpt lat="47.19474" lon="-1.77191">
        <ele>15.4</ele>
        <time>2024-04-13T10:08:54Z</time>
      </trkpt>
      <trkpt lat="47.19478" lon="-1.77197">
        <ele>15.6</ele>
        <time>2024-04-13T10:08:55Z</time>
      </trkpt>
      <trkpt lat="47.19479" lon="-1.772">
        <ele>15.4</ele>
        <time>2024-04-13T10:08:56Z</time>
      </trkpt>
      <trkpt lat="47.19487" lon="-1.77217">
        <ele>15.2</ele>
        <time>2024-04-13T10:09:02Z</time>
      </trkpt>
      <trkpt lat="47.19493" lon="-1.77222">
        <ele>15.4</ele>
        <time>2024-04-13T10:09:05Z</time>
      </trkpt>
      <trkpt lat="47.19495" lon="-1.7722">
        <ele>15.4</ele>
        <time>2024-04-13T10:09:06Z</time>
      </trkpt>
      <trkpt lat="47.19502" lon="-1.77212">
        <ele>16.2</ele>
        <time>2024-04-13T10:09:11Z</time>
      </trkpt>
      <trkpt lat="47.19504" lon="-1.77211">
        <ele>16.4</ele>
        <time>2024-04-13T10:09:12Z</time>
      </trkpt>
      <trkpt lat="47.19512" lon="-1.77204">
        <ele>17.4</ele>
        <time>2024-04-13T10:09:16Z</time>
      </trkpt>
      <trkpt lat="47.19517" lon="-1.772">
        <ele>17.4</ele>
        <time>2024-04-13T10:09:18Z</time>
      </trkpt>
      <trkpt lat="47.19529" lon="-1.77186">
        <ele>18</ele>
        <time>2024-04-13T10:09:23Z</time>
      </trkpt>
      <trkpt lat="47.19552" lon="-1.77161">
        <ele>18</ele>
        <time>2024-04-13T10:09:31Z</time>
      </trkpt>
      <trkpt lat="47.19559" lon="-1.77138">
        <ele>17.8</ele>
        <time>2024-04-13T10:09:36Z</time>
      </trkpt>
      <trkpt lat="47.19572" lon="-1.77117">
        <ele>17.8</ele>
        <time>2024-04-13T10:09:41Z</time>
      </trkpt>
      <trkpt lat="47.19574" lon="-1.77113">
        <ele>17.6</ele>
        <time>2024-04-13T10:09:42Z</time>
      </trkpt>
      <trkpt lat="47.19577" lon="-1.77109">
        <ele>17.4</ele>
        <time>2024-04-13T10:09:43Z</time>
      </trkpt>
      <trkpt lat="47.19587" lon="-1.7709">
        <ele>16.8</ele>
        <time>2024-04-13T10:09:49Z</time>
      </trkpt>
      <trkpt lat="47.19594" lon="-1.77071">
        <ele>16.4</ele>
        <time>2024-04-13T10:09:55Z</time>
      </trkpt>
      <trkpt lat="47.19595" lon="-1.77068">
        <ele>16.4</ele>
        <time>2024-04-13T10:09:56Z</time>
      </trkpt>
      <trkpt lat="47.19603" lon="-1.77049">
        <ele>16.2</ele>
        <time>2024-04-13T10:10:02Z</time>
      </trkpt>
      <trkpt lat="47.19612" lon="-1.77035">
        <ele>16.2</ele>
        <time>2024-04-13T10:10:08Z</time>
      </trkpt>
      <trkpt lat="47.19629" lon="-1.77017">
        <ele>16.2</ele>
        <time>2024-04-13T10:10:14Z</time>
      </trkpt>
      <trkpt lat="47.19642" lon="-1.77004">
        <ele>16.2</ele>
        <time>2024-04-13T10:10:18Z</time>
      </trkpt>
      <trkpt lat="47.19645" lon="-1.77">
        <ele>16.2</ele>
        <time>2024-04-13T10:10:19Z</time>
      </trkpt>
      <trkpt lat="47.19663" lon="-1.76982">
        <ele>15.4</ele>
        <time>2024-04-13T10:10:24Z</time>
      </trkpt>
      <trkpt lat="47.19673" lon="-1.7697">
        <ele>14.6</ele>
        <time>2024-04-13T10:10:27Z</time>
      </trkpt>
      <trkpt lat="47.19684" lon="-1.76959">
        <ele>14</ele>
        <time>2024-04-13T10:10:30Z</time>
      </trkpt>
      <trkpt lat="47.19698" lon="-1.76944">
        <ele>13.6</ele>
        <time>2024-04-13T10:10:34Z</time>
      </trkpt>
      <trkpt lat="47.19707" lon="-1.76936">
        <ele>13.2</ele>
        <time>2024-04-13T10:10:36Z</time>
      </trkpt>
      <trkpt lat="47.19716" lon="-1.76928">
        <ele>13</ele>
        <time>2024-04-13T10:10:38Z</time>
      </trkpt>
      <trkpt lat="47.1972" lon="-1.76924">
        <ele>12.8</ele>
        <time>2024-04-13T10:10:39Z</time>
      </trkpt>
      <trkpt lat="47.19746" lon="-1.76897">
        <ele>12.4</ele>
        <time>2024-04-13T10:10:45Z</time>
      </trkpt>
      <trkpt lat="47.19771" lon="-1.76874">
        <ele>12</ele>
        <time>2024-04-13T10:10:51Z</time>
      </trkpt>
      <trkpt lat="47.19774" lon="-1.76869">
        <ele>12</ele>
        <time>2024-04-13T10:10:52Z</time>
      </trkpt>
      <trkpt lat="47.19778" lon="-1.76865">
        <ele>12.2</ele>
        <time>2024-04-13T10:10:53Z</time>
      </trkpt>
      <trkpt lat="47.19783" lon="-1.76853">
        <ele>12.2</ele>
        <time>2024-04-13T10:10:55Z</time>
      </trkpt>
      <trkpt lat="47.19785" lon="-1.76847">
        <ele>12.2</ele>
        <time>2024-04-13T10:10:56Z</time>
      </trkpt>
      <trkpt lat="47.19795" lon="-1.76805">
        <ele>12.4</ele>
        <time>2024-04-13T10:11:02Z</time>
      </trkpt>
      <trkpt lat="47.19798" lon="-1.7675">
        <ele>12.4</ele>
        <time>2024-04-13T10:11:09Z</time>
      </trkpt>
      <trkpt lat="47.19798" lon="-1.76742">
        <ele>12.4</ele>
        <time>2024-04-13T10:11:10Z</time>
      </trkpt>
      <trkpt lat="47.198" lon="-1.76707">
        <ele>12.2</ele>
        <time>2024-04-13T10:11:15Z</time>
      </trkpt>
      <trkpt lat="47.19801" lon="-1.767">
        <ele>12.2</ele>
        <time>2024-04-13T10:11:16Z</time>
      </trkpt>
      <trkpt lat="47.19806" lon="-1.76674">
        <ele>12</ele>
        <time>2024-04-13T10:11:20Z</time>
      </trkpt>
      <trkpt lat="47.19816" lon="-1.76624">
        <ele>12.2</ele>
        <time>2024-04-13T10:11:27Z</time>
      </trkpt>
      <trkpt lat="47.19824" lon="-1.76578">
        <ele>12.6</ele>
        <time>2024-04-13T10:11:34Z</time>
      </trkpt>
      <trkpt lat="47.19828" lon="-1.76559">
        <ele>11.8</ele>
        <time>2024-04-13T10:11:37Z</time>
      </trkpt>
      <trkpt lat="47.1983" lon="-1.76546">
        <ele>11.4</ele>
        <time>2024-04-13T10:11:39Z</time>
      </trkpt>
      <trkpt lat="47.19836" lon="-1.76521">
        <ele>11.4</ele>
        <time>2024-04-13T10:11:43Z</time>
      </trkpt>
      <trkpt lat="47.1984" lon="-1.76509">
        <ele>12</ele>
        <time>2024-04-13T10:11:45Z</time>
      </trkpt>
      <trkpt lat="47.1985" lon="-1.76479">
        <ele>12.6</ele>
        <time>2024-04-13T10:11:50Z</time>
      </trkpt>
      <trkpt lat="47.19866" lon="-1.76442">
        <ele>12.8</ele>
        <time>2024-04-13T10:11:57Z</time>
      </trkpt>
      <trkpt lat="47.19869" lon="-1.76423">
        <ele>13</ele>
        <time>2024-04-13T10:12:01Z</time>
      </trkpt>
      <trkpt lat="47.19865" lon="-1.76386">
        <ele>12.4</ele>
        <time>2024-04-13T10:12:07Z</time>
      </trkpt>
      <trkpt lat="47.19862" lon="-1.76353">
        <ele>13</ele>
        <time>2024-04-13T10:12:13Z</time>
      </trkpt>
      <trkpt lat="47.1986" lon="-1.76338">
        <ele>13.4</ele>
        <time>2024-04-13T10:12:17Z</time>
      </trkpt>
      <trkpt lat="47.19856" lon="-1.7632">
        <ele>13.6</ele>
        <time>2024-04-13T10:12:23Z</time>
      </trkpt>
      <trkpt lat="47.19857" lon="-1.76316">
        <ele>14</ele>
        <time>2024-04-13T10:12:24Z</time>
      </trkpt>
      <trkpt lat="47.19857" lon="-1.76305">
        <ele>14.2</ele>
        <time>2024-04-13T10:12:26Z</time>
      </trkpt>
      <trkpt lat="47.19856" lon="-1.76295">
        <ele>14.2</ele>
        <time>2024-04-13T10:12:28Z</time>
      </trkpt>
      <trkpt lat="47.19853" lon="-1.76269">
        <ele>14.6</ele>
        <time>2024-04-13T10:12:33Z</time>
      </trkpt>
      <trkpt lat="47.19852" lon="-1.76241">
        <ele>14.4</ele>
        <time>2024-04-13T10:12:38Z</time>
      </trkpt>
      <trkpt lat="47.19848" lon="-1.7621">
        <ele>15.2</ele>
        <time>2024-04-13T10:12:44Z</time>
      </trkpt>
      <trkpt lat="47.19854" lon="-1.7619">
        <ele>15.4</ele>
        <time>2024-04-13T10:12:49Z</time>
      </trkpt>
      <trkpt lat="47.19861" lon="-1.76184">
        <ele>15.4</ele>
        <time>2024-04-13T10:12:51Z</time>
      </trkpt>
      <trkpt lat="47.19869" lon="-1.76176">
        <ele>15.2</ele>
        <time>2024-04-13T10:12:53Z</time>
      </trkpt>
      <trkpt lat="47.19897" lon="-1.76151">
        <ele>15.2</ele>
        <time>2024-04-13T10:12:59Z</time>
      </trkpt>
      <trkpt lat="47.19932" lon="-1.76116">
        <ele>15</ele>
        <time>2024-04-13T10:13:06Z</time>
      </trkpt>
      <trkpt lat="47.19947" lon="-1.76099">
        <ele>14</ele>
        <time>2024-04-13T10:13:09Z</time>
      </trkpt>
      <trkpt lat="47.19967" lon="-1.76078">
        <ele>13.2</ele>
        <time>2024-04-13T10:13:13Z</time>
      </trkpt>
      <trkpt lat="47.19978" lon="-1.76069">
        <ele>12.6</ele>
        <time>2024-04-13T10:13:15Z</time>
      </trkpt>
      <trkpt lat="47.19993" lon="-1.76052">
        <ele>11.8</ele>
        <time>2024-04-13T10:13:18Z</time>
      </trkpt>
    </trkseg>
  </trk>
</gpx>